<?xml version="1.0" encoding="UTF-8" standalone="no" ?>
<gpx xmlns="http://www.topografix.com/GPX/1/1" xmlns:xsi="http://www.w3.org/2001/XMLSchema-instance" xsi:schemaLocation="http://www.topografix.com/GPX/1/1 http://www.topografix.com/GPX/1/1/gpx.xsd" version="1.1" creator="VisuGPX - https://www.visugpx.com">
  <metadata>
    <name>Mont Moulines en boucle depuis Beuil</name>
    <desc><![CDATA[Randonnée facile, panorama somptueux sur le Mounier depuis le Mont Moulines. Le retour par la cabane d'Ars offre de jolies vues sur les vallées environnantes et le Mercantour. Fin de parcours hors sentier pour rejoindre la voiture (il est facile de se garer au voisinage du petit pont sur le Cians)
]]></desc>
  </metadata>
  <trk>
    <name><![CDATA[SityTrail - beuil]]></name>
    <trkseg>
      <trkpt lat="44.10529" lon="6.98709">
        <ele>1444</ele>
        <time>2019-05-11T07:32:58.426Z</time>
      </trkpt>
      <trkpt lat="44.10527" lon="6.9871">
        <ele>1444</ele>
        <time>2019-05-11T07:40:40.439Z</time>
      </trkpt>
      <trkpt lat="44.10526" lon="6.98709">
        <ele>1444</ele>
        <time>2019-05-11T07:40:45.438Z</time>
      </trkpt>
      <trkpt lat="44.10526" lon="6.98709">
        <ele>1444</ele>
        <time>2019-05-11T07:40:49.444Z</time>
      </trkpt>
      <trkpt lat="44.10523" lon="6.98709">
        <ele>1444</ele>
        <time>2019-05-11T07:40:54.425Z</time>
      </trkpt>
      <trkpt lat="44.1052" lon="6.98708">
        <ele>1448</ele>
        <time>2019-05-11T07:40:58.451Z</time>
      </trkpt>
      <trkpt lat="44.10516" lon="6.98702">
        <ele>1448</ele>
        <time>2019-05-11T07:41:03.434Z</time>
      </trkpt>
      <trkpt lat="44.10514" lon="6.98701">
        <ele>1448</ele>
        <time>2019-05-11T07:41:07.505Z</time>
      </trkpt>
      <trkpt lat="44.10512" lon="6.98701">
        <ele>1443</ele>
        <time>2019-05-11T07:41:12.448Z</time>
      </trkpt>
      <trkpt lat="44.10508" lon="6.98703">
        <ele>1443</ele>
        <time>2019-05-11T07:41:17.443Z</time>
      </trkpt>
      <trkpt lat="44.10504" lon="6.98705">
        <ele>1443</ele>
        <time>2019-05-11T07:41:22.440Z</time>
      </trkpt>
      <trkpt lat="44.10503" lon="6.98704">
        <ele>1443</ele>
        <time>2019-05-11T07:41:47.437Z</time>
      </trkpt>
      <trkpt lat="44.10503" lon="6.98701">
        <ele>1443</ele>
        <time>2019-05-11T07:41:52.434Z</time>
      </trkpt>
      <trkpt lat="44.10503" lon="6.987">
        <ele>1443</ele>
        <time>2019-05-11T07:41:57.440Z</time>
      </trkpt>
      <trkpt lat="44.10501" lon="6.98696">
        <ele>1443</ele>
        <time>2019-05-11T07:42:01.457Z</time>
      </trkpt>
      <trkpt lat="44.10497" lon="6.9869">
        <ele>1443</ele>
        <time>2019-05-11T07:42:06.430Z</time>
      </trkpt>
      <trkpt lat="44.10493" lon="6.98677">
        <ele>1445</ele>
        <time>2019-05-11T07:42:34.431Z</time>
      </trkpt>
      <trkpt lat="44.10492" lon="6.98677">
        <ele>1445</ele>
        <time>2019-05-11T07:42:39.435Z</time>
      </trkpt>
      <trkpt lat="44.10491" lon="6.98677">
        <ele>1445</ele>
        <time>2019-05-11T07:42:44.433Z</time>
      </trkpt>
      <trkpt lat="44.10491" lon="6.98674">
        <ele>1445</ele>
        <time>2019-05-11T07:42:49.438Z</time>
      </trkpt>
      <trkpt lat="44.10492" lon="6.9867">
        <ele>1445</ele>
        <time>2019-05-11T07:42:54.435Z</time>
      </trkpt>
      <trkpt lat="44.10489" lon="6.98664">
        <ele>1445</ele>
        <time>2019-05-11T07:43:14.435Z</time>
      </trkpt>
      <trkpt lat="44.10489" lon="6.98658">
        <ele>1445</ele>
        <time>2019-05-11T07:43:18.452Z</time>
      </trkpt>
      <trkpt lat="44.10492" lon="6.98658">
        <ele>1445</ele>
        <time>2019-05-11T07:43:23.435Z</time>
      </trkpt>
      <trkpt lat="44.10494" lon="6.98659">
        <ele>1445</ele>
        <time>2019-05-11T07:43:27.474Z</time>
      </trkpt>
      <trkpt lat="44.10498" lon="6.98658">
        <ele>1445</ele>
        <time>2019-05-11T07:43:32.443Z</time>
      </trkpt>
      <trkpt lat="44.10503" lon="6.98655">
        <ele>1445</ele>
        <time>2019-05-11T07:44:06.436Z</time>
      </trkpt>
      <trkpt lat="44.10504" lon="6.98655">
        <ele>1445</ele>
        <time>2019-05-11T07:44:11.461Z</time>
      </trkpt>
      <trkpt lat="44.10505" lon="6.98656">
        <ele>1445</ele>
        <time>2019-05-11T07:44:16.437Z</time>
      </trkpt>
      <trkpt lat="44.10507" lon="6.98658">
        <ele>1445</ele>
        <time>2019-05-11T07:44:21.466Z</time>
      </trkpt>
      <trkpt lat="44.1051" lon="6.98657">
        <ele>1445</ele>
        <time>2019-05-11T07:44:26.437Z</time>
      </trkpt>
      <trkpt lat="44.10519" lon="6.98658">
        <ele>1452</ele>
        <time>2019-05-11T07:44:36.439Z</time>
      </trkpt>
      <trkpt lat="44.1052" lon="6.98658">
        <ele>1452</ele>
        <time>2019-05-11T07:44:41.441Z</time>
      </trkpt>
      <trkpt lat="44.1052" lon="6.98658">
        <ele>1452</ele>
        <time>2019-05-11T07:44:45.451Z</time>
      </trkpt>
      <trkpt lat="44.10523" lon="6.98657">
        <ele>1452</ele>
        <time>2019-05-11T07:44:50.441Z</time>
      </trkpt>
      <trkpt lat="44.10524" lon="6.98657">
        <ele>1452</ele>
        <time>2019-05-11T07:44:55.436Z</time>
      </trkpt>
      <trkpt lat="44.10528" lon="6.98654">
        <ele>1452</ele>
        <time>2019-05-11T07:45:04.456Z</time>
      </trkpt>
      <trkpt lat="44.10531" lon="6.98654">
        <ele>1452</ele>
        <time>2019-05-11T07:45:08.455Z</time>
      </trkpt>
      <trkpt lat="44.10533" lon="6.98655">
        <ele>1452</ele>
        <time>2019-05-11T07:45:13.436Z</time>
      </trkpt>
      <trkpt lat="44.10535" lon="6.98656">
        <ele>1452</ele>
        <time>2019-05-11T07:45:18.443Z</time>
      </trkpt>
      <trkpt lat="44.10537" lon="6.98657">
        <ele>1452</ele>
        <time>2019-05-11T07:45:23.452Z</time>
      </trkpt>
      <trkpt lat="44.1054" lon="6.98655">
        <ele>1452</ele>
        <time>2019-05-11T07:45:28.441Z</time>
      </trkpt>
      <trkpt lat="44.10542" lon="6.98652">
        <ele>1461</ele>
        <time>2019-05-11T07:45:33.438Z</time>
      </trkpt>
      <trkpt lat="44.10544" lon="6.98652">
        <ele>1461</ele>
        <time>2019-05-11T07:45:38.424Z</time>
      </trkpt>
      <trkpt lat="44.10547" lon="6.9865">
        <ele>1461</ele>
        <time>2019-05-11T07:45:43.437Z</time>
      </trkpt>
      <trkpt lat="44.10549" lon="6.98648">
        <ele>1461</ele>
        <time>2019-05-11T07:45:47.460Z</time>
      </trkpt>
      <trkpt lat="44.10562" lon="6.98643">
        <ele>1461</ele>
        <time>2019-05-11T07:46:42.436Z</time>
      </trkpt>
      <trkpt lat="44.10564" lon="6.98641">
        <ele>1461</ele>
        <time>2019-05-11T07:46:47.453Z</time>
      </trkpt>
      <trkpt lat="44.10565" lon="6.9864">
        <ele>1461</ele>
        <time>2019-05-11T07:46:52.438Z</time>
      </trkpt>
      <trkpt lat="44.10565" lon="6.98638">
        <ele>1461</ele>
        <time>2019-05-11T07:46:57.427Z</time>
      </trkpt>
      <trkpt lat="44.10564" lon="6.98633">
        <ele>1461</ele>
        <time>2019-05-11T07:47:02.432Z</time>
      </trkpt>
      <trkpt lat="44.10564" lon="6.98632">
        <ele>1461</ele>
        <time>2019-05-11T07:47:06.440Z</time>
      </trkpt>
      <trkpt lat="44.10565" lon="6.98627">
        <ele>1461</ele>
        <time>2019-05-11T07:47:11.445Z</time>
      </trkpt>
      <trkpt lat="44.10566" lon="6.98623">
        <ele>1465</ele>
        <time>2019-05-11T07:47:16.437Z</time>
      </trkpt>
      <trkpt lat="44.10566" lon="6.98621">
        <ele>1465</ele>
        <time>2019-05-11T07:47:21.436Z</time>
      </trkpt>
      <trkpt lat="44.10568" lon="6.98619">
        <ele>1465</ele>
        <time>2019-05-11T07:47:26.435Z</time>
      </trkpt>
      <trkpt lat="44.10574" lon="6.98619">
        <ele>1471</ele>
        <time>2019-05-11T07:47:36.448Z</time>
      </trkpt>
      <trkpt lat="44.10575" lon="6.98624">
        <ele>1471</ele>
        <time>2019-05-11T07:47:41.433Z</time>
      </trkpt>
      <trkpt lat="44.10576" lon="6.98627">
        <ele>1465</ele>
        <time>2019-05-11T07:47:45.475Z</time>
      </trkpt>
      <trkpt lat="44.10576" lon="6.98629">
        <ele>1465</ele>
        <time>2019-05-11T07:47:50.452Z</time>
      </trkpt>
      <trkpt lat="44.10577" lon="6.98628">
        <ele>1465</ele>
        <time>2019-05-11T07:47:55.430Z</time>
      </trkpt>
      <trkpt lat="44.10579" lon="6.98623">
        <ele>1471</ele>
        <time>2019-05-11T07:48:00.464Z</time>
      </trkpt>
      <trkpt lat="44.10581" lon="6.98618">
        <ele>1471</ele>
        <time>2019-05-11T07:48:05.433Z</time>
      </trkpt>
      <trkpt lat="44.10584" lon="6.98616">
        <ele>1471</ele>
        <time>2019-05-11T07:48:10.481Z</time>
      </trkpt>
      <trkpt lat="44.10585" lon="6.98616">
        <ele>1471</ele>
        <time>2019-05-11T07:48:15.437Z</time>
      </trkpt>
      <trkpt lat="44.10588" lon="6.98614">
        <ele>1471</ele>
        <time>2019-05-11T07:48:20.440Z</time>
      </trkpt>
      <trkpt lat="44.1059" lon="6.98611">
        <ele>1471</ele>
        <time>2019-05-11T07:48:25.434Z</time>
      </trkpt>
      <trkpt lat="44.10593" lon="6.9861">
        <ele>1471</ele>
        <time>2019-05-11T07:48:30.429Z</time>
      </trkpt>
      <trkpt lat="44.10594" lon="6.9861">
        <ele>1471</ele>
        <time>2019-05-11T07:48:35.446Z</time>
      </trkpt>
      <trkpt lat="44.10597" lon="6.9861">
        <ele>1471</ele>
        <time>2019-05-11T07:48:40.430Z</time>
      </trkpt>
      <trkpt lat="44.106" lon="6.98607">
        <ele>1479</ele>
        <time>2019-05-11T07:48:45.433Z</time>
      </trkpt>
      <trkpt lat="44.10605" lon="6.98607">
        <ele>1479</ele>
        <time>2019-05-11T07:49:03.476Z</time>
      </trkpt>
      <trkpt lat="44.10609" lon="6.98605">
        <ele>1479</ele>
        <time>2019-05-11T07:49:08.437Z</time>
      </trkpt>
      <trkpt lat="44.10611" lon="6.98603">
        <ele>1479</ele>
        <time>2019-05-11T07:49:13.442Z</time>
      </trkpt>
      <trkpt lat="44.10613" lon="6.98599">
        <ele>1479</ele>
        <time>2019-05-11T07:49:18.433Z</time>
      </trkpt>
      <trkpt lat="44.10617" lon="6.98599">
        <ele>1479</ele>
        <time>2019-05-11T07:49:23.441Z</time>
      </trkpt>
      <trkpt lat="44.10622" lon="6.986">
        <ele>1479</ele>
        <time>2019-05-11T07:49:33.454Z</time>
      </trkpt>
      <trkpt lat="44.10624" lon="6.98596">
        <ele>1482</ele>
        <time>2019-05-11T07:49:38.445Z</time>
      </trkpt>
      <trkpt lat="44.10624" lon="6.98596">
        <ele>1482</ele>
        <time>2019-05-11T07:49:43.433Z</time>
      </trkpt>
      <trkpt lat="44.10626" lon="6.98595">
        <ele>1487</ele>
        <time>2019-05-11T07:49:48.452Z</time>
      </trkpt>
      <trkpt lat="44.10629" lon="6.98595">
        <ele>1487</ele>
        <time>2019-05-11T07:49:53.437Z</time>
      </trkpt>
      <trkpt lat="44.10633" lon="6.98591">
        <ele>1487</ele>
        <time>2019-05-11T07:50:02.448Z</time>
      </trkpt>
      <trkpt lat="44.10636" lon="6.9859">
        <ele>1487</ele>
        <time>2019-05-11T07:50:08.405Z</time>
      </trkpt>
      <trkpt lat="44.1064" lon="6.9859">
        <ele>1487</ele>
        <time>2019-05-11T07:50:13.434Z</time>
      </trkpt>
      <trkpt lat="44.1064" lon="6.9859">
        <ele>1487</ele>
        <time>2019-05-11T07:50:18.428Z</time>
      </trkpt>
      <trkpt lat="44.10641" lon="6.98589">
        <ele>1487</ele>
        <time>2019-05-11T07:50:23.431Z</time>
      </trkpt>
      <trkpt lat="44.10644" lon="6.98588">
        <ele>1487</ele>
        <time>2019-05-11T07:50:27.407Z</time>
      </trkpt>
      <trkpt lat="44.10646" lon="6.98587">
        <ele>1487</ele>
        <time>2019-05-11T07:50:32.432Z</time>
      </trkpt>
      <trkpt lat="44.10649" lon="6.98588">
        <ele>1487</ele>
        <time>2019-05-11T07:50:37.430Z</time>
      </trkpt>
      <trkpt lat="44.10651" lon="6.98586">
        <ele>1487</ele>
        <time>2019-05-11T07:50:42.434Z</time>
      </trkpt>
      <trkpt lat="44.10654" lon="6.98589">
        <ele>1494</ele>
        <time>2019-05-11T07:50:47.469Z</time>
      </trkpt>
      <trkpt lat="44.10658" lon="6.98589">
        <ele>1494</ele>
        <time>2019-05-11T07:50:52.453Z</time>
      </trkpt>
      <trkpt lat="44.10661" lon="6.98585">
        <ele>1494</ele>
        <time>2019-05-11T07:50:57.445Z</time>
      </trkpt>
      <trkpt lat="44.10665" lon="6.98588">
        <ele>1494</ele>
        <time>2019-05-11T07:51:02.431Z</time>
      </trkpt>
      <trkpt lat="44.10668" lon="6.9859">
        <ele>1494</ele>
        <time>2019-05-11T07:51:07.428Z</time>
      </trkpt>
      <trkpt lat="44.1067" lon="6.98592">
        <ele>1494</ele>
        <time>2019-05-11T07:51:12.432Z</time>
      </trkpt>
      <trkpt lat="44.10672" lon="6.98592">
        <ele>1494</ele>
        <time>2019-05-11T07:51:17.461Z</time>
      </trkpt>
      <trkpt lat="44.10673" lon="6.98589">
        <ele>1494</ele>
        <time>2019-05-11T07:51:22.449Z</time>
      </trkpt>
      <trkpt lat="44.10675" lon="6.98589">
        <ele>1494</ele>
        <time>2019-05-11T07:51:27.457Z</time>
      </trkpt>
      <trkpt lat="44.1068" lon="6.98586">
        <ele>1494</ele>
        <time>2019-05-11T07:51:32.441Z</time>
      </trkpt>
      <trkpt lat="44.10685" lon="6.9858">
        <ele>1498</ele>
        <time>2019-05-11T07:51:42.431Z</time>
      </trkpt>
      <trkpt lat="44.10686" lon="6.98578">
        <ele>1498</ele>
        <time>2019-05-11T07:51:47.447Z</time>
      </trkpt>
      <trkpt lat="44.10687" lon="6.9858">
        <ele>1498</ele>
        <time>2019-05-11T07:51:52.432Z</time>
      </trkpt>
      <trkpt lat="44.10691" lon="6.98581">
        <ele>1498</ele>
        <time>2019-05-11T07:51:57.436Z</time>
      </trkpt>
      <trkpt lat="44.10694" lon="6.98578">
        <ele>1498</ele>
        <time>2019-05-11T07:52:02.429Z</time>
      </trkpt>
      <trkpt lat="44.10696" lon="6.98577">
        <ele>1498</ele>
        <time>2019-05-11T07:52:07.406Z</time>
      </trkpt>
      <trkpt lat="44.10701" lon="6.98576">
        <ele>1498</ele>
        <time>2019-05-11T07:52:12.453Z</time>
      </trkpt>
      <trkpt lat="44.10704" lon="6.98579">
        <ele>1498</ele>
        <time>2019-05-11T07:52:17.429Z</time>
      </trkpt>
      <trkpt lat="44.10706" lon="6.98581">
        <ele>1498</ele>
        <time>2019-05-11T07:52:22.432Z</time>
      </trkpt>
      <trkpt lat="44.10708" lon="6.9858">
        <ele>1498</ele>
        <time>2019-05-11T07:52:26.455Z</time>
      </trkpt>
      <trkpt lat="44.10712" lon="6.98579">
        <ele>1505</ele>
        <time>2019-05-11T07:52:31.436Z</time>
      </trkpt>
      <trkpt lat="44.10715" lon="6.98577">
        <ele>1505</ele>
        <time>2019-05-11T07:52:36.431Z</time>
      </trkpt>
      <trkpt lat="44.10719" lon="6.98575">
        <ele>1505</ele>
        <time>2019-05-11T07:52:41.450Z</time>
      </trkpt>
      <trkpt lat="44.10717" lon="6.98572">
        <ele>1505</ele>
        <time>2019-05-11T07:53:46.429Z</time>
      </trkpt>
      <trkpt lat="44.10722" lon="6.9857">
        <ele>1505</ele>
        <time>2019-05-11T07:53:51.427Z</time>
      </trkpt>
      <trkpt lat="44.10725" lon="6.98569">
        <ele>1504</ele>
        <time>2019-05-11T07:53:56.443Z</time>
      </trkpt>
      <trkpt lat="44.10725" lon="6.98566">
        <ele>1504</ele>
        <time>2019-05-11T07:54:01.414Z</time>
      </trkpt>
      <trkpt lat="44.10728" lon="6.98563">
        <ele>1504</ele>
        <time>2019-05-11T07:54:05.455Z</time>
      </trkpt>
      <trkpt lat="44.10731" lon="6.98563">
        <ele>1504</ele>
        <time>2019-05-11T07:54:10.427Z</time>
      </trkpt>
      <trkpt lat="44.10735" lon="6.98562">
        <ele>1504</ele>
        <time>2019-05-11T07:54:15.437Z</time>
      </trkpt>
      <trkpt lat="44.10737" lon="6.98559">
        <ele>1514</ele>
        <time>2019-05-11T07:54:20.433Z</time>
      </trkpt>
      <trkpt lat="44.10738" lon="6.98558">
        <ele>1514</ele>
        <time>2019-05-11T07:54:25.430Z</time>
      </trkpt>
      <trkpt lat="44.1074" lon="6.98558">
        <ele>1514</ele>
        <time>2019-05-11T07:54:30.453Z</time>
      </trkpt>
      <trkpt lat="44.10744" lon="6.98557">
        <ele>1514</ele>
        <time>2019-05-11T07:54:35.450Z</time>
      </trkpt>
      <trkpt lat="44.10745" lon="6.98558">
        <ele>1514</ele>
        <time>2019-05-11T07:54:40.429Z</time>
      </trkpt>
      <trkpt lat="44.10749" lon="6.98558">
        <ele>1514</ele>
        <time>2019-05-11T07:54:45.427Z</time>
      </trkpt>
      <trkpt lat="44.10752" lon="6.98558">
        <ele>1514</ele>
        <time>2019-05-11T07:54:50.424Z</time>
      </trkpt>
      <trkpt lat="44.10754" lon="6.98558">
        <ele>1514</ele>
        <time>2019-05-11T07:54:55.428Z</time>
      </trkpt>
      <trkpt lat="44.10755" lon="6.98557">
        <ele>1514</ele>
        <time>2019-05-11T07:55:00.428Z</time>
      </trkpt>
      <trkpt lat="44.10758" lon="6.98556">
        <ele>1514</ele>
        <time>2019-05-11T07:55:05.417Z</time>
      </trkpt>
      <trkpt lat="44.10761" lon="6.98555">
        <ele>1514</ele>
        <time>2019-05-11T07:55:10.457Z</time>
      </trkpt>
      <trkpt lat="44.10762" lon="6.98553">
        <ele>1514</ele>
        <time>2019-05-11T07:55:15.424Z</time>
      </trkpt>
      <trkpt lat="44.10765" lon="6.98552">
        <ele>1521</ele>
        <time>2019-05-11T07:55:20.429Z</time>
      </trkpt>
      <trkpt lat="44.10765" lon="6.98549">
        <ele>1521</ele>
        <time>2019-05-11T07:55:25.426Z</time>
      </trkpt>
      <trkpt lat="44.10766" lon="6.98549">
        <ele>1521</ele>
        <time>2019-05-11T07:55:30.425Z</time>
      </trkpt>
      <trkpt lat="44.10769" lon="6.98548">
        <ele>1521</ele>
        <time>2019-05-11T07:55:35.445Z</time>
      </trkpt>
      <trkpt lat="44.10773" lon="6.98547">
        <ele>1521</ele>
        <time>2019-05-11T07:55:40.427Z</time>
      </trkpt>
      <trkpt lat="44.10777" lon="6.98544">
        <ele>1521</ele>
        <time>2019-05-11T07:55:45.426Z</time>
      </trkpt>
      <trkpt lat="44.10779" lon="6.98543">
        <ele>1521</ele>
        <time>2019-05-11T07:55:50.439Z</time>
      </trkpt>
      <trkpt lat="44.10781" lon="6.98542">
        <ele>1521</ele>
        <time>2019-05-11T07:55:55.429Z</time>
      </trkpt>
      <trkpt lat="44.10785" lon="6.98542">
        <ele>1521</ele>
        <time>2019-05-11T07:56:00.446Z</time>
      </trkpt>
      <trkpt lat="44.10789" lon="6.98539">
        <ele>1521</ele>
        <time>2019-05-11T07:56:05.434Z</time>
      </trkpt>
      <trkpt lat="44.10794" lon="6.98537">
        <ele>1531</ele>
        <time>2019-05-11T07:56:24.470Z</time>
      </trkpt>
      <trkpt lat="44.10797" lon="6.98537">
        <ele>1531</ele>
        <time>2019-05-11T07:56:29.429Z</time>
      </trkpt>
      <trkpt lat="44.10799" lon="6.98538">
        <ele>1531</ele>
        <time>2019-05-11T07:56:34.428Z</time>
      </trkpt>
      <trkpt lat="44.10801" lon="6.98538">
        <ele>1531</ele>
        <time>2019-05-11T07:56:39.428Z</time>
      </trkpt>
      <trkpt lat="44.10803" lon="6.98537">
        <ele>1531</ele>
        <time>2019-05-11T07:56:44.423Z</time>
      </trkpt>
      <trkpt lat="44.10807" lon="6.98535">
        <ele>1531</ele>
        <time>2019-05-11T07:56:54.427Z</time>
      </trkpt>
      <trkpt lat="44.1081" lon="6.98534">
        <ele>1531</ele>
        <time>2019-05-11T07:56:59.423Z</time>
      </trkpt>
      <trkpt lat="44.10813" lon="6.98535">
        <ele>1531</ele>
        <time>2019-05-11T07:57:04.446Z</time>
      </trkpt>
      <trkpt lat="44.10814" lon="6.98534">
        <ele>1531</ele>
        <time>2019-05-11T07:57:09.426Z</time>
      </trkpt>
      <trkpt lat="44.10816" lon="6.98529">
        <ele>1531</ele>
        <time>2019-05-11T07:57:14.428Z</time>
      </trkpt>
      <trkpt lat="44.10823" lon="6.98522">
        <ele>1538</ele>
        <time>2019-05-11T07:57:39.427Z</time>
      </trkpt>
      <trkpt lat="44.10823" lon="6.98521">
        <ele>1538</ele>
        <time>2019-05-11T07:57:44.429Z</time>
      </trkpt>
      <trkpt lat="44.10824" lon="6.98517">
        <ele>1538</ele>
        <time>2019-05-11T07:57:49.427Z</time>
      </trkpt>
      <trkpt lat="44.10826" lon="6.98514">
        <ele>1538</ele>
        <time>2019-05-11T07:57:53.445Z</time>
      </trkpt>
      <trkpt lat="44.10827" lon="6.98513">
        <ele>1538</ele>
        <time>2019-05-11T07:57:58.473Z</time>
      </trkpt>
      <trkpt lat="44.10832" lon="6.98511">
        <ele>1538</ele>
        <time>2019-05-11T07:58:08.428Z</time>
      </trkpt>
      <trkpt lat="44.10834" lon="6.9851">
        <ele>1538</ele>
        <time>2019-05-11T07:58:13.429Z</time>
      </trkpt>
      <trkpt lat="44.10836" lon="6.98509">
        <ele>1538</ele>
        <time>2019-05-11T07:58:17.476Z</time>
      </trkpt>
      <trkpt lat="44.10837" lon="6.98509">
        <ele>1538</ele>
        <time>2019-05-11T07:58:22.402Z</time>
      </trkpt>
      <trkpt lat="44.10841" lon="6.98508">
        <ele>1538</ele>
        <time>2019-05-11T07:58:26.436Z</time>
      </trkpt>
      <trkpt lat="44.10844" lon="6.9851">
        <ele>1538</ele>
        <time>2019-05-11T07:58:31.430Z</time>
      </trkpt>
      <trkpt lat="44.10847" lon="6.98511">
        <ele>1538</ele>
        <time>2019-05-11T07:58:36.444Z</time>
      </trkpt>
      <trkpt lat="44.10851" lon="6.98511">
        <ele>1545</ele>
        <time>2019-05-11T07:58:41.427Z</time>
      </trkpt>
      <trkpt lat="44.10854" lon="6.98514">
        <ele>1543</ele>
        <time>2019-05-11T07:58:46.427Z</time>
      </trkpt>
      <trkpt lat="44.10856" lon="6.98514">
        <ele>1543</ele>
        <time>2019-05-11T07:58:50.450Z</time>
      </trkpt>
      <trkpt lat="44.10859" lon="6.98514">
        <ele>1543</ele>
        <time>2019-05-11T07:58:55.426Z</time>
      </trkpt>
      <trkpt lat="44.1086" lon="6.98514">
        <ele>1545</ele>
        <time>2019-05-11T07:58:59.447Z</time>
      </trkpt>
      <trkpt lat="44.10862" lon="6.98512">
        <ele>1545</ele>
        <time>2019-05-11T07:59:04.426Z</time>
      </trkpt>
      <trkpt lat="44.10867" lon="6.98511">
        <ele>1545</ele>
        <time>2019-05-11T07:59:09.429Z</time>
      </trkpt>
      <trkpt lat="44.10872" lon="6.9851">
        <ele>1545</ele>
        <time>2019-05-11T07:59:23.425Z</time>
      </trkpt>
      <trkpt lat="44.10876" lon="6.9851">
        <ele>1554</ele>
        <time>2019-05-11T07:59:28.439Z</time>
      </trkpt>
      <trkpt lat="44.10877" lon="6.98509">
        <ele>1554</ele>
        <time>2019-05-11T07:59:33.429Z</time>
      </trkpt>
      <trkpt lat="44.1088" lon="6.98511">
        <ele>1554</ele>
        <time>2019-05-11T07:59:38.427Z</time>
      </trkpt>
      <trkpt lat="44.10882" lon="6.98511">
        <ele>1554</ele>
        <time>2019-05-11T07:59:43.430Z</time>
      </trkpt>
      <trkpt lat="44.10886" lon="6.98505">
        <ele>1554</ele>
        <time>2019-05-11T07:59:53.415Z</time>
      </trkpt>
      <trkpt lat="44.10887" lon="6.98506">
        <ele>1554</ele>
        <time>2019-05-11T07:59:57.427Z</time>
      </trkpt>
      <trkpt lat="44.1089" lon="6.98506">
        <ele>1554</ele>
        <time>2019-05-11T08:00:01.459Z</time>
      </trkpt>
      <trkpt lat="44.10892" lon="6.98504">
        <ele>1554</ele>
        <time>2019-05-11T08:00:06.449Z</time>
      </trkpt>
      <trkpt lat="44.10894" lon="6.98504">
        <ele>1554</ele>
        <time>2019-05-11T08:00:11.432Z</time>
      </trkpt>
      <trkpt lat="44.10896" lon="6.98502">
        <ele>1554</ele>
        <time>2019-05-11T08:00:16.441Z</time>
      </trkpt>
      <trkpt lat="44.10899" lon="6.985">
        <ele>1554</ele>
        <time>2019-05-11T08:00:21.425Z</time>
      </trkpt>
      <trkpt lat="44.10902" lon="6.98498">
        <ele>1554</ele>
        <time>2019-05-11T08:00:26.416Z</time>
      </trkpt>
      <trkpt lat="44.10904" lon="6.98497">
        <ele>1560</ele>
        <time>2019-05-11T08:00:30.432Z</time>
      </trkpt>
      <trkpt lat="44.10907" lon="6.98497">
        <ele>1560</ele>
        <time>2019-05-11T08:00:35.432Z</time>
      </trkpt>
      <trkpt lat="44.10912" lon="6.98495">
        <ele>1560</ele>
        <time>2019-05-11T08:00:40.426Z</time>
      </trkpt>
      <trkpt lat="44.10913" lon="6.98494">
        <ele>1560</ele>
        <time>2019-05-11T08:00:45.429Z</time>
      </trkpt>
      <trkpt lat="44.10916" lon="6.98494">
        <ele>1560</ele>
        <time>2019-05-11T08:00:50.427Z</time>
      </trkpt>
      <trkpt lat="44.10919" lon="6.98492">
        <ele>1560</ele>
        <time>2019-05-11T08:00:55.432Z</time>
      </trkpt>
      <trkpt lat="44.10921" lon="6.98493">
        <ele>1560</ele>
        <time>2019-05-11T08:01:00.412Z</time>
      </trkpt>
      <trkpt lat="44.10925" lon="6.98493">
        <ele>1560</ele>
        <time>2019-05-11T08:01:05.450Z</time>
      </trkpt>
      <trkpt lat="44.10928" lon="6.98492">
        <ele>1560</ele>
        <time>2019-05-11T08:01:10.411Z</time>
      </trkpt>
      <trkpt lat="44.10931" lon="6.98492">
        <ele>1566</ele>
        <time>2019-05-11T08:01:14.436Z</time>
      </trkpt>
      <trkpt lat="44.10936" lon="6.98491">
        <ele>1566</ele>
        <time>2019-05-11T08:01:19.432Z</time>
      </trkpt>
      <trkpt lat="44.10939" lon="6.98492">
        <ele>1566</ele>
        <time>2019-05-11T08:01:24.429Z</time>
      </trkpt>
      <trkpt lat="44.10941" lon="6.98491">
        <ele>1566</ele>
        <time>2019-05-11T08:01:29.439Z</time>
      </trkpt>
      <trkpt lat="44.10945" lon="6.98489">
        <ele>1566</ele>
        <time>2019-05-11T08:01:34.431Z</time>
      </trkpt>
      <trkpt lat="44.10948" lon="6.98488">
        <ele>1566</ele>
        <time>2019-05-11T08:01:39.431Z</time>
      </trkpt>
      <trkpt lat="44.1095" lon="6.98488">
        <ele>1566</ele>
        <time>2019-05-11T08:01:43.441Z</time>
      </trkpt>
      <trkpt lat="44.10954" lon="6.9849">
        <ele>1566</ele>
        <time>2019-05-11T08:01:48.427Z</time>
      </trkpt>
      <trkpt lat="44.10957" lon="6.98488">
        <ele>1566</ele>
        <time>2019-05-11T08:01:53.428Z</time>
      </trkpt>
      <trkpt lat="44.10959" lon="6.98488">
        <ele>1570</ele>
        <time>2019-05-11T08:01:58.426Z</time>
      </trkpt>
      <trkpt lat="44.10961" lon="6.98487">
        <ele>1570</ele>
        <time>2019-05-11T08:02:03.427Z</time>
      </trkpt>
      <trkpt lat="44.10964" lon="6.98484">
        <ele>1570</ele>
        <time>2019-05-11T08:02:07.441Z</time>
      </trkpt>
      <trkpt lat="44.10966" lon="6.98483">
        <ele>1570</ele>
        <time>2019-05-11T08:02:12.421Z</time>
      </trkpt>
      <trkpt lat="44.10969" lon="6.98482">
        <ele>1570</ele>
        <time>2019-05-11T08:02:17.423Z</time>
      </trkpt>
      <trkpt lat="44.10972" lon="6.98484">
        <ele>1570</ele>
        <time>2019-05-11T08:02:22.441Z</time>
      </trkpt>
      <trkpt lat="44.10975" lon="6.98483">
        <ele>1570</ele>
        <time>2019-05-11T08:02:27.427Z</time>
      </trkpt>
      <trkpt lat="44.10978" lon="6.98484">
        <ele>1570</ele>
        <time>2019-05-11T08:02:32.424Z</time>
      </trkpt>
      <trkpt lat="44.10981" lon="6.98485">
        <ele>1570</ele>
        <time>2019-05-11T08:02:37.424Z</time>
      </trkpt>
      <trkpt lat="44.10983" lon="6.98484">
        <ele>1570</ele>
        <time>2019-05-11T08:02:42.441Z</time>
      </trkpt>
      <trkpt lat="44.10987" lon="6.98483">
        <ele>1573</ele>
        <time>2019-05-11T08:02:47.432Z</time>
      </trkpt>
      <trkpt lat="44.1099" lon="6.98482">
        <ele>1573</ele>
        <time>2019-05-11T08:02:52.428Z</time>
      </trkpt>
      <trkpt lat="44.10993" lon="6.9848">
        <ele>1573</ele>
        <time>2019-05-11T08:02:57.431Z</time>
      </trkpt>
      <trkpt lat="44.10996" lon="6.98479">
        <ele>1573</ele>
        <time>2019-05-11T08:03:02.431Z</time>
      </trkpt>
      <trkpt lat="44.11" lon="6.98478">
        <ele>1573</ele>
        <time>2019-05-11T08:03:07.420Z</time>
      </trkpt>
      <trkpt lat="44.11005" lon="6.98478">
        <ele>1573</ele>
        <time>2019-05-11T08:03:12.430Z</time>
      </trkpt>
      <trkpt lat="44.11007" lon="6.98478">
        <ele>1573</ele>
        <time>2019-05-11T08:03:16.453Z</time>
      </trkpt>
      <trkpt lat="44.11009" lon="6.98478">
        <ele>1573</ele>
        <time>2019-05-11T08:03:21.426Z</time>
      </trkpt>
      <trkpt lat="44.11011" lon="6.9848">
        <ele>1573</ele>
        <time>2019-05-11T08:03:26.453Z</time>
      </trkpt>
      <trkpt lat="44.11015" lon="6.9848">
        <ele>1579</ele>
        <time>2019-05-11T08:03:31.423Z</time>
      </trkpt>
      <trkpt lat="44.11018" lon="6.98479">
        <ele>1579</ele>
        <time>2019-05-11T08:03:35.481Z</time>
      </trkpt>
      <trkpt lat="44.11021" lon="6.98478">
        <ele>1579</ele>
        <time>2019-05-11T08:03:40.420Z</time>
      </trkpt>
      <trkpt lat="44.11025" lon="6.98476">
        <ele>1579</ele>
        <time>2019-05-11T08:03:45.429Z</time>
      </trkpt>
      <trkpt lat="44.1103" lon="6.98476">
        <ele>1579</ele>
        <time>2019-05-11T08:03:50.441Z</time>
      </trkpt>
      <trkpt lat="44.11035" lon="6.98475">
        <ele>1579</ele>
        <time>2019-05-11T08:03:55.427Z</time>
      </trkpt>
      <trkpt lat="44.11038" lon="6.98476">
        <ele>1579</ele>
        <time>2019-05-11T08:04:00.425Z</time>
      </trkpt>
      <trkpt lat="44.11042" lon="6.98475">
        <ele>1582</ele>
        <time>2019-05-11T08:04:05.422Z</time>
      </trkpt>
      <trkpt lat="44.11045" lon="6.98476">
        <ele>1582</ele>
        <time>2019-05-11T08:04:10.420Z</time>
      </trkpt>
      <trkpt lat="44.11048" lon="6.98476">
        <ele>1582</ele>
        <time>2019-05-11T08:04:14.429Z</time>
      </trkpt>
      <trkpt lat="44.1105" lon="6.98476">
        <ele>1582</ele>
        <time>2019-05-11T08:04:19.421Z</time>
      </trkpt>
      <trkpt lat="44.11055" lon="6.98476">
        <ele>1582</ele>
        <time>2019-05-11T08:04:24.416Z</time>
      </trkpt>
      <trkpt lat="44.11059" lon="6.98474">
        <ele>1582</ele>
        <time>2019-05-11T08:04:28.431Z</time>
      </trkpt>
      <trkpt lat="44.11063" lon="6.98473">
        <ele>1582</ele>
        <time>2019-05-11T08:04:33.430Z</time>
      </trkpt>
      <trkpt lat="44.11066" lon="6.98472">
        <ele>1582</ele>
        <time>2019-05-11T08:04:38.426Z</time>
      </trkpt>
      <trkpt lat="44.11069" lon="6.98471">
        <ele>1582</ele>
        <time>2019-05-11T08:04:42.441Z</time>
      </trkpt>
      <trkpt lat="44.11073" lon="6.98472">
        <ele>1583</ele>
        <time>2019-05-11T08:04:47.426Z</time>
      </trkpt>
      <trkpt lat="44.11076" lon="6.9847">
        <ele>1583</ele>
        <time>2019-05-11T08:04:52.419Z</time>
      </trkpt>
      <trkpt lat="44.11081" lon="6.98467">
        <ele>1583</ele>
        <time>2019-05-11T08:04:56.445Z</time>
      </trkpt>
      <trkpt lat="44.11084" lon="6.98466">
        <ele>1583</ele>
        <time>2019-05-11T08:05:00.476Z</time>
      </trkpt>
      <trkpt lat="44.11089" lon="6.98465">
        <ele>1583</ele>
        <time>2019-05-11T08:05:05.428Z</time>
      </trkpt>
      <trkpt lat="44.11092" lon="6.98464">
        <ele>1583</ele>
        <time>2019-05-11T08:05:10.414Z</time>
      </trkpt>
      <trkpt lat="44.11094" lon="6.98464">
        <ele>1583</ele>
        <time>2019-05-11T08:05:15.423Z</time>
      </trkpt>
      <trkpt lat="44.11098" lon="6.98463">
        <ele>1587</ele>
        <time>2019-05-11T08:05:20.421Z</time>
      </trkpt>
      <trkpt lat="44.11101" lon="6.98463">
        <ele>1587</ele>
        <time>2019-05-11T08:05:24.435Z</time>
      </trkpt>
      <trkpt lat="44.11105" lon="6.98463">
        <ele>1587</ele>
        <time>2019-05-11T08:05:29.431Z</time>
      </trkpt>
      <trkpt lat="44.11109" lon="6.98464">
        <ele>1587</ele>
        <time>2019-05-11T08:05:34.424Z</time>
      </trkpt>
      <trkpt lat="44.11112" lon="6.98463">
        <ele>1587</ele>
        <time>2019-05-11T08:05:39.443Z</time>
      </trkpt>
      <trkpt lat="44.11116" lon="6.98462">
        <ele>1587</ele>
        <time>2019-05-11T08:05:44.421Z</time>
      </trkpt>
      <trkpt lat="44.11119" lon="6.98462">
        <ele>1587</ele>
        <time>2019-05-11T08:05:49.464Z</time>
      </trkpt>
      <trkpt lat="44.11122" lon="6.98461">
        <ele>1587</ele>
        <time>2019-05-11T08:05:54.423Z</time>
      </trkpt>
      <trkpt lat="44.11124" lon="6.98461">
        <ele>1587</ele>
        <time>2019-05-11T08:05:58.440Z</time>
      </trkpt>
      <trkpt lat="44.11128" lon="6.98459">
        <ele>1590</ele>
        <time>2019-05-11T08:06:03.424Z</time>
      </trkpt>
      <trkpt lat="44.11133" lon="6.98457">
        <ele>1591</ele>
        <time>2019-05-11T08:06:08.421Z</time>
      </trkpt>
      <trkpt lat="44.11138" lon="6.98456">
        <ele>1591</ele>
        <time>2019-05-11T08:06:13.421Z</time>
      </trkpt>
      <trkpt lat="44.11141" lon="6.98455">
        <ele>1591</ele>
        <time>2019-05-11T08:06:18.418Z</time>
      </trkpt>
      <trkpt lat="44.11145" lon="6.98455">
        <ele>1591</ele>
        <time>2019-05-11T08:06:23.437Z</time>
      </trkpt>
      <trkpt lat="44.11148" lon="6.98455">
        <ele>1591</ele>
        <time>2019-05-11T08:06:28.418Z</time>
      </trkpt>
      <trkpt lat="44.11152" lon="6.98452">
        <ele>1591</ele>
        <time>2019-05-11T08:06:33.421Z</time>
      </trkpt>
      <trkpt lat="44.11156" lon="6.98449">
        <ele>1594</ele>
        <time>2019-05-11T08:06:38.460Z</time>
      </trkpt>
      <trkpt lat="44.11158" lon="6.9845">
        <ele>1594</ele>
        <time>2019-05-11T08:06:43.410Z</time>
      </trkpt>
      <trkpt lat="44.11162" lon="6.9845">
        <ele>1594</ele>
        <time>2019-05-11T08:06:48.419Z</time>
      </trkpt>
      <trkpt lat="44.11165" lon="6.9845">
        <ele>1594</ele>
        <time>2019-05-11T08:06:52.435Z</time>
      </trkpt>
      <trkpt lat="44.11168" lon="6.98448">
        <ele>1594</ele>
        <time>2019-05-11T08:06:57.420Z</time>
      </trkpt>
      <trkpt lat="44.11171" lon="6.98446">
        <ele>1594</ele>
        <time>2019-05-11T08:07:02.419Z</time>
      </trkpt>
      <trkpt lat="44.11176" lon="6.98445">
        <ele>1594</ele>
        <time>2019-05-11T08:07:07.405Z</time>
      </trkpt>
      <trkpt lat="44.1118" lon="6.98444">
        <ele>1594</ele>
        <time>2019-05-11T08:07:12.421Z</time>
      </trkpt>
      <trkpt lat="44.11184" lon="6.98445">
        <ele>1600</ele>
        <time>2019-05-11T08:07:17.421Z</time>
      </trkpt>
      <trkpt lat="44.1119" lon="6.98443">
        <ele>1600</ele>
        <time>2019-05-11T08:07:22.415Z</time>
      </trkpt>
      <trkpt lat="44.11194" lon="6.98442">
        <ele>1600</ele>
        <time>2019-05-11T08:07:27.429Z</time>
      </trkpt>
      <trkpt lat="44.11196" lon="6.98441">
        <ele>1600</ele>
        <time>2019-05-11T08:07:32.420Z</time>
      </trkpt>
      <trkpt lat="44.112" lon="6.9844">
        <ele>1600</ele>
        <time>2019-05-11T08:07:37.420Z</time>
      </trkpt>
      <trkpt lat="44.11202" lon="6.98437">
        <ele>1600</ele>
        <time>2019-05-11T08:07:42.415Z</time>
      </trkpt>
      <trkpt lat="44.11207" lon="6.98435">
        <ele>1600</ele>
        <time>2019-05-11T08:07:47.419Z</time>
      </trkpt>
      <trkpt lat="44.1121" lon="6.98434">
        <ele>1604</ele>
        <time>2019-05-11T08:07:51.437Z</time>
      </trkpt>
      <trkpt lat="44.11213" lon="6.9843">
        <ele>1603</ele>
        <time>2019-05-11T08:07:56.449Z</time>
      </trkpt>
      <trkpt lat="44.11216" lon="6.98422">
        <ele>1603</ele>
        <time>2019-05-11T08:08:01.443Z</time>
      </trkpt>
      <trkpt lat="44.1122" lon="6.98415">
        <ele>1603</ele>
        <time>2019-05-11T08:08:06.418Z</time>
      </trkpt>
      <trkpt lat="44.11223" lon="6.98409">
        <ele>1603</ele>
        <time>2019-05-11T08:08:11.420Z</time>
      </trkpt>
      <trkpt lat="44.11229" lon="6.98406">
        <ele>1603</ele>
        <time>2019-05-11T08:08:16.401Z</time>
      </trkpt>
      <trkpt lat="44.11231" lon="6.98402">
        <ele>1602</ele>
        <time>2019-05-11T08:08:20.420Z</time>
      </trkpt>
      <trkpt lat="44.11232" lon="6.98399">
        <ele>1602</ele>
        <time>2019-05-11T08:08:25.419Z</time>
      </trkpt>
      <trkpt lat="44.11239" lon="6.98391">
        <ele>1604</ele>
        <time>2019-05-11T08:08:30.415Z</time>
      </trkpt>
      <trkpt lat="44.1124" lon="6.98388">
        <ele>1604</ele>
        <time>2019-05-11T08:08:35.419Z</time>
      </trkpt>
      <trkpt lat="44.1124" lon="6.98387">
        <ele>1604</ele>
        <time>2019-05-11T08:08:40.421Z</time>
      </trkpt>
      <trkpt lat="44.11239" lon="6.98386">
        <ele>1604</ele>
        <time>2019-05-11T08:09:00.417Z</time>
      </trkpt>
      <trkpt lat="44.1124" lon="6.98384">
        <ele>1604</ele>
        <time>2019-05-11T08:09:05.440Z</time>
      </trkpt>
      <trkpt lat="44.11242" lon="6.98381">
        <ele>1604</ele>
        <time>2019-05-11T08:09:10.410Z</time>
      </trkpt>
      <trkpt lat="44.11244" lon="6.98378">
        <ele>1604</ele>
        <time>2019-05-11T08:09:14.434Z</time>
      </trkpt>
      <trkpt lat="44.11246" lon="6.98376">
        <ele>1604</ele>
        <time>2019-05-11T08:09:19.420Z</time>
      </trkpt>
      <trkpt lat="44.11256" lon="6.98368">
        <ele>1603</ele>
        <time>2019-05-11T08:09:37.464Z</time>
      </trkpt>
      <trkpt lat="44.11256" lon="6.98368">
        <ele>1603</ele>
        <time>2019-05-11T08:09:42.418Z</time>
      </trkpt>
      <trkpt lat="44.11258" lon="6.98366">
        <ele>1603</ele>
        <time>2019-05-11T08:09:47.420Z</time>
      </trkpt>
      <trkpt lat="44.11263" lon="6.9836">
        <ele>1603</ele>
        <time>2019-05-11T08:09:52.417Z</time>
      </trkpt>
      <trkpt lat="44.11267" lon="6.98358">
        <ele>1603</ele>
        <time>2019-05-11T08:09:57.422Z</time>
      </trkpt>
      <trkpt lat="44.11269" lon="6.98355">
        <ele>1603</ele>
        <time>2019-05-11T08:10:02.418Z</time>
      </trkpt>
      <trkpt lat="44.11273" lon="6.9835">
        <ele>1603</ele>
        <time>2019-05-11T08:10:07.439Z</time>
      </trkpt>
      <trkpt lat="44.11278" lon="6.98345">
        <ele>1604</ele>
        <time>2019-05-11T08:10:12.417Z</time>
      </trkpt>
      <trkpt lat="44.1128" lon="6.98343">
        <ele>1604</ele>
        <time>2019-05-11T08:10:17.416Z</time>
      </trkpt>
      <trkpt lat="44.11282" lon="6.98342">
        <ele>1604</ele>
        <time>2019-05-11T08:10:22.418Z</time>
      </trkpt>
      <trkpt lat="44.11283" lon="6.98341">
        <ele>1604</ele>
        <time>2019-05-11T08:10:27.415Z</time>
      </trkpt>
      <trkpt lat="44.11286" lon="6.98338">
        <ele>1604</ele>
        <time>2019-05-11T08:10:31.425Z</time>
      </trkpt>
      <trkpt lat="44.11289" lon="6.98336">
        <ele>1604</ele>
        <time>2019-05-11T08:10:36.418Z</time>
      </trkpt>
      <trkpt lat="44.11292" lon="6.98331">
        <ele>1605</ele>
        <time>2019-05-11T08:10:41.440Z</time>
      </trkpt>
      <trkpt lat="44.11295" lon="6.98329">
        <ele>1605</ele>
        <time>2019-05-11T08:10:46.427Z</time>
      </trkpt>
      <trkpt lat="44.11296" lon="6.98325">
        <ele>1605</ele>
        <time>2019-05-11T08:10:50.441Z</time>
      </trkpt>
      <trkpt lat="44.113" lon="6.98324">
        <ele>1605</ele>
        <time>2019-05-11T08:10:55.438Z</time>
      </trkpt>
      <trkpt lat="44.11303" lon="6.98321">
        <ele>1605</ele>
        <time>2019-05-11T08:11:00.419Z</time>
      </trkpt>
      <trkpt lat="44.11307" lon="6.98318">
        <ele>1609</ele>
        <time>2019-05-11T08:11:05.398Z</time>
      </trkpt>
      <trkpt lat="44.1131" lon="6.98315">
        <ele>1609</ele>
        <time>2019-05-11T08:11:09.445Z</time>
      </trkpt>
      <trkpt lat="44.11313" lon="6.9831">
        <ele>1609</ele>
        <time>2019-05-11T08:11:14.418Z</time>
      </trkpt>
      <trkpt lat="44.11316" lon="6.98303">
        <ele>1609</ele>
        <time>2019-05-11T08:11:19.421Z</time>
      </trkpt>
      <trkpt lat="44.1132" lon="6.98299">
        <ele>1609</ele>
        <time>2019-05-11T08:11:24.418Z</time>
      </trkpt>
      <trkpt lat="44.11325" lon="6.98295">
        <ele>1609</ele>
        <time>2019-05-11T08:11:29.420Z</time>
      </trkpt>
      <trkpt lat="44.11328" lon="6.98294">
        <ele>1609</ele>
        <time>2019-05-11T08:11:34.418Z</time>
      </trkpt>
      <trkpt lat="44.11332" lon="6.9829">
        <ele>1611</ele>
        <time>2019-05-11T08:11:39.414Z</time>
      </trkpt>
      <trkpt lat="44.11334" lon="6.98283">
        <ele>1611</ele>
        <time>2019-05-11T08:11:44.429Z</time>
      </trkpt>
      <trkpt lat="44.11339" lon="6.98278">
        <ele>1611</ele>
        <time>2019-05-11T08:11:49.419Z</time>
      </trkpt>
      <trkpt lat="44.11344" lon="6.98276">
        <ele>1611</ele>
        <time>2019-05-11T08:11:53.448Z</time>
      </trkpt>
      <trkpt lat="44.11348" lon="6.98272">
        <ele>1610</ele>
        <time>2019-05-11T08:11:58.415Z</time>
      </trkpt>
      <trkpt lat="44.11352" lon="6.98268">
        <ele>1610</ele>
        <time>2019-05-11T08:12:03.429Z</time>
      </trkpt>
      <trkpt lat="44.11357" lon="6.98264">
        <ele>1610</ele>
        <time>2019-05-11T08:12:08.420Z</time>
      </trkpt>
      <trkpt lat="44.11358" lon="6.98258">
        <ele>1612</ele>
        <time>2019-05-11T08:12:12.451Z</time>
      </trkpt>
      <trkpt lat="44.11359" lon="6.98255">
        <ele>1612</ele>
        <time>2019-05-11T08:12:17.417Z</time>
      </trkpt>
      <trkpt lat="44.11364" lon="6.98252">
        <ele>1612</ele>
        <time>2019-05-11T08:12:22.418Z</time>
      </trkpt>
      <trkpt lat="44.11368" lon="6.98249">
        <ele>1612</ele>
        <time>2019-05-11T08:12:27.418Z</time>
      </trkpt>
      <trkpt lat="44.11371" lon="6.98244">
        <ele>1612</ele>
        <time>2019-05-11T08:12:32.416Z</time>
      </trkpt>
      <trkpt lat="44.11373" lon="6.98245">
        <ele>1612</ele>
        <time>2019-05-11T08:12:37.424Z</time>
      </trkpt>
      <trkpt lat="44.11376" lon="6.98242">
        <ele>1612</ele>
        <time>2019-05-11T08:12:42.416Z</time>
      </trkpt>
      <trkpt lat="44.11378" lon="6.98238">
        <ele>1612</ele>
        <time>2019-05-11T08:12:47.423Z</time>
      </trkpt>
      <trkpt lat="44.11378" lon="6.98237">
        <ele>1612</ele>
        <time>2019-05-11T08:12:52.414Z</time>
      </trkpt>
      <trkpt lat="44.11378" lon="6.98233">
        <ele>1617</ele>
        <time>2019-05-11T08:12:56.431Z</time>
      </trkpt>
      <trkpt lat="44.11379" lon="6.98227">
        <ele>1617</ele>
        <time>2019-05-11T08:13:01.420Z</time>
      </trkpt>
      <trkpt lat="44.1138" lon="6.98221">
        <ele>1617</ele>
        <time>2019-05-11T08:13:06.416Z</time>
      </trkpt>
      <trkpt lat="44.11381" lon="6.98216">
        <ele>1617</ele>
        <time>2019-05-11T08:13:11.418Z</time>
      </trkpt>
      <trkpt lat="44.11381" lon="6.98212">
        <ele>1617</ele>
        <time>2019-05-11T08:13:16.420Z</time>
      </trkpt>
      <trkpt lat="44.11382" lon="6.98208">
        <ele>1617</ele>
        <time>2019-05-11T08:13:21.416Z</time>
      </trkpt>
      <trkpt lat="44.11382" lon="6.98205">
        <ele>1621</ele>
        <time>2019-05-11T08:13:26.444Z</time>
      </trkpt>
      <trkpt lat="44.11382" lon="6.982">
        <ele>1621</ele>
        <time>2019-05-11T08:13:31.419Z</time>
      </trkpt>
      <trkpt lat="44.11382" lon="6.98197">
        <ele>1621</ele>
        <time>2019-05-11T08:13:36.411Z</time>
      </trkpt>
      <trkpt lat="44.1138" lon="6.98193">
        <ele>1621</ele>
        <time>2019-05-11T08:13:41.417Z</time>
      </trkpt>
      <trkpt lat="44.11381" lon="6.98191">
        <ele>1621</ele>
        <time>2019-05-11T08:13:46.413Z</time>
      </trkpt>
      <trkpt lat="44.1138" lon="6.9819">
        <ele>1621</ele>
        <time>2019-05-11T08:13:50.423Z</time>
      </trkpt>
      <trkpt lat="44.11377" lon="6.98188">
        <ele>1621</ele>
        <time>2019-05-11T08:13:55.419Z</time>
      </trkpt>
      <trkpt lat="44.11378" lon="6.9818">
        <ele>1623</ele>
        <time>2019-05-11T08:14:00.424Z</time>
      </trkpt>
      <trkpt lat="44.11377" lon="6.98173">
        <ele>1623</ele>
        <time>2019-05-11T08:14:05.417Z</time>
      </trkpt>
      <trkpt lat="44.11375" lon="6.98171">
        <ele>1623</ele>
        <time>2019-05-11T08:14:10.419Z</time>
      </trkpt>
      <trkpt lat="44.11374" lon="6.98167">
        <ele>1624</ele>
        <time>2019-05-11T08:14:15.423Z</time>
      </trkpt>
      <trkpt lat="44.11373" lon="6.98164">
        <ele>1624</ele>
        <time>2019-05-11T08:14:20.418Z</time>
      </trkpt>
      <trkpt lat="44.11373" lon="6.9816">
        <ele>1624</ele>
        <time>2019-05-11T08:14:25.444Z</time>
      </trkpt>
      <trkpt lat="44.11373" lon="6.98157">
        <ele>1624</ele>
        <time>2019-05-11T08:14:30.423Z</time>
      </trkpt>
      <trkpt lat="44.11373" lon="6.98155">
        <ele>1624</ele>
        <time>2019-05-11T08:14:35.444Z</time>
      </trkpt>
      <trkpt lat="44.11375" lon="6.9815">
        <ele>1626</ele>
        <time>2019-05-11T08:14:40.432Z</time>
      </trkpt>
      <trkpt lat="44.11375" lon="6.98147">
        <ele>1625</ele>
        <time>2019-05-11T08:14:45.416Z</time>
      </trkpt>
      <trkpt lat="44.11375" lon="6.98143">
        <ele>1626</ele>
        <time>2019-05-11T08:14:50.422Z</time>
      </trkpt>
      <trkpt lat="44.11376" lon="6.98138">
        <ele>1626</ele>
        <time>2019-05-11T08:14:55.424Z</time>
      </trkpt>
      <trkpt lat="44.11377" lon="6.98137">
        <ele>1626</ele>
        <time>2019-05-11T08:15:00.415Z</time>
      </trkpt>
      <trkpt lat="44.11377" lon="6.98133">
        <ele>1626</ele>
        <time>2019-05-11T08:15:04.432Z</time>
      </trkpt>
      <trkpt lat="44.11378" lon="6.9813">
        <ele>1626</ele>
        <time>2019-05-11T08:15:09.421Z</time>
      </trkpt>
      <trkpt lat="44.11379" lon="6.98123">
        <ele>1630</ele>
        <time>2019-05-11T08:15:14.413Z</time>
      </trkpt>
      <trkpt lat="44.11379" lon="6.98116">
        <ele>1630</ele>
        <time>2019-05-11T08:15:24.453Z</time>
      </trkpt>
      <trkpt lat="44.1138" lon="6.98115">
        <ele>1630</ele>
        <time>2019-05-11T08:15:29.425Z</time>
      </trkpt>
      <trkpt lat="44.1138" lon="6.98114">
        <ele>1630</ele>
        <time>2019-05-11T08:15:34.411Z</time>
      </trkpt>
      <trkpt lat="44.11382" lon="6.9811">
        <ele>1630</ele>
        <time>2019-05-11T08:15:39.436Z</time>
      </trkpt>
      <trkpt lat="44.11384" lon="6.98106">
        <ele>1630</ele>
        <time>2019-05-11T08:15:44.411Z</time>
      </trkpt>
      <trkpt lat="44.11386" lon="6.98103">
        <ele>1630</ele>
        <time>2019-05-11T08:15:49.407Z</time>
      </trkpt>
      <trkpt lat="44.11388" lon="6.98102">
        <ele>1630</ele>
        <time>2019-05-11T08:15:54.424Z</time>
      </trkpt>
      <trkpt lat="44.11391" lon="6.98102">
        <ele>1630</ele>
        <time>2019-05-11T08:15:59.427Z</time>
      </trkpt>
      <trkpt lat="44.11392" lon="6.98095">
        <ele>1634</ele>
        <time>2019-05-11T08:16:04.401Z</time>
      </trkpt>
      <trkpt lat="44.11394" lon="6.98093">
        <ele>1634</ele>
        <time>2019-05-11T08:16:09.406Z</time>
      </trkpt>
      <trkpt lat="44.11395" lon="6.9809">
        <ele>1634</ele>
        <time>2019-05-11T08:16:14.428Z</time>
      </trkpt>
      <trkpt lat="44.11396" lon="6.98087">
        <ele>1634</ele>
        <time>2019-05-11T08:16:19.403Z</time>
      </trkpt>
      <trkpt lat="44.11396" lon="6.98083">
        <ele>1634</ele>
        <time>2019-05-11T08:16:24.410Z</time>
      </trkpt>
      <trkpt lat="44.11397" lon="6.98079">
        <ele>1634</ele>
        <time>2019-05-11T08:16:29.431Z</time>
      </trkpt>
      <trkpt lat="44.11399" lon="6.98075">
        <ele>1634</ele>
        <time>2019-05-11T08:16:34.409Z</time>
      </trkpt>
      <trkpt lat="44.11401" lon="6.9807">
        <ele>1634</ele>
        <time>2019-05-11T08:16:49.405Z</time>
      </trkpt>
      <trkpt lat="44.11401" lon="6.98065">
        <ele>1634</ele>
        <time>2019-05-11T08:16:53.423Z</time>
      </trkpt>
      <trkpt lat="44.11402" lon="6.98059">
        <ele>1634</ele>
        <time>2019-05-11T08:16:58.409Z</time>
      </trkpt>
      <trkpt lat="44.11403" lon="6.98052">
        <ele>1638</ele>
        <time>2019-05-11T08:17:03.404Z</time>
      </trkpt>
      <trkpt lat="44.11404" lon="6.98049">
        <ele>1638</ele>
        <time>2019-05-11T08:17:08.407Z</time>
      </trkpt>
      <trkpt lat="44.11405" lon="6.98045">
        <ele>1638</ele>
        <time>2019-05-11T08:17:12.424Z</time>
      </trkpt>
      <trkpt lat="44.11407" lon="6.9804">
        <ele>1638</ele>
        <time>2019-05-11T08:17:17.409Z</time>
      </trkpt>
      <trkpt lat="44.11408" lon="6.98037">
        <ele>1638</ele>
        <time>2019-05-11T08:17:22.410Z</time>
      </trkpt>
      <trkpt lat="44.1141" lon="6.98035">
        <ele>1638</ele>
        <time>2019-05-11T08:17:27.408Z</time>
      </trkpt>
      <trkpt lat="44.11413" lon="6.98031">
        <ele>1638</ele>
        <time>2019-05-11T08:17:32.426Z</time>
      </trkpt>
      <trkpt lat="44.11415" lon="6.98028">
        <ele>1638</ele>
        <time>2019-05-11T08:17:37.405Z</time>
      </trkpt>
      <trkpt lat="44.11415" lon="6.98024">
        <ele>1638</ele>
        <time>2019-05-11T08:17:42.410Z</time>
      </trkpt>
      <trkpt lat="44.11417" lon="6.98021">
        <ele>1638</ele>
        <time>2019-05-11T08:17:47.408Z</time>
      </trkpt>
      <trkpt lat="44.11418" lon="6.98016">
        <ele>1638</ele>
        <time>2019-05-11T08:17:52.411Z</time>
      </trkpt>
      <trkpt lat="44.11418" lon="6.98016">
        <ele>1638</ele>
        <time>2019-05-11T08:17:57.406Z</time>
      </trkpt>
      <trkpt lat="44.11421" lon="6.98017">
        <ele>1638</ele>
        <time>2019-05-11T08:18:01.423Z</time>
      </trkpt>
      <trkpt lat="44.11422" lon="6.98016">
        <ele>1638</ele>
        <time>2019-05-11T08:18:06.407Z</time>
      </trkpt>
      <trkpt lat="44.11424" lon="6.98011">
        <ele>1636</ele>
        <time>2019-05-11T08:18:11.405Z</time>
      </trkpt>
      <trkpt lat="44.11427" lon="6.98006">
        <ele>1636</ele>
        <time>2019-05-11T08:18:16.407Z</time>
      </trkpt>
      <trkpt lat="44.1143" lon="6.98004">
        <ele>1636</ele>
        <time>2019-05-11T08:18:21.404Z</time>
      </trkpt>
      <trkpt lat="44.1143" lon="6.98002">
        <ele>1636</ele>
        <time>2019-05-11T08:18:26.409Z</time>
      </trkpt>
      <trkpt lat="44.1143" lon="6.97997">
        <ele>1636</ele>
        <time>2019-05-11T08:18:31.405Z</time>
      </trkpt>
      <trkpt lat="44.1143" lon="6.97993">
        <ele>1636</ele>
        <time>2019-05-11T08:18:36.409Z</time>
      </trkpt>
      <trkpt lat="44.11433" lon="6.97991">
        <ele>1647</ele>
        <time>2019-05-11T08:18:41.406Z</time>
      </trkpt>
      <trkpt lat="44.11435" lon="6.97988">
        <ele>1647</ele>
        <time>2019-05-11T08:18:46.409Z</time>
      </trkpt>
      <trkpt lat="44.11438" lon="6.97983">
        <ele>1645</ele>
        <time>2019-05-11T08:18:51.405Z</time>
      </trkpt>
      <trkpt lat="44.11442" lon="6.97978">
        <ele>1645</ele>
        <time>2019-05-11T08:18:56.407Z</time>
      </trkpt>
      <trkpt lat="44.11442" lon="6.97976">
        <ele>1645</ele>
        <time>2019-05-11T08:19:00.460Z</time>
      </trkpt>
      <trkpt lat="44.11443" lon="6.97973">
        <ele>1645</ele>
        <time>2019-05-11T08:19:05.408Z</time>
      </trkpt>
      <trkpt lat="44.11443" lon="6.97969">
        <ele>1645</ele>
        <time>2019-05-11T08:19:10.409Z</time>
      </trkpt>
      <trkpt lat="44.11444" lon="6.97968">
        <ele>1645</ele>
        <time>2019-05-11T08:19:15.411Z</time>
      </trkpt>
      <trkpt lat="44.11445" lon="6.97961">
        <ele>1645</ele>
        <time>2019-05-11T08:19:20.410Z</time>
      </trkpt>
      <trkpt lat="44.11447" lon="6.9796">
        <ele>1645</ele>
        <time>2019-05-11T08:19:25.413Z</time>
      </trkpt>
      <trkpt lat="44.11448" lon="6.97957">
        <ele>1643</ele>
        <time>2019-05-11T08:19:30.448Z</time>
      </trkpt>
      <trkpt lat="44.11449" lon="6.97952">
        <ele>1643</ele>
        <time>2019-05-11T08:19:35.409Z</time>
      </trkpt>
      <trkpt lat="44.1145" lon="6.9795">
        <ele>1643</ele>
        <time>2019-05-11T08:19:40.408Z</time>
      </trkpt>
      <trkpt lat="44.11451" lon="6.97948">
        <ele>1643</ele>
        <time>2019-05-11T08:19:45.409Z</time>
      </trkpt>
      <trkpt lat="44.11454" lon="6.97945">
        <ele>1643</ele>
        <time>2019-05-11T08:19:50.407Z</time>
      </trkpt>
      <trkpt lat="44.11458" lon="6.97939">
        <ele>1643</ele>
        <time>2019-05-11T08:20:00.419Z</time>
      </trkpt>
      <trkpt lat="44.1146" lon="6.97937">
        <ele>1661</ele>
        <time>2019-05-11T08:20:05.405Z</time>
      </trkpt>
      <trkpt lat="44.1146" lon="6.97936">
        <ele>1661</ele>
        <time>2019-05-11T08:20:10.405Z</time>
      </trkpt>
      <trkpt lat="44.11461" lon="6.97931">
        <ele>1661</ele>
        <time>2019-05-11T08:20:15.426Z</time>
      </trkpt>
      <trkpt lat="44.11463" lon="6.97929">
        <ele>1657</ele>
        <time>2019-05-11T08:20:20.408Z</time>
      </trkpt>
      <trkpt lat="44.11468" lon="6.97916">
        <ele>1657</ele>
        <time>2019-05-11T08:20:49.416Z</time>
      </trkpt>
      <trkpt lat="44.11469" lon="6.97916">
        <ele>1657</ele>
        <time>2019-05-11T08:20:54.407Z</time>
      </trkpt>
      <trkpt lat="44.11469" lon="6.97916">
        <ele>1657</ele>
        <time>2019-05-11T08:20:59.408Z</time>
      </trkpt>
      <trkpt lat="44.11469" lon="6.97916">
        <ele>1657</ele>
        <time>2019-05-11T08:21:04.406Z</time>
      </trkpt>
      <trkpt lat="44.11469" lon="6.97915">
        <ele>1657</ele>
        <time>2019-05-11T08:21:09.404Z</time>
      </trkpt>
      <trkpt lat="44.11469" lon="6.97916">
        <ele>1657</ele>
        <time>2019-05-11T08:22:47.405Z</time>
      </trkpt>
      <trkpt lat="44.11472" lon="6.97914">
        <ele>1657</ele>
        <time>2019-05-11T08:22:52.409Z</time>
      </trkpt>
      <trkpt lat="44.11474" lon="6.97912">
        <ele>1657</ele>
        <time>2019-05-11T08:22:57.397Z</time>
      </trkpt>
      <trkpt lat="44.11475" lon="6.97907">
        <ele>1657</ele>
        <time>2019-05-11T08:23:02.406Z</time>
      </trkpt>
      <trkpt lat="44.11477" lon="6.97901">
        <ele>1652</ele>
        <time>2019-05-11T08:23:07.421Z</time>
      </trkpt>
      <trkpt lat="44.11477" lon="6.97899">
        <ele>1652</ele>
        <time>2019-05-11T08:23:12.406Z</time>
      </trkpt>
      <trkpt lat="44.11479" lon="6.97898">
        <ele>1652</ele>
        <time>2019-05-11T08:23:16.445Z</time>
      </trkpt>
      <trkpt lat="44.11481" lon="6.97894">
        <ele>1652</ele>
        <time>2019-05-11T08:23:21.412Z</time>
      </trkpt>
      <trkpt lat="44.11482" lon="6.97891">
        <ele>1652</ele>
        <time>2019-05-11T08:23:26.408Z</time>
      </trkpt>
      <trkpt lat="44.11484" lon="6.97888">
        <ele>1652</ele>
        <time>2019-05-11T08:23:31.408Z</time>
      </trkpt>
      <trkpt lat="44.1149" lon="6.97887">
        <ele>1678</ele>
        <time>2019-05-11T08:23:41.415Z</time>
      </trkpt>
      <trkpt lat="44.11491" lon="6.97886">
        <ele>1678</ele>
        <time>2019-05-11T08:23:45.435Z</time>
      </trkpt>
      <trkpt lat="44.11492" lon="6.97883">
        <ele>1678</ele>
        <time>2019-05-11T08:23:50.404Z</time>
      </trkpt>
      <trkpt lat="44.11493" lon="6.97881">
        <ele>1678</ele>
        <time>2019-05-11T08:23:55.408Z</time>
      </trkpt>
      <trkpt lat="44.11496" lon="6.97881">
        <ele>1678</ele>
        <time>2019-05-11T08:24:00.453Z</time>
      </trkpt>
      <trkpt lat="44.11497" lon="6.97878">
        <ele>1678</ele>
        <time>2019-05-11T08:24:05.414Z</time>
      </trkpt>
      <trkpt lat="44.115" lon="6.97873">
        <ele>1674</ele>
        <time>2019-05-11T08:24:10.405Z</time>
      </trkpt>
      <trkpt lat="44.11501" lon="6.97868">
        <ele>1674</ele>
        <time>2019-05-11T08:24:15.413Z</time>
      </trkpt>
      <trkpt lat="44.11503" lon="6.97865">
        <ele>1674</ele>
        <time>2019-05-11T08:24:20.410Z</time>
      </trkpt>
      <trkpt lat="44.11505" lon="6.97863">
        <ele>1674</ele>
        <time>2019-05-11T08:24:30.404Z</time>
      </trkpt>
      <trkpt lat="44.11507" lon="6.97862">
        <ele>1674</ele>
        <time>2019-05-11T08:24:35.421Z</time>
      </trkpt>
      <trkpt lat="44.11509" lon="6.97861">
        <ele>1674</ele>
        <time>2019-05-11T08:24:40.404Z</time>
      </trkpt>
      <trkpt lat="44.11511" lon="6.9786">
        <ele>1674</ele>
        <time>2019-05-11T08:24:45.408Z</time>
      </trkpt>
      <trkpt lat="44.11512" lon="6.97858">
        <ele>1674</ele>
        <time>2019-05-11T08:24:50.400Z</time>
      </trkpt>
      <trkpt lat="44.11514" lon="6.97855">
        <ele>1682</ele>
        <time>2019-05-11T08:24:59.411Z</time>
      </trkpt>
      <trkpt lat="44.11515" lon="6.97852">
        <ele>1682</ele>
        <time>2019-05-11T08:25:03.431Z</time>
      </trkpt>
      <trkpt lat="44.11516" lon="6.9785">
        <ele>1682</ele>
        <time>2019-05-11T08:25:08.408Z</time>
      </trkpt>
      <trkpt lat="44.11518" lon="6.97848">
        <ele>1682</ele>
        <time>2019-05-11T08:25:13.427Z</time>
      </trkpt>
      <trkpt lat="44.1152" lon="6.97848">
        <ele>1682</ele>
        <time>2019-05-11T08:25:18.403Z</time>
      </trkpt>
      <trkpt lat="44.11521" lon="6.97845">
        <ele>1674</ele>
        <time>2019-05-11T08:25:23.424Z</time>
      </trkpt>
      <trkpt lat="44.11521" lon="6.97843">
        <ele>1674</ele>
        <time>2019-05-11T08:25:28.397Z</time>
      </trkpt>
      <trkpt lat="44.11521" lon="6.97838">
        <ele>1674</ele>
        <time>2019-05-11T08:25:32.419Z</time>
      </trkpt>
      <trkpt lat="44.11523" lon="6.97831">
        <ele>1674</ele>
        <time>2019-05-11T08:25:37.407Z</time>
      </trkpt>
      <trkpt lat="44.11525" lon="6.97825">
        <ele>1674</ele>
        <time>2019-05-11T08:25:42.416Z</time>
      </trkpt>
      <trkpt lat="44.11527" lon="6.97821">
        <ele>1674</ele>
        <time>2019-05-11T08:25:47.402Z</time>
      </trkpt>
      <trkpt lat="44.11528" lon="6.97819">
        <ele>1666</ele>
        <time>2019-05-11T08:25:52.391Z</time>
      </trkpt>
      <trkpt lat="44.11531" lon="6.97816">
        <ele>1666</ele>
        <time>2019-05-11T08:25:56.400Z</time>
      </trkpt>
      <trkpt lat="44.11533" lon="6.97814">
        <ele>1666</ele>
        <time>2019-05-11T08:26:00.441Z</time>
      </trkpt>
      <trkpt lat="44.11539" lon="6.97816">
        <ele>1666</ele>
        <time>2019-05-11T08:26:05.409Z</time>
      </trkpt>
      <trkpt lat="44.11541" lon="6.97817">
        <ele>1666</ele>
        <time>2019-05-11T08:26:10.425Z</time>
      </trkpt>
      <trkpt lat="44.11548" lon="6.97816">
        <ele>1682</ele>
        <time>2019-05-11T08:26:15.404Z</time>
      </trkpt>
      <trkpt lat="44.11553" lon="6.97814">
        <ele>1682</ele>
        <time>2019-05-11T08:26:19.425Z</time>
      </trkpt>
      <trkpt lat="44.11556" lon="6.97813">
        <ele>1682</ele>
        <time>2019-05-11T08:26:24.420Z</time>
      </trkpt>
      <trkpt lat="44.11557" lon="6.97809">
        <ele>1682</ele>
        <time>2019-05-11T08:26:29.404Z</time>
      </trkpt>
      <trkpt lat="44.1156" lon="6.97805">
        <ele>1682</ele>
        <time>2019-05-11T08:26:34.401Z</time>
      </trkpt>
      <trkpt lat="44.11563" lon="6.97801">
        <ele>1682</ele>
        <time>2019-05-11T08:26:39.404Z</time>
      </trkpt>
      <trkpt lat="44.11565" lon="6.97798">
        <ele>1682</ele>
        <time>2019-05-11T08:26:44.403Z</time>
      </trkpt>
      <trkpt lat="44.11566" lon="6.97793">
        <ele>1682</ele>
        <time>2019-05-11T08:26:49.406Z</time>
      </trkpt>
      <trkpt lat="44.11568" lon="6.97791">
        <ele>1683</ele>
        <time>2019-05-11T08:26:54.408Z</time>
      </trkpt>
      <trkpt lat="44.11568" lon="6.97788">
        <ele>1683</ele>
        <time>2019-05-11T08:26:59.401Z</time>
      </trkpt>
      <trkpt lat="44.11568" lon="6.97786">
        <ele>1683</ele>
        <time>2019-05-11T08:27:04.403Z</time>
      </trkpt>
      <trkpt lat="44.11571" lon="6.97781">
        <ele>1692</ele>
        <time>2019-05-11T08:27:13.418Z</time>
      </trkpt>
      <trkpt lat="44.11572" lon="6.97778">
        <ele>1692</ele>
        <time>2019-05-11T08:27:18.404Z</time>
      </trkpt>
      <trkpt lat="44.11574" lon="6.97777">
        <ele>1692</ele>
        <time>2019-05-11T08:27:23.409Z</time>
      </trkpt>
      <trkpt lat="44.11575" lon="6.97777">
        <ele>1692</ele>
        <time>2019-05-11T08:27:28.405Z</time>
      </trkpt>
      <trkpt lat="44.11577" lon="6.97773">
        <ele>1692</ele>
        <time>2019-05-11T08:27:33.425Z</time>
      </trkpt>
      <trkpt lat="44.11579" lon="6.97772">
        <ele>1692</ele>
        <time>2019-05-11T08:27:38.408Z</time>
      </trkpt>
      <trkpt lat="44.11582" lon="6.97772">
        <ele>1692</ele>
        <time>2019-05-11T08:27:43.409Z</time>
      </trkpt>
      <trkpt lat="44.11584" lon="6.97772">
        <ele>1692</ele>
        <time>2019-05-11T08:27:48.402Z</time>
      </trkpt>
      <trkpt lat="44.11587" lon="6.97771">
        <ele>1692</ele>
        <time>2019-05-11T08:27:53.405Z</time>
      </trkpt>
      <trkpt lat="44.11589" lon="6.97771">
        <ele>1692</ele>
        <time>2019-05-11T08:27:58.413Z</time>
      </trkpt>
      <trkpt lat="44.11592" lon="6.97771">
        <ele>1692</ele>
        <time>2019-05-11T08:28:08.413Z</time>
      </trkpt>
      <trkpt lat="44.11595" lon="6.97773">
        <ele>1692</ele>
        <time>2019-05-11T08:28:13.402Z</time>
      </trkpt>
      <trkpt lat="44.11597" lon="6.97772">
        <ele>1698</ele>
        <time>2019-05-11T08:28:17.427Z</time>
      </trkpt>
      <trkpt lat="44.11599" lon="6.97772">
        <ele>1698</ele>
        <time>2019-05-11T08:28:22.398Z</time>
      </trkpt>
      <trkpt lat="44.11601" lon="6.97772">
        <ele>1698</ele>
        <time>2019-05-11T08:28:27.407Z</time>
      </trkpt>
      <trkpt lat="44.11607" lon="6.97768">
        <ele>1698</ele>
        <time>2019-05-11T08:29:32.409Z</time>
      </trkpt>
      <trkpt lat="44.11607" lon="6.97767">
        <ele>1698</ele>
        <time>2019-05-11T08:29:37.408Z</time>
      </trkpt>
      <trkpt lat="44.11608" lon="6.97766">
        <ele>1698</ele>
        <time>2019-05-11T08:29:42.408Z</time>
      </trkpt>
      <trkpt lat="44.1161" lon="6.97765">
        <ele>1698</ele>
        <time>2019-05-11T08:29:47.423Z</time>
      </trkpt>
      <trkpt lat="44.11612" lon="6.97762">
        <ele>1707</ele>
        <time>2019-05-11T08:29:52.401Z</time>
      </trkpt>
      <trkpt lat="44.11615" lon="6.97759">
        <ele>1707</ele>
        <time>2019-05-11T08:30:02.406Z</time>
      </trkpt>
      <trkpt lat="44.11616" lon="6.97758">
        <ele>1707</ele>
        <time>2019-05-11T08:30:07.406Z</time>
      </trkpt>
      <trkpt lat="44.11619" lon="6.97755">
        <ele>1707</ele>
        <time>2019-05-11T08:30:12.407Z</time>
      </trkpt>
      <trkpt lat="44.1162" lon="6.97753">
        <ele>1707</ele>
        <time>2019-05-11T08:30:17.406Z</time>
      </trkpt>
      <trkpt lat="44.11622" lon="6.97752">
        <ele>1707</ele>
        <time>2019-05-11T08:30:22.409Z</time>
      </trkpt>
      <trkpt lat="44.11629" lon="6.97746">
        <ele>1711</ele>
        <time>2019-05-11T08:30:41.411Z</time>
      </trkpt>
      <trkpt lat="44.11629" lon="6.97743">
        <ele>1711</ele>
        <time>2019-05-11T08:30:46.408Z</time>
      </trkpt>
      <trkpt lat="44.1163" lon="6.97743">
        <ele>1711</ele>
        <time>2019-05-11T08:30:50.441Z</time>
      </trkpt>
      <trkpt lat="44.1163" lon="6.9774">
        <ele>1711</ele>
        <time>2019-05-11T08:30:55.398Z</time>
      </trkpt>
      <trkpt lat="44.1163" lon="6.97736">
        <ele>1720</ele>
        <time>2019-05-11T08:30:59.405Z</time>
      </trkpt>
      <trkpt lat="44.11631" lon="6.97735">
        <ele>1720</ele>
        <time>2019-05-11T08:31:04.379Z</time>
      </trkpt>
      <trkpt lat="44.11633" lon="6.97735">
        <ele>1720</ele>
        <time>2019-05-11T08:31:08.403Z</time>
      </trkpt>
      <trkpt lat="44.11635" lon="6.97733">
        <ele>1720</ele>
        <time>2019-05-11T08:31:12.410Z</time>
      </trkpt>
      <trkpt lat="44.11638" lon="6.9773">
        <ele>1720</ele>
        <time>2019-05-11T08:31:17.399Z</time>
      </trkpt>
      <trkpt lat="44.11639" lon="6.97727">
        <ele>1720</ele>
        <time>2019-05-11T08:31:22.405Z</time>
      </trkpt>
      <trkpt lat="44.11642" lon="6.97725">
        <ele>1720</ele>
        <time>2019-05-11T08:31:32.397Z</time>
      </trkpt>
      <trkpt lat="44.11645" lon="6.97722">
        <ele>1720</ele>
        <time>2019-05-11T08:31:37.397Z</time>
      </trkpt>
      <trkpt lat="44.11647" lon="6.97721">
        <ele>1720</ele>
        <time>2019-05-11T08:31:41.436Z</time>
      </trkpt>
      <trkpt lat="44.11648" lon="6.97721">
        <ele>1720</ele>
        <time>2019-05-11T08:31:46.403Z</time>
      </trkpt>
      <trkpt lat="44.11649" lon="6.97719">
        <ele>1720</ele>
        <time>2019-05-11T08:31:51.397Z</time>
      </trkpt>
      <trkpt lat="44.1165" lon="6.97718">
        <ele>1720</ele>
        <time>2019-05-11T08:31:55.405Z</time>
      </trkpt>
      <trkpt lat="44.11651" lon="6.97717">
        <ele>1720</ele>
        <time>2019-05-11T08:32:00.442Z</time>
      </trkpt>
      <trkpt lat="44.11652" lon="6.97715">
        <ele>1720</ele>
        <time>2019-05-11T08:32:05.401Z</time>
      </trkpt>
      <trkpt lat="44.11655" lon="6.97713">
        <ele>1720</ele>
        <time>2019-05-11T08:32:10.407Z</time>
      </trkpt>
      <trkpt lat="44.11658" lon="6.97712">
        <ele>1720</ele>
        <time>2019-05-11T08:32:15.404Z</time>
      </trkpt>
      <trkpt lat="44.1166" lon="6.97709">
        <ele>1720</ele>
        <time>2019-05-11T08:32:25.405Z</time>
      </trkpt>
      <trkpt lat="44.1166" lon="6.97706">
        <ele>1731</ele>
        <time>2019-05-11T08:32:30.395Z</time>
      </trkpt>
      <trkpt lat="44.11662" lon="6.97703">
        <ele>1731</ele>
        <time>2019-05-11T08:32:35.397Z</time>
      </trkpt>
      <trkpt lat="44.11663" lon="6.97701">
        <ele>1731</ele>
        <time>2019-05-11T08:32:40.402Z</time>
      </trkpt>
      <trkpt lat="44.11667" lon="6.97699">
        <ele>1731</ele>
        <time>2019-05-11T08:32:45.401Z</time>
      </trkpt>
      <trkpt lat="44.11671" lon="6.97693">
        <ele>1731</ele>
        <time>2019-05-11T08:33:00.416Z</time>
      </trkpt>
      <trkpt lat="44.11671" lon="6.9769">
        <ele>1731</ele>
        <time>2019-05-11T08:33:05.406Z</time>
      </trkpt>
      <trkpt lat="44.11671" lon="6.97689">
        <ele>1731</ele>
        <time>2019-05-11T08:33:09.418Z</time>
      </trkpt>
      <trkpt lat="44.11671" lon="6.97685">
        <ele>1731</ele>
        <time>2019-05-11T08:33:14.415Z</time>
      </trkpt>
      <trkpt lat="44.11671" lon="6.97682">
        <ele>1731</ele>
        <time>2019-05-11T08:33:19.401Z</time>
      </trkpt>
      <trkpt lat="44.11672" lon="6.97678">
        <ele>1743</ele>
        <time>2019-05-11T08:33:23.444Z</time>
      </trkpt>
      <trkpt lat="44.11672" lon="6.97675">
        <ele>1743</ele>
        <time>2019-05-11T08:33:28.400Z</time>
      </trkpt>
      <trkpt lat="44.11672" lon="6.97672">
        <ele>1743</ele>
        <time>2019-05-11T08:33:32.416Z</time>
      </trkpt>
      <trkpt lat="44.11672" lon="6.97668">
        <ele>1743</ele>
        <time>2019-05-11T08:33:37.396Z</time>
      </trkpt>
      <trkpt lat="44.11671" lon="6.97665">
        <ele>1743</ele>
        <time>2019-05-11T08:33:42.428Z</time>
      </trkpt>
      <trkpt lat="44.11669" lon="6.97661">
        <ele>1743</ele>
        <time>2019-05-11T08:34:00.466Z</time>
      </trkpt>
      <trkpt lat="44.11669" lon="6.97658">
        <ele>1743</ele>
        <time>2019-05-11T08:34:05.406Z</time>
      </trkpt>
      <trkpt lat="44.11669" lon="6.97654">
        <ele>1743</ele>
        <time>2019-05-11T08:34:10.393Z</time>
      </trkpt>
      <trkpt lat="44.11669" lon="6.97654">
        <ele>1743</ele>
        <time>2019-05-11T08:34:14.421Z</time>
      </trkpt>
      <trkpt lat="44.11668" lon="6.9765">
        <ele>1751</ele>
        <time>2019-05-11T08:34:19.398Z</time>
      </trkpt>
      <trkpt lat="44.11663" lon="6.97643">
        <ele>1751</ele>
        <time>2019-05-11T08:34:33.399Z</time>
      </trkpt>
      <trkpt lat="44.11663" lon="6.97642">
        <ele>1751</ele>
        <time>2019-05-11T08:34:38.431Z</time>
      </trkpt>
      <trkpt lat="44.11664" lon="6.97639">
        <ele>1751</ele>
        <time>2019-05-11T08:34:43.400Z</time>
      </trkpt>
      <trkpt lat="44.11663" lon="6.97638">
        <ele>1751</ele>
        <time>2019-05-11T08:34:48.393Z</time>
      </trkpt>
      <trkpt lat="44.11663" lon="6.97635">
        <ele>1751</ele>
        <time>2019-05-11T08:34:53.403Z</time>
      </trkpt>
      <trkpt lat="44.11664" lon="6.97635">
        <ele>1751</ele>
        <time>2019-05-11T08:34:58.397Z</time>
      </trkpt>
      <trkpt lat="44.11663" lon="6.97631">
        <ele>1751</ele>
        <time>2019-05-11T08:35:03.399Z</time>
      </trkpt>
      <trkpt lat="44.11662" lon="6.97627">
        <ele>1751</ele>
        <time>2019-05-11T08:35:08.400Z</time>
      </trkpt>
      <trkpt lat="44.11662" lon="6.97623">
        <ele>1755</ele>
        <time>2019-05-11T08:35:13.397Z</time>
      </trkpt>
      <trkpt lat="44.11664" lon="6.97621">
        <ele>1755</ele>
        <time>2019-05-11T08:35:18.397Z</time>
      </trkpt>
      <trkpt lat="44.11665" lon="6.9762">
        <ele>1755</ele>
        <time>2019-05-11T08:35:23.399Z</time>
      </trkpt>
      <trkpt lat="44.11666" lon="6.97616">
        <ele>1755</ele>
        <time>2019-05-11T08:35:28.397Z</time>
      </trkpt>
      <trkpt lat="44.11668" lon="6.9761">
        <ele>1755</ele>
        <time>2019-05-11T08:35:33.432Z</time>
      </trkpt>
      <trkpt lat="44.1167" lon="6.97606">
        <ele>1755</ele>
        <time>2019-05-11T08:35:38.401Z</time>
      </trkpt>
      <trkpt lat="44.11673" lon="6.97608">
        <ele>1755</ele>
        <time>2019-05-11T08:35:48.398Z</time>
      </trkpt>
      <trkpt lat="44.11674" lon="6.97606">
        <ele>1755</ele>
        <time>2019-05-11T08:35:53.395Z</time>
      </trkpt>
      <trkpt lat="44.11677" lon="6.97601">
        <ele>1755</ele>
        <time>2019-05-11T08:35:58.421Z</time>
      </trkpt>
      <trkpt lat="44.1168" lon="6.976">
        <ele>1755</ele>
        <time>2019-05-11T08:36:03.395Z</time>
      </trkpt>
      <trkpt lat="44.1168" lon="6.97599">
        <ele>1755</ele>
        <time>2019-05-11T08:36:08.404Z</time>
      </trkpt>
      <trkpt lat="44.11683" lon="6.97589">
        <ele>1762</ele>
        <time>2019-05-11T08:36:18.397Z</time>
      </trkpt>
      <trkpt lat="44.11684" lon="6.97588">
        <ele>1762</ele>
        <time>2019-05-11T08:36:23.403Z</time>
      </trkpt>
      <trkpt lat="44.11686" lon="6.97588">
        <ele>1762</ele>
        <time>2019-05-11T08:36:27.427Z</time>
      </trkpt>
      <trkpt lat="44.11687" lon="6.97587">
        <ele>1762</ele>
        <time>2019-05-11T08:36:32.401Z</time>
      </trkpt>
      <trkpt lat="44.11689" lon="6.97584">
        <ele>1762</ele>
        <time>2019-05-11T08:36:37.397Z</time>
      </trkpt>
      <trkpt lat="44.11692" lon="6.97579">
        <ele>1762</ele>
        <time>2019-05-11T08:36:52.396Z</time>
      </trkpt>
      <trkpt lat="44.11692" lon="6.97576">
        <ele>1762</ele>
        <time>2019-05-11T08:36:57.398Z</time>
      </trkpt>
      <trkpt lat="44.11691" lon="6.97571">
        <ele>1762</ele>
        <time>2019-05-11T08:37:02.447Z</time>
      </trkpt>
      <trkpt lat="44.11693" lon="6.97571">
        <ele>1762</ele>
        <time>2019-05-11T08:37:07.396Z</time>
      </trkpt>
      <trkpt lat="44.11695" lon="6.9757">
        <ele>1762</ele>
        <time>2019-05-11T08:37:12.398Z</time>
      </trkpt>
      <trkpt lat="44.11696" lon="6.97562">
        <ele>1766</ele>
        <time>2019-05-11T08:37:26.399Z</time>
      </trkpt>
      <trkpt lat="44.11696" lon="6.97559">
        <ele>1766</ele>
        <time>2019-05-11T08:37:31.398Z</time>
      </trkpt>
      <trkpt lat="44.11697" lon="6.97557">
        <ele>1766</ele>
        <time>2019-05-11T08:37:36.405Z</time>
      </trkpt>
      <trkpt lat="44.11698" lon="6.97556">
        <ele>1766</ele>
        <time>2019-05-11T08:37:41.400Z</time>
      </trkpt>
      <trkpt lat="44.11699" lon="6.97554">
        <ele>1766</ele>
        <time>2019-05-11T08:37:45.416Z</time>
      </trkpt>
      <trkpt lat="44.11699" lon="6.97547">
        <ele>1766</ele>
        <time>2019-05-11T08:38:24.420Z</time>
      </trkpt>
      <trkpt lat="44.117" lon="6.97543">
        <ele>1766</ele>
        <time>2019-05-11T08:38:29.391Z</time>
      </trkpt>
      <trkpt lat="44.117" lon="6.97542">
        <ele>1766</ele>
        <time>2019-05-11T08:38:33.424Z</time>
      </trkpt>
      <trkpt lat="44.11699" lon="6.97541">
        <ele>1770</ele>
        <time>2019-05-11T08:38:38.398Z</time>
      </trkpt>
      <trkpt lat="44.11699" lon="6.97537">
        <ele>1770</ele>
        <time>2019-05-11T08:38:43.417Z</time>
      </trkpt>
      <trkpt lat="44.11699" lon="6.97535">
        <ele>1770</ele>
        <time>2019-05-11T08:38:47.403Z</time>
      </trkpt>
      <trkpt lat="44.117" lon="6.97528">
        <ele>1770</ele>
        <time>2019-05-11T08:38:52.402Z</time>
      </trkpt>
      <trkpt lat="44.11699" lon="6.97527">
        <ele>1770</ele>
        <time>2019-05-11T08:38:57.422Z</time>
      </trkpt>
      <trkpt lat="44.11699" lon="6.97524">
        <ele>1770</ele>
        <time>2019-05-11T08:39:02.398Z</time>
      </trkpt>
      <trkpt lat="44.117" lon="6.97518">
        <ele>1770</ele>
        <time>2019-05-11T08:39:07.395Z</time>
      </trkpt>
      <trkpt lat="44.11699" lon="6.97512">
        <ele>1768</ele>
        <time>2019-05-11T08:39:42.396Z</time>
      </trkpt>
      <trkpt lat="44.11699" lon="6.97512">
        <ele>1768</ele>
        <time>2019-05-11T08:39:47.395Z</time>
      </trkpt>
      <trkpt lat="44.11703" lon="6.97508">
        <ele>1768</ele>
        <time>2019-05-11T08:39:52.393Z</time>
      </trkpt>
      <trkpt lat="44.11706" lon="6.97508">
        <ele>1768</ele>
        <time>2019-05-11T08:39:57.390Z</time>
      </trkpt>
      <trkpt lat="44.11708" lon="6.97504">
        <ele>1768</ele>
        <time>2019-05-11T08:40:02.418Z</time>
      </trkpt>
      <trkpt lat="44.1171" lon="6.97501">
        <ele>1779</ele>
        <time>2019-05-11T08:40:07.396Z</time>
      </trkpt>
      <trkpt lat="44.11713" lon="6.975">
        <ele>1779</ele>
        <time>2019-05-11T08:40:11.444Z</time>
      </trkpt>
      <trkpt lat="44.11715" lon="6.97498">
        <ele>1779</ele>
        <time>2019-05-11T08:40:16.405Z</time>
      </trkpt>
      <trkpt lat="44.11718" lon="6.97495">
        <ele>1779</ele>
        <time>2019-05-11T08:40:21.408Z</time>
      </trkpt>
      <trkpt lat="44.1172" lon="6.97494">
        <ele>1779</ele>
        <time>2019-05-11T08:40:26.395Z</time>
      </trkpt>
      <trkpt lat="44.11722" lon="6.97494">
        <ele>1779</ele>
        <time>2019-05-11T08:40:31.399Z</time>
      </trkpt>
      <trkpt lat="44.11722" lon="6.97492">
        <ele>1779</ele>
        <time>2019-05-11T08:40:36.394Z</time>
      </trkpt>
      <trkpt lat="44.11726" lon="6.97491">
        <ele>1779</ele>
        <time>2019-05-11T08:40:40.400Z</time>
      </trkpt>
      <trkpt lat="44.1173" lon="6.97491">
        <ele>1779</ele>
        <time>2019-05-11T08:40:45.396Z</time>
      </trkpt>
      <trkpt lat="44.11733" lon="6.9749">
        <ele>1779</ele>
        <time>2019-05-11T08:40:49.437Z</time>
      </trkpt>
      <trkpt lat="44.11736" lon="6.97489">
        <ele>1782</ele>
        <time>2019-05-11T08:40:54.392Z</time>
      </trkpt>
      <trkpt lat="44.11739" lon="6.97487">
        <ele>1782</ele>
        <time>2019-05-11T08:40:58.400Z</time>
      </trkpt>
      <trkpt lat="44.11742" lon="6.97485">
        <ele>1783</ele>
        <time>2019-05-11T08:41:03.394Z</time>
      </trkpt>
      <trkpt lat="44.11743" lon="6.97485">
        <ele>1783</ele>
        <time>2019-05-11T08:41:08.400Z</time>
      </trkpt>
      <trkpt lat="44.11745" lon="6.97485">
        <ele>1783</ele>
        <time>2019-05-11T08:41:13.394Z</time>
      </trkpt>
      <trkpt lat="44.1175" lon="6.97482">
        <ele>1783</ele>
        <time>2019-05-11T08:41:18.391Z</time>
      </trkpt>
      <trkpt lat="44.11753" lon="6.97482">
        <ele>1783</ele>
        <time>2019-05-11T08:41:23.423Z</time>
      </trkpt>
      <trkpt lat="44.11756" lon="6.97482">
        <ele>1783</ele>
        <time>2019-05-11T08:41:28.389Z</time>
      </trkpt>
      <trkpt lat="44.11758" lon="6.9748">
        <ele>1783</ele>
        <time>2019-05-11T08:41:32.384Z</time>
      </trkpt>
      <trkpt lat="44.11761" lon="6.9748">
        <ele>1783</ele>
        <time>2019-05-11T08:41:37.410Z</time>
      </trkpt>
      <trkpt lat="44.11763" lon="6.9748">
        <ele>1783</ele>
        <time>2019-05-11T08:41:42.391Z</time>
      </trkpt>
      <trkpt lat="44.11767" lon="6.97476">
        <ele>1793</ele>
        <time>2019-05-11T08:41:46.411Z</time>
      </trkpt>
      <trkpt lat="44.1177" lon="6.97475">
        <ele>1793</ele>
        <time>2019-05-11T08:41:50.440Z</time>
      </trkpt>
      <trkpt lat="44.11774" lon="6.97473">
        <ele>1793</ele>
        <time>2019-05-11T08:41:55.388Z</time>
      </trkpt>
      <trkpt lat="44.11777" lon="6.9747">
        <ele>1793</ele>
        <time>2019-05-11T08:42:00.428Z</time>
      </trkpt>
      <trkpt lat="44.1178" lon="6.97468">
        <ele>1793</ele>
        <time>2019-05-11T08:42:05.394Z</time>
      </trkpt>
      <trkpt lat="44.11782" lon="6.97464">
        <ele>1793</ele>
        <time>2019-05-11T08:42:10.393Z</time>
      </trkpt>
      <trkpt lat="44.11784" lon="6.97461">
        <ele>1793</ele>
        <time>2019-05-11T08:42:15.390Z</time>
      </trkpt>
      <trkpt lat="44.11787" lon="6.97459">
        <ele>1793</ele>
        <time>2019-05-11T08:42:20.391Z</time>
      </trkpt>
      <trkpt lat="44.11789" lon="6.97458">
        <ele>1789</ele>
        <time>2019-05-11T08:42:25.391Z</time>
      </trkpt>
      <trkpt lat="44.11792" lon="6.97455">
        <ele>1795</ele>
        <time>2019-05-11T08:42:30.405Z</time>
      </trkpt>
      <trkpt lat="44.11795" lon="6.97451">
        <ele>1795</ele>
        <time>2019-05-11T08:42:35.389Z</time>
      </trkpt>
      <trkpt lat="44.11797" lon="6.97448">
        <ele>1795</ele>
        <time>2019-05-11T08:42:39.402Z</time>
      </trkpt>
      <trkpt lat="44.118" lon="6.97444">
        <ele>1795</ele>
        <time>2019-05-11T08:42:44.389Z</time>
      </trkpt>
      <trkpt lat="44.11802" lon="6.97442">
        <ele>1795</ele>
        <time>2019-05-11T08:42:49.414Z</time>
      </trkpt>
      <trkpt lat="44.11803" lon="6.97439">
        <ele>1795</ele>
        <time>2019-05-11T08:42:54.408Z</time>
      </trkpt>
      <trkpt lat="44.11806" lon="6.97437">
        <ele>1795</ele>
        <time>2019-05-11T08:42:59.387Z</time>
      </trkpt>
      <trkpt lat="44.11807" lon="6.97435">
        <ele>1795</ele>
        <time>2019-05-11T08:43:03.439Z</time>
      </trkpt>
      <trkpt lat="44.11809" lon="6.97433">
        <ele>1795</ele>
        <time>2019-05-11T08:43:08.392Z</time>
      </trkpt>
      <trkpt lat="44.11811" lon="6.9743">
        <ele>1794</ele>
        <time>2019-05-11T08:43:13.392Z</time>
      </trkpt>
      <trkpt lat="44.11813" lon="6.97425">
        <ele>1794</ele>
        <time>2019-05-11T08:43:18.390Z</time>
      </trkpt>
      <trkpt lat="44.11815" lon="6.97423">
        <ele>1794</ele>
        <time>2019-05-11T08:43:23.391Z</time>
      </trkpt>
      <trkpt lat="44.11817" lon="6.97422">
        <ele>1794</ele>
        <time>2019-05-11T08:43:27.399Z</time>
      </trkpt>
      <trkpt lat="44.11818" lon="6.9742">
        <ele>1794</ele>
        <time>2019-05-11T08:43:32.383Z</time>
      </trkpt>
      <trkpt lat="44.11821" lon="6.97417">
        <ele>1806</ele>
        <time>2019-05-11T08:43:37.402Z</time>
      </trkpt>
      <trkpt lat="44.11823" lon="6.97414">
        <ele>1806</ele>
        <time>2019-05-11T08:43:42.401Z</time>
      </trkpt>
      <trkpt lat="44.11825" lon="6.9741">
        <ele>1806</ele>
        <time>2019-05-11T08:43:47.388Z</time>
      </trkpt>
      <trkpt lat="44.11827" lon="6.97409">
        <ele>1806</ele>
        <time>2019-05-11T08:43:52.390Z</time>
      </trkpt>
      <trkpt lat="44.1183" lon="6.97404">
        <ele>1806</ele>
        <time>2019-05-11T08:43:57.385Z</time>
      </trkpt>
      <trkpt lat="44.11831" lon="6.97403">
        <ele>1806</ele>
        <time>2019-05-11T08:44:01.418Z</time>
      </trkpt>
      <trkpt lat="44.11833" lon="6.97399">
        <ele>1806</ele>
        <time>2019-05-11T08:44:06.387Z</time>
      </trkpt>
      <trkpt lat="44.11835" lon="6.97396">
        <ele>1806</ele>
        <time>2019-05-11T08:44:11.405Z</time>
      </trkpt>
      <trkpt lat="44.11836" lon="6.97394">
        <ele>1806</ele>
        <time>2019-05-11T08:44:16.390Z</time>
      </trkpt>
      <trkpt lat="44.11837" lon="6.97392">
        <ele>1806</ele>
        <time>2019-05-11T08:44:21.388Z</time>
      </trkpt>
      <trkpt lat="44.11839" lon="6.9739">
        <ele>1806</ele>
        <time>2019-05-11T08:44:26.390Z</time>
      </trkpt>
      <trkpt lat="44.11841" lon="6.97386">
        <ele>1806</ele>
        <time>2019-05-11T08:44:31.389Z</time>
      </trkpt>
      <trkpt lat="44.11844" lon="6.97383">
        <ele>1806</ele>
        <time>2019-05-11T08:44:36.390Z</time>
      </trkpt>
      <trkpt lat="44.11845" lon="6.97382">
        <ele>1806</ele>
        <time>2019-05-11T08:44:41.388Z</time>
      </trkpt>
      <trkpt lat="44.11847" lon="6.97378">
        <ele>1806</ele>
        <time>2019-05-11T08:44:45.409Z</time>
      </trkpt>
      <trkpt lat="44.11852" lon="6.97367">
        <ele>1815</ele>
        <time>2019-05-11T08:45:35.388Z</time>
      </trkpt>
      <trkpt lat="44.11854" lon="6.97366">
        <ele>1815</ele>
        <time>2019-05-11T08:45:40.386Z</time>
      </trkpt>
      <trkpt lat="44.11858" lon="6.97365">
        <ele>1815</ele>
        <time>2019-05-11T08:45:45.388Z</time>
      </trkpt>
      <trkpt lat="44.11862" lon="6.97362">
        <ele>1815</ele>
        <time>2019-05-11T08:45:50.386Z</time>
      </trkpt>
      <trkpt lat="44.11866" lon="6.97358">
        <ele>1815</ele>
        <time>2019-05-11T08:45:56.364Z</time>
      </trkpt>
      <trkpt lat="44.11867" lon="6.97357">
        <ele>1815</ele>
        <time>2019-05-11T08:46:01.383Z</time>
      </trkpt>
      <trkpt lat="44.11868" lon="6.97355">
        <ele>1815</ele>
        <time>2019-05-11T08:46:06.373Z</time>
      </trkpt>
      <trkpt lat="44.11871" lon="6.97353">
        <ele>1815</ele>
        <time>2019-05-11T08:46:11.388Z</time>
      </trkpt>
      <trkpt lat="44.11876" lon="6.97349">
        <ele>1822</ele>
        <time>2019-05-11T08:46:16.388Z</time>
      </trkpt>
      <trkpt lat="44.11881" lon="6.97344">
        <ele>1818</ele>
        <time>2019-05-11T08:46:21.388Z</time>
      </trkpt>
      <trkpt lat="44.11884" lon="6.97342">
        <ele>1818</ele>
        <time>2019-05-11T08:46:25.416Z</time>
      </trkpt>
      <trkpt lat="44.11887" lon="6.9734">
        <ele>1818</ele>
        <time>2019-05-11T08:46:30.386Z</time>
      </trkpt>
      <trkpt lat="44.1189" lon="6.97337">
        <ele>1818</ele>
        <time>2019-05-11T08:46:34.407Z</time>
      </trkpt>
      <trkpt lat="44.11895" lon="6.97331">
        <ele>1818</ele>
        <time>2019-05-11T08:46:39.408Z</time>
      </trkpt>
      <trkpt lat="44.11898" lon="6.97328">
        <ele>1818</ele>
        <time>2019-05-11T08:46:44.386Z</time>
      </trkpt>
      <trkpt lat="44.11901" lon="6.97327">
        <ele>1818</ele>
        <time>2019-05-11T08:46:49.388Z</time>
      </trkpt>
      <trkpt lat="44.11903" lon="6.97325">
        <ele>1822</ele>
        <time>2019-05-11T08:46:53.404Z</time>
      </trkpt>
      <trkpt lat="44.11905" lon="6.97323">
        <ele>1822</ele>
        <time>2019-05-11T08:46:58.407Z</time>
      </trkpt>
      <trkpt lat="44.11909" lon="6.97323">
        <ele>1822</ele>
        <time>2019-05-11T08:47:03.384Z</time>
      </trkpt>
      <trkpt lat="44.11913" lon="6.97322">
        <ele>1822</ele>
        <time>2019-05-11T08:47:08.394Z</time>
      </trkpt>
      <trkpt lat="44.11917" lon="6.9732">
        <ele>1822</ele>
        <time>2019-05-11T08:47:13.388Z</time>
      </trkpt>
      <trkpt lat="44.1192" lon="6.97316">
        <ele>1825</ele>
        <time>2019-05-11T08:47:18.382Z</time>
      </trkpt>
      <trkpt lat="44.11919" lon="6.97318">
        <ele>1825</ele>
        <time>2019-05-11T08:47:33.388Z</time>
      </trkpt>
      <trkpt lat="44.1192" lon="6.97318">
        <ele>1825</ele>
        <time>2019-05-11T08:47:38.381Z</time>
      </trkpt>
      <trkpt lat="44.11923" lon="6.97317">
        <ele>1825</ele>
        <time>2019-05-11T08:47:42.408Z</time>
      </trkpt>
      <trkpt lat="44.11927" lon="6.97314">
        <ele>1825</ele>
        <time>2019-05-11T08:47:47.386Z</time>
      </trkpt>
      <trkpt lat="44.1193" lon="6.97311">
        <ele>1825</ele>
        <time>2019-05-11T08:47:52.387Z</time>
      </trkpt>
      <trkpt lat="44.11934" lon="6.97307">
        <ele>1827</ele>
        <time>2019-05-11T08:48:17.387Z</time>
      </trkpt>
      <trkpt lat="44.11935" lon="6.97307">
        <ele>1827</ele>
        <time>2019-05-11T08:48:22.387Z</time>
      </trkpt>
      <trkpt lat="44.11938" lon="6.97304">
        <ele>1827</ele>
        <time>2019-05-11T08:48:27.446Z</time>
      </trkpt>
      <trkpt lat="44.11941" lon="6.97302">
        <ele>1827</ele>
        <time>2019-05-11T08:48:32.387Z</time>
      </trkpt>
      <trkpt lat="44.11944" lon="6.97301">
        <ele>1827</ele>
        <time>2019-05-11T08:48:37.389Z</time>
      </trkpt>
      <trkpt lat="44.11947" lon="6.97301">
        <ele>1827</ele>
        <time>2019-05-11T08:48:42.387Z</time>
      </trkpt>
      <trkpt lat="44.11951" lon="6.97299">
        <ele>1827</ele>
        <time>2019-05-11T08:48:47.389Z</time>
      </trkpt>
      <trkpt lat="44.11955" lon="6.97296">
        <ele>1827</ele>
        <time>2019-05-11T08:48:52.387Z</time>
      </trkpt>
      <trkpt lat="44.11958" lon="6.97293">
        <ele>1827</ele>
        <time>2019-05-11T08:48:57.388Z</time>
      </trkpt>
      <trkpt lat="44.11965" lon="6.97294">
        <ele>1831</ele>
        <time>2019-05-11T08:51:14.412Z</time>
      </trkpt>
      <trkpt lat="44.11964" lon="6.97299">
        <ele>1831</ele>
        <time>2019-05-11T08:51:19.379Z</time>
      </trkpt>
      <trkpt lat="44.11964" lon="6.97305">
        <ele>1831</ele>
        <time>2019-05-11T08:51:24.388Z</time>
      </trkpt>
      <trkpt lat="44.11965" lon="6.97314">
        <ele>1831</ele>
        <time>2019-05-11T08:51:29.374Z</time>
      </trkpt>
      <trkpt lat="44.11966" lon="6.9732">
        <ele>1829</ele>
        <time>2019-05-11T08:51:33.389Z</time>
      </trkpt>
      <trkpt lat="44.11966" lon="6.97327">
        <ele>1829</ele>
        <time>2019-05-11T08:51:38.397Z</time>
      </trkpt>
      <trkpt lat="44.11967" lon="6.97332">
        <ele>1829</ele>
        <time>2019-05-11T08:51:43.405Z</time>
      </trkpt>
      <trkpt lat="44.11968" lon="6.9734">
        <ele>1829</ele>
        <time>2019-05-11T08:51:48.373Z</time>
      </trkpt>
      <trkpt lat="44.11969" lon="6.97343">
        <ele>1829</ele>
        <time>2019-05-11T08:51:52.392Z</time>
      </trkpt>
      <trkpt lat="44.1197" lon="6.9735">
        <ele>1826</ele>
        <time>2019-05-11T08:51:57.385Z</time>
      </trkpt>
      <trkpt lat="44.11972" lon="6.97355">
        <ele>1826</ele>
        <time>2019-05-11T08:52:01.393Z</time>
      </trkpt>
      <trkpt lat="44.11974" lon="6.97363">
        <ele>1826</ele>
        <time>2019-05-11T08:52:06.404Z</time>
      </trkpt>
      <trkpt lat="44.11977" lon="6.97367">
        <ele>1826</ele>
        <time>2019-05-11T08:52:11.387Z</time>
      </trkpt>
      <trkpt lat="44.1198" lon="6.9737">
        <ele>1826</ele>
        <time>2019-05-11T08:52:15.403Z</time>
      </trkpt>
      <trkpt lat="44.11983" lon="6.97375">
        <ele>1822</ele>
        <time>2019-05-11T08:52:20.375Z</time>
      </trkpt>
      <trkpt lat="44.11985" lon="6.97381">
        <ele>1822</ele>
        <time>2019-05-11T08:52:24.409Z</time>
      </trkpt>
      <trkpt lat="44.11987" lon="6.97389">
        <ele>1825</ele>
        <time>2019-05-11T08:52:29.379Z</time>
      </trkpt>
      <trkpt lat="44.11991" lon="6.97394">
        <ele>1825</ele>
        <time>2019-05-11T08:52:33.409Z</time>
      </trkpt>
      <trkpt lat="44.11993" lon="6.97398">
        <ele>1825</ele>
        <time>2019-05-11T08:52:38.393Z</time>
      </trkpt>
      <trkpt lat="44.11995" lon="6.974">
        <ele>1825</ele>
        <time>2019-05-11T08:52:43.391Z</time>
      </trkpt>
      <trkpt lat="44.11998" lon="6.97401">
        <ele>1825</ele>
        <time>2019-05-11T08:52:48.380Z</time>
      </trkpt>
      <trkpt lat="44.12" lon="6.97402">
        <ele>1825</ele>
        <time>2019-05-11T08:52:58.384Z</time>
      </trkpt>
      <trkpt lat="44.12" lon="6.97402">
        <ele>1825</ele>
        <time>2019-05-11T08:53:03.389Z</time>
      </trkpt>
      <trkpt lat="44.12001" lon="6.97406">
        <ele>1817</ele>
        <time>2019-05-11T08:53:08.379Z</time>
      </trkpt>
      <trkpt lat="44.12003" lon="6.9741">
        <ele>1817</ele>
        <time>2019-05-11T08:53:13.364Z</time>
      </trkpt>
      <trkpt lat="44.12007" lon="6.97413">
        <ele>1817</ele>
        <time>2019-05-11T08:53:17.387Z</time>
      </trkpt>
      <trkpt lat="44.12012" lon="6.97416">
        <ele>1817</ele>
        <time>2019-05-11T08:53:22.382Z</time>
      </trkpt>
      <trkpt lat="44.12016" lon="6.9742">
        <ele>1820</ele>
        <time>2019-05-11T08:53:27.392Z</time>
      </trkpt>
      <trkpt lat="44.12019" lon="6.97425">
        <ele>1820</ele>
        <time>2019-05-11T08:53:32.386Z</time>
      </trkpt>
      <trkpt lat="44.12024" lon="6.97429">
        <ele>1820</ele>
        <time>2019-05-11T08:53:36.397Z</time>
      </trkpt>
      <trkpt lat="44.12032" lon="6.9743">
        <ele>1820</ele>
        <time>2019-05-11T08:53:41.415Z</time>
      </trkpt>
      <trkpt lat="44.12038" lon="6.97431">
        <ele>1812</ele>
        <time>2019-05-11T08:53:46.413Z</time>
      </trkpt>
      <trkpt lat="44.12043" lon="6.97433">
        <ele>1813</ele>
        <time>2019-05-11T08:53:51.384Z</time>
      </trkpt>
      <trkpt lat="44.12049" lon="6.97438">
        <ele>1813</ele>
        <time>2019-05-11T08:53:56.396Z</time>
      </trkpt>
      <trkpt lat="44.12056" lon="6.97438">
        <ele>1813</ele>
        <time>2019-05-11T08:54:01.383Z</time>
      </trkpt>
      <trkpt lat="44.12061" lon="6.97439">
        <ele>1813</ele>
        <time>2019-05-11T08:54:06.375Z</time>
      </trkpt>
      <trkpt lat="44.12065" lon="6.9744">
        <ele>1813</ele>
        <time>2019-05-11T08:54:10.412Z</time>
      </trkpt>
      <trkpt lat="44.1207" lon="6.97442">
        <ele>1820</ele>
        <time>2019-05-11T08:54:15.386Z</time>
      </trkpt>
      <trkpt lat="44.12076" lon="6.97444">
        <ele>1820</ele>
        <time>2019-05-11T08:54:20.383Z</time>
      </trkpt>
      <trkpt lat="44.12079" lon="6.97447">
        <ele>1820</ele>
        <time>2019-05-11T08:54:24.396Z</time>
      </trkpt>
      <trkpt lat="44.12085" lon="6.97451">
        <ele>1820</ele>
        <time>2019-05-11T08:54:29.390Z</time>
      </trkpt>
      <trkpt lat="44.12089" lon="6.97456">
        <ele>1820</ele>
        <time>2019-05-11T08:54:34.378Z</time>
      </trkpt>
      <trkpt lat="44.12089" lon="6.97459">
        <ele>1812</ele>
        <time>2019-05-11T08:54:38.408Z</time>
      </trkpt>
      <trkpt lat="44.1209" lon="6.97468">
        <ele>1812</ele>
        <time>2019-05-11T08:54:43.400Z</time>
      </trkpt>
      <trkpt lat="44.12091" lon="6.97474">
        <ele>1812</ele>
        <time>2019-05-11T08:54:48.380Z</time>
      </trkpt>
      <trkpt lat="44.12092" lon="6.97481">
        <ele>1812</ele>
        <time>2019-05-11T08:54:52.401Z</time>
      </trkpt>
      <trkpt lat="44.12093" lon="6.97488">
        <ele>1805</ele>
        <time>2019-05-11T08:54:57.393Z</time>
      </trkpt>
      <trkpt lat="44.12094" lon="6.97496">
        <ele>1805</ele>
        <time>2019-05-11T08:55:02.402Z</time>
      </trkpt>
      <trkpt lat="44.12097" lon="6.97505">
        <ele>1805</ele>
        <time>2019-05-11T08:55:07.387Z</time>
      </trkpt>
      <trkpt lat="44.12097" lon="6.97513">
        <ele>1805</ele>
        <time>2019-05-11T08:55:12.433Z</time>
      </trkpt>
      <trkpt lat="44.121" lon="6.97517">
        <ele>1812</ele>
        <time>2019-05-11T08:55:17.384Z</time>
      </trkpt>
      <trkpt lat="44.12103" lon="6.97523">
        <ele>1812</ele>
        <time>2019-05-11T08:55:22.407Z</time>
      </trkpt>
      <trkpt lat="44.12106" lon="6.97526">
        <ele>1812</ele>
        <time>2019-05-11T08:55:27.402Z</time>
      </trkpt>
      <trkpt lat="44.12107" lon="6.97537">
        <ele>1812</ele>
        <time>2019-05-11T08:55:32.384Z</time>
      </trkpt>
      <trkpt lat="44.12108" lon="6.97545">
        <ele>1806</ele>
        <time>2019-05-11T08:55:36.410Z</time>
      </trkpt>
      <trkpt lat="44.12108" lon="6.97555">
        <ele>1806</ele>
        <time>2019-05-11T08:55:41.380Z</time>
      </trkpt>
      <trkpt lat="44.1211" lon="6.97561">
        <ele>1806</ele>
        <time>2019-05-11T08:55:46.387Z</time>
      </trkpt>
      <trkpt lat="44.12112" lon="6.97565">
        <ele>1806</ele>
        <time>2019-05-11T08:55:51.379Z</time>
      </trkpt>
      <trkpt lat="44.12115" lon="6.97572">
        <ele>1799</ele>
        <time>2019-05-11T08:55:56.383Z</time>
      </trkpt>
      <trkpt lat="44.12119" lon="6.97575">
        <ele>1799</ele>
        <time>2019-05-11T08:56:01.377Z</time>
      </trkpt>
      <trkpt lat="44.12122" lon="6.97578">
        <ele>1799</ele>
        <time>2019-05-11T08:56:05.404Z</time>
      </trkpt>
      <trkpt lat="44.12125" lon="6.97587">
        <ele>1799</ele>
        <time>2019-05-11T08:56:10.381Z</time>
      </trkpt>
      <trkpt lat="44.12127" lon="6.97595">
        <ele>1809</ele>
        <time>2019-05-11T08:56:15.381Z</time>
      </trkpt>
      <trkpt lat="44.12129" lon="6.976">
        <ele>1799</ele>
        <time>2019-05-11T08:56:19.399Z</time>
      </trkpt>
      <trkpt lat="44.12131" lon="6.97609">
        <ele>1799</ele>
        <time>2019-05-11T08:56:24.382Z</time>
      </trkpt>
      <trkpt lat="44.12133" lon="6.97613">
        <ele>1799</ele>
        <time>2019-05-11T08:56:28.400Z</time>
      </trkpt>
      <trkpt lat="44.12135" lon="6.97621">
        <ele>1799</ele>
        <time>2019-05-11T08:56:33.379Z</time>
      </trkpt>
      <trkpt lat="44.1214" lon="6.97623">
        <ele>1799</ele>
        <time>2019-05-11T08:56:38.411Z</time>
      </trkpt>
      <trkpt lat="44.12143" lon="6.97631">
        <ele>1789</ele>
        <time>2019-05-11T08:56:43.381Z</time>
      </trkpt>
      <trkpt lat="44.12148" lon="6.97634">
        <ele>1789</ele>
        <time>2019-05-11T08:56:48.376Z</time>
      </trkpt>
      <trkpt lat="44.1215" lon="6.97643">
        <ele>1789</ele>
        <time>2019-05-11T08:56:52.397Z</time>
      </trkpt>
      <trkpt lat="44.12151" lon="6.97652">
        <ele>1789</ele>
        <time>2019-05-11T08:56:57.381Z</time>
      </trkpt>
      <trkpt lat="44.12151" lon="6.97659">
        <ele>1781</ele>
        <time>2019-05-11T08:57:02.380Z</time>
      </trkpt>
      <trkpt lat="44.12157" lon="6.97657">
        <ele>1790</ele>
        <time>2019-05-11T08:57:07.380Z</time>
      </trkpt>
      <trkpt lat="44.12158" lon="6.97655">
        <ele>1790</ele>
        <time>2019-05-11T08:57:47.379Z</time>
      </trkpt>
      <trkpt lat="44.1216" lon="6.97659">
        <ele>1790</ele>
        <time>2019-05-11T08:57:52.376Z</time>
      </trkpt>
      <trkpt lat="44.12162" lon="6.97665">
        <ele>1790</ele>
        <time>2019-05-11T08:57:57.445Z</time>
      </trkpt>
      <trkpt lat="44.12163" lon="6.97668">
        <ele>1790</ele>
        <time>2019-05-11T08:58:02.405Z</time>
      </trkpt>
      <trkpt lat="44.12167" lon="6.97674">
        <ele>1790</ele>
        <time>2019-05-11T08:58:07.406Z</time>
      </trkpt>
      <trkpt lat="44.1217" lon="6.97679">
        <ele>1790</ele>
        <time>2019-05-11T08:58:12.398Z</time>
      </trkpt>
      <trkpt lat="44.12171" lon="6.97683">
        <ele>1782</ele>
        <time>2019-05-11T08:58:17.382Z</time>
      </trkpt>
      <trkpt lat="44.12172" lon="6.9769">
        <ele>1782</ele>
        <time>2019-05-11T08:58:22.374Z</time>
      </trkpt>
      <trkpt lat="44.12174" lon="6.97696">
        <ele>1782</ele>
        <time>2019-05-11T08:58:26.412Z</time>
      </trkpt>
      <trkpt lat="44.12182" lon="6.97699">
        <ele>1793</ele>
        <time>2019-05-11T08:58:31.381Z</time>
      </trkpt>
      <trkpt lat="44.12189" lon="6.97702">
        <ele>1793</ele>
        <time>2019-05-11T08:58:36.385Z</time>
      </trkpt>
      <trkpt lat="44.12195" lon="6.97705">
        <ele>1793</ele>
        <time>2019-05-11T08:58:41.384Z</time>
      </trkpt>
      <trkpt lat="44.12195" lon="6.97712">
        <ele>1784</ele>
        <time>2019-05-11T08:58:46.374Z</time>
      </trkpt>
      <trkpt lat="44.12198" lon="6.97719">
        <ele>1784</ele>
        <time>2019-05-11T08:58:51.386Z</time>
      </trkpt>
      <trkpt lat="44.12204" lon="6.97722">
        <ele>1784</ele>
        <time>2019-05-11T08:58:56.417Z</time>
      </trkpt>
      <trkpt lat="44.12207" lon="6.9773">
        <ele>1784</ele>
        <time>2019-05-11T08:59:01.380Z</time>
      </trkpt>
      <trkpt lat="44.1221" lon="6.97735">
        <ele>1794</ele>
        <time>2019-05-11T08:59:05.392Z</time>
      </trkpt>
      <trkpt lat="44.12213" lon="6.97741">
        <ele>1785</ele>
        <time>2019-05-11T08:59:10.384Z</time>
      </trkpt>
      <trkpt lat="44.12214" lon="6.97748">
        <ele>1785</ele>
        <time>2019-05-11T08:59:15.382Z</time>
      </trkpt>
      <trkpt lat="44.12217" lon="6.97754">
        <ele>1785</ele>
        <time>2019-05-11T08:59:20.397Z</time>
      </trkpt>
      <trkpt lat="44.12219" lon="6.97759">
        <ele>1785</ele>
        <time>2019-05-11T08:59:25.384Z</time>
      </trkpt>
      <trkpt lat="44.12221" lon="6.97765">
        <ele>1775</ele>
        <time>2019-05-11T08:59:30.383Z</time>
      </trkpt>
      <trkpt lat="44.12225" lon="6.97774">
        <ele>1775</ele>
        <time>2019-05-11T08:59:35.372Z</time>
      </trkpt>
      <trkpt lat="44.1223" lon="6.97777">
        <ele>1775</ele>
        <time>2019-05-11T08:59:39.388Z</time>
      </trkpt>
      <trkpt lat="44.12237" lon="6.97782">
        <ele>1784</ele>
        <time>2019-05-11T08:59:44.381Z</time>
      </trkpt>
      <trkpt lat="44.12242" lon="6.97782">
        <ele>1784</ele>
        <time>2019-05-11T08:59:49.384Z</time>
      </trkpt>
      <trkpt lat="44.12246" lon="6.97788">
        <ele>1784</ele>
        <time>2019-05-11T08:59:54.379Z</time>
      </trkpt>
      <trkpt lat="44.12251" lon="6.9779">
        <ele>1784</ele>
        <time>2019-05-11T08:59:59.387Z</time>
      </trkpt>
      <trkpt lat="44.12255" lon="6.97792">
        <ele>1775</ele>
        <time>2019-05-11T09:00:03.410Z</time>
      </trkpt>
      <trkpt lat="44.1226" lon="6.97796">
        <ele>1775</ele>
        <time>2019-05-11T09:00:08.379Z</time>
      </trkpt>
      <trkpt lat="44.12268" lon="6.97797">
        <ele>1778</ele>
        <time>2019-05-11T09:00:13.374Z</time>
      </trkpt>
      <trkpt lat="44.12274" lon="6.97796">
        <ele>1778</ele>
        <time>2019-05-11T09:00:18.384Z</time>
      </trkpt>
      <trkpt lat="44.12277" lon="6.97799">
        <ele>1778</ele>
        <time>2019-05-11T09:00:23.384Z</time>
      </trkpt>
      <trkpt lat="44.12277" lon="6.97799">
        <ele>1778</ele>
        <time>2019-05-11T09:00:43.388Z</time>
      </trkpt>
      <trkpt lat="44.12277" lon="6.97799">
        <ele>1778</ele>
        <time>2019-05-11T09:00:48.393Z</time>
      </trkpt>
      <trkpt lat="44.12278" lon="6.97799">
        <ele>1778</ele>
        <time>2019-05-11T09:00:53.382Z</time>
      </trkpt>
      <trkpt lat="44.12282" lon="6.97806">
        <ele>1778</ele>
        <time>2019-05-11T09:00:58.409Z</time>
      </trkpt>
      <trkpt lat="44.12286" lon="6.97812">
        <ele>1778</ele>
        <time>2019-05-11T09:01:03.379Z</time>
      </trkpt>
      <trkpt lat="44.12289" lon="6.97816">
        <ele>1778</ele>
        <time>2019-05-11T09:01:08.410Z</time>
      </trkpt>
      <trkpt lat="44.12293" lon="6.97819">
        <ele>1777</ele>
        <time>2019-05-11T09:01:13.378Z</time>
      </trkpt>
      <trkpt lat="44.12297" lon="6.97822">
        <ele>1766</ele>
        <time>2019-05-11T09:01:17.405Z</time>
      </trkpt>
      <trkpt lat="44.12302" lon="6.97825">
        <ele>1766</ele>
        <time>2019-05-11T09:01:22.386Z</time>
      </trkpt>
      <trkpt lat="44.12306" lon="6.97826">
        <ele>1766</ele>
        <time>2019-05-11T09:01:26.397Z</time>
      </trkpt>
      <trkpt lat="44.12311" lon="6.97827">
        <ele>1766</ele>
        <time>2019-05-11T09:01:31.386Z</time>
      </trkpt>
      <trkpt lat="44.12316" lon="6.97827">
        <ele>1766</ele>
        <time>2019-05-11T09:01:35.417Z</time>
      </trkpt>
      <trkpt lat="44.12322" lon="6.97828">
        <ele>1763</ele>
        <time>2019-05-11T09:01:40.404Z</time>
      </trkpt>
      <trkpt lat="44.12326" lon="6.97829">
        <ele>1763</ele>
        <time>2019-05-11T09:01:45.383Z</time>
      </trkpt>
      <trkpt lat="44.12329" lon="6.97829">
        <ele>1763</ele>
        <time>2019-05-11T09:01:50.384Z</time>
      </trkpt>
      <trkpt lat="44.12335" lon="6.97828">
        <ele>1763</ele>
        <time>2019-05-11T09:01:55.384Z</time>
      </trkpt>
      <trkpt lat="44.1234" lon="6.97825">
        <ele>1763</ele>
        <time>2019-05-11T09:02:00.401Z</time>
      </trkpt>
      <trkpt lat="44.12347" lon="6.97826">
        <ele>1763</ele>
        <time>2019-05-11T09:02:05.384Z</time>
      </trkpt>
      <trkpt lat="44.12352" lon="6.97828">
        <ele>1767</ele>
        <time>2019-05-11T09:02:10.381Z</time>
      </trkpt>
      <trkpt lat="44.12356" lon="6.97831">
        <ele>1767</ele>
        <time>2019-05-11T09:02:15.414Z</time>
      </trkpt>
      <trkpt lat="44.1236" lon="6.97831">
        <ele>1767</ele>
        <time>2019-05-11T09:02:20.394Z</time>
      </trkpt>
      <trkpt lat="44.12366" lon="6.97832">
        <ele>1767</ele>
        <time>2019-05-11T09:02:25.381Z</time>
      </trkpt>
      <trkpt lat="44.12368" lon="6.97832">
        <ele>1767</ele>
        <time>2019-05-11T09:02:30.379Z</time>
      </trkpt>
      <trkpt lat="44.12371" lon="6.97834">
        <ele>1767</ele>
        <time>2019-05-11T09:02:34.391Z</time>
      </trkpt>
      <trkpt lat="44.12377" lon="6.97839">
        <ele>1770</ele>
        <time>2019-05-11T09:02:39.403Z</time>
      </trkpt>
      <trkpt lat="44.1238" lon="6.97845">
        <ele>1770</ele>
        <time>2019-05-11T09:02:44.379Z</time>
      </trkpt>
      <trkpt lat="44.12382" lon="6.97852">
        <ele>1762</ele>
        <time>2019-05-11T09:02:49.388Z</time>
      </trkpt>
      <trkpt lat="44.12386" lon="6.97858">
        <ele>1762</ele>
        <time>2019-05-11T09:02:54.379Z</time>
      </trkpt>
      <trkpt lat="44.12393" lon="6.97856">
        <ele>1762</ele>
        <time>2019-05-11T09:02:59.377Z</time>
      </trkpt>
      <trkpt lat="44.12398" lon="6.97857">
        <ele>1762</ele>
        <time>2019-05-11T09:03:04.384Z</time>
      </trkpt>
      <trkpt lat="44.12404" lon="6.97857">
        <ele>1766</ele>
        <time>2019-05-11T09:03:09.409Z</time>
      </trkpt>
      <trkpt lat="44.12412" lon="6.97855">
        <ele>1766</ele>
        <time>2019-05-11T09:03:14.381Z</time>
      </trkpt>
      <trkpt lat="44.12417" lon="6.97859">
        <ele>1766</ele>
        <time>2019-05-11T09:03:19.382Z</time>
      </trkpt>
      <trkpt lat="44.12423" lon="6.9786">
        <ele>1766</ele>
        <time>2019-05-11T09:03:23.413Z</time>
      </trkpt>
      <trkpt lat="44.1243" lon="6.97862">
        <ele>1766</ele>
        <time>2019-05-11T09:03:28.397Z</time>
      </trkpt>
      <trkpt lat="44.12437" lon="6.97863">
        <ele>1770</ele>
        <time>2019-05-11T09:03:33.380Z</time>
      </trkpt>
      <trkpt lat="44.1244" lon="6.97865">
        <ele>1770</ele>
        <time>2019-05-11T09:03:38.384Z</time>
      </trkpt>
      <trkpt lat="44.12446" lon="6.97871">
        <ele>1770</ele>
        <time>2019-05-11T09:04:22.380Z</time>
      </trkpt>
      <trkpt lat="44.12446" lon="6.97871">
        <ele>1770</ele>
        <time>2019-05-11T09:04:27.379Z</time>
      </trkpt>
      <trkpt lat="44.12446" lon="6.97871">
        <ele>1770</ele>
        <time>2019-05-11T09:04:32.381Z</time>
      </trkpt>
      <trkpt lat="44.12447" lon="6.97871">
        <ele>1770</ele>
        <time>2019-05-11T09:04:37.376Z</time>
      </trkpt>
      <trkpt lat="44.12448" lon="6.97874">
        <ele>1770</ele>
        <time>2019-05-11T09:04:41.389Z</time>
      </trkpt>
      <trkpt lat="44.12448" lon="6.97882">
        <ele>1766</ele>
        <time>2019-05-11T09:04:46.382Z</time>
      </trkpt>
      <trkpt lat="44.12446" lon="6.97886">
        <ele>1766</ele>
        <time>2019-05-11T09:04:51.400Z</time>
      </trkpt>
      <trkpt lat="44.12443" lon="6.97892">
        <ele>1766</ele>
        <time>2019-05-11T09:04:56.384Z</time>
      </trkpt>
      <trkpt lat="44.12442" lon="6.97898">
        <ele>1766</ele>
        <time>2019-05-11T09:05:00.419Z</time>
      </trkpt>
      <trkpt lat="44.1244" lon="6.97904">
        <ele>1762</ele>
        <time>2019-05-11T09:05:05.390Z</time>
      </trkpt>
      <trkpt lat="44.12436" lon="6.97911">
        <ele>1762</ele>
        <time>2019-05-11T09:05:10.383Z</time>
      </trkpt>
      <trkpt lat="44.12432" lon="6.9792">
        <ele>1762</ele>
        <time>2019-05-11T09:05:15.380Z</time>
      </trkpt>
      <trkpt lat="44.12428" lon="6.97926">
        <ele>1752</ele>
        <time>2019-05-11T09:05:20.378Z</time>
      </trkpt>
      <trkpt lat="44.12425" lon="6.97933">
        <ele>1749</ele>
        <time>2019-05-11T09:05:25.405Z</time>
      </trkpt>
      <trkpt lat="44.12423" lon="6.97942">
        <ele>1749</ele>
        <time>2019-05-11T09:05:30.415Z</time>
      </trkpt>
      <trkpt lat="44.12421" lon="6.9795">
        <ele>1749</ele>
        <time>2019-05-11T09:05:35.406Z</time>
      </trkpt>
      <trkpt lat="44.1242" lon="6.97961">
        <ele>1750</ele>
        <time>2019-05-11T09:05:40.383Z</time>
      </trkpt>
      <trkpt lat="44.12424" lon="6.97968">
        <ele>1750</ele>
        <time>2019-05-11T09:05:44.396Z</time>
      </trkpt>
      <trkpt lat="44.12425" lon="6.97975">
        <ele>1750</ele>
        <time>2019-05-11T09:05:49.373Z</time>
      </trkpt>
      <trkpt lat="44.12427" lon="6.97981">
        <ele>1750</ele>
        <time>2019-05-11T09:05:54.381Z</time>
      </trkpt>
      <trkpt lat="44.12429" lon="6.97988">
        <ele>1749</ele>
        <time>2019-05-11T09:05:59.382Z</time>
      </trkpt>
      <trkpt lat="44.12431" lon="6.97994">
        <ele>1761</ele>
        <time>2019-05-11T09:06:03.386Z</time>
      </trkpt>
      <trkpt lat="44.12431" lon="6.98">
        <ele>1761</ele>
        <time>2019-05-11T09:06:07.397Z</time>
      </trkpt>
      <trkpt lat="44.12432" lon="6.98011">
        <ele>1761</ele>
        <time>2019-05-11T09:06:12.377Z</time>
      </trkpt>
      <trkpt lat="44.12434" lon="6.98019">
        <ele>1759</ele>
        <time>2019-05-11T09:06:17.375Z</time>
      </trkpt>
      <trkpt lat="44.12434" lon="6.98026">
        <ele>1759</ele>
        <time>2019-05-11T09:06:21.434Z</time>
      </trkpt>
      <trkpt lat="44.12434" lon="6.98035">
        <ele>1759</ele>
        <time>2019-05-11T09:06:26.397Z</time>
      </trkpt>
      <trkpt lat="44.12434" lon="6.9804">
        <ele>1759</ele>
        <time>2019-05-11T09:06:30.360Z</time>
      </trkpt>
      <trkpt lat="44.12435" lon="6.98048">
        <ele>1756</ele>
        <time>2019-05-11T09:06:35.399Z</time>
      </trkpt>
      <trkpt lat="44.12434" lon="6.98056">
        <ele>1756</ele>
        <time>2019-05-11T09:06:40.380Z</time>
      </trkpt>
      <trkpt lat="44.12433" lon="6.98059">
        <ele>1756</ele>
        <time>2019-05-11T09:06:44.391Z</time>
      </trkpt>
      <trkpt lat="44.12428" lon="6.98067">
        <ele>1747</ele>
        <time>2019-05-11T09:06:49.374Z</time>
      </trkpt>
      <trkpt lat="44.12426" lon="6.9807">
        <ele>1748</ele>
        <time>2019-05-11T09:06:53.387Z</time>
      </trkpt>
      <trkpt lat="44.12424" lon="6.98075">
        <ele>1748</ele>
        <time>2019-05-11T09:06:57.403Z</time>
      </trkpt>
      <trkpt lat="44.1242" lon="6.98082">
        <ele>1748</ele>
        <time>2019-05-11T09:07:02.380Z</time>
      </trkpt>
      <trkpt lat="44.12422" lon="6.98087">
        <ele>1748</ele>
        <time>2019-05-11T09:07:07.366Z</time>
      </trkpt>
      <trkpt lat="44.12419" lon="6.98098">
        <ele>1744</ele>
        <time>2019-05-11T09:07:11.398Z</time>
      </trkpt>
      <trkpt lat="44.12417" lon="6.98106">
        <ele>1744</ele>
        <time>2019-05-11T09:07:16.384Z</time>
      </trkpt>
      <trkpt lat="44.12417" lon="6.98114">
        <ele>1744</ele>
        <time>2019-05-11T09:07:21.381Z</time>
      </trkpt>
      <trkpt lat="44.12418" lon="6.98122">
        <ele>1744</ele>
        <time>2019-05-11T09:07:26.398Z</time>
      </trkpt>
      <trkpt lat="44.12419" lon="6.98128">
        <ele>1738</ele>
        <time>2019-05-11T09:07:31.375Z</time>
      </trkpt>
      <trkpt lat="44.1242" lon="6.98136">
        <ele>1738</ele>
        <time>2019-05-11T09:07:36.381Z</time>
      </trkpt>
      <trkpt lat="44.12422" lon="6.98142">
        <ele>1738</ele>
        <time>2019-05-11T09:07:41.364Z</time>
      </trkpt>
      <trkpt lat="44.12422" lon="6.98154">
        <ele>1735</ele>
        <time>2019-05-11T09:07:46.407Z</time>
      </trkpt>
      <trkpt lat="44.12424" lon="6.98162">
        <ele>1735</ele>
        <time>2019-05-11T09:07:51.381Z</time>
      </trkpt>
      <trkpt lat="44.12426" lon="6.9817">
        <ele>1735</ele>
        <time>2019-05-11T09:07:56.383Z</time>
      </trkpt>
      <trkpt lat="44.12429" lon="6.98174">
        <ele>1735</ele>
        <time>2019-05-11T09:08:00.394Z</time>
      </trkpt>
      <trkpt lat="44.12433" lon="6.98179">
        <ele>1747</ele>
        <time>2019-05-11T09:08:05.378Z</time>
      </trkpt>
      <trkpt lat="44.12437" lon="6.98183">
        <ele>1744</ele>
        <time>2019-05-11T09:08:09.404Z</time>
      </trkpt>
      <trkpt lat="44.12441" lon="6.98188">
        <ele>1744</ele>
        <time>2019-05-11T09:08:14.385Z</time>
      </trkpt>
      <trkpt lat="44.12447" lon="6.98193">
        <ele>1744</ele>
        <time>2019-05-11T09:08:19.381Z</time>
      </trkpt>
      <trkpt lat="44.12452" lon="6.98198">
        <ele>1744</ele>
        <time>2019-05-11T09:08:24.383Z</time>
      </trkpt>
      <trkpt lat="44.12456" lon="6.98204">
        <ele>1744</ele>
        <time>2019-05-11T09:08:29.377Z</time>
      </trkpt>
      <trkpt lat="44.1246" lon="6.9821">
        <ele>1751</ele>
        <time>2019-05-11T09:08:34.382Z</time>
      </trkpt>
      <trkpt lat="44.12464" lon="6.98216">
        <ele>1751</ele>
        <time>2019-05-11T09:08:39.381Z</time>
      </trkpt>
      <trkpt lat="44.12468" lon="6.98223">
        <ele>1751</ele>
        <time>2019-05-11T09:08:44.389Z</time>
      </trkpt>
      <trkpt lat="44.1247" lon="6.98228">
        <ele>1751</ele>
        <time>2019-05-11T09:08:49.381Z</time>
      </trkpt>
      <trkpt lat="44.12469" lon="6.98231">
        <ele>1751</ele>
        <time>2019-05-11T09:09:04.384Z</time>
      </trkpt>
      <trkpt lat="44.12467" lon="6.98233">
        <ele>1751</ele>
        <time>2019-05-11T09:09:09.374Z</time>
      </trkpt>
      <trkpt lat="44.12464" lon="6.98234">
        <ele>1751</ele>
        <time>2019-05-11T09:09:14.361Z</time>
      </trkpt>
      <trkpt lat="44.12464" lon="6.98237">
        <ele>1757</ele>
        <time>2019-05-11T09:09:18.383Z</time>
      </trkpt>
      <trkpt lat="44.1246" lon="6.98238">
        <ele>1757</ele>
        <time>2019-05-11T09:09:22.475Z</time>
      </trkpt>
      <trkpt lat="44.12453" lon="6.98236">
        <ele>1745</ele>
        <time>2019-05-11T09:09:27.385Z</time>
      </trkpt>
      <trkpt lat="44.12446" lon="6.98235">
        <ele>1745</ele>
        <time>2019-05-11T09:09:32.381Z</time>
      </trkpt>
      <trkpt lat="44.12441" lon="6.98234">
        <ele>1745</ele>
        <time>2019-05-11T09:09:37.378Z</time>
      </trkpt>
      <trkpt lat="44.12436" lon="6.98233">
        <ele>1745</ele>
        <time>2019-05-11T09:09:42.399Z</time>
      </trkpt>
      <trkpt lat="44.12431" lon="6.98234">
        <ele>1745</ele>
        <time>2019-05-11T09:09:47.397Z</time>
      </trkpt>
      <trkpt lat="44.12427" lon="6.98236">
        <ele>1747</ele>
        <time>2019-05-11T09:09:52.375Z</time>
      </trkpt>
      <trkpt lat="44.12422" lon="6.98239">
        <ele>1747</ele>
        <time>2019-05-11T09:09:57.375Z</time>
      </trkpt>
      <trkpt lat="44.12417" lon="6.98241">
        <ele>1747</ele>
        <time>2019-05-11T09:10:02.372Z</time>
      </trkpt>
      <trkpt lat="44.12411" lon="6.98242">
        <ele>1747</ele>
        <time>2019-05-11T09:10:07.374Z</time>
      </trkpt>
      <trkpt lat="44.12406" lon="6.98243">
        <ele>1747</ele>
        <time>2019-05-11T09:10:12.363Z</time>
      </trkpt>
      <trkpt lat="44.12401" lon="6.98246">
        <ele>1745</ele>
        <time>2019-05-11T09:10:16.377Z</time>
      </trkpt>
      <trkpt lat="44.12395" lon="6.98247">
        <ele>1745</ele>
        <time>2019-05-11T09:10:21.396Z</time>
      </trkpt>
      <trkpt lat="44.12391" lon="6.98249">
        <ele>1745</ele>
        <time>2019-05-11T09:10:26.388Z</time>
      </trkpt>
      <trkpt lat="44.12387" lon="6.98252">
        <ele>1745</ele>
        <time>2019-05-11T09:10:31.375Z</time>
      </trkpt>
      <trkpt lat="44.12384" lon="6.98257">
        <ele>1745</ele>
        <time>2019-05-11T09:10:36.382Z</time>
      </trkpt>
      <trkpt lat="44.12379" lon="6.98262">
        <ele>1745</ele>
        <time>2019-05-11T09:10:41.377Z</time>
      </trkpt>
      <trkpt lat="44.12375" lon="6.98264">
        <ele>1750</ele>
        <time>2019-05-11T09:10:45.394Z</time>
      </trkpt>
      <trkpt lat="44.12371" lon="6.98267">
        <ele>1750</ele>
        <time>2019-05-11T09:10:50.401Z</time>
      </trkpt>
      <trkpt lat="44.12367" lon="6.98268">
        <ele>1750</ele>
        <time>2019-05-11T09:10:55.374Z</time>
      </trkpt>
      <trkpt lat="44.12363" lon="6.9827">
        <ele>1750</ele>
        <time>2019-05-11T09:11:00.371Z</time>
      </trkpt>
      <trkpt lat="44.1236" lon="6.98272">
        <ele>1750</ele>
        <time>2019-05-11T09:11:05.363Z</time>
      </trkpt>
      <trkpt lat="44.12357" lon="6.98277">
        <ele>1750</ele>
        <time>2019-05-11T09:11:09.400Z</time>
      </trkpt>
      <trkpt lat="44.12352" lon="6.98282">
        <ele>1750</ele>
        <time>2019-05-11T09:11:14.372Z</time>
      </trkpt>
      <trkpt lat="44.12348" lon="6.98285">
        <ele>1750</ele>
        <time>2019-05-11T09:11:19.373Z</time>
      </trkpt>
      <trkpt lat="44.12345" lon="6.98289">
        <ele>1745</ele>
        <time>2019-05-11T09:11:24.372Z</time>
      </trkpt>
      <trkpt lat="44.12342" lon="6.98292">
        <ele>1753</ele>
        <time>2019-05-11T09:11:29.377Z</time>
      </trkpt>
      <trkpt lat="44.12338" lon="6.98296">
        <ele>1753</ele>
        <time>2019-05-11T09:11:34.374Z</time>
      </trkpt>
      <trkpt lat="44.12336" lon="6.98301">
        <ele>1753</ele>
        <time>2019-05-11T09:11:39.375Z</time>
      </trkpt>
      <trkpt lat="44.12331" lon="6.98308">
        <ele>1753</ele>
        <time>2019-05-11T09:11:44.393Z</time>
      </trkpt>
      <trkpt lat="44.12328" lon="6.98313">
        <ele>1753</ele>
        <time>2019-05-11T09:11:49.390Z</time>
      </trkpt>
      <trkpt lat="44.12324" lon="6.9832">
        <ele>1762</ele>
        <time>2019-05-11T09:11:54.362Z</time>
      </trkpt>
      <trkpt lat="44.12321" lon="6.98323">
        <ele>1762</ele>
        <time>2019-05-11T09:11:58.375Z</time>
      </trkpt>
      <trkpt lat="44.12317" lon="6.98328">
        <ele>1761</ele>
        <time>2019-05-11T09:12:03.381Z</time>
      </trkpt>
      <trkpt lat="44.12313" lon="6.98336">
        <ele>1761</ele>
        <time>2019-05-11T09:12:08.378Z</time>
      </trkpt>
      <trkpt lat="44.12309" lon="6.98341">
        <ele>1761</ele>
        <time>2019-05-11T09:12:13.369Z</time>
      </trkpt>
      <trkpt lat="44.12307" lon="6.98346">
        <ele>1761</ele>
        <time>2019-05-11T09:12:18.374Z</time>
      </trkpt>
      <trkpt lat="44.12303" lon="6.9835">
        <ele>1772</ele>
        <time>2019-05-11T09:12:23.403Z</time>
      </trkpt>
      <trkpt lat="44.12299" lon="6.98355">
        <ele>1772</ele>
        <time>2019-05-11T09:12:28.379Z</time>
      </trkpt>
      <trkpt lat="44.12294" lon="6.98358">
        <ele>1772</ele>
        <time>2019-05-11T09:12:33.373Z</time>
      </trkpt>
      <trkpt lat="44.12288" lon="6.98361">
        <ele>1767</ele>
        <time>2019-05-11T09:12:38.379Z</time>
      </trkpt>
      <trkpt lat="44.12284" lon="6.98362">
        <ele>1767</ele>
        <time>2019-05-11T09:12:42.391Z</time>
      </trkpt>
      <trkpt lat="44.1228" lon="6.98361">
        <ele>1767</ele>
        <time>2019-05-11T09:12:47.392Z</time>
      </trkpt>
      <trkpt lat="44.12275" lon="6.9836">
        <ele>1767</ele>
        <time>2019-05-11T09:12:52.371Z</time>
      </trkpt>
      <trkpt lat="44.12271" lon="6.98362">
        <ele>1767</ele>
        <time>2019-05-11T09:12:57.409Z</time>
      </trkpt>
      <trkpt lat="44.12267" lon="6.98363">
        <ele>1767</ele>
        <time>2019-05-11T09:13:02.378Z</time>
      </trkpt>
      <trkpt lat="44.12264" lon="6.98364">
        <ele>1762</ele>
        <time>2019-05-11T09:13:07.379Z</time>
      </trkpt>
      <trkpt lat="44.1226" lon="6.98366">
        <ele>1762</ele>
        <time>2019-05-11T09:13:11.389Z</time>
      </trkpt>
      <trkpt lat="44.12258" lon="6.98368">
        <ele>1762</ele>
        <time>2019-05-11T09:13:16.372Z</time>
      </trkpt>
      <trkpt lat="44.12254" lon="6.98375">
        <ele>1769</ele>
        <time>2019-05-11T09:13:40.380Z</time>
      </trkpt>
      <trkpt lat="44.12254" lon="6.98375">
        <ele>1769</ele>
        <time>2019-05-11T09:13:45.374Z</time>
      </trkpt>
      <trkpt lat="44.12253" lon="6.98377">
        <ele>1769</ele>
        <time>2019-05-11T09:13:50.381Z</time>
      </trkpt>
      <trkpt lat="44.12253" lon="6.98381">
        <ele>1769</ele>
        <time>2019-05-11T09:13:55.374Z</time>
      </trkpt>
      <trkpt lat="44.1225" lon="6.98386">
        <ele>1769</ele>
        <time>2019-05-11T09:14:00.371Z</time>
      </trkpt>
      <trkpt lat="44.12247" lon="6.98388">
        <ele>1769</ele>
        <time>2019-05-11T09:14:05.356Z</time>
      </trkpt>
      <trkpt lat="44.12244" lon="6.9839">
        <ele>1769</ele>
        <time>2019-05-11T09:14:10.379Z</time>
      </trkpt>
      <trkpt lat="44.12241" lon="6.98393">
        <ele>1769</ele>
        <time>2019-05-11T09:14:15.371Z</time>
      </trkpt>
      <trkpt lat="44.1224" lon="6.98394">
        <ele>1769</ele>
        <time>2019-05-11T09:14:19.396Z</time>
      </trkpt>
      <trkpt lat="44.12237" lon="6.98396">
        <ele>1769</ele>
        <time>2019-05-11T09:14:24.372Z</time>
      </trkpt>
      <trkpt lat="44.12235" lon="6.98398">
        <ele>1761</ele>
        <time>2019-05-11T09:14:29.373Z</time>
      </trkpt>
      <trkpt lat="44.12232" lon="6.984">
        <ele>1761</ele>
        <time>2019-05-11T09:14:34.388Z</time>
      </trkpt>
      <trkpt lat="44.1223" lon="6.98402">
        <ele>1761</ele>
        <time>2019-05-11T09:14:39.370Z</time>
      </trkpt>
      <trkpt lat="44.12228" lon="6.98406">
        <ele>1773</ele>
        <time>2019-05-11T09:14:44.373Z</time>
      </trkpt>
      <trkpt lat="44.12227" lon="6.98407">
        <ele>1773</ele>
        <time>2019-05-11T09:14:49.411Z</time>
      </trkpt>
      <trkpt lat="44.12224" lon="6.98409">
        <ele>1773</ele>
        <time>2019-05-11T09:14:54.374Z</time>
      </trkpt>
      <trkpt lat="44.12221" lon="6.98408">
        <ele>1773</ele>
        <time>2019-05-11T09:14:59.377Z</time>
      </trkpt>
      <trkpt lat="44.12218" lon="6.98411">
        <ele>1773</ele>
        <time>2019-05-11T09:15:04.410Z</time>
      </trkpt>
      <trkpt lat="44.12215" lon="6.98412">
        <ele>1773</ele>
        <time>2019-05-11T09:15:09.423Z</time>
      </trkpt>
      <trkpt lat="44.12211" lon="6.98415">
        <ele>1773</ele>
        <time>2019-05-11T09:15:14.370Z</time>
      </trkpt>
      <trkpt lat="44.12208" lon="6.98417">
        <ele>1762</ele>
        <time>2019-05-11T09:15:19.371Z</time>
      </trkpt>
      <trkpt lat="44.12205" lon="6.98418">
        <ele>1762</ele>
        <time>2019-05-11T09:15:24.373Z</time>
      </trkpt>
      <trkpt lat="44.12201" lon="6.98421">
        <ele>1762</ele>
        <time>2019-05-11T09:15:29.380Z</time>
      </trkpt>
      <trkpt lat="44.12198" lon="6.98423">
        <ele>1762</ele>
        <time>2019-05-11T09:15:34.383Z</time>
      </trkpt>
      <trkpt lat="44.12195" lon="6.98425">
        <ele>1762</ele>
        <time>2019-05-11T09:15:39.370Z</time>
      </trkpt>
      <trkpt lat="44.12192" lon="6.98426">
        <ele>1762</ele>
        <time>2019-05-11T09:15:43.384Z</time>
      </trkpt>
      <trkpt lat="44.1219" lon="6.98426">
        <ele>1762</ele>
        <time>2019-05-11T09:15:48.385Z</time>
      </trkpt>
      <trkpt lat="44.12188" lon="6.98427">
        <ele>1762</ele>
        <time>2019-05-11T09:15:53.370Z</time>
      </trkpt>
      <trkpt lat="44.12187" lon="6.98429">
        <ele>1762</ele>
        <time>2019-05-11T09:15:58.373Z</time>
      </trkpt>
      <trkpt lat="44.12184" lon="6.98431">
        <ele>1780</ele>
        <time>2019-05-11T09:16:03.369Z</time>
      </trkpt>
      <trkpt lat="44.12181" lon="6.98433">
        <ele>1781</ele>
        <time>2019-05-11T09:16:08.381Z</time>
      </trkpt>
      <trkpt lat="44.1218" lon="6.98436">
        <ele>1781</ele>
        <time>2019-05-11T09:16:13.391Z</time>
      </trkpt>
      <trkpt lat="44.12177" lon="6.98438">
        <ele>1781</ele>
        <time>2019-05-11T09:16:18.373Z</time>
      </trkpt>
      <trkpt lat="44.12174" lon="6.98441">
        <ele>1781</ele>
        <time>2019-05-11T09:16:23.360Z</time>
      </trkpt>
      <trkpt lat="44.12171" lon="6.9844">
        <ele>1781</ele>
        <time>2019-05-11T09:16:27.366Z</time>
      </trkpt>
      <trkpt lat="44.12169" lon="6.98443">
        <ele>1781</ele>
        <time>2019-05-11T09:16:32.371Z</time>
      </trkpt>
      <trkpt lat="44.12166" lon="6.98447">
        <ele>1781</ele>
        <time>2019-05-11T09:16:37.385Z</time>
      </trkpt>
      <trkpt lat="44.12164" lon="6.98448">
        <ele>1781</ele>
        <time>2019-05-11T09:16:41.413Z</time>
      </trkpt>
      <trkpt lat="44.12161" lon="6.9845">
        <ele>1781</ele>
        <time>2019-05-11T09:16:46.359Z</time>
      </trkpt>
      <trkpt lat="44.12159" lon="6.9845">
        <ele>1781</ele>
        <time>2019-05-11T09:16:50.387Z</time>
      </trkpt>
      <trkpt lat="44.12157" lon="6.9845">
        <ele>1781</ele>
        <time>2019-05-11T09:16:55.380Z</time>
      </trkpt>
      <trkpt lat="44.12154" lon="6.98451">
        <ele>1781</ele>
        <time>2019-05-11T09:17:00.403Z</time>
      </trkpt>
      <trkpt lat="44.12151" lon="6.98452">
        <ele>1783</ele>
        <time>2019-05-11T09:17:05.365Z</time>
      </trkpt>
      <trkpt lat="44.12148" lon="6.98455">
        <ele>1783</ele>
        <time>2019-05-11T09:17:09.389Z</time>
      </trkpt>
      <trkpt lat="44.12147" lon="6.98456">
        <ele>1783</ele>
        <time>2019-05-11T09:17:14.417Z</time>
      </trkpt>
      <trkpt lat="44.12145" lon="6.98457">
        <ele>1783</ele>
        <time>2019-05-11T09:17:19.381Z</time>
      </trkpt>
      <trkpt lat="44.12143" lon="6.98459">
        <ele>1800</ele>
        <time>2019-05-11T09:17:24.367Z</time>
      </trkpt>
      <trkpt lat="44.1214" lon="6.98464">
        <ele>1800</ele>
        <time>2019-05-11T09:17:29.368Z</time>
      </trkpt>
      <trkpt lat="44.12137" lon="6.98468">
        <ele>1800</ele>
        <time>2019-05-11T09:17:34.364Z</time>
      </trkpt>
      <trkpt lat="44.12134" lon="6.98468">
        <ele>1800</ele>
        <time>2019-05-11T09:17:39.372Z</time>
      </trkpt>
      <trkpt lat="44.12131" lon="6.9847">
        <ele>1800</ele>
        <time>2019-05-11T09:17:44.369Z</time>
      </trkpt>
      <trkpt lat="44.12128" lon="6.98473">
        <ele>1800</ele>
        <time>2019-05-11T09:17:53.393Z</time>
      </trkpt>
      <trkpt lat="44.12126" lon="6.98478">
        <ele>1800</ele>
        <time>2019-05-11T09:17:58.361Z</time>
      </trkpt>
      <trkpt lat="44.12126" lon="6.98478">
        <ele>1800</ele>
        <time>2019-05-11T09:18:02.371Z</time>
      </trkpt>
      <trkpt lat="44.12124" lon="6.98478">
        <ele>1803</ele>
        <time>2019-05-11T09:18:07.366Z</time>
      </trkpt>
      <trkpt lat="44.12122" lon="6.98479">
        <ele>1803</ele>
        <time>2019-05-11T09:18:11.398Z</time>
      </trkpt>
      <trkpt lat="44.12118" lon="6.98482">
        <ele>1803</ele>
        <time>2019-05-11T09:18:21.385Z</time>
      </trkpt>
      <trkpt lat="44.12117" lon="6.98485">
        <ele>1803</ele>
        <time>2019-05-11T09:18:26.365Z</time>
      </trkpt>
      <trkpt lat="44.12116" lon="6.98486">
        <ele>1811</ele>
        <time>2019-05-11T09:18:30.400Z</time>
      </trkpt>
      <trkpt lat="44.12116" lon="6.98488">
        <ele>1811</ele>
        <time>2019-05-11T09:18:35.381Z</time>
      </trkpt>
      <trkpt lat="44.12115" lon="6.98489">
        <ele>1811</ele>
        <time>2019-05-11T09:18:40.366Z</time>
      </trkpt>
      <trkpt lat="44.12113" lon="6.98495">
        <ele>1811</ele>
        <time>2019-05-11T09:19:19.370Z</time>
      </trkpt>
      <trkpt lat="44.1211" lon="6.98496">
        <ele>1811</ele>
        <time>2019-05-11T09:19:24.385Z</time>
      </trkpt>
      <trkpt lat="44.12106" lon="6.98497">
        <ele>1811</ele>
        <time>2019-05-11T09:19:29.381Z</time>
      </trkpt>
      <trkpt lat="44.12103" lon="6.98498">
        <ele>1811</ele>
        <time>2019-05-11T09:19:34.398Z</time>
      </trkpt>
      <trkpt lat="44.12101" lon="6.98501">
        <ele>1811</ele>
        <time>2019-05-11T09:19:39.375Z</time>
      </trkpt>
      <trkpt lat="44.121" lon="6.98501">
        <ele>1811</ele>
        <time>2019-05-11T09:19:44.364Z</time>
      </trkpt>
      <trkpt lat="44.12098" lon="6.98501">
        <ele>1811</ele>
        <time>2019-05-11T09:19:49.368Z</time>
      </trkpt>
      <trkpt lat="44.12094" lon="6.98505">
        <ele>1811</ele>
        <time>2019-05-11T09:19:54.362Z</time>
      </trkpt>
      <trkpt lat="44.12093" lon="6.98508">
        <ele>1811</ele>
        <time>2019-05-11T09:19:59.364Z</time>
      </trkpt>
      <trkpt lat="44.12092" lon="6.98511">
        <ele>1811</ele>
        <time>2019-05-11T09:20:04.339Z</time>
      </trkpt>
      <trkpt lat="44.12091" lon="6.98515">
        <ele>1810</ele>
        <time>2019-05-11T09:20:08.366Z</time>
      </trkpt>
      <trkpt lat="44.1209" lon="6.98519">
        <ele>1810</ele>
        <time>2019-05-11T09:20:13.379Z</time>
      </trkpt>
      <trkpt lat="44.12089" lon="6.98524">
        <ele>1810</ele>
        <time>2019-05-11T09:20:18.361Z</time>
      </trkpt>
      <trkpt lat="44.12087" lon="6.98528">
        <ele>1810</ele>
        <time>2019-05-11T09:20:23.373Z</time>
      </trkpt>
      <trkpt lat="44.12086" lon="6.98531">
        <ele>1810</ele>
        <time>2019-05-11T09:20:27.391Z</time>
      </trkpt>
      <trkpt lat="44.12087" lon="6.98536">
        <ele>1810</ele>
        <time>2019-05-11T09:20:32.374Z</time>
      </trkpt>
      <trkpt lat="44.12089" lon="6.98539">
        <ele>1810</ele>
        <time>2019-05-11T09:20:37.359Z</time>
      </trkpt>
      <trkpt lat="44.12089" lon="6.98544">
        <ele>1808</ele>
        <time>2019-05-11T09:20:42.356Z</time>
      </trkpt>
      <trkpt lat="44.12089" lon="6.98548">
        <ele>1808</ele>
        <time>2019-05-11T09:20:46.383Z</time>
      </trkpt>
      <trkpt lat="44.1209" lon="6.98554">
        <ele>1808</ele>
        <time>2019-05-11T09:20:51.386Z</time>
      </trkpt>
      <trkpt lat="44.1209" lon="6.98558">
        <ele>1808</ele>
        <time>2019-05-11T09:20:56.382Z</time>
      </trkpt>
      <trkpt lat="44.12089" lon="6.98563">
        <ele>1808</ele>
        <time>2019-05-11T09:21:00.408Z</time>
      </trkpt>
      <trkpt lat="44.12089" lon="6.98566">
        <ele>1808</ele>
        <time>2019-05-11T09:21:05.362Z</time>
      </trkpt>
      <trkpt lat="44.12088" lon="6.98571">
        <ele>1805</ele>
        <time>2019-05-11T09:21:10.363Z</time>
      </trkpt>
      <trkpt lat="44.12087" lon="6.98575">
        <ele>1805</ele>
        <time>2019-05-11T09:21:15.361Z</time>
      </trkpt>
      <trkpt lat="44.12087" lon="6.9858">
        <ele>1805</ele>
        <time>2019-05-11T09:21:19.378Z</time>
      </trkpt>
      <trkpt lat="44.12086" lon="6.98587">
        <ele>1805</ele>
        <time>2019-05-11T09:21:24.365Z</time>
      </trkpt>
      <trkpt lat="44.12086" lon="6.98595">
        <ele>1805</ele>
        <time>2019-05-11T09:21:29.357Z</time>
      </trkpt>
      <trkpt lat="44.12085" lon="6.98601">
        <ele>1803</ele>
        <time>2019-05-11T09:21:33.366Z</time>
      </trkpt>
      <trkpt lat="44.12085" lon="6.98607">
        <ele>1803</ele>
        <time>2019-05-11T09:21:37.375Z</time>
      </trkpt>
      <trkpt lat="44.12085" lon="6.98614">
        <ele>1803</ele>
        <time>2019-05-11T09:21:42.377Z</time>
      </trkpt>
      <trkpt lat="44.12087" lon="6.98622">
        <ele>1803</ele>
        <time>2019-05-11T09:21:47.393Z</time>
      </trkpt>
      <trkpt lat="44.12087" lon="6.9863">
        <ele>1802</ele>
        <time>2019-05-11T09:21:52.355Z</time>
      </trkpt>
      <trkpt lat="44.12088" lon="6.98635">
        <ele>1802</ele>
        <time>2019-05-11T09:21:57.366Z</time>
      </trkpt>
      <trkpt lat="44.1209" lon="6.98641">
        <ele>1802</ele>
        <time>2019-05-11T09:22:02.350Z</time>
      </trkpt>
      <trkpt lat="44.12092" lon="6.98644">
        <ele>1802</ele>
        <time>2019-05-11T09:22:06.365Z</time>
      </trkpt>
      <trkpt lat="44.12097" lon="6.98649">
        <ele>1802</ele>
        <time>2019-05-11T09:22:11.361Z</time>
      </trkpt>
      <trkpt lat="44.12102" lon="6.9865">
        <ele>1811</ele>
        <time>2019-05-11T09:22:16.361Z</time>
      </trkpt>
      <trkpt lat="44.12105" lon="6.98652">
        <ele>1811</ele>
        <time>2019-05-11T09:22:20.387Z</time>
      </trkpt>
      <trkpt lat="44.12108" lon="6.98655">
        <ele>1813</ele>
        <time>2019-05-11T09:22:25.388Z</time>
      </trkpt>
      <trkpt lat="44.12111" lon="6.98659">
        <ele>1813</ele>
        <time>2019-05-11T09:22:30.363Z</time>
      </trkpt>
      <trkpt lat="44.12113" lon="6.98662">
        <ele>1813</ele>
        <time>2019-05-11T09:22:35.369Z</time>
      </trkpt>
      <trkpt lat="44.12117" lon="6.98665">
        <ele>1813</ele>
        <time>2019-05-11T09:22:40.366Z</time>
      </trkpt>
      <trkpt lat="44.1212" lon="6.98667">
        <ele>1813</ele>
        <time>2019-05-11T09:22:44.380Z</time>
      </trkpt>
      <trkpt lat="44.12123" lon="6.98671">
        <ele>1813</ele>
        <time>2019-05-11T09:22:49.360Z</time>
      </trkpt>
      <trkpt lat="44.12126" lon="6.98674">
        <ele>1824</ele>
        <time>2019-05-11T09:22:54.367Z</time>
      </trkpt>
      <trkpt lat="44.1213" lon="6.98677">
        <ele>1824</ele>
        <time>2019-05-11T09:22:59.392Z</time>
      </trkpt>
      <trkpt lat="44.12131" lon="6.9868">
        <ele>1824</ele>
        <time>2019-05-11T09:23:04.347Z</time>
      </trkpt>
      <trkpt lat="44.12133" lon="6.98683">
        <ele>1818</ele>
        <time>2019-05-11T09:23:09.362Z</time>
      </trkpt>
      <trkpt lat="44.12137" lon="6.98687">
        <ele>1818</ele>
        <time>2019-05-11T09:23:14.359Z</time>
      </trkpt>
      <trkpt lat="44.12141" lon="6.9869">
        <ele>1818</ele>
        <time>2019-05-11T09:23:18.378Z</time>
      </trkpt>
      <trkpt lat="44.12144" lon="6.98696">
        <ele>1818</ele>
        <time>2019-05-11T09:23:23.356Z</time>
      </trkpt>
      <trkpt lat="44.12148" lon="6.987">
        <ele>1818</ele>
        <time>2019-05-11T09:23:28.370Z</time>
      </trkpt>
      <trkpt lat="44.1215" lon="6.987">
        <ele>1818</ele>
        <time>2019-05-11T09:23:32.384Z</time>
      </trkpt>
      <trkpt lat="44.12152" lon="6.98705">
        <ele>1818</ele>
        <time>2019-05-11T09:23:37.363Z</time>
      </trkpt>
      <trkpt lat="44.12156" lon="6.98707">
        <ele>1826</ele>
        <time>2019-05-11T09:23:42.383Z</time>
      </trkpt>
      <trkpt lat="44.12159" lon="6.9871">
        <ele>1819</ele>
        <time>2019-05-11T09:23:47.363Z</time>
      </trkpt>
      <trkpt lat="44.12161" lon="6.98712">
        <ele>1819</ele>
        <time>2019-05-11T09:23:51.380Z</time>
      </trkpt>
      <trkpt lat="44.12165" lon="6.98715">
        <ele>1819</ele>
        <time>2019-05-11T09:23:56.362Z</time>
      </trkpt>
      <trkpt lat="44.12168" lon="6.98715">
        <ele>1819</ele>
        <time>2019-05-11T09:24:00.422Z</time>
      </trkpt>
      <trkpt lat="44.12172" lon="6.98718">
        <ele>1819</ele>
        <time>2019-05-11T09:24:05.366Z</time>
      </trkpt>
      <trkpt lat="44.12175" lon="6.9872">
        <ele>1819</ele>
        <time>2019-05-11T09:24:10.360Z</time>
      </trkpt>
      <trkpt lat="44.1218" lon="6.98723">
        <ele>1819</ele>
        <time>2019-05-11T09:24:15.364Z</time>
      </trkpt>
      <trkpt lat="44.12183" lon="6.98724">
        <ele>1828</ele>
        <time>2019-05-11T09:24:19.379Z</time>
      </trkpt>
      <trkpt lat="44.12187" lon="6.98725">
        <ele>1828</ele>
        <time>2019-05-11T09:24:24.359Z</time>
      </trkpt>
      <trkpt lat="44.1219" lon="6.98726">
        <ele>1828</ele>
        <time>2019-05-11T09:24:29.356Z</time>
      </trkpt>
      <trkpt lat="44.12194" lon="6.98727">
        <ele>1828</ele>
        <time>2019-05-11T09:24:34.362Z</time>
      </trkpt>
      <trkpt lat="44.12199" lon="6.98725">
        <ele>1828</ele>
        <time>2019-05-11T09:24:39.368Z</time>
      </trkpt>
      <trkpt lat="44.12204" lon="6.9872">
        <ele>1828</ele>
        <time>2019-05-11T09:24:44.381Z</time>
      </trkpt>
      <trkpt lat="44.12207" lon="6.98719">
        <ele>1828</ele>
        <time>2019-05-11T09:24:49.353Z</time>
      </trkpt>
      <trkpt lat="44.1221" lon="6.98716">
        <ele>1838</ele>
        <time>2019-05-11T09:24:53.373Z</time>
      </trkpt>
      <trkpt lat="44.12213" lon="6.98715">
        <ele>1838</ele>
        <time>2019-05-11T09:24:58.366Z</time>
      </trkpt>
      <trkpt lat="44.12217" lon="6.98712">
        <ele>1838</ele>
        <time>2019-05-11T09:25:03.386Z</time>
      </trkpt>
      <trkpt lat="44.1222" lon="6.98709">
        <ele>1838</ele>
        <time>2019-05-11T09:25:08.369Z</time>
      </trkpt>
      <trkpt lat="44.12219" lon="6.98709">
        <ele>1838</ele>
        <time>2019-05-11T09:25:28.359Z</time>
      </trkpt>
      <trkpt lat="44.1222" lon="6.98707">
        <ele>1848</ele>
        <time>2019-05-11T09:25:32.369Z</time>
      </trkpt>
      <trkpt lat="44.12225" lon="6.98706">
        <ele>1848</ele>
        <time>2019-05-11T09:25:37.368Z</time>
      </trkpt>
      <trkpt lat="44.12228" lon="6.98706">
        <ele>1848</ele>
        <time>2019-05-11T09:25:41.379Z</time>
      </trkpt>
      <trkpt lat="44.1223" lon="6.98711">
        <ele>1838</ele>
        <time>2019-05-11T09:25:46.380Z</time>
      </trkpt>
      <trkpt lat="44.12231" lon="6.98715">
        <ele>1838</ele>
        <time>2019-05-11T09:25:51.363Z</time>
      </trkpt>
      <trkpt lat="44.12234" lon="6.9872">
        <ele>1838</ele>
        <time>2019-05-11T09:25:56.368Z</time>
      </trkpt>
      <trkpt lat="44.12237" lon="6.98726">
        <ele>1850</ele>
        <time>2019-05-11T09:26:01.366Z</time>
      </trkpt>
      <trkpt lat="44.1224" lon="6.98729">
        <ele>1850</ele>
        <time>2019-05-11T09:26:06.367Z</time>
      </trkpt>
      <trkpt lat="44.12244" lon="6.98733">
        <ele>1850</ele>
        <time>2019-05-11T09:26:11.355Z</time>
      </trkpt>
      <trkpt lat="44.12245" lon="6.98736">
        <ele>1840</ele>
        <time>2019-05-11T09:26:16.385Z</time>
      </trkpt>
      <trkpt lat="44.12246" lon="6.98739">
        <ele>1840</ele>
        <time>2019-05-11T09:26:21.361Z</time>
      </trkpt>
      <trkpt lat="44.12248" lon="6.98744">
        <ele>1840</ele>
        <time>2019-05-11T09:26:26.362Z</time>
      </trkpt>
      <trkpt lat="44.12247" lon="6.9875">
        <ele>1840</ele>
        <time>2019-05-11T09:26:31.364Z</time>
      </trkpt>
      <trkpt lat="44.12248" lon="6.98754">
        <ele>1840</ele>
        <time>2019-05-11T09:26:36.366Z</time>
      </trkpt>
      <trkpt lat="44.12251" lon="6.98757">
        <ele>1840</ele>
        <time>2019-05-11T09:26:41.364Z</time>
      </trkpt>
      <trkpt lat="44.12254" lon="6.98762">
        <ele>1840</ele>
        <time>2019-05-11T09:26:46.365Z</time>
      </trkpt>
      <trkpt lat="44.12256" lon="6.98769">
        <ele>1830</ele>
        <time>2019-05-11T09:26:51.364Z</time>
      </trkpt>
      <trkpt lat="44.12257" lon="6.98775">
        <ele>1830</ele>
        <time>2019-05-11T09:26:56.364Z</time>
      </trkpt>
      <trkpt lat="44.12258" lon="6.9878">
        <ele>1830</ele>
        <time>2019-05-11T09:27:00.384Z</time>
      </trkpt>
      <trkpt lat="44.12259" lon="6.98787">
        <ele>1830</ele>
        <time>2019-05-11T09:27:05.358Z</time>
      </trkpt>
      <trkpt lat="44.1226" lon="6.98791">
        <ele>1830</ele>
        <time>2019-05-11T09:27:09.388Z</time>
      </trkpt>
      <trkpt lat="44.12263" lon="6.98796">
        <ele>1823</ele>
        <time>2019-05-11T09:27:14.360Z</time>
      </trkpt>
      <trkpt lat="44.12267" lon="6.988">
        <ele>1843</ele>
        <time>2019-05-11T09:27:19.374Z</time>
      </trkpt>
      <trkpt lat="44.1227" lon="6.98801">
        <ele>1843</ele>
        <time>2019-05-11T09:27:24.361Z</time>
      </trkpt>
      <trkpt lat="44.12274" lon="6.988">
        <ele>1843</ele>
        <time>2019-05-11T09:29:39.361Z</time>
      </trkpt>
      <trkpt lat="44.12276" lon="6.98803">
        <ele>1843</ele>
        <time>2019-05-11T09:29:43.396Z</time>
      </trkpt>
      <trkpt lat="44.12281" lon="6.98803">
        <ele>1843</ele>
        <time>2019-05-11T09:29:48.351Z</time>
      </trkpt>
      <trkpt lat="44.12285" lon="6.98805">
        <ele>1843</ele>
        <time>2019-05-11T09:29:52.378Z</time>
      </trkpt>
      <trkpt lat="44.12287" lon="6.98806">
        <ele>1843</ele>
        <time>2019-05-11T09:29:57.358Z</time>
      </trkpt>
      <trkpt lat="44.12291" lon="6.98809">
        <ele>1843</ele>
        <time>2019-05-11T09:30:02.349Z</time>
      </trkpt>
      <trkpt lat="44.12295" lon="6.98813">
        <ele>1856</ele>
        <time>2019-05-11T09:30:06.383Z</time>
      </trkpt>
      <trkpt lat="44.12299" lon="6.98815">
        <ele>1856</ele>
        <time>2019-05-11T09:30:11.362Z</time>
      </trkpt>
      <trkpt lat="44.12303" lon="6.98819">
        <ele>1856</ele>
        <time>2019-05-11T09:30:16.357Z</time>
      </trkpt>
      <trkpt lat="44.12307" lon="6.98821">
        <ele>1849</ele>
        <time>2019-05-11T09:30:21.362Z</time>
      </trkpt>
      <trkpt lat="44.12311" lon="6.98827">
        <ele>1849</ele>
        <time>2019-05-11T09:30:26.359Z</time>
      </trkpt>
      <trkpt lat="44.12312" lon="6.98831">
        <ele>1849</ele>
        <time>2019-05-11T09:30:30.372Z</time>
      </trkpt>
      <trkpt lat="44.12314" lon="6.98834">
        <ele>1849</ele>
        <time>2019-05-11T09:30:35.378Z</time>
      </trkpt>
      <trkpt lat="44.12314" lon="6.98839">
        <ele>1849</ele>
        <time>2019-05-11T09:30:40.357Z</time>
      </trkpt>
      <trkpt lat="44.12315" lon="6.98844">
        <ele>1849</ele>
        <time>2019-05-11T09:30:44.379Z</time>
      </trkpt>
      <trkpt lat="44.12317" lon="6.98849">
        <ele>1840</ele>
        <time>2019-05-11T09:30:49.364Z</time>
      </trkpt>
      <trkpt lat="44.12319" lon="6.98852">
        <ele>1840</ele>
        <time>2019-05-11T09:30:53.377Z</time>
      </trkpt>
      <trkpt lat="44.12321" lon="6.98857">
        <ele>1856</ele>
        <time>2019-05-11T09:30:58.359Z</time>
      </trkpt>
      <trkpt lat="44.12324" lon="6.98862">
        <ele>1856</ele>
        <time>2019-05-11T09:31:02.373Z</time>
      </trkpt>
      <trkpt lat="44.12327" lon="6.98865">
        <ele>1856</ele>
        <time>2019-05-11T09:31:07.374Z</time>
      </trkpt>
      <trkpt lat="44.12331" lon="6.98872">
        <ele>1856</ele>
        <time>2019-05-11T09:31:12.354Z</time>
      </trkpt>
      <trkpt lat="44.12335" lon="6.98874">
        <ele>1856</ele>
        <time>2019-05-11T09:31:17.354Z</time>
      </trkpt>
      <trkpt lat="44.12338" lon="6.98879">
        <ele>1847</ele>
        <time>2019-05-11T09:31:21.365Z</time>
      </trkpt>
      <trkpt lat="44.12341" lon="6.98881">
        <ele>1847</ele>
        <time>2019-05-11T09:31:26.358Z</time>
      </trkpt>
      <trkpt lat="44.12344" lon="6.98886">
        <ele>1847</ele>
        <time>2019-05-11T09:31:31.367Z</time>
      </trkpt>
      <trkpt lat="44.12348" lon="6.98889">
        <ele>1864</ele>
        <time>2019-05-11T09:31:36.354Z</time>
      </trkpt>
      <trkpt lat="44.12351" lon="6.98894">
        <ele>1864</ele>
        <time>2019-05-11T09:31:41.360Z</time>
      </trkpt>
      <trkpt lat="44.12355" lon="6.98896">
        <ele>1864</ele>
        <time>2019-05-11T09:31:46.365Z</time>
      </trkpt>
      <trkpt lat="44.12358" lon="6.98899">
        <ele>1864</ele>
        <time>2019-05-11T09:31:51.354Z</time>
      </trkpt>
      <trkpt lat="44.12362" lon="6.98901">
        <ele>1864</ele>
        <time>2019-05-11T09:31:56.359Z</time>
      </trkpt>
      <trkpt lat="44.12364" lon="6.98905">
        <ele>1853</ele>
        <time>2019-05-11T09:32:01.358Z</time>
      </trkpt>
      <trkpt lat="44.12367" lon="6.98909">
        <ele>1853</ele>
        <time>2019-05-11T09:32:06.375Z</time>
      </trkpt>
      <trkpt lat="44.12371" lon="6.98913">
        <ele>1853</ele>
        <time>2019-05-11T09:32:11.353Z</time>
      </trkpt>
      <trkpt lat="44.12374" lon="6.98914">
        <ele>1853</ele>
        <time>2019-05-11T09:32:15.375Z</time>
      </trkpt>
      <trkpt lat="44.12378" lon="6.98917">
        <ele>1868</ele>
        <time>2019-05-11T09:32:20.368Z</time>
      </trkpt>
      <trkpt lat="44.12381" lon="6.98919">
        <ele>1868</ele>
        <time>2019-05-11T09:32:24.393Z</time>
      </trkpt>
      <trkpt lat="44.12386" lon="6.98917">
        <ele>1868</ele>
        <time>2019-05-11T09:32:29.358Z</time>
      </trkpt>
      <trkpt lat="44.12386" lon="6.9892">
        <ele>1868</ele>
        <time>2019-05-11T09:33:49.358Z</time>
      </trkpt>
      <trkpt lat="44.1239" lon="6.98923">
        <ele>1868</ele>
        <time>2019-05-11T09:33:54.359Z</time>
      </trkpt>
      <trkpt lat="44.12392" lon="6.98932">
        <ele>1856</ele>
        <time>2019-05-11T09:33:59.354Z</time>
      </trkpt>
      <trkpt lat="44.12395" lon="6.98936">
        <ele>1856</ele>
        <time>2019-05-11T09:34:04.399Z</time>
      </trkpt>
      <trkpt lat="44.12398" lon="6.98943">
        <ele>1856</ele>
        <time>2019-05-11T09:34:09.350Z</time>
      </trkpt>
      <trkpt lat="44.124" lon="6.98947">
        <ele>1856</ele>
        <time>2019-05-11T09:34:13.377Z</time>
      </trkpt>
      <trkpt lat="44.12404" lon="6.98953">
        <ele>1868</ele>
        <time>2019-05-11T09:34:18.355Z</time>
      </trkpt>
      <trkpt lat="44.12408" lon="6.98956">
        <ele>1868</ele>
        <time>2019-05-11T09:34:23.359Z</time>
      </trkpt>
      <trkpt lat="44.12412" lon="6.98961">
        <ele>1860</ele>
        <time>2019-05-11T09:34:28.358Z</time>
      </trkpt>
      <trkpt lat="44.12415" lon="6.98963">
        <ele>1860</ele>
        <time>2019-05-11T09:34:32.369Z</time>
      </trkpt>
      <trkpt lat="44.1242" lon="6.98966">
        <ele>1860</ele>
        <time>2019-05-11T09:34:37.366Z</time>
      </trkpt>
      <trkpt lat="44.12425" lon="6.98969">
        <ele>1860</ele>
        <time>2019-05-11T09:34:42.381Z</time>
      </trkpt>
      <trkpt lat="44.12429" lon="6.98976">
        <ele>1860</ele>
        <time>2019-05-11T09:34:47.364Z</time>
      </trkpt>
      <trkpt lat="44.12433" lon="6.98979">
        <ele>1875</ele>
        <time>2019-05-11T09:34:52.359Z</time>
      </trkpt>
      <trkpt lat="44.12438" lon="6.98981">
        <ele>1875</ele>
        <time>2019-05-11T09:34:56.377Z</time>
      </trkpt>
      <trkpt lat="44.12439" lon="6.98986">
        <ele>1866</ele>
        <time>2019-05-11T09:35:01.348Z</time>
      </trkpt>
      <trkpt lat="44.12443" lon="6.9899">
        <ele>1866</ele>
        <time>2019-05-11T09:35:06.382Z</time>
      </trkpt>
      <trkpt lat="44.12448" lon="6.98993">
        <ele>1866</ele>
        <time>2019-05-11T09:35:11.359Z</time>
      </trkpt>
      <trkpt lat="44.12452" lon="6.98998">
        <ele>1866</ele>
        <time>2019-05-11T09:35:16.357Z</time>
      </trkpt>
      <trkpt lat="44.12454" lon="6.99002">
        <ele>1866</ele>
        <time>2019-05-11T09:35:21.347Z</time>
      </trkpt>
      <trkpt lat="44.12457" lon="6.99006">
        <ele>1866</ele>
        <time>2019-05-11T09:35:25.356Z</time>
      </trkpt>
      <trkpt lat="44.12459" lon="6.99012">
        <ele>1880</ele>
        <time>2019-05-11T09:35:30.359Z</time>
      </trkpt>
      <trkpt lat="44.12461" lon="6.99017">
        <ele>1871</ele>
        <time>2019-05-11T09:35:35.370Z</time>
      </trkpt>
      <trkpt lat="44.12464" lon="6.99021">
        <ele>1871</ele>
        <time>2019-05-11T09:35:40.358Z</time>
      </trkpt>
      <trkpt lat="44.12467" lon="6.99025">
        <ele>1871</ele>
        <time>2019-05-11T09:35:45.349Z</time>
      </trkpt>
      <trkpt lat="44.12468" lon="6.9903">
        <ele>1871</ele>
        <time>2019-05-11T09:35:50.358Z</time>
      </trkpt>
      <trkpt lat="44.12468" lon="6.99039">
        <ele>1871</ele>
        <time>2019-05-11T09:35:55.351Z</time>
      </trkpt>
      <trkpt lat="44.12468" lon="6.99045">
        <ele>1867</ele>
        <time>2019-05-11T09:36:00.396Z</time>
      </trkpt>
      <trkpt lat="44.1247" lon="6.99052">
        <ele>1867</ele>
        <time>2019-05-11T09:36:05.374Z</time>
      </trkpt>
      <trkpt lat="44.12472" lon="6.99059">
        <ele>1867</ele>
        <time>2019-05-11T09:36:10.351Z</time>
      </trkpt>
      <trkpt lat="44.12476" lon="6.99063">
        <ele>1867</ele>
        <time>2019-05-11T09:36:15.350Z</time>
      </trkpt>
      <trkpt lat="44.12481" lon="6.99065">
        <ele>1867</ele>
        <time>2019-05-11T09:36:19.371Z</time>
      </trkpt>
      <trkpt lat="44.12484" lon="6.9907">
        <ele>1863</ele>
        <time>2019-05-11T09:36:23.386Z</time>
      </trkpt>
      <trkpt lat="44.12489" lon="6.99075">
        <ele>1873</ele>
        <time>2019-05-11T09:36:28.351Z</time>
      </trkpt>
      <trkpt lat="44.12492" lon="6.99081">
        <ele>1873</ele>
        <time>2019-05-11T09:36:32.386Z</time>
      </trkpt>
      <trkpt lat="44.12494" lon="6.99085">
        <ele>1873</ele>
        <time>2019-05-11T09:36:37.348Z</time>
      </trkpt>
      <trkpt lat="44.12497" lon="6.99089">
        <ele>1873</ele>
        <time>2019-05-11T09:36:41.360Z</time>
      </trkpt>
      <trkpt lat="44.125" lon="6.9909">
        <ele>1873</ele>
        <time>2019-05-11T09:36:46.350Z</time>
      </trkpt>
      <trkpt lat="44.12505" lon="6.99093">
        <ele>1873</ele>
        <time>2019-05-11T09:36:51.383Z</time>
      </trkpt>
      <trkpt lat="44.12509" lon="6.99097">
        <ele>1873</ele>
        <time>2019-05-11T09:36:56.369Z</time>
      </trkpt>
      <trkpt lat="44.12514" lon="6.99101">
        <ele>1866</ele>
        <time>2019-05-11T09:37:01.361Z</time>
      </trkpt>
      <trkpt lat="44.12518" lon="6.99104">
        <ele>1876</ele>
        <time>2019-05-11T09:39:54.350Z</time>
      </trkpt>
      <trkpt lat="44.12518" lon="6.99104">
        <ele>1876</ele>
        <time>2019-05-11T09:39:59.348Z</time>
      </trkpt>
      <trkpt lat="44.12519" lon="6.99105">
        <ele>1876</ele>
        <time>2019-05-11T09:40:04.349Z</time>
      </trkpt>
      <trkpt lat="44.12521" lon="6.99108">
        <ele>1876</ele>
        <time>2019-05-11T09:40:08.376Z</time>
      </trkpt>
      <trkpt lat="44.12525" lon="6.99112">
        <ele>1876</ele>
        <time>2019-05-11T09:40:13.349Z</time>
      </trkpt>
      <trkpt lat="44.1253" lon="6.99116">
        <ele>1876</ele>
        <time>2019-05-11T09:40:18.347Z</time>
      </trkpt>
      <trkpt lat="44.12534" lon="6.99121">
        <ele>1876</ele>
        <time>2019-05-11T09:40:22.410Z</time>
      </trkpt>
      <trkpt lat="44.1254" lon="6.99124">
        <ele>1876</ele>
        <time>2019-05-11T09:40:27.364Z</time>
      </trkpt>
      <trkpt lat="44.12544" lon="6.99128">
        <ele>1871</ele>
        <time>2019-05-11T09:40:32.347Z</time>
      </trkpt>
      <trkpt lat="44.12548" lon="6.99131">
        <ele>1871</ele>
        <time>2019-05-11T09:40:36.389Z</time>
      </trkpt>
      <trkpt lat="44.12551" lon="6.99133">
        <ele>1871</ele>
        <time>2019-05-11T09:40:41.348Z</time>
      </trkpt>
      <trkpt lat="44.12555" lon="6.99138">
        <ele>1871</ele>
        <time>2019-05-11T09:40:46.395Z</time>
      </trkpt>
      <trkpt lat="44.12558" lon="6.99143">
        <ele>1871</ele>
        <time>2019-05-11T09:40:51.347Z</time>
      </trkpt>
      <trkpt lat="44.12562" lon="6.99146">
        <ele>1871</ele>
        <time>2019-05-11T09:40:55.388Z</time>
      </trkpt>
      <trkpt lat="44.12566" lon="6.99149">
        <ele>1871</ele>
        <time>2019-05-11T09:41:00.429Z</time>
      </trkpt>
      <trkpt lat="44.12571" lon="6.99152">
        <ele>1881</ele>
        <time>2019-05-11T09:41:05.354Z</time>
      </trkpt>
      <trkpt lat="44.12575" lon="6.99155">
        <ele>1870</ele>
        <time>2019-05-11T09:41:10.351Z</time>
      </trkpt>
      <trkpt lat="44.12576" lon="6.99155">
        <ele>1870</ele>
        <time>2019-05-11T09:42:25.353Z</time>
      </trkpt>
      <trkpt lat="44.12576" lon="6.99156">
        <ele>1870</ele>
        <time>2019-05-11T09:42:30.346Z</time>
      </trkpt>
      <trkpt lat="44.1258" lon="6.99158">
        <ele>1870</ele>
        <time>2019-05-11T09:42:35.326Z</time>
      </trkpt>
      <trkpt lat="44.12583" lon="6.99159">
        <ele>1870</ele>
        <time>2019-05-11T09:42:39.347Z</time>
      </trkpt>
      <trkpt lat="44.12587" lon="6.99163">
        <ele>1870</ele>
        <time>2019-05-11T09:42:44.395Z</time>
      </trkpt>
      <trkpt lat="44.12593" lon="6.99166">
        <ele>1870</ele>
        <time>2019-05-11T09:42:49.343Z</time>
      </trkpt>
      <trkpt lat="44.12599" lon="6.99169">
        <ele>1880</ele>
        <time>2019-05-11T09:42:54.347Z</time>
      </trkpt>
      <trkpt lat="44.12606" lon="6.99173">
        <ele>1880</ele>
        <time>2019-05-11T09:42:59.356Z</time>
      </trkpt>
      <trkpt lat="44.12611" lon="6.99176">
        <ele>1880</ele>
        <time>2019-05-11T09:43:04.349Z</time>
      </trkpt>
      <trkpt lat="44.12614" lon="6.99179">
        <ele>1880</ele>
        <time>2019-05-11T09:43:08.371Z</time>
      </trkpt>
      <trkpt lat="44.12619" lon="6.99184">
        <ele>1869</ele>
        <time>2019-05-11T09:43:13.346Z</time>
      </trkpt>
      <trkpt lat="44.12623" lon="6.99188">
        <ele>1869</ele>
        <time>2019-05-11T09:43:18.346Z</time>
      </trkpt>
      <trkpt lat="44.12628" lon="6.9919">
        <ele>1878</ele>
        <time>2019-05-11T09:43:23.359Z</time>
      </trkpt>
      <trkpt lat="44.12633" lon="6.99194">
        <ele>1878</ele>
        <time>2019-05-11T09:43:28.347Z</time>
      </trkpt>
      <trkpt lat="44.12639" lon="6.99196">
        <ele>1878</ele>
        <time>2019-05-11T09:43:33.375Z</time>
      </trkpt>
      <trkpt lat="44.12643" lon="6.992">
        <ele>1878</ele>
        <time>2019-05-11T09:43:38.349Z</time>
      </trkpt>
      <trkpt lat="44.12647" lon="6.99204">
        <ele>1878</ele>
        <time>2019-05-11T09:43:43.339Z</time>
      </trkpt>
      <trkpt lat="44.12653" lon="6.99209">
        <ele>1875</ele>
        <time>2019-05-11T09:43:48.352Z</time>
      </trkpt>
      <trkpt lat="44.12657" lon="6.99212">
        <ele>1875</ele>
        <time>2019-05-11T09:43:52.367Z</time>
      </trkpt>
      <trkpt lat="44.12662" lon="6.99215">
        <ele>1875</ele>
        <time>2019-05-11T09:43:57.348Z</time>
      </trkpt>
      <trkpt lat="44.12668" lon="6.99218">
        <ele>1875</ele>
        <time>2019-05-11T09:44:02.377Z</time>
      </trkpt>
      <trkpt lat="44.12673" lon="6.99219">
        <ele>1875</ele>
        <time>2019-05-11T09:44:07.385Z</time>
      </trkpt>
      <trkpt lat="44.12677" lon="6.99221">
        <ele>1875</ele>
        <time>2019-05-11T09:44:12.347Z</time>
      </trkpt>
      <trkpt lat="44.12682" lon="6.99226">
        <ele>1874</ele>
        <time>2019-05-11T09:44:17.345Z</time>
      </trkpt>
      <trkpt lat="44.12688" lon="6.99231">
        <ele>1874</ele>
        <time>2019-05-11T09:44:22.346Z</time>
      </trkpt>
      <trkpt lat="44.12693" lon="6.99236">
        <ele>1874</ele>
        <time>2019-05-11T09:44:27.348Z</time>
      </trkpt>
      <trkpt lat="44.12697" lon="6.99238">
        <ele>1869</ele>
        <time>2019-05-11T09:44:32.351Z</time>
      </trkpt>
      <trkpt lat="44.127" lon="6.99241">
        <ele>1869</ele>
        <time>2019-05-11T09:44:36.365Z</time>
      </trkpt>
      <trkpt lat="44.12704" lon="6.99244">
        <ele>1869</ele>
        <time>2019-05-11T09:44:41.348Z</time>
      </trkpt>
      <trkpt lat="44.12708" lon="6.99245">
        <ele>1869</ele>
        <time>2019-05-11T09:44:45.369Z</time>
      </trkpt>
      <trkpt lat="44.12713" lon="6.9925">
        <ele>1873</ele>
        <time>2019-05-11T09:44:50.344Z</time>
      </trkpt>
      <trkpt lat="44.12718" lon="6.99253">
        <ele>1873</ele>
        <time>2019-05-11T09:44:54.360Z</time>
      </trkpt>
      <trkpt lat="44.12723" lon="6.99255">
        <ele>1873</ele>
        <time>2019-05-11T09:44:59.345Z</time>
      </trkpt>
      <trkpt lat="44.12727" lon="6.99256">
        <ele>1873</ele>
        <time>2019-05-11T09:45:04.339Z</time>
      </trkpt>
      <trkpt lat="44.12732" lon="6.99258">
        <ele>1873</ele>
        <time>2019-05-11T09:45:08.364Z</time>
      </trkpt>
      <trkpt lat="44.12736" lon="6.9926">
        <ele>1887</ele>
        <time>2019-05-11T09:45:13.369Z</time>
      </trkpt>
      <trkpt lat="44.1274" lon="6.99259">
        <ele>1887</ele>
        <time>2019-05-11T09:45:18.376Z</time>
      </trkpt>
      <trkpt lat="44.12745" lon="6.9926">
        <ele>1887</ele>
        <time>2019-05-11T09:45:23.331Z</time>
      </trkpt>
      <trkpt lat="44.12749" lon="6.99262">
        <ele>1887</ele>
        <time>2019-05-11T09:45:27.348Z</time>
      </trkpt>
      <trkpt lat="44.12755" lon="6.99265">
        <ele>1878</ele>
        <time>2019-05-11T09:45:32.375Z</time>
      </trkpt>
      <trkpt lat="44.1276" lon="6.99268">
        <ele>1878</ele>
        <time>2019-05-11T09:45:37.345Z</time>
      </trkpt>
      <trkpt lat="44.12763" lon="6.99271">
        <ele>1878</ele>
        <time>2019-05-11T09:45:41.373Z</time>
      </trkpt>
      <trkpt lat="44.12767" lon="6.99272">
        <ele>1885</ele>
        <time>2019-05-11T09:45:46.390Z</time>
      </trkpt>
      <trkpt lat="44.12771" lon="6.99277">
        <ele>1885</ele>
        <time>2019-05-11T09:45:51.342Z</time>
      </trkpt>
      <trkpt lat="44.12776" lon="6.9928">
        <ele>1885</ele>
        <time>2019-05-11T09:45:56.343Z</time>
      </trkpt>
      <trkpt lat="44.12781" lon="6.99284">
        <ele>1885</ele>
        <time>2019-05-11T09:46:01.335Z</time>
      </trkpt>
      <trkpt lat="44.12786" lon="6.99286">
        <ele>1885</ele>
        <time>2019-05-11T09:46:06.345Z</time>
      </trkpt>
      <trkpt lat="44.1279" lon="6.99288">
        <ele>1885</ele>
        <time>2019-05-11T09:46:11.341Z</time>
      </trkpt>
      <trkpt lat="44.12795" lon="6.99291">
        <ele>1895</ele>
        <time>2019-05-11T09:46:16.334Z</time>
      </trkpt>
      <trkpt lat="44.128" lon="6.9929">
        <ele>1895</ele>
        <time>2019-05-11T09:46:21.368Z</time>
      </trkpt>
      <trkpt lat="44.12804" lon="6.99292">
        <ele>1895</ele>
        <time>2019-05-11T09:46:26.342Z</time>
      </trkpt>
      <trkpt lat="44.12808" lon="6.99294">
        <ele>1884</ele>
        <time>2019-05-11T09:46:31.371Z</time>
      </trkpt>
      <trkpt lat="44.12812" lon="6.99297">
        <ele>1884</ele>
        <time>2019-05-11T09:46:36.342Z</time>
      </trkpt>
      <trkpt lat="44.12816" lon="6.99299">
        <ele>1884</ele>
        <time>2019-05-11T09:46:41.391Z</time>
      </trkpt>
      <trkpt lat="44.12819" lon="6.993">
        <ele>1884</ele>
        <time>2019-05-11T09:46:46.336Z</time>
      </trkpt>
      <trkpt lat="44.12825" lon="6.99302">
        <ele>1891</ele>
        <time>2019-05-11T09:46:51.343Z</time>
      </trkpt>
      <trkpt lat="44.12829" lon="6.99303">
        <ele>1891</ele>
        <time>2019-05-11T09:46:56.338Z</time>
      </trkpt>
      <trkpt lat="44.12833" lon="6.99305">
        <ele>1891</ele>
        <time>2019-05-11T09:47:00.364Z</time>
      </trkpt>
      <trkpt lat="44.12837" lon="6.99306">
        <ele>1891</ele>
        <time>2019-05-11T09:47:05.344Z</time>
      </trkpt>
      <trkpt lat="44.12841" lon="6.99307">
        <ele>1891</ele>
        <time>2019-05-11T09:47:10.339Z</time>
      </trkpt>
      <trkpt lat="44.12845" lon="6.99309">
        <ele>1891</ele>
        <time>2019-05-11T09:47:14.358Z</time>
      </trkpt>
      <trkpt lat="44.12849" lon="6.9931">
        <ele>1898</ele>
        <time>2019-05-11T09:47:19.343Z</time>
      </trkpt>
      <trkpt lat="44.12851" lon="6.99311">
        <ele>1898</ele>
        <time>2019-05-11T09:47:23.377Z</time>
      </trkpt>
      <trkpt lat="44.12857" lon="6.99312">
        <ele>1898</ele>
        <time>2019-05-11T09:47:28.334Z</time>
      </trkpt>
      <trkpt lat="44.12862" lon="6.99314">
        <ele>1898</ele>
        <time>2019-05-11T09:47:33.343Z</time>
      </trkpt>
      <trkpt lat="44.12866" lon="6.99315">
        <ele>1898</ele>
        <time>2019-05-11T09:47:38.366Z</time>
      </trkpt>
      <trkpt lat="44.12869" lon="6.99313">
        <ele>1898</ele>
        <time>2019-05-11T09:47:43.335Z</time>
      </trkpt>
      <trkpt lat="44.12873" lon="6.99314">
        <ele>1898</ele>
        <time>2019-05-11T09:47:48.345Z</time>
      </trkpt>
      <trkpt lat="44.12877" lon="6.99316">
        <ele>1906</ele>
        <time>2019-05-11T09:47:53.345Z</time>
      </trkpt>
      <trkpt lat="44.12882" lon="6.99318">
        <ele>1906</ele>
        <time>2019-05-11T09:47:58.372Z</time>
      </trkpt>
      <trkpt lat="44.12886" lon="6.99318">
        <ele>1906</ele>
        <time>2019-05-11T09:48:03.342Z</time>
      </trkpt>
      <trkpt lat="44.1289" lon="6.99318">
        <ele>1906</ele>
        <time>2019-05-11T09:48:08.345Z</time>
      </trkpt>
      <trkpt lat="44.12895" lon="6.9932">
        <ele>1897</ele>
        <time>2019-05-11T09:48:13.356Z</time>
      </trkpt>
      <trkpt lat="44.12899" lon="6.9932">
        <ele>1897</ele>
        <time>2019-05-11T09:48:18.343Z</time>
      </trkpt>
      <trkpt lat="44.12902" lon="6.99321">
        <ele>1897</ele>
        <time>2019-05-11T09:48:23.368Z</time>
      </trkpt>
      <trkpt lat="44.12905" lon="6.99324">
        <ele>1903</ele>
        <time>2019-05-11T09:48:28.356Z</time>
      </trkpt>
      <trkpt lat="44.12908" lon="6.99325">
        <ele>1903</ele>
        <time>2019-05-11T09:48:33.343Z</time>
      </trkpt>
      <trkpt lat="44.12912" lon="6.99323">
        <ele>1903</ele>
        <time>2019-05-11T09:50:51.351Z</time>
      </trkpt>
      <trkpt lat="44.12912" lon="6.99323">
        <ele>1903</ele>
        <time>2019-05-11T09:50:56.341Z</time>
      </trkpt>
      <trkpt lat="44.12914" lon="6.99324">
        <ele>1903</ele>
        <time>2019-05-11T09:51:01.344Z</time>
      </trkpt>
      <trkpt lat="44.12919" lon="6.99325">
        <ele>1903</ele>
        <time>2019-05-11T09:51:06.350Z</time>
      </trkpt>
      <trkpt lat="44.1292" lon="6.99324">
        <ele>1903</ele>
        <time>2019-05-11T09:51:11.344Z</time>
      </trkpt>
      <trkpt lat="44.1292" lon="6.99324">
        <ele>1903</ele>
        <time>2019-05-11T09:51:16.344Z</time>
      </trkpt>
      <trkpt lat="44.1292" lon="6.99324">
        <ele>1903</ele>
        <time>2019-05-11T09:51:21.343Z</time>
      </trkpt>
      <trkpt lat="44.12923" lon="6.99325">
        <ele>1903</ele>
        <time>2019-05-11T09:51:26.343Z</time>
      </trkpt>
      <trkpt lat="44.1293" lon="6.99326">
        <ele>1903</ele>
        <time>2019-05-11T09:51:31.328Z</time>
      </trkpt>
      <trkpt lat="44.12934" lon="6.99327">
        <ele>1903</ele>
        <time>2019-05-11T09:51:35.356Z</time>
      </trkpt>
      <trkpt lat="44.12939" lon="6.99328">
        <ele>1903</ele>
        <time>2019-05-11T09:51:40.362Z</time>
      </trkpt>
      <trkpt lat="44.12943" lon="6.99329">
        <ele>1903</ele>
        <time>2019-05-11T09:51:45.340Z</time>
      </trkpt>
      <trkpt lat="44.12948" lon="6.9933">
        <ele>1903</ele>
        <time>2019-05-11T09:51:50.370Z</time>
      </trkpt>
      <trkpt lat="44.12953" lon="6.9933">
        <ele>1903</ele>
        <time>2019-05-11T09:51:55.343Z</time>
      </trkpt>
      <trkpt lat="44.12957" lon="6.9933">
        <ele>1903</ele>
        <time>2019-05-11T09:51:59.354Z</time>
      </trkpt>
      <trkpt lat="44.12962" lon="6.99327">
        <ele>1907</ele>
        <time>2019-05-11T09:52:04.330Z</time>
      </trkpt>
      <trkpt lat="44.12966" lon="6.99326">
        <ele>1907</ele>
        <time>2019-05-11T09:52:09.343Z</time>
      </trkpt>
      <trkpt lat="44.12969" lon="6.99325">
        <ele>1907</ele>
        <time>2019-05-11T09:52:14.346Z</time>
      </trkpt>
      <trkpt lat="44.12971" lon="6.99323">
        <ele>1907</ele>
        <time>2019-05-11T09:52:19.356Z</time>
      </trkpt>
      <trkpt lat="44.12974" lon="6.99321">
        <ele>1907</ele>
        <time>2019-05-11T09:52:24.336Z</time>
      </trkpt>
      <trkpt lat="44.1298" lon="6.9932">
        <ele>1907</ele>
        <time>2019-05-11T09:52:28.346Z</time>
      </trkpt>
      <trkpt lat="44.12985" lon="6.9932">
        <ele>1907</ele>
        <time>2019-05-11T09:52:33.340Z</time>
      </trkpt>
      <trkpt lat="44.12988" lon="6.99318">
        <ele>1916</ele>
        <time>2019-05-11T09:52:37.361Z</time>
      </trkpt>
      <trkpt lat="44.12992" lon="6.99315">
        <ele>1916</ele>
        <time>2019-05-11T09:52:42.345Z</time>
      </trkpt>
      <trkpt lat="44.12997" lon="6.99313">
        <ele>1916</ele>
        <time>2019-05-11T09:52:47.371Z</time>
      </trkpt>
      <trkpt lat="44.13002" lon="6.99311">
        <ele>1916</ele>
        <time>2019-05-11T09:52:52.334Z</time>
      </trkpt>
      <trkpt lat="44.13005" lon="6.99309">
        <ele>1916</ele>
        <time>2019-05-11T09:52:57.341Z</time>
      </trkpt>
      <trkpt lat="44.13008" lon="6.99308">
        <ele>1916</ele>
        <time>2019-05-11T09:53:01.371Z</time>
      </trkpt>
      <trkpt lat="44.1301" lon="6.99308">
        <ele>1916</ele>
        <time>2019-05-11T09:53:06.343Z</time>
      </trkpt>
      <trkpt lat="44.13011" lon="6.99308">
        <ele>1916</ele>
        <time>2019-05-11T09:53:11.350Z</time>
      </trkpt>
      <trkpt lat="44.13015" lon="6.9931">
        <ele>1925</ele>
        <time>2019-05-11T09:53:16.356Z</time>
      </trkpt>
      <trkpt lat="44.13019" lon="6.99315">
        <ele>1925</ele>
        <time>2019-05-11T09:53:21.378Z</time>
      </trkpt>
      <trkpt lat="44.13023" lon="6.99318">
        <ele>1925</ele>
        <time>2019-05-11T09:53:26.340Z</time>
      </trkpt>
      <trkpt lat="44.13026" lon="6.99321">
        <ele>1919</ele>
        <time>2019-05-11T09:53:31.336Z</time>
      </trkpt>
      <trkpt lat="44.13029" lon="6.99326">
        <ele>1919</ele>
        <time>2019-05-11T09:53:35.360Z</time>
      </trkpt>
      <trkpt lat="44.13033" lon="6.9933">
        <ele>1919</ele>
        <time>2019-05-11T09:53:39.385Z</time>
      </trkpt>
      <trkpt lat="44.13034" lon="6.99335">
        <ele>1919</ele>
        <time>2019-05-11T09:53:44.340Z</time>
      </trkpt>
      <trkpt lat="44.13035" lon="6.99341">
        <ele>1919</ele>
        <time>2019-05-11T09:53:49.343Z</time>
      </trkpt>
      <trkpt lat="44.13038" lon="6.99346">
        <ele>1919</ele>
        <time>2019-05-11T09:53:54.359Z</time>
      </trkpt>
      <trkpt lat="44.13042" lon="6.9935">
        <ele>1928</ele>
        <time>2019-05-11T09:53:59.369Z</time>
      </trkpt>
      <trkpt lat="44.13043" lon="6.99356">
        <ele>1928</ele>
        <time>2019-05-11T09:54:04.354Z</time>
      </trkpt>
      <trkpt lat="44.13045" lon="6.99362">
        <ele>1928</ele>
        <time>2019-05-11T09:54:09.370Z</time>
      </trkpt>
      <trkpt lat="44.13048" lon="6.99368">
        <ele>1928</ele>
        <time>2019-05-11T09:54:14.336Z</time>
      </trkpt>
      <trkpt lat="44.13051" lon="6.99375">
        <ele>1928</ele>
        <time>2019-05-11T09:54:19.359Z</time>
      </trkpt>
      <trkpt lat="44.13053" lon="6.9938">
        <ele>1923</ele>
        <time>2019-05-11T09:54:24.338Z</time>
      </trkpt>
      <trkpt lat="44.13057" lon="6.99386">
        <ele>1923</ele>
        <time>2019-05-11T09:54:29.339Z</time>
      </trkpt>
      <trkpt lat="44.1306" lon="6.99391">
        <ele>1923</ele>
        <time>2019-05-11T09:54:34.360Z</time>
      </trkpt>
      <trkpt lat="44.13063" lon="6.99396">
        <ele>1923</ele>
        <time>2019-05-11T09:54:39.336Z</time>
      </trkpt>
      <trkpt lat="44.13066" lon="6.994">
        <ele>1923</ele>
        <time>2019-05-11T09:54:44.356Z</time>
      </trkpt>
      <trkpt lat="44.13069" lon="6.99403">
        <ele>1921</ele>
        <time>2019-05-11T09:54:49.349Z</time>
      </trkpt>
      <trkpt lat="44.13072" lon="6.99406">
        <ele>1931</ele>
        <time>2019-05-11T09:54:54.335Z</time>
      </trkpt>
      <trkpt lat="44.13075" lon="6.99411">
        <ele>1931</ele>
        <time>2019-05-11T09:54:59.339Z</time>
      </trkpt>
      <trkpt lat="44.13077" lon="6.99415">
        <ele>1931</ele>
        <time>2019-05-11T09:55:04.356Z</time>
      </trkpt>
      <trkpt lat="44.13078" lon="6.99419">
        <ele>1931</ele>
        <time>2019-05-11T09:55:09.358Z</time>
      </trkpt>
      <trkpt lat="44.1308" lon="6.99424">
        <ele>1931</ele>
        <time>2019-05-11T09:55:14.352Z</time>
      </trkpt>
      <trkpt lat="44.13082" lon="6.9943">
        <ele>1931</ele>
        <time>2019-05-11T09:55:19.376Z</time>
      </trkpt>
      <trkpt lat="44.13086" lon="6.99435">
        <ele>1932</ele>
        <time>2019-05-11T09:55:24.344Z</time>
      </trkpt>
      <trkpt lat="44.13087" lon="6.9944">
        <ele>1932</ele>
        <time>2019-05-11T09:55:29.411Z</time>
      </trkpt>
      <trkpt lat="44.13086" lon="6.99446">
        <ele>1932</ele>
        <time>2019-05-11T09:55:34.336Z</time>
      </trkpt>
      <trkpt lat="44.13085" lon="6.99452">
        <ele>1932</ele>
        <time>2019-05-11T09:55:39.340Z</time>
      </trkpt>
      <trkpt lat="44.13085" lon="6.99457">
        <ele>1932</ele>
        <time>2019-05-11T09:55:43.359Z</time>
      </trkpt>
      <trkpt lat="44.13085" lon="6.99463">
        <ele>1933</ele>
        <time>2019-05-11T09:55:48.337Z</time>
      </trkpt>
      <trkpt lat="44.13084" lon="6.99468">
        <ele>1933</ele>
        <time>2019-05-11T09:55:53.336Z</time>
      </trkpt>
      <trkpt lat="44.13083" lon="6.99472">
        <ele>1933</ele>
        <time>2019-05-11T09:55:58.340Z</time>
      </trkpt>
      <trkpt lat="44.13082" lon="6.99477">
        <ele>1933</ele>
        <time>2019-05-11T09:56:03.343Z</time>
      </trkpt>
      <trkpt lat="44.13081" lon="6.99482">
        <ele>1933</ele>
        <time>2019-05-11T09:56:08.338Z</time>
      </trkpt>
      <trkpt lat="44.13078" lon="6.99486">
        <ele>1933</ele>
        <time>2019-05-11T09:56:13.340Z</time>
      </trkpt>
      <trkpt lat="44.13075" lon="6.99489">
        <ele>1934</ele>
        <time>2019-05-11T09:56:17.359Z</time>
      </trkpt>
      <trkpt lat="44.13073" lon="6.99494">
        <ele>1934</ele>
        <time>2019-05-11T09:56:22.341Z</time>
      </trkpt>
      <trkpt lat="44.1307" lon="6.99497">
        <ele>1934</ele>
        <time>2019-05-11T09:56:26.357Z</time>
      </trkpt>
      <trkpt lat="44.13069" lon="6.995">
        <ele>1928</ele>
        <time>2019-05-11T09:56:31.340Z</time>
      </trkpt>
      <trkpt lat="44.13067" lon="6.99505">
        <ele>1928</ele>
        <time>2019-05-11T09:56:36.364Z</time>
      </trkpt>
      <trkpt lat="44.13064" lon="6.99508">
        <ele>1928</ele>
        <time>2019-05-11T09:56:41.337Z</time>
      </trkpt>
      <trkpt lat="44.13061" lon="6.99511">
        <ele>1928</ele>
        <time>2019-05-11T09:56:46.330Z</time>
      </trkpt>
      <trkpt lat="44.13059" lon="6.99513">
        <ele>1928</ele>
        <time>2019-05-11T09:56:50.348Z</time>
      </trkpt>
      <trkpt lat="44.13057" lon="6.99516">
        <ele>1934</ele>
        <time>2019-05-11T09:56:55.337Z</time>
      </trkpt>
      <trkpt lat="44.13054" lon="6.9952">
        <ele>1934</ele>
        <time>2019-05-11T09:57:00.373Z</time>
      </trkpt>
      <trkpt lat="44.1305" lon="6.99524">
        <ele>1934</ele>
        <time>2019-05-11T09:57:05.337Z</time>
      </trkpt>
      <trkpt lat="44.13046" lon="6.99528">
        <ele>1934</ele>
        <time>2019-05-11T09:57:10.337Z</time>
      </trkpt>
      <trkpt lat="44.13041" lon="6.99531">
        <ele>1932</ele>
        <time>2019-05-11T09:57:15.339Z</time>
      </trkpt>
      <trkpt lat="44.13038" lon="6.99535">
        <ele>1932</ele>
        <time>2019-05-11T09:57:20.335Z</time>
      </trkpt>
      <trkpt lat="44.13034" lon="6.99536">
        <ele>1932</ele>
        <time>2019-05-11T09:57:25.340Z</time>
      </trkpt>
      <trkpt lat="44.13031" lon="6.99539">
        <ele>1932</ele>
        <time>2019-05-11T09:57:30.334Z</time>
      </trkpt>
      <trkpt lat="44.13028" lon="6.99544">
        <ele>1940</ele>
        <time>2019-05-11T09:57:35.358Z</time>
      </trkpt>
      <trkpt lat="44.13024" lon="6.99547">
        <ele>1940</ele>
        <time>2019-05-11T09:57:40.335Z</time>
      </trkpt>
      <trkpt lat="44.13021" lon="6.99551">
        <ele>1940</ele>
        <time>2019-05-11T09:57:45.335Z</time>
      </trkpt>
      <trkpt lat="44.13018" lon="6.99556">
        <ele>1940</ele>
        <time>2019-05-11T09:57:50.333Z</time>
      </trkpt>
      <trkpt lat="44.13015" lon="6.99559">
        <ele>1940</ele>
        <time>2019-05-11T09:57:54.354Z</time>
      </trkpt>
      <trkpt lat="44.13011" lon="6.99563">
        <ele>1938</ele>
        <time>2019-05-11T09:57:59.335Z</time>
      </trkpt>
      <trkpt lat="44.13007" lon="6.99567">
        <ele>1938</ele>
        <time>2019-05-11T09:58:04.333Z</time>
      </trkpt>
      <trkpt lat="44.13003" lon="6.99575">
        <ele>1944</ele>
        <time>2019-05-11T09:58:24.333Z</time>
      </trkpt>
      <trkpt lat="44.13003" lon="6.99576">
        <ele>1944</ele>
        <time>2019-05-11T09:58:29.336Z</time>
      </trkpt>
      <trkpt lat="44.13003" lon="6.99578">
        <ele>1944</ele>
        <time>2019-05-11T09:58:34.336Z</time>
      </trkpt>
      <trkpt lat="44.13003" lon="6.99582">
        <ele>1944</ele>
        <time>2019-05-11T09:58:39.337Z</time>
      </trkpt>
      <trkpt lat="44.13003" lon="6.99583">
        <ele>1944</ele>
        <time>2019-05-11T09:58:44.337Z</time>
      </trkpt>
      <trkpt lat="44.13004" lon="6.99582">
        <ele>1944</ele>
        <time>2019-05-11T10:00:57.333Z</time>
      </trkpt>
      <trkpt lat="44.13003" lon="6.99585">
        <ele>1944</ele>
        <time>2019-05-11T10:01:02.333Z</time>
      </trkpt>
      <trkpt lat="44.13004" lon="6.99587">
        <ele>1944</ele>
        <time>2019-05-11T10:01:07.335Z</time>
      </trkpt>
      <trkpt lat="44.1301" lon="6.99587">
        <ele>1944</ele>
        <time>2019-05-11T10:01:12.334Z</time>
      </trkpt>
      <trkpt lat="44.13012" lon="6.99587">
        <ele>1944</ele>
        <time>2019-05-11T10:01:16.317Z</time>
      </trkpt>
      <trkpt lat="44.13012" lon="6.99592">
        <ele>1944</ele>
        <time>2019-05-11T10:01:21.334Z</time>
      </trkpt>
      <trkpt lat="44.13014" lon="6.9959">
        <ele>1948</ele>
        <time>2019-05-11T10:01:25.354Z</time>
      </trkpt>
      <trkpt lat="44.13018" lon="6.99582">
        <ele>1948</ele>
        <time>2019-05-11T10:01:30.357Z</time>
      </trkpt>
      <trkpt lat="44.13022" lon="6.99582">
        <ele>1948</ele>
        <time>2019-05-11T10:01:35.324Z</time>
      </trkpt>
      <trkpt lat="44.13027" lon="6.99578">
        <ele>1948</ele>
        <time>2019-05-11T10:01:39.353Z</time>
      </trkpt>
      <trkpt lat="44.13031" lon="6.99576">
        <ele>1948</ele>
        <time>2019-05-11T10:01:44.331Z</time>
      </trkpt>
      <trkpt lat="44.13034" lon="6.99575">
        <ele>1948</ele>
        <time>2019-05-11T10:01:49.317Z</time>
      </trkpt>
      <trkpt lat="44.13038" lon="6.99573">
        <ele>1948</ele>
        <time>2019-05-11T10:01:53.331Z</time>
      </trkpt>
      <trkpt lat="44.13044" lon="6.9957">
        <ele>1957</ele>
        <time>2019-05-11T10:01:58.320Z</time>
      </trkpt>
      <trkpt lat="44.13046" lon="6.9957">
        <ele>1957</ele>
        <time>2019-05-11T10:02:02.337Z</time>
      </trkpt>
      <trkpt lat="44.13049" lon="6.99568">
        <ele>1946</ele>
        <time>2019-05-11T10:02:07.334Z</time>
      </trkpt>
      <trkpt lat="44.13055" lon="6.99566">
        <ele>1946</ele>
        <time>2019-05-11T10:02:12.317Z</time>
      </trkpt>
      <trkpt lat="44.1306" lon="6.99565">
        <ele>1946</ele>
        <time>2019-05-11T10:02:16.337Z</time>
      </trkpt>
      <trkpt lat="44.13063" lon="6.99564">
        <ele>1946</ele>
        <time>2019-05-11T10:02:20.360Z</time>
      </trkpt>
      <trkpt lat="44.13067" lon="6.99565">
        <ele>1946</ele>
        <time>2019-05-11T10:02:25.331Z</time>
      </trkpt>
      <trkpt lat="44.13071" lon="6.99564">
        <ele>1952</ele>
        <time>2019-05-11T10:02:30.353Z</time>
      </trkpt>
      <trkpt lat="44.13075" lon="6.99563">
        <ele>1952</ele>
        <time>2019-05-11T10:02:35.334Z</time>
      </trkpt>
      <trkpt lat="44.13079" lon="6.99563">
        <ele>1952</ele>
        <time>2019-05-11T10:02:39.350Z</time>
      </trkpt>
      <trkpt lat="44.13084" lon="6.99563">
        <ele>1952</ele>
        <time>2019-05-11T10:02:44.332Z</time>
      </trkpt>
      <trkpt lat="44.13087" lon="6.99564">
        <ele>1952</ele>
        <time>2019-05-11T10:02:49.322Z</time>
      </trkpt>
      <trkpt lat="44.13092" lon="6.99565">
        <ele>1952</ele>
        <time>2019-05-11T10:02:53.356Z</time>
      </trkpt>
      <trkpt lat="44.13098" lon="6.99566">
        <ele>1952</ele>
        <time>2019-05-11T10:02:58.335Z</time>
      </trkpt>
      <trkpt lat="44.13103" lon="6.99566">
        <ele>1952</ele>
        <time>2019-05-11T10:03:03.320Z</time>
      </trkpt>
      <trkpt lat="44.13108" lon="6.99565">
        <ele>1952</ele>
        <time>2019-05-11T10:03:07.330Z</time>
      </trkpt>
      <trkpt lat="44.13112" lon="6.99561">
        <ele>1952</ele>
        <time>2019-05-11T10:03:12.332Z</time>
      </trkpt>
      <trkpt lat="44.13116" lon="6.99558">
        <ele>1952</ele>
        <time>2019-05-11T10:03:17.323Z</time>
      </trkpt>
      <trkpt lat="44.13119" lon="6.99556">
        <ele>1952</ele>
        <time>2019-05-11T10:03:22.333Z</time>
      </trkpt>
      <trkpt lat="44.13124" lon="6.99552">
        <ele>1952</ele>
        <time>2019-05-11T10:03:27.321Z</time>
      </trkpt>
      <trkpt lat="44.13127" lon="6.99552">
        <ele>1960</ele>
        <time>2019-05-11T10:03:31.356Z</time>
      </trkpt>
      <trkpt lat="44.13131" lon="6.99549">
        <ele>1960</ele>
        <time>2019-05-11T10:03:36.352Z</time>
      </trkpt>
      <trkpt lat="44.13133" lon="6.99547">
        <ele>1960</ele>
        <time>2019-05-11T10:03:41.327Z</time>
      </trkpt>
      <trkpt lat="44.13136" lon="6.99545">
        <ele>1960</ele>
        <time>2019-05-11T10:03:46.329Z</time>
      </trkpt>
      <trkpt lat="44.13138" lon="6.99542">
        <ele>1960</ele>
        <time>2019-05-11T10:03:50.341Z</time>
      </trkpt>
      <trkpt lat="44.13141" lon="6.99536">
        <ele>1958</ele>
        <time>2019-05-11T10:03:55.344Z</time>
      </trkpt>
      <trkpt lat="44.13144" lon="6.99531">
        <ele>1958</ele>
        <time>2019-05-11T10:04:00.365Z</time>
      </trkpt>
      <trkpt lat="44.13147" lon="6.99528">
        <ele>1958</ele>
        <time>2019-05-11T10:04:05.346Z</time>
      </trkpt>
      <trkpt lat="44.1315" lon="6.99526">
        <ele>1958</ele>
        <time>2019-05-11T10:04:09.367Z</time>
      </trkpt>
      <trkpt lat="44.13155" lon="6.99524">
        <ele>1968</ele>
        <time>2019-05-11T10:04:14.330Z</time>
      </trkpt>
      <trkpt lat="44.13158" lon="6.99522">
        <ele>1968</ele>
        <time>2019-05-11T10:04:19.370Z</time>
      </trkpt>
      <trkpt lat="44.13162" lon="6.99517">
        <ele>1968</ele>
        <time>2019-05-11T10:04:24.327Z</time>
      </trkpt>
      <trkpt lat="44.13165" lon="6.99514">
        <ele>1968</ele>
        <time>2019-05-11T10:04:28.356Z</time>
      </trkpt>
      <trkpt lat="44.13172" lon="6.99509">
        <ele>1966</ele>
        <time>2019-05-11T10:04:33.361Z</time>
      </trkpt>
      <trkpt lat="44.13175" lon="6.99506">
        <ele>1966</ele>
        <time>2019-05-11T10:04:38.330Z</time>
      </trkpt>
      <trkpt lat="44.13178" lon="6.99504">
        <ele>1966</ele>
        <time>2019-05-11T10:04:42.346Z</time>
      </trkpt>
      <trkpt lat="44.13182" lon="6.99501">
        <ele>1972</ele>
        <time>2019-05-11T10:04:47.328Z</time>
      </trkpt>
      <trkpt lat="44.13185" lon="6.99496">
        <ele>1972</ele>
        <time>2019-05-11T10:04:52.329Z</time>
      </trkpt>
      <trkpt lat="44.13189" lon="6.99493">
        <ele>1972</ele>
        <time>2019-05-11T10:04:57.331Z</time>
      </trkpt>
      <trkpt lat="44.13191" lon="6.9949">
        <ele>1972</ele>
        <time>2019-05-11T10:05:01.351Z</time>
      </trkpt>
      <trkpt lat="44.13193" lon="6.99488">
        <ele>1972</ele>
        <time>2019-05-11T10:05:06.329Z</time>
      </trkpt>
      <trkpt lat="44.13196" lon="6.99488">
        <ele>1972</ele>
        <time>2019-05-11T10:05:11.330Z</time>
      </trkpt>
      <trkpt lat="44.13198" lon="6.99485">
        <ele>1969</ele>
        <time>2019-05-11T10:05:16.328Z</time>
      </trkpt>
      <trkpt lat="44.132" lon="6.99481">
        <ele>1969</ele>
        <time>2019-05-11T10:05:21.328Z</time>
      </trkpt>
      <trkpt lat="44.13203" lon="6.9948">
        <ele>1969</ele>
        <time>2019-05-11T10:05:26.334Z</time>
      </trkpt>
      <trkpt lat="44.13205" lon="6.99476">
        <ele>1969</ele>
        <time>2019-05-11T10:05:31.326Z</time>
      </trkpt>
      <trkpt lat="44.13206" lon="6.9947">
        <ele>1969</ele>
        <time>2019-05-11T10:05:36.351Z</time>
      </trkpt>
      <trkpt lat="44.13209" lon="6.99466">
        <ele>1971</ele>
        <time>2019-05-11T10:05:41.333Z</time>
      </trkpt>
      <trkpt lat="44.1321" lon="6.9946">
        <ele>1971</ele>
        <time>2019-05-11T10:05:46.345Z</time>
      </trkpt>
      <trkpt lat="44.13212" lon="6.99455">
        <ele>1971</ele>
        <time>2019-05-11T10:05:51.337Z</time>
      </trkpt>
      <trkpt lat="44.13213" lon="6.99449">
        <ele>1971</ele>
        <time>2019-05-11T10:05:56.329Z</time>
      </trkpt>
      <trkpt lat="44.13213" lon="6.99445">
        <ele>1971</ele>
        <time>2019-05-11T10:06:00.369Z</time>
      </trkpt>
      <trkpt lat="44.13214" lon="6.9944">
        <ele>1971</ele>
        <time>2019-05-11T10:06:05.329Z</time>
      </trkpt>
      <trkpt lat="44.13216" lon="6.99433">
        <ele>1971</ele>
        <time>2019-05-11T10:06:10.329Z</time>
      </trkpt>
      <trkpt lat="44.13216" lon="6.99427">
        <ele>1973</ele>
        <time>2019-05-11T10:06:15.323Z</time>
      </trkpt>
      <trkpt lat="44.13217" lon="6.99424">
        <ele>1973</ele>
        <time>2019-05-11T10:06:20.329Z</time>
      </trkpt>
      <trkpt lat="44.13218" lon="6.99421">
        <ele>1973</ele>
        <time>2019-05-11T10:06:25.347Z</time>
      </trkpt>
      <trkpt lat="44.13225" lon="6.99414">
        <ele>1973</ele>
        <time>2019-05-11T10:06:50.329Z</time>
      </trkpt>
      <trkpt lat="44.13225" lon="6.99414">
        <ele>1973</ele>
        <time>2019-05-11T10:06:55.319Z</time>
      </trkpt>
      <trkpt lat="44.13226" lon="6.99413">
        <ele>1973</ele>
        <time>2019-05-11T10:06:59.327Z</time>
      </trkpt>
      <trkpt lat="44.13227" lon="6.99413">
        <ele>1973</ele>
        <time>2019-05-11T10:07:04.329Z</time>
      </trkpt>
      <trkpt lat="44.13228" lon="6.99411">
        <ele>1973</ele>
        <time>2019-05-11T10:07:09.329Z</time>
      </trkpt>
      <trkpt lat="44.13228" lon="6.99413">
        <ele>1973</ele>
        <time>2019-05-11T10:07:49.328Z</time>
      </trkpt>
      <trkpt lat="44.1323" lon="6.99414">
        <ele>1973</ele>
        <time>2019-05-11T10:07:54.373Z</time>
      </trkpt>
      <trkpt lat="44.13233" lon="6.99415">
        <ele>1973</ele>
        <time>2019-05-11T10:07:59.323Z</time>
      </trkpt>
      <trkpt lat="44.13235" lon="6.99416">
        <ele>1973</ele>
        <time>2019-05-11T10:08:03.349Z</time>
      </trkpt>
      <trkpt lat="44.13236" lon="6.99419">
        <ele>1973</ele>
        <time>2019-05-11T10:08:08.327Z</time>
      </trkpt>
      <trkpt lat="44.13235" lon="6.99419">
        <ele>1973</ele>
        <time>2019-05-11T10:12:07.324Z</time>
      </trkpt>
      <trkpt lat="44.13233" lon="6.99415">
        <ele>1973</ele>
        <time>2019-05-11T10:12:12.345Z</time>
      </trkpt>
      <trkpt lat="44.1323" lon="6.99411">
        <ele>1973</ele>
        <time>2019-05-11T10:12:17.321Z</time>
      </trkpt>
      <trkpt lat="44.13227" lon="6.99407">
        <ele>1973</ele>
        <time>2019-05-11T10:12:21.358Z</time>
      </trkpt>
      <trkpt lat="44.13224" lon="6.99401">
        <ele>1977</ele>
        <time>2019-05-11T10:12:26.336Z</time>
      </trkpt>
      <trkpt lat="44.13224" lon="6.99397">
        <ele>1977</ele>
        <time>2019-05-11T10:12:30.353Z</time>
      </trkpt>
      <trkpt lat="44.13224" lon="6.99391">
        <ele>1977</ele>
        <time>2019-05-11T10:12:35.325Z</time>
      </trkpt>
      <trkpt lat="44.13223" lon="6.99385">
        <ele>1977</ele>
        <time>2019-05-11T10:12:40.352Z</time>
      </trkpt>
      <trkpt lat="44.13223" lon="6.99377">
        <ele>1977</ele>
        <time>2019-05-11T10:12:45.331Z</time>
      </trkpt>
      <trkpt lat="44.13221" lon="6.9937">
        <ele>1983</ele>
        <time>2019-05-11T10:12:50.324Z</time>
      </trkpt>
      <trkpt lat="44.1322" lon="6.99365">
        <ele>1983</ele>
        <time>2019-05-11T10:12:54.346Z</time>
      </trkpt>
      <trkpt lat="44.13217" lon="6.99359">
        <ele>1983</ele>
        <time>2019-05-11T10:12:59.330Z</time>
      </trkpt>
      <trkpt lat="44.13214" lon="6.99354">
        <ele>1983</ele>
        <time>2019-05-11T10:13:04.327Z</time>
      </trkpt>
      <trkpt lat="44.13212" lon="6.99348">
        <ele>1983</ele>
        <time>2019-05-11T10:13:08.344Z</time>
      </trkpt>
      <trkpt lat="44.1321" lon="6.99343">
        <ele>1992</ele>
        <time>2019-05-11T10:13:13.320Z</time>
      </trkpt>
      <trkpt lat="44.13209" lon="6.99338">
        <ele>1992</ele>
        <time>2019-05-11T10:13:18.345Z</time>
      </trkpt>
      <trkpt lat="44.13207" lon="6.99333">
        <ele>1984</ele>
        <time>2019-05-11T10:13:23.323Z</time>
      </trkpt>
      <trkpt lat="44.13205" lon="6.99328">
        <ele>1984</ele>
        <time>2019-05-11T10:13:28.339Z</time>
      </trkpt>
      <trkpt lat="44.13202" lon="6.99323">
        <ele>1984</ele>
        <time>2019-05-11T10:13:32.357Z</time>
      </trkpt>
      <trkpt lat="44.132" lon="6.99319">
        <ele>1991</ele>
        <time>2019-05-11T10:13:37.321Z</time>
      </trkpt>
      <trkpt lat="44.13198" lon="6.99313">
        <ele>1991</ele>
        <time>2019-05-11T10:13:42.308Z</time>
      </trkpt>
      <trkpt lat="44.13197" lon="6.99307">
        <ele>1991</ele>
        <time>2019-05-11T10:13:47.361Z</time>
      </trkpt>
      <trkpt lat="44.13195" lon="6.99301">
        <ele>1991</ele>
        <time>2019-05-11T10:13:52.346Z</time>
      </trkpt>
      <trkpt lat="44.13192" lon="6.99299">
        <ele>1991</ele>
        <time>2019-05-11T10:13:57.310Z</time>
      </trkpt>
      <trkpt lat="44.1319" lon="6.99299">
        <ele>1991</ele>
        <time>2019-05-11T10:14:02.324Z</time>
      </trkpt>
      <trkpt lat="44.13188" lon="6.99297">
        <ele>1991</ele>
        <time>2019-05-11T10:14:07.330Z</time>
      </trkpt>
      <trkpt lat="44.13188" lon="6.99297">
        <ele>1991</ele>
        <time>2019-05-11T10:14:12.337Z</time>
      </trkpt>
      <trkpt lat="44.13184" lon="6.99295">
        <ele>1991</ele>
        <time>2019-05-11T10:14:17.340Z</time>
      </trkpt>
      <trkpt lat="44.13182" lon="6.99291">
        <ele>2000</ele>
        <time>2019-05-11T10:14:22.319Z</time>
      </trkpt>
      <trkpt lat="44.1318" lon="6.99287">
        <ele>1996</ele>
        <time>2019-05-11T10:14:27.323Z</time>
      </trkpt>
      <trkpt lat="44.13177" lon="6.99283">
        <ele>1996</ele>
        <time>2019-05-11T10:14:32.321Z</time>
      </trkpt>
      <trkpt lat="44.13175" lon="6.99282">
        <ele>1996</ele>
        <time>2019-05-11T10:14:37.324Z</time>
      </trkpt>
      <trkpt lat="44.13172" lon="6.99277">
        <ele>1996</ele>
        <time>2019-05-11T10:14:42.317Z</time>
      </trkpt>
      <trkpt lat="44.13167" lon="6.99274">
        <ele>1996</ele>
        <time>2019-05-11T10:14:47.331Z</time>
      </trkpt>
      <trkpt lat="44.13163" lon="6.99271">
        <ele>1996</ele>
        <time>2019-05-11T10:14:52.339Z</time>
      </trkpt>
      <trkpt lat="44.13161" lon="6.99267">
        <ele>1996</ele>
        <time>2019-05-11T10:14:57.321Z</time>
      </trkpt>
      <trkpt lat="44.13159" lon="6.99264">
        <ele>1996</ele>
        <time>2019-05-11T10:15:01.327Z</time>
      </trkpt>
      <trkpt lat="44.13156" lon="6.99262">
        <ele>2003</ele>
        <time>2019-05-11T10:15:05.347Z</time>
      </trkpt>
      <trkpt lat="44.13154" lon="6.99259">
        <ele>2003</ele>
        <time>2019-05-11T10:15:10.323Z</time>
      </trkpt>
      <trkpt lat="44.13152" lon="6.99255">
        <ele>1994</ele>
        <time>2019-05-11T10:15:15.324Z</time>
      </trkpt>
      <trkpt lat="44.13148" lon="6.99253">
        <ele>1994</ele>
        <time>2019-05-11T10:15:19.365Z</time>
      </trkpt>
      <trkpt lat="44.13145" lon="6.99249">
        <ele>1994</ele>
        <time>2019-05-11T10:15:24.319Z</time>
      </trkpt>
      <trkpt lat="44.13144" lon="6.99244">
        <ele>1994</ele>
        <time>2019-05-11T10:15:29.340Z</time>
      </trkpt>
      <trkpt lat="44.13142" lon="6.99239">
        <ele>1994</ele>
        <time>2019-05-11T10:15:34.334Z</time>
      </trkpt>
      <trkpt lat="44.13141" lon="6.99232">
        <ele>2000</ele>
        <time>2019-05-11T10:15:39.323Z</time>
      </trkpt>
      <trkpt lat="44.1314" lon="6.99228">
        <ele>2000</ele>
        <time>2019-05-11T10:15:44.323Z</time>
      </trkpt>
      <trkpt lat="44.13138" lon="6.99223">
        <ele>2000</ele>
        <time>2019-05-11T10:15:49.321Z</time>
      </trkpt>
      <trkpt lat="44.13136" lon="6.99218">
        <ele>2000</ele>
        <time>2019-05-11T10:15:54.331Z</time>
      </trkpt>
      <trkpt lat="44.13134" lon="6.99214">
        <ele>2000</ele>
        <time>2019-05-11T10:15:59.357Z</time>
      </trkpt>
      <trkpt lat="44.13132" lon="6.99209">
        <ele>2000</ele>
        <time>2019-05-11T10:16:04.310Z</time>
      </trkpt>
      <trkpt lat="44.13132" lon="6.99208">
        <ele>2001</ele>
        <time>2019-05-11T10:16:08.342Z</time>
      </trkpt>
      <trkpt lat="44.13132" lon="6.99202">
        <ele>2001</ele>
        <time>2019-05-11T10:16:13.322Z</time>
      </trkpt>
      <trkpt lat="44.13131" lon="6.99198">
        <ele>2001</ele>
        <time>2019-05-11T10:16:18.324Z</time>
      </trkpt>
      <trkpt lat="44.13129" lon="6.99192">
        <ele>2001</ele>
        <time>2019-05-11T10:16:23.322Z</time>
      </trkpt>
      <trkpt lat="44.13129" lon="6.99186">
        <ele>2001</ele>
        <time>2019-05-11T10:16:28.323Z</time>
      </trkpt>
      <trkpt lat="44.13129" lon="6.9918">
        <ele>2000</ele>
        <time>2019-05-11T10:16:33.343Z</time>
      </trkpt>
      <trkpt lat="44.13129" lon="6.99175">
        <ele>2000</ele>
        <time>2019-05-11T10:16:38.319Z</time>
      </trkpt>
      <trkpt lat="44.13129" lon="6.9917">
        <ele>2000</ele>
        <time>2019-05-11T10:16:43.320Z</time>
      </trkpt>
      <trkpt lat="44.13131" lon="6.99168">
        <ele>2000</ele>
        <time>2019-05-11T10:16:48.318Z</time>
      </trkpt>
      <trkpt lat="44.13132" lon="6.99162">
        <ele>2000</ele>
        <time>2019-05-11T10:16:53.319Z</time>
      </trkpt>
      <trkpt lat="44.13133" lon="6.99159">
        <ele>2000</ele>
        <time>2019-05-11T10:16:58.312Z</time>
      </trkpt>
      <trkpt lat="44.13135" lon="6.99155">
        <ele>2000</ele>
        <time>2019-05-11T10:17:03.337Z</time>
      </trkpt>
      <trkpt lat="44.13137" lon="6.99153">
        <ele>2000</ele>
        <time>2019-05-11T10:17:08.334Z</time>
      </trkpt>
      <trkpt lat="44.13138" lon="6.9915">
        <ele>2000</ele>
        <time>2019-05-11T10:17:13.321Z</time>
      </trkpt>
      <trkpt lat="44.13139" lon="6.99146">
        <ele>2000</ele>
        <time>2019-05-11T10:17:17.347Z</time>
      </trkpt>
      <trkpt lat="44.1314" lon="6.99144">
        <ele>2000</ele>
        <time>2019-05-11T10:17:22.319Z</time>
      </trkpt>
      <trkpt lat="44.13141" lon="6.9914">
        <ele>2000</ele>
        <time>2019-05-11T10:17:27.322Z</time>
      </trkpt>
      <trkpt lat="44.13143" lon="6.99136">
        <ele>2000</ele>
        <time>2019-05-11T10:17:32.320Z</time>
      </trkpt>
      <trkpt lat="44.13146" lon="6.99131">
        <ele>2000</ele>
        <time>2019-05-11T10:17:37.321Z</time>
      </trkpt>
      <trkpt lat="44.13148" lon="6.99129">
        <ele>2000</ele>
        <time>2019-05-11T10:17:42.319Z</time>
      </trkpt>
      <trkpt lat="44.1315" lon="6.99126">
        <ele>2000</ele>
        <time>2019-05-11T10:17:47.323Z</time>
      </trkpt>
      <trkpt lat="44.13152" lon="6.99126">
        <ele>2000</ele>
        <time>2019-05-11T10:17:52.318Z</time>
      </trkpt>
      <trkpt lat="44.13154" lon="6.99121">
        <ele>2017</ele>
        <time>2019-05-11T10:17:57.322Z</time>
      </trkpt>
      <trkpt lat="44.13156" lon="6.99118">
        <ele>2017</ele>
        <time>2019-05-11T10:18:02.320Z</time>
      </trkpt>
      <trkpt lat="44.13158" lon="6.99115">
        <ele>2017</ele>
        <time>2019-05-11T10:18:06.344Z</time>
      </trkpt>
      <trkpt lat="44.1316" lon="6.99111">
        <ele>2017</ele>
        <time>2019-05-11T10:18:11.318Z</time>
      </trkpt>
      <trkpt lat="44.13163" lon="6.99107">
        <ele>2017</ele>
        <time>2019-05-11T10:18:16.323Z</time>
      </trkpt>
      <trkpt lat="44.13164" lon="6.99101">
        <ele>2017</ele>
        <time>2019-05-11T10:18:21.355Z</time>
      </trkpt>
      <trkpt lat="44.13167" lon="6.99096">
        <ele>2019</ele>
        <time>2019-05-11T10:18:26.344Z</time>
      </trkpt>
      <trkpt lat="44.13169" lon="6.99092">
        <ele>2019</ele>
        <time>2019-05-11T10:18:31.321Z</time>
      </trkpt>
      <trkpt lat="44.13171" lon="6.9909">
        <ele>2019</ele>
        <time>2019-05-11T10:18:36.396Z</time>
      </trkpt>
      <trkpt lat="44.13173" lon="6.99086">
        <ele>2019</ele>
        <time>2019-05-11T10:18:41.320Z</time>
      </trkpt>
      <trkpt lat="44.13175" lon="6.99081">
        <ele>2019</ele>
        <time>2019-05-11T10:18:46.320Z</time>
      </trkpt>
      <trkpt lat="44.13177" lon="6.99078">
        <ele>2019</ele>
        <time>2019-05-11T10:18:51.320Z</time>
      </trkpt>
      <trkpt lat="44.13178" lon="6.99073">
        <ele>2019</ele>
        <time>2019-05-11T10:18:56.322Z</time>
      </trkpt>
      <trkpt lat="44.1318" lon="6.99069">
        <ele>2019</ele>
        <time>2019-05-11T10:19:00.340Z</time>
      </trkpt>
      <trkpt lat="44.13182" lon="6.99065">
        <ele>2023</ele>
        <time>2019-05-11T10:19:05.338Z</time>
      </trkpt>
      <trkpt lat="44.13184" lon="6.9906">
        <ele>2023</ele>
        <time>2019-05-11T10:19:10.317Z</time>
      </trkpt>
      <trkpt lat="44.13185" lon="6.99056">
        <ele>2023</ele>
        <time>2019-05-11T10:19:15.332Z</time>
      </trkpt>
      <trkpt lat="44.13185" lon="6.99052">
        <ele>2023</ele>
        <time>2019-05-11T10:19:20.351Z</time>
      </trkpt>
      <trkpt lat="44.13183" lon="6.99046">
        <ele>2023</ele>
        <time>2019-05-11T10:19:25.320Z</time>
      </trkpt>
      <trkpt lat="44.13182" lon="6.9904">
        <ele>2020</ele>
        <time>2019-05-11T10:19:30.333Z</time>
      </trkpt>
      <trkpt lat="44.13182" lon="6.99034">
        <ele>2020</ele>
        <time>2019-05-11T10:19:35.319Z</time>
      </trkpt>
      <trkpt lat="44.13182" lon="6.9903">
        <ele>2020</ele>
        <time>2019-05-11T10:19:39.366Z</time>
      </trkpt>
      <trkpt lat="44.13182" lon="6.99024">
        <ele>2020</ele>
        <time>2019-05-11T10:19:44.319Z</time>
      </trkpt>
      <trkpt lat="44.13181" lon="6.9902">
        <ele>2020</ele>
        <time>2019-05-11T10:19:49.316Z</time>
      </trkpt>
      <trkpt lat="44.13181" lon="6.99015">
        <ele>2020</ele>
        <time>2019-05-11T10:19:54.334Z</time>
      </trkpt>
      <trkpt lat="44.13181" lon="6.9901">
        <ele>2020</ele>
        <time>2019-05-11T10:19:59.318Z</time>
      </trkpt>
      <trkpt lat="44.1318" lon="6.99009">
        <ele>2023</ele>
        <time>2019-05-11T10:20:04.320Z</time>
      </trkpt>
      <trkpt lat="44.1318" lon="6.99006">
        <ele>2023</ele>
        <time>2019-05-11T10:20:09.316Z</time>
      </trkpt>
      <trkpt lat="44.13178" lon="6.99002">
        <ele>2023</ele>
        <time>2019-05-11T10:20:14.332Z</time>
      </trkpt>
      <trkpt lat="44.13176" lon="6.98997">
        <ele>2023</ele>
        <time>2019-05-11T10:20:19.312Z</time>
      </trkpt>
      <trkpt lat="44.13176" lon="6.98994">
        <ele>2023</ele>
        <time>2019-05-11T10:20:23.339Z</time>
      </trkpt>
      <trkpt lat="44.13175" lon="6.98992">
        <ele>2023</ele>
        <time>2019-05-11T10:20:28.348Z</time>
      </trkpt>
      <trkpt lat="44.13174" lon="6.98989">
        <ele>2023</ele>
        <time>2019-05-11T10:20:33.315Z</time>
      </trkpt>
      <trkpt lat="44.1317" lon="6.98985">
        <ele>2028</ele>
        <time>2019-05-11T10:20:51.338Z</time>
      </trkpt>
      <trkpt lat="44.13171" lon="6.98983">
        <ele>2028</ele>
        <time>2019-05-11T10:20:56.357Z</time>
      </trkpt>
      <trkpt lat="44.1317" lon="6.98983">
        <ele>2028</ele>
        <time>2019-05-11T10:21:01.316Z</time>
      </trkpt>
      <trkpt lat="44.13168" lon="6.98982">
        <ele>2028</ele>
        <time>2019-05-11T10:21:05.335Z</time>
      </trkpt>
      <trkpt lat="44.13167" lon="6.98979">
        <ele>2028</ele>
        <time>2019-05-11T10:21:10.321Z</time>
      </trkpt>
      <trkpt lat="44.13166" lon="6.98977">
        <ele>2028</ele>
        <time>2019-05-11T10:21:15.304Z</time>
      </trkpt>
      <trkpt lat="44.13164" lon="6.98975">
        <ele>2028</ele>
        <time>2019-05-11T10:21:20.314Z</time>
      </trkpt>
      <trkpt lat="44.13162" lon="6.98974">
        <ele>2028</ele>
        <time>2019-05-11T10:21:25.313Z</time>
      </trkpt>
      <trkpt lat="44.1316" lon="6.98974">
        <ele>2028</ele>
        <time>2019-05-11T10:21:30.314Z</time>
      </trkpt>
      <trkpt lat="44.13157" lon="6.98972">
        <ele>2028</ele>
        <time>2019-05-11T10:21:34.362Z</time>
      </trkpt>
      <trkpt lat="44.13156" lon="6.98972">
        <ele>2028</ele>
        <time>2019-05-11T10:21:39.314Z</time>
      </trkpt>
      <trkpt lat="44.13154" lon="6.98971">
        <ele>2028</ele>
        <time>2019-05-11T10:21:44.313Z</time>
      </trkpt>
      <trkpt lat="44.13151" lon="6.98971">
        <ele>2033</ele>
        <time>2019-05-11T10:21:49.328Z</time>
      </trkpt>
      <trkpt lat="44.13149" lon="6.98971">
        <ele>2033</ele>
        <time>2019-05-11T10:21:54.317Z</time>
      </trkpt>
      <trkpt lat="44.13147" lon="6.98971">
        <ele>2033</ele>
        <time>2019-05-11T10:21:59.314Z</time>
      </trkpt>
      <trkpt lat="44.13142" lon="6.9897">
        <ele>2033</ele>
        <time>2019-05-11T10:22:08.314Z</time>
      </trkpt>
      <trkpt lat="44.1314" lon="6.98969">
        <ele>2033</ele>
        <time>2019-05-11T10:22:13.313Z</time>
      </trkpt>
      <trkpt lat="44.13139" lon="6.98968">
        <ele>2033</ele>
        <time>2019-05-11T10:22:18.314Z</time>
      </trkpt>
      <trkpt lat="44.13137" lon="6.98968">
        <ele>2033</ele>
        <time>2019-05-11T10:22:23.316Z</time>
      </trkpt>
      <trkpt lat="44.13134" lon="6.98968">
        <ele>2033</ele>
        <time>2019-05-11T10:22:28.314Z</time>
      </trkpt>
      <trkpt lat="44.13132" lon="6.98968">
        <ele>2033</ele>
        <time>2019-05-11T10:22:33.315Z</time>
      </trkpt>
      <trkpt lat="44.13129" lon="6.98968">
        <ele>2033</ele>
        <time>2019-05-11T10:22:38.316Z</time>
      </trkpt>
      <trkpt lat="44.13128" lon="6.98968">
        <ele>2033</ele>
        <time>2019-05-11T10:22:43.316Z</time>
      </trkpt>
      <trkpt lat="44.13126" lon="6.98967">
        <ele>2033</ele>
        <time>2019-05-11T10:22:48.335Z</time>
      </trkpt>
      <trkpt lat="44.13123" lon="6.98969">
        <ele>2047</ele>
        <time>2019-05-11T10:22:53.319Z</time>
      </trkpt>
      <trkpt lat="44.13117" lon="6.9897">
        <ele>2047</ele>
        <time>2019-05-11T10:23:02.317Z</time>
      </trkpt>
      <trkpt lat="44.13116" lon="6.98969">
        <ele>2047</ele>
        <time>2019-05-11T10:23:07.318Z</time>
      </trkpt>
      <trkpt lat="44.13115" lon="6.98968">
        <ele>2047</ele>
        <time>2019-05-11T10:23:12.329Z</time>
      </trkpt>
      <trkpt lat="44.13113" lon="6.98968">
        <ele>2047</ele>
        <time>2019-05-11T10:23:17.314Z</time>
      </trkpt>
      <trkpt lat="44.13111" lon="6.98967">
        <ele>2047</ele>
        <time>2019-05-11T10:23:21.331Z</time>
      </trkpt>
      <trkpt lat="44.1311" lon="6.98966">
        <ele>2047</ele>
        <time>2019-05-11T10:23:26.311Z</time>
      </trkpt>
      <trkpt lat="44.13109" lon="6.98965">
        <ele>2047</ele>
        <time>2019-05-11T10:23:31.324Z</time>
      </trkpt>
      <trkpt lat="44.13105" lon="6.98968">
        <ele>2047</ele>
        <time>2019-05-11T10:23:36.310Z</time>
      </trkpt>
      <trkpt lat="44.13103" lon="6.98967">
        <ele>2047</ele>
        <time>2019-05-11T10:23:41.318Z</time>
      </trkpt>
      <trkpt lat="44.13101" lon="6.98967">
        <ele>2047</ele>
        <time>2019-05-11T10:23:46.310Z</time>
      </trkpt>
      <trkpt lat="44.131" lon="6.98966">
        <ele>2047</ele>
        <time>2019-05-11T10:23:51.310Z</time>
      </trkpt>
      <trkpt lat="44.13097" lon="6.98966">
        <ele>2047</ele>
        <time>2019-05-11T10:23:56.311Z</time>
      </trkpt>
      <trkpt lat="44.13094" lon="6.98967">
        <ele>2052</ele>
        <time>2019-05-11T10:24:01.299Z</time>
      </trkpt>
      <trkpt lat="44.13092" lon="6.98968">
        <ele>2052</ele>
        <time>2019-05-11T10:24:06.321Z</time>
      </trkpt>
      <trkpt lat="44.13088" lon="6.98968">
        <ele>2052</ele>
        <time>2019-05-11T10:24:11.318Z</time>
      </trkpt>
      <trkpt lat="44.13085" lon="6.98966">
        <ele>2052</ele>
        <time>2019-05-11T10:24:21.310Z</time>
      </trkpt>
      <trkpt lat="44.13083" lon="6.98966">
        <ele>2052</ele>
        <time>2019-05-11T10:24:25.325Z</time>
      </trkpt>
      <trkpt lat="44.1308" lon="6.98967">
        <ele>2052</ele>
        <time>2019-05-11T10:24:30.315Z</time>
      </trkpt>
      <trkpt lat="44.13078" lon="6.98966">
        <ele>2052</ele>
        <time>2019-05-11T10:24:35.317Z</time>
      </trkpt>
      <trkpt lat="44.13075" lon="6.98966">
        <ele>2052</ele>
        <time>2019-05-11T10:24:40.315Z</time>
      </trkpt>
      <trkpt lat="44.13071" lon="6.98966">
        <ele>2052</ele>
        <time>2019-05-11T10:24:49.309Z</time>
      </trkpt>
      <trkpt lat="44.13069" lon="6.98965">
        <ele>2057</ele>
        <time>2019-05-11T10:24:54.310Z</time>
      </trkpt>
      <trkpt lat="44.13068" lon="6.98965">
        <ele>2057</ele>
        <time>2019-05-11T10:24:58.327Z</time>
      </trkpt>
      <trkpt lat="44.13065" lon="6.98965">
        <ele>2057</ele>
        <time>2019-05-11T10:25:03.313Z</time>
      </trkpt>
      <trkpt lat="44.13063" lon="6.98964">
        <ele>2057</ele>
        <time>2019-05-11T10:25:08.303Z</time>
      </trkpt>
      <trkpt lat="44.1306" lon="6.98962">
        <ele>2057</ele>
        <time>2019-05-11T10:25:18.324Z</time>
      </trkpt>
      <trkpt lat="44.13058" lon="6.9896">
        <ele>2057</ele>
        <time>2019-05-11T10:25:23.309Z</time>
      </trkpt>
      <trkpt lat="44.13056" lon="6.98958">
        <ele>2063</ele>
        <time>2019-05-11T10:25:28.311Z</time>
      </trkpt>
      <trkpt lat="44.13055" lon="6.98956">
        <ele>2063</ele>
        <time>2019-05-11T10:25:32.320Z</time>
      </trkpt>
      <trkpt lat="44.13052" lon="6.98956">
        <ele>2063</ele>
        <time>2019-05-11T10:25:37.311Z</time>
      </trkpt>
      <trkpt lat="44.13049" lon="6.98954">
        <ele>2063</ele>
        <time>2019-05-11T10:25:46.325Z</time>
      </trkpt>
      <trkpt lat="44.13049" lon="6.98952">
        <ele>2063</ele>
        <time>2019-05-11T10:25:51.311Z</time>
      </trkpt>
      <trkpt lat="44.13049" lon="6.9895">
        <ele>2063</ele>
        <time>2019-05-11T10:25:56.312Z</time>
      </trkpt>
      <trkpt lat="44.1305" lon="6.98946">
        <ele>2063</ele>
        <time>2019-05-11T10:26:01.308Z</time>
      </trkpt>
      <trkpt lat="44.13051" lon="6.98943">
        <ele>2063</ele>
        <time>2019-05-11T10:26:05.318Z</time>
      </trkpt>
      <trkpt lat="44.13049" lon="6.98938">
        <ele>2063</ele>
        <time>2019-05-11T10:26:15.309Z</time>
      </trkpt>
      <trkpt lat="44.13047" lon="6.98937">
        <ele>2063</ele>
        <time>2019-05-11T10:26:20.311Z</time>
      </trkpt>
      <trkpt lat="44.13046" lon="6.98936">
        <ele>2063</ele>
        <time>2019-05-11T10:26:25.312Z</time>
      </trkpt>
      <trkpt lat="44.13045" lon="6.98933">
        <ele>2063</ele>
        <time>2019-05-11T10:26:30.309Z</time>
      </trkpt>
      <trkpt lat="44.13043" lon="6.98932">
        <ele>2063</ele>
        <time>2019-05-11T10:26:35.341Z</time>
      </trkpt>
      <trkpt lat="44.13038" lon="6.98928">
        <ele>2064</ele>
        <time>2019-05-11T10:26:49.316Z</time>
      </trkpt>
      <trkpt lat="44.13036" lon="6.98925">
        <ele>2064</ele>
        <time>2019-05-11T10:26:54.313Z</time>
      </trkpt>
      <trkpt lat="44.13036" lon="6.98923">
        <ele>2064</ele>
        <time>2019-05-11T10:26:58.336Z</time>
      </trkpt>
      <trkpt lat="44.13035" lon="6.9892">
        <ele>2064</ele>
        <time>2019-05-11T10:27:03.329Z</time>
      </trkpt>
      <trkpt lat="44.13033" lon="6.98917">
        <ele>2064</ele>
        <time>2019-05-11T10:27:08.313Z</time>
      </trkpt>
      <trkpt lat="44.13032" lon="6.98911">
        <ele>2064</ele>
        <time>2019-05-11T10:27:18.308Z</time>
      </trkpt>
      <trkpt lat="44.13032" lon="6.98909">
        <ele>2064</ele>
        <time>2019-05-11T10:27:23.328Z</time>
      </trkpt>
      <trkpt lat="44.13031" lon="6.98905">
        <ele>2064</ele>
        <time>2019-05-11T10:27:28.310Z</time>
      </trkpt>
      <trkpt lat="44.13032" lon="6.98902">
        <ele>2069</ele>
        <time>2019-05-11T10:27:33.323Z</time>
      </trkpt>
      <trkpt lat="44.13032" lon="6.98899">
        <ele>2069</ele>
        <time>2019-05-11T10:27:38.311Z</time>
      </trkpt>
      <trkpt lat="44.13032" lon="6.98895">
        <ele>2069</ele>
        <time>2019-05-11T10:27:43.311Z</time>
      </trkpt>
      <trkpt lat="44.13031" lon="6.98893">
        <ele>2069</ele>
        <time>2019-05-11T10:27:48.354Z</time>
      </trkpt>
      <trkpt lat="44.13031" lon="6.98889">
        <ele>2069</ele>
        <time>2019-05-11T10:27:53.307Z</time>
      </trkpt>
      <trkpt lat="44.1303" lon="6.98886">
        <ele>2069</ele>
        <time>2019-05-11T10:27:58.310Z</time>
      </trkpt>
      <trkpt lat="44.13028" lon="6.98882">
        <ele>2069</ele>
        <time>2019-05-11T10:28:03.308Z</time>
      </trkpt>
      <trkpt lat="44.13027" lon="6.98879">
        <ele>2069</ele>
        <time>2019-05-11T10:28:08.311Z</time>
      </trkpt>
      <trkpt lat="44.13027" lon="6.98874">
        <ele>2072</ele>
        <time>2019-05-11T10:28:13.311Z</time>
      </trkpt>
      <trkpt lat="44.13027" lon="6.98872">
        <ele>2072</ele>
        <time>2019-05-11T10:28:17.318Z</time>
      </trkpt>
      <trkpt lat="44.13028" lon="6.98865">
        <ele>2072</ele>
        <time>2019-05-11T10:28:22.306Z</time>
      </trkpt>
      <trkpt lat="44.13027" lon="6.98857">
        <ele>2072</ele>
        <time>2019-05-11T10:28:32.309Z</time>
      </trkpt>
      <trkpt lat="44.13024" lon="6.98855">
        <ele>2072</ele>
        <time>2019-05-11T10:28:37.307Z</time>
      </trkpt>
      <trkpt lat="44.13023" lon="6.98852">
        <ele>2072</ele>
        <time>2019-05-11T10:28:42.321Z</time>
      </trkpt>
      <trkpt lat="44.13022" lon="6.98851">
        <ele>2072</ele>
        <time>2019-05-11T10:28:47.306Z</time>
      </trkpt>
      <trkpt lat="44.13022" lon="6.98849">
        <ele>2072</ele>
        <time>2019-05-11T10:28:52.312Z</time>
      </trkpt>
      <trkpt lat="44.13024" lon="6.98851">
        <ele>2072</ele>
        <time>2019-05-11T11:08:48.279Z</time>
      </trkpt>
      <trkpt lat="44.13025" lon="6.98852">
        <ele>2072</ele>
        <time>2019-05-11T11:08:53.275Z</time>
      </trkpt>
      <trkpt lat="44.13026" lon="6.98854">
        <ele>2072</ele>
        <time>2019-05-11T11:08:57.292Z</time>
      </trkpt>
      <trkpt lat="44.13029" lon="6.98857">
        <ele>2072</ele>
        <time>2019-05-11T11:09:02.279Z</time>
      </trkpt>
      <trkpt lat="44.13031" lon="6.9886">
        <ele>2072</ele>
        <time>2019-05-11T11:09:07.276Z</time>
      </trkpt>
      <trkpt lat="44.13032" lon="6.98862">
        <ele>2072</ele>
        <time>2019-05-11T11:09:12.277Z</time>
      </trkpt>
      <trkpt lat="44.13037" lon="6.98867">
        <ele>2072</ele>
        <time>2019-05-11T11:09:17.309Z</time>
      </trkpt>
      <trkpt lat="44.13037" lon="6.98872">
        <ele>2072</ele>
        <time>2019-05-11T11:09:22.275Z</time>
      </trkpt>
      <trkpt lat="44.13038" lon="6.98876">
        <ele>2069</ele>
        <time>2019-05-11T11:09:27.281Z</time>
      </trkpt>
      <trkpt lat="44.13042" lon="6.98882">
        <ele>2071</ele>
        <time>2019-05-11T11:09:42.274Z</time>
      </trkpt>
      <trkpt lat="44.13043" lon="6.98883">
        <ele>2071</ele>
        <time>2019-05-11T11:09:47.277Z</time>
      </trkpt>
      <trkpt lat="44.13043" lon="6.98883">
        <ele>2071</ele>
        <time>2019-05-11T11:09:52.278Z</time>
      </trkpt>
      <trkpt lat="44.13046" lon="6.98885">
        <ele>2071</ele>
        <time>2019-05-11T11:09:57.279Z</time>
      </trkpt>
      <trkpt lat="44.13048" lon="6.98887">
        <ele>2071</ele>
        <time>2019-05-11T11:10:01.297Z</time>
      </trkpt>
      <trkpt lat="44.13053" lon="6.98891">
        <ele>2071</ele>
        <time>2019-05-11T11:10:06.278Z</time>
      </trkpt>
      <trkpt lat="44.13056" lon="6.98894">
        <ele>2071</ele>
        <time>2019-05-11T11:10:11.285Z</time>
      </trkpt>
      <trkpt lat="44.13059" lon="6.98898">
        <ele>2071</ele>
        <time>2019-05-11T11:10:16.298Z</time>
      </trkpt>
      <trkpt lat="44.13063" lon="6.989">
        <ele>2071</ele>
        <time>2019-05-11T11:10:21.275Z</time>
      </trkpt>
      <trkpt lat="44.13064" lon="6.98904">
        <ele>2068</ele>
        <time>2019-05-11T11:10:25.286Z</time>
      </trkpt>
      <trkpt lat="44.13067" lon="6.98908">
        <ele>2068</ele>
        <time>2019-05-11T11:10:30.274Z</time>
      </trkpt>
      <trkpt lat="44.13069" lon="6.98912">
        <ele>2068</ele>
        <time>2019-05-11T11:10:35.309Z</time>
      </trkpt>
      <trkpt lat="44.13072" lon="6.98915">
        <ele>2061</ele>
        <time>2019-05-11T11:10:40.282Z</time>
      </trkpt>
      <trkpt lat="44.13074" lon="6.98917">
        <ele>2061</ele>
        <time>2019-05-11T11:10:45.268Z</time>
      </trkpt>
      <trkpt lat="44.13075" lon="6.9892">
        <ele>2061</ele>
        <time>2019-05-11T11:10:49.288Z</time>
      </trkpt>
      <trkpt lat="44.13077" lon="6.98923">
        <ele>2061</ele>
        <time>2019-05-11T11:10:54.278Z</time>
      </trkpt>
      <trkpt lat="44.13081" lon="6.98925">
        <ele>2061</ele>
        <time>2019-05-11T11:10:59.341Z</time>
      </trkpt>
      <trkpt lat="44.13083" lon="6.98927">
        <ele>2061</ele>
        <time>2019-05-11T11:11:04.267Z</time>
      </trkpt>
      <trkpt lat="44.13085" lon="6.98928">
        <ele>2061</ele>
        <time>2019-05-11T11:11:08.290Z</time>
      </trkpt>
      <trkpt lat="44.13087" lon="6.98929">
        <ele>2061</ele>
        <time>2019-05-11T11:11:13.307Z</time>
      </trkpt>
      <trkpt lat="44.13089" lon="6.9893">
        <ele>2061</ele>
        <time>2019-05-11T11:11:18.281Z</time>
      </trkpt>
      <trkpt lat="44.13093" lon="6.98931">
        <ele>2057</ele>
        <time>2019-05-11T11:11:23.274Z</time>
      </trkpt>
      <trkpt lat="44.13095" lon="6.98932">
        <ele>2057</ele>
        <time>2019-05-11T11:11:27.300Z</time>
      </trkpt>
      <trkpt lat="44.13098" lon="6.98934">
        <ele>2050</ele>
        <time>2019-05-11T11:11:32.271Z</time>
      </trkpt>
      <trkpt lat="44.13101" lon="6.98936">
        <ele>2050</ele>
        <time>2019-05-11T11:11:37.302Z</time>
      </trkpt>
      <trkpt lat="44.13106" lon="6.98937">
        <ele>2050</ele>
        <time>2019-05-11T11:11:42.265Z</time>
      </trkpt>
      <trkpt lat="44.13113" lon="6.98941">
        <ele>2050</ele>
        <time>2019-05-11T11:11:56.270Z</time>
      </trkpt>
      <trkpt lat="44.13114" lon="6.98942">
        <ele>2050</ele>
        <time>2019-05-11T11:12:01.271Z</time>
      </trkpt>
      <trkpt lat="44.13115" lon="6.98943">
        <ele>2050</ele>
        <time>2019-05-11T11:12:06.268Z</time>
      </trkpt>
      <trkpt lat="44.13116" lon="6.98947">
        <ele>2050</ele>
        <time>2019-05-11T11:12:11.275Z</time>
      </trkpt>
      <trkpt lat="44.13116" lon="6.98947">
        <ele>2050</ele>
        <time>2019-05-11T11:12:15.293Z</time>
      </trkpt>
      <trkpt lat="44.13119" lon="6.9895">
        <ele>2050</ele>
        <time>2019-05-11T11:12:20.275Z</time>
      </trkpt>
      <trkpt lat="44.13123" lon="6.98952">
        <ele>2050</ele>
        <time>2019-05-11T11:12:24.291Z</time>
      </trkpt>
      <trkpt lat="44.13126" lon="6.98952">
        <ele>2042</ele>
        <time>2019-05-11T11:12:29.312Z</time>
      </trkpt>
      <trkpt lat="44.13129" lon="6.98955">
        <ele>2042</ele>
        <time>2019-05-11T11:12:34.275Z</time>
      </trkpt>
      <trkpt lat="44.1313" lon="6.98956">
        <ele>2042</ele>
        <time>2019-05-11T11:12:38.292Z</time>
      </trkpt>
      <trkpt lat="44.13133" lon="6.98958">
        <ele>2042</ele>
        <time>2019-05-11T11:12:43.278Z</time>
      </trkpt>
      <trkpt lat="44.13135" lon="6.98961">
        <ele>2033</ele>
        <time>2019-05-11T11:12:47.291Z</time>
      </trkpt>
      <trkpt lat="44.13136" lon="6.98967">
        <ele>2033</ele>
        <time>2019-05-11T11:12:52.301Z</time>
      </trkpt>
      <trkpt lat="44.13137" lon="6.98971">
        <ele>2033</ele>
        <time>2019-05-11T11:12:57.277Z</time>
      </trkpt>
      <trkpt lat="44.13139" lon="6.98972">
        <ele>2033</ele>
        <time>2019-05-11T11:13:01.292Z</time>
      </trkpt>
      <trkpt lat="44.13146" lon="6.98972">
        <ele>2033</ele>
        <time>2019-05-11T11:13:06.274Z</time>
      </trkpt>
      <trkpt lat="44.13151" lon="6.98973">
        <ele>2033</ele>
        <time>2019-05-11T11:13:10.293Z</time>
      </trkpt>
      <trkpt lat="44.13159" lon="6.98972">
        <ele>2028</ele>
        <time>2019-05-11T11:13:15.285Z</time>
      </trkpt>
      <trkpt lat="44.13165" lon="6.98971">
        <ele>2028</ele>
        <time>2019-05-11T11:13:20.277Z</time>
      </trkpt>
      <trkpt lat="44.13169" lon="6.9897">
        <ele>2028</ele>
        <time>2019-05-11T11:13:24.308Z</time>
      </trkpt>
      <trkpt lat="44.13173" lon="6.98977">
        <ele>2028</ele>
        <time>2019-05-11T11:13:29.288Z</time>
      </trkpt>
      <trkpt lat="44.13177" lon="6.98992">
        <ele>2023</ele>
        <time>2019-05-11T11:14:22.279Z</time>
      </trkpt>
      <trkpt lat="44.13178" lon="6.98993">
        <ele>2023</ele>
        <time>2019-05-11T11:14:27.279Z</time>
      </trkpt>
      <trkpt lat="44.1318" lon="6.98997">
        <ele>2023</ele>
        <time>2019-05-11T11:14:31.286Z</time>
      </trkpt>
      <trkpt lat="44.13184" lon="6.99005">
        <ele>2020</ele>
        <time>2019-05-11T11:14:36.274Z</time>
      </trkpt>
      <trkpt lat="44.13187" lon="6.99012">
        <ele>2020</ele>
        <time>2019-05-11T11:14:41.274Z</time>
      </trkpt>
      <trkpt lat="44.13187" lon="6.99018">
        <ele>2020</ele>
        <time>2019-05-11T11:14:46.291Z</time>
      </trkpt>
      <trkpt lat="44.13187" lon="6.99025">
        <ele>2020</ele>
        <time>2019-05-11T11:14:51.275Z</time>
      </trkpt>
      <trkpt lat="44.13188" lon="6.99031">
        <ele>2020</ele>
        <time>2019-05-11T11:14:55.289Z</time>
      </trkpt>
      <trkpt lat="44.13188" lon="6.99041">
        <ele>2020</ele>
        <time>2019-05-11T11:15:00.270Z</time>
      </trkpt>
      <trkpt lat="44.13187" lon="6.99049">
        <ele>2023</ele>
        <time>2019-05-11T11:15:04.279Z</time>
      </trkpt>
      <trkpt lat="44.13187" lon="6.99054">
        <ele>2023</ele>
        <time>2019-05-11T11:15:08.288Z</time>
      </trkpt>
      <trkpt lat="44.13186" lon="6.99062">
        <ele>2023</ele>
        <time>2019-05-11T11:15:13.277Z</time>
      </trkpt>
      <trkpt lat="44.13182" lon="6.99069">
        <ele>2023</ele>
        <time>2019-05-11T11:15:18.277Z</time>
      </trkpt>
      <trkpt lat="44.1318" lon="6.99073">
        <ele>2019</ele>
        <time>2019-05-11T11:15:22.295Z</time>
      </trkpt>
      <trkpt lat="44.13178" lon="6.99079">
        <ele>2019</ele>
        <time>2019-05-11T11:15:27.263Z</time>
      </trkpt>
      <trkpt lat="44.13176" lon="6.99086">
        <ele>2019</ele>
        <time>2019-05-11T11:15:31.278Z</time>
      </trkpt>
      <trkpt lat="44.13175" lon="6.99091">
        <ele>2019</ele>
        <time>2019-05-11T11:15:35.312Z</time>
      </trkpt>
      <trkpt lat="44.13171" lon="6.99096">
        <ele>2019</ele>
        <time>2019-05-11T11:15:40.267Z</time>
      </trkpt>
      <trkpt lat="44.13167" lon="6.991">
        <ele>2017</ele>
        <time>2019-05-11T11:15:45.264Z</time>
      </trkpt>
      <trkpt lat="44.13165" lon="6.99108">
        <ele>2017</ele>
        <time>2019-05-11T11:15:50.266Z</time>
      </trkpt>
      <trkpt lat="44.13162" lon="6.99112">
        <ele>2017</ele>
        <time>2019-05-11T11:15:54.276Z</time>
      </trkpt>
      <trkpt lat="44.13159" lon="6.99119">
        <ele>2017</ele>
        <time>2019-05-11T11:15:59.262Z</time>
      </trkpt>
      <trkpt lat="44.13158" lon="6.99127">
        <ele>2014</ele>
        <time>2019-05-11T11:16:04.256Z</time>
      </trkpt>
      <trkpt lat="44.13155" lon="6.99131">
        <ele>2014</ele>
        <time>2019-05-11T11:16:08.290Z</time>
      </trkpt>
      <trkpt lat="44.13153" lon="6.99134">
        <ele>2000</ele>
        <time>2019-05-11T11:16:13.271Z</time>
      </trkpt>
      <trkpt lat="44.1315" lon="6.99138">
        <ele>2000</ele>
        <time>2019-05-11T11:16:17.282Z</time>
      </trkpt>
      <trkpt lat="44.13147" lon="6.99145">
        <ele>2000</ele>
        <time>2019-05-11T11:16:22.269Z</time>
      </trkpt>
      <trkpt lat="44.13145" lon="6.99152">
        <ele>2000</ele>
        <time>2019-05-11T11:16:27.274Z</time>
      </trkpt>
      <trkpt lat="44.13142" lon="6.9916">
        <ele>2000</ele>
        <time>2019-05-11T11:16:32.277Z</time>
      </trkpt>
      <trkpt lat="44.13138" lon="6.99167">
        <ele>2000</ele>
        <time>2019-05-11T11:16:37.275Z</time>
      </trkpt>
      <trkpt lat="44.13136" lon="6.9917">
        <ele>2000</ele>
        <time>2019-05-11T11:16:41.311Z</time>
      </trkpt>
      <trkpt lat="44.13134" lon="6.99175">
        <ele>2000</ele>
        <time>2019-05-11T11:16:46.300Z</time>
      </trkpt>
      <trkpt lat="44.13136" lon="6.99181">
        <ele>2001</ele>
        <time>2019-05-11T11:16:51.337Z</time>
      </trkpt>
      <trkpt lat="44.13134" lon="6.99186">
        <ele>2001</ele>
        <time>2019-05-11T11:16:56.334Z</time>
      </trkpt>
      <trkpt lat="44.13134" lon="6.99191">
        <ele>2001</ele>
        <time>2019-05-11T11:17:01.269Z</time>
      </trkpt>
      <trkpt lat="44.13133" lon="6.99196">
        <ele>2001</ele>
        <time>2019-05-11T11:17:05.333Z</time>
      </trkpt>
      <trkpt lat="44.13134" lon="6.99201">
        <ele>2001</ele>
        <time>2019-05-11T11:17:10.278Z</time>
      </trkpt>
      <trkpt lat="44.13134" lon="6.99207">
        <ele>2001</ele>
        <time>2019-05-11T11:17:15.303Z</time>
      </trkpt>
      <trkpt lat="44.13136" lon="6.99213">
        <ele>2000</ele>
        <time>2019-05-11T11:17:20.305Z</time>
      </trkpt>
      <trkpt lat="44.13138" lon="6.9922">
        <ele>2000</ele>
        <time>2019-05-11T11:17:25.306Z</time>
      </trkpt>
      <trkpt lat="44.13141" lon="6.99225">
        <ele>2000</ele>
        <time>2019-05-11T11:17:30.258Z</time>
      </trkpt>
      <trkpt lat="44.13143" lon="6.99231">
        <ele>2000</ele>
        <time>2019-05-11T11:17:34.295Z</time>
      </trkpt>
      <trkpt lat="44.13146" lon="6.99235">
        <ele>2000</ele>
        <time>2019-05-11T11:17:39.276Z</time>
      </trkpt>
      <trkpt lat="44.13148" lon="6.99241">
        <ele>1994</ele>
        <time>2019-05-11T11:17:44.292Z</time>
      </trkpt>
      <trkpt lat="44.1315" lon="6.99247">
        <ele>1994</ele>
        <time>2019-05-11T11:17:48.309Z</time>
      </trkpt>
      <trkpt lat="44.13152" lon="6.99253">
        <ele>1994</ele>
        <time>2019-05-11T11:17:53.275Z</time>
      </trkpt>
      <trkpt lat="44.13155" lon="6.99257">
        <ele>2003</ele>
        <time>2019-05-11T11:17:57.288Z</time>
      </trkpt>
      <trkpt lat="44.13159" lon="6.99262">
        <ele>2003</ele>
        <time>2019-05-11T11:18:02.291Z</time>
      </trkpt>
      <trkpt lat="44.13161" lon="6.99267">
        <ele>1996</ele>
        <time>2019-05-11T11:18:07.290Z</time>
      </trkpt>
      <trkpt lat="44.13165" lon="6.99273">
        <ele>1996</ele>
        <time>2019-05-11T11:18:12.297Z</time>
      </trkpt>
      <trkpt lat="44.13168" lon="6.99278">
        <ele>1996</ele>
        <time>2019-05-11T11:18:17.279Z</time>
      </trkpt>
      <trkpt lat="44.13171" lon="6.99281">
        <ele>1996</ele>
        <time>2019-05-11T11:18:22.268Z</time>
      </trkpt>
      <trkpt lat="44.13173" lon="6.99286">
        <ele>1996</ele>
        <time>2019-05-11T11:18:27.293Z</time>
      </trkpt>
      <trkpt lat="44.13177" lon="6.9929">
        <ele>1996</ele>
        <time>2019-05-11T11:18:32.273Z</time>
      </trkpt>
      <trkpt lat="44.13182" lon="6.99293">
        <ele>1991</ele>
        <time>2019-05-11T11:18:36.283Z</time>
      </trkpt>
      <trkpt lat="44.13187" lon="6.99297">
        <ele>1991</ele>
        <time>2019-05-11T11:18:41.273Z</time>
      </trkpt>
      <trkpt lat="44.1319" lon="6.99299">
        <ele>1991</ele>
        <time>2019-05-11T11:18:46.273Z</time>
      </trkpt>
      <trkpt lat="44.13193" lon="6.993">
        <ele>1991</ele>
        <time>2019-05-11T11:18:50.287Z</time>
      </trkpt>
      <trkpt lat="44.13197" lon="6.99303">
        <ele>1991</ele>
        <time>2019-05-11T11:18:55.274Z</time>
      </trkpt>
      <trkpt lat="44.13199" lon="6.99305">
        <ele>1991</ele>
        <time>2019-05-11T11:19:00.272Z</time>
      </trkpt>
      <trkpt lat="44.13203" lon="6.99313">
        <ele>1991</ele>
        <time>2019-05-11T11:19:05.272Z</time>
      </trkpt>
      <trkpt lat="44.13204" lon="6.99319">
        <ele>1991</ele>
        <time>2019-05-11T11:19:10.272Z</time>
      </trkpt>
      <trkpt lat="44.13206" lon="6.99326">
        <ele>1984</ele>
        <time>2019-05-11T11:19:15.330Z</time>
      </trkpt>
      <trkpt lat="44.13208" lon="6.99332">
        <ele>1984</ele>
        <time>2019-05-11T11:19:20.270Z</time>
      </trkpt>
      <trkpt lat="44.1321" lon="6.99337">
        <ele>1992</ele>
        <time>2019-05-11T11:19:25.281Z</time>
      </trkpt>
      <trkpt lat="44.13213" lon="6.99345">
        <ele>1992</ele>
        <time>2019-05-11T11:19:30.309Z</time>
      </trkpt>
      <trkpt lat="44.13225" lon="6.99353">
        <ele>1983</ele>
        <time>2019-05-11T11:19:35.269Z</time>
      </trkpt>
      <trkpt lat="44.13225" lon="6.99361">
        <ele>1983</ele>
        <time>2019-05-11T11:19:40.278Z</time>
      </trkpt>
      <trkpt lat="44.13226" lon="6.99367">
        <ele>1983</ele>
        <time>2019-05-11T11:19:45.291Z</time>
      </trkpt>
      <trkpt lat="44.13228" lon="6.99374">
        <ele>1983</ele>
        <time>2019-05-11T11:19:50.264Z</time>
      </trkpt>
      <trkpt lat="44.13228" lon="6.99382">
        <ele>1977</ele>
        <time>2019-05-11T11:19:55.270Z</time>
      </trkpt>
      <trkpt lat="44.13233" lon="6.99389">
        <ele>1977</ele>
        <time>2019-05-11T11:19:59.320Z</time>
      </trkpt>
      <trkpt lat="44.13234" lon="6.99397">
        <ele>1977</ele>
        <time>2019-05-11T11:20:04.280Z</time>
      </trkpt>
      <trkpt lat="44.13233" lon="6.99402">
        <ele>1977</ele>
        <time>2019-05-11T11:20:08.292Z</time>
      </trkpt>
      <trkpt lat="44.13232" lon="6.9941">
        <ele>1973</ele>
        <time>2019-05-11T11:20:13.264Z</time>
      </trkpt>
      <trkpt lat="44.13233" lon="6.99414">
        <ele>1973</ele>
        <time>2019-05-11T11:20:17.272Z</time>
      </trkpt>
      <trkpt lat="44.13234" lon="6.99417">
        <ele>1973</ele>
        <time>2019-05-11T11:20:22.273Z</time>
      </trkpt>
      <trkpt lat="44.13238" lon="6.99411">
        <ele>1971</ele>
        <time>2019-05-11T11:21:20.277Z</time>
      </trkpt>
      <trkpt lat="44.13238" lon="6.9941">
        <ele>1971</ele>
        <time>2019-05-11T11:21:25.270Z</time>
      </trkpt>
      <trkpt lat="44.13241" lon="6.99409">
        <ele>1971</ele>
        <time>2019-05-11T11:21:30.268Z</time>
      </trkpt>
      <trkpt lat="44.13244" lon="6.99407">
        <ele>1971</ele>
        <time>2019-05-11T11:21:35.269Z</time>
      </trkpt>
      <trkpt lat="44.13246" lon="6.99405">
        <ele>1971</ele>
        <time>2019-05-11T11:21:40.274Z</time>
      </trkpt>
      <trkpt lat="44.13248" lon="6.99407">
        <ele>1971</ele>
        <time>2019-05-11T11:21:45.264Z</time>
      </trkpt>
      <trkpt lat="44.1325" lon="6.99412">
        <ele>1971</ele>
        <time>2019-05-11T11:21:50.267Z</time>
      </trkpt>
      <trkpt lat="44.13253" lon="6.99418">
        <ele>1971</ele>
        <time>2019-05-11T11:21:55.268Z</time>
      </trkpt>
      <trkpt lat="44.13254" lon="6.99422">
        <ele>1971</ele>
        <time>2019-05-11T11:22:00.270Z</time>
      </trkpt>
      <trkpt lat="44.13249" lon="6.99413">
        <ele>1971</ele>
        <time>2019-05-11T11:23:34.297Z</time>
      </trkpt>
      <trkpt lat="44.13248" lon="6.9941">
        <ele>1971</ele>
        <time>2019-05-11T11:23:39.305Z</time>
      </trkpt>
      <trkpt lat="44.13245" lon="6.99407">
        <ele>1971</ele>
        <time>2019-05-11T11:23:44.286Z</time>
      </trkpt>
      <trkpt lat="44.13243" lon="6.99408">
        <ele>1971</ele>
        <time>2019-05-11T11:23:49.267Z</time>
      </trkpt>
      <trkpt lat="44.1324" lon="6.99409">
        <ele>1971</ele>
        <time>2019-05-11T11:23:53.310Z</time>
      </trkpt>
      <trkpt lat="44.13229" lon="6.99416">
        <ele>1973</ele>
        <time>2019-05-11T11:26:12.272Z</time>
      </trkpt>
      <trkpt lat="44.13229" lon="6.99416">
        <ele>1973</ele>
        <time>2019-05-11T11:26:17.271Z</time>
      </trkpt>
      <trkpt lat="44.13229" lon="6.99416">
        <ele>1973</ele>
        <time>2019-05-11T11:26:22.265Z</time>
      </trkpt>
      <trkpt lat="44.13228" lon="6.99416">
        <ele>1973</ele>
        <time>2019-05-11T11:26:27.271Z</time>
      </trkpt>
      <trkpt lat="44.13228" lon="6.99416">
        <ele>1973</ele>
        <time>2019-05-11T11:26:32.269Z</time>
      </trkpt>
      <trkpt lat="44.13229" lon="6.99417">
        <ele>1973</ele>
        <time>2019-05-11T11:26:47.274Z</time>
      </trkpt>
      <trkpt lat="44.1323" lon="6.99418">
        <ele>1973</ele>
        <time>2019-05-11T11:26:52.271Z</time>
      </trkpt>
      <trkpt lat="44.13231" lon="6.9942">
        <ele>1973</ele>
        <time>2019-05-11T11:26:57.264Z</time>
      </trkpt>
      <trkpt lat="44.1323" lon="6.99426">
        <ele>1973</ele>
        <time>2019-05-11T11:27:01.291Z</time>
      </trkpt>
      <trkpt lat="44.13229" lon="6.99432">
        <ele>1971</ele>
        <time>2019-05-11T11:27:06.269Z</time>
      </trkpt>
      <trkpt lat="44.13227" lon="6.99432">
        <ele>1971</ele>
        <time>2019-05-11T11:27:11.269Z</time>
      </trkpt>
      <trkpt lat="44.13226" lon="6.99433">
        <ele>1971</ele>
        <time>2019-05-11T11:27:16.253Z</time>
      </trkpt>
      <trkpt lat="44.13223" lon="6.99439">
        <ele>1971</ele>
        <time>2019-05-11T11:27:21.285Z</time>
      </trkpt>
      <trkpt lat="44.13223" lon="6.99447">
        <ele>1971</ele>
        <time>2019-05-11T11:27:26.265Z</time>
      </trkpt>
      <trkpt lat="44.13222" lon="6.99453">
        <ele>1971</ele>
        <time>2019-05-11T11:27:30.284Z</time>
      </trkpt>
      <trkpt lat="44.13223" lon="6.99459">
        <ele>1971</ele>
        <time>2019-05-11T11:27:35.308Z</time>
      </trkpt>
      <trkpt lat="44.13221" lon="6.99466">
        <ele>1971</ele>
        <time>2019-05-11T11:27:40.259Z</time>
      </trkpt>
      <trkpt lat="44.1322" lon="6.99472">
        <ele>1971</ele>
        <time>2019-05-11T11:27:44.271Z</time>
      </trkpt>
      <trkpt lat="44.13217" lon="6.99479">
        <ele>1971</ele>
        <time>2019-05-11T11:27:49.260Z</time>
      </trkpt>
      <trkpt lat="44.13215" lon="6.99486">
        <ele>1971</ele>
        <time>2019-05-11T11:27:54.273Z</time>
      </trkpt>
      <trkpt lat="44.13213" lon="6.99493">
        <ele>1971</ele>
        <time>2019-05-11T11:27:59.246Z</time>
      </trkpt>
      <trkpt lat="44.13211" lon="6.99501">
        <ele>1971</ele>
        <time>2019-05-11T11:28:04.262Z</time>
      </trkpt>
      <trkpt lat="44.13209" lon="6.99507">
        <ele>1971</ele>
        <time>2019-05-11T11:28:09.262Z</time>
      </trkpt>
      <trkpt lat="44.13206" lon="6.99512">
        <ele>1972</ele>
        <time>2019-05-11T11:28:14.271Z</time>
      </trkpt>
      <trkpt lat="44.13202" lon="6.99517">
        <ele>1974</ele>
        <time>2019-05-11T11:28:19.284Z</time>
      </trkpt>
      <trkpt lat="44.13198" lon="6.99525">
        <ele>1974</ele>
        <time>2019-05-11T11:28:24.253Z</time>
      </trkpt>
      <trkpt lat="44.13196" lon="6.99531">
        <ele>1974</ele>
        <time>2019-05-11T11:28:28.270Z</time>
      </trkpt>
      <trkpt lat="44.13194" lon="6.99537">
        <ele>1974</ele>
        <time>2019-05-11T11:28:33.285Z</time>
      </trkpt>
      <trkpt lat="44.1319" lon="6.99542">
        <ele>1974</ele>
        <time>2019-05-11T11:28:38.253Z</time>
      </trkpt>
      <trkpt lat="44.13188" lon="6.99545">
        <ele>1975</ele>
        <time>2019-05-11T11:28:42.263Z</time>
      </trkpt>
      <trkpt lat="44.13184" lon="6.99549">
        <ele>1975</ele>
        <time>2019-05-11T11:29:06.266Z</time>
      </trkpt>
      <trkpt lat="44.13184" lon="6.99549">
        <ele>1975</ele>
        <time>2019-05-11T11:29:11.269Z</time>
      </trkpt>
      <trkpt lat="44.13185" lon="6.99553">
        <ele>1975</ele>
        <time>2019-05-11T11:29:16.267Z</time>
      </trkpt>
      <trkpt lat="44.13187" lon="6.99559">
        <ele>1975</ele>
        <time>2019-05-11T11:29:20.276Z</time>
      </trkpt>
      <trkpt lat="44.13183" lon="6.99565">
        <ele>1975</ele>
        <time>2019-05-11T11:29:25.261Z</time>
      </trkpt>
      <trkpt lat="44.1318" lon="6.99569">
        <ele>1969</ele>
        <time>2019-05-11T11:29:29.281Z</time>
      </trkpt>
      <trkpt lat="44.13176" lon="6.99574">
        <ele>1971</ele>
        <time>2019-05-11T11:29:34.262Z</time>
      </trkpt>
      <trkpt lat="44.13173" lon="6.99578">
        <ele>1971</ele>
        <time>2019-05-11T11:29:38.318Z</time>
      </trkpt>
      <trkpt lat="44.13169" lon="6.99584">
        <ele>1971</ele>
        <time>2019-05-11T11:29:43.274Z</time>
      </trkpt>
      <trkpt lat="44.13166" lon="6.99591">
        <ele>1971</ele>
        <time>2019-05-11T11:29:48.271Z</time>
      </trkpt>
      <trkpt lat="44.13162" lon="6.99596">
        <ele>1971</ele>
        <time>2019-05-11T11:29:53.266Z</time>
      </trkpt>
      <trkpt lat="44.13158" lon="6.99601">
        <ele>1975</ele>
        <time>2019-05-11T11:29:58.286Z</time>
      </trkpt>
      <trkpt lat="44.13155" lon="6.99609">
        <ele>1975</ele>
        <time>2019-05-11T11:30:03.253Z</time>
      </trkpt>
      <trkpt lat="44.13151" lon="6.99614">
        <ele>1968</ele>
        <time>2019-05-11T11:30:08.257Z</time>
      </trkpt>
      <trkpt lat="44.13147" lon="6.99619">
        <ele>1968</ele>
        <time>2019-05-11T11:30:13.289Z</time>
      </trkpt>
      <trkpt lat="44.13144" lon="6.99622">
        <ele>1968</ele>
        <time>2019-05-11T11:30:18.253Z</time>
      </trkpt>
      <trkpt lat="44.13142" lon="6.99624">
        <ele>1968</ele>
        <time>2019-05-11T11:30:22.279Z</time>
      </trkpt>
      <trkpt lat="44.13137" lon="6.99628">
        <ele>1973</ele>
        <time>2019-05-11T11:30:27.262Z</time>
      </trkpt>
      <trkpt lat="44.13132" lon="6.9963">
        <ele>1973</ele>
        <time>2019-05-11T11:30:32.252Z</time>
      </trkpt>
      <trkpt lat="44.13128" lon="6.99632">
        <ele>1973</ele>
        <time>2019-05-11T11:30:36.257Z</time>
      </trkpt>
      <trkpt lat="44.13124" lon="6.99638">
        <ele>1973</ele>
        <time>2019-05-11T11:30:41.259Z</time>
      </trkpt>
      <trkpt lat="44.1312" lon="6.9964">
        <ele>1973</ele>
        <time>2019-05-11T11:30:46.266Z</time>
      </trkpt>
      <trkpt lat="44.13116" lon="6.99642">
        <ele>1973</ele>
        <time>2019-05-11T11:30:51.260Z</time>
      </trkpt>
      <trkpt lat="44.13112" lon="6.99646">
        <ele>1973</ele>
        <time>2019-05-11T11:30:56.263Z</time>
      </trkpt>
      <trkpt lat="44.13109" lon="6.99648">
        <ele>1973</ele>
        <time>2019-05-11T11:31:00.336Z</time>
      </trkpt>
      <trkpt lat="44.13105" lon="6.99649">
        <ele>1973</ele>
        <time>2019-05-11T11:31:05.263Z</time>
      </trkpt>
      <trkpt lat="44.13103" lon="6.99651">
        <ele>1973</ele>
        <time>2019-05-11T11:31:10.259Z</time>
      </trkpt>
      <trkpt lat="44.13097" lon="6.99651">
        <ele>1975</ele>
        <time>2019-05-11T11:31:15.291Z</time>
      </trkpt>
      <trkpt lat="44.13092" lon="6.99649">
        <ele>1975</ele>
        <time>2019-05-11T11:31:20.259Z</time>
      </trkpt>
      <trkpt lat="44.13089" lon="6.99649">
        <ele>1975</ele>
        <time>2019-05-11T11:31:25.286Z</time>
      </trkpt>
      <trkpt lat="44.13087" lon="6.99651">
        <ele>1975</ele>
        <time>2019-05-11T11:31:30.262Z</time>
      </trkpt>
      <trkpt lat="44.13082" lon="6.99653">
        <ele>1976</ele>
        <time>2019-05-11T11:31:35.269Z</time>
      </trkpt>
      <trkpt lat="44.13077" lon="6.99655">
        <ele>1976</ele>
        <time>2019-05-11T11:31:40.260Z</time>
      </trkpt>
      <trkpt lat="44.13073" lon="6.99654">
        <ele>1976</ele>
        <time>2019-05-11T11:31:45.261Z</time>
      </trkpt>
      <trkpt lat="44.13071" lon="6.99654">
        <ele>1976</ele>
        <time>2019-05-11T11:31:50.253Z</time>
      </trkpt>
      <trkpt lat="44.13067" lon="6.99655">
        <ele>1980</ele>
        <time>2019-05-11T11:31:55.256Z</time>
      </trkpt>
      <trkpt lat="44.13065" lon="6.99659">
        <ele>1980</ele>
        <time>2019-05-11T11:32:00.266Z</time>
      </trkpt>
      <trkpt lat="44.13065" lon="6.99661">
        <ele>1980</ele>
        <time>2019-05-11T11:32:05.243Z</time>
      </trkpt>
      <trkpt lat="44.13065" lon="6.99662">
        <ele>1980</ele>
        <time>2019-05-11T11:32:09.262Z</time>
      </trkpt>
      <trkpt lat="44.13061" lon="6.99665">
        <ele>1980</ele>
        <time>2019-05-11T11:32:14.261Z</time>
      </trkpt>
      <trkpt lat="44.13058" lon="6.99667">
        <ele>1980</ele>
        <time>2019-05-11T11:32:18.280Z</time>
      </trkpt>
      <trkpt lat="44.13054" lon="6.9967">
        <ele>1980</ele>
        <time>2019-05-11T11:32:23.259Z</time>
      </trkpt>
      <trkpt lat="44.13051" lon="6.99674">
        <ele>1980</ele>
        <time>2019-05-11T11:32:28.261Z</time>
      </trkpt>
      <trkpt lat="44.13049" lon="6.99678">
        <ele>1980</ele>
        <time>2019-05-11T11:32:32.280Z</time>
      </trkpt>
      <trkpt lat="44.13047" lon="6.99679">
        <ele>1980</ele>
        <time>2019-05-11T11:32:37.264Z</time>
      </trkpt>
      <trkpt lat="44.13045" lon="6.99683">
        <ele>1983</ele>
        <time>2019-05-11T11:32:42.267Z</time>
      </trkpt>
      <trkpt lat="44.13043" lon="6.99685">
        <ele>1983</ele>
        <time>2019-05-11T11:32:47.249Z</time>
      </trkpt>
      <trkpt lat="44.13041" lon="6.99688">
        <ele>1988</ele>
        <time>2019-05-11T11:32:52.266Z</time>
      </trkpt>
      <trkpt lat="44.13037" lon="6.9969">
        <ele>1988</ele>
        <time>2019-05-11T11:32:57.263Z</time>
      </trkpt>
      <trkpt lat="44.13035" lon="6.99693">
        <ele>1988</ele>
        <time>2019-05-11T11:33:02.264Z</time>
      </trkpt>
      <trkpt lat="44.13032" lon="6.99697">
        <ele>1988</ele>
        <time>2019-05-11T11:33:07.259Z</time>
      </trkpt>
      <trkpt lat="44.13029" lon="6.99698">
        <ele>1988</ele>
        <time>2019-05-11T11:33:12.264Z</time>
      </trkpt>
      <trkpt lat="44.13026" lon="6.99699">
        <ele>1988</ele>
        <time>2019-05-11T11:33:16.280Z</time>
      </trkpt>
      <trkpt lat="44.13022" lon="6.99701">
        <ele>1988</ele>
        <time>2019-05-11T11:33:21.259Z</time>
      </trkpt>
      <trkpt lat="44.13021" lon="6.99703">
        <ele>1988</ele>
        <time>2019-05-11T11:33:26.263Z</time>
      </trkpt>
      <trkpt lat="44.1302" lon="6.99705">
        <ele>1988</ele>
        <time>2019-05-11T11:33:31.261Z</time>
      </trkpt>
      <trkpt lat="44.13018" lon="6.99705">
        <ele>1988</ele>
        <time>2019-05-11T11:33:36.265Z</time>
      </trkpt>
      <trkpt lat="44.13018" lon="6.99708">
        <ele>1992</ele>
        <time>2019-05-11T11:33:40.281Z</time>
      </trkpt>
      <trkpt lat="44.13015" lon="6.99713">
        <ele>1992</ele>
        <time>2019-05-11T11:33:45.256Z</time>
      </trkpt>
      <trkpt lat="44.13007" lon="6.99724">
        <ele>1997</ele>
        <time>2019-05-11T11:34:25.265Z</time>
      </trkpt>
      <trkpt lat="44.13003" lon="6.99723">
        <ele>1997</ele>
        <time>2019-05-11T11:34:30.291Z</time>
      </trkpt>
      <trkpt lat="44.13002" lon="6.99725">
        <ele>1997</ele>
        <time>2019-05-11T11:34:35.235Z</time>
      </trkpt>
      <trkpt lat="44.12999" lon="6.99728">
        <ele>1997</ele>
        <time>2019-05-11T11:34:40.235Z</time>
      </trkpt>
      <trkpt lat="44.12994" lon="6.99731">
        <ele>1997</ele>
        <time>2019-05-11T11:34:45.241Z</time>
      </trkpt>
      <trkpt lat="44.12992" lon="6.99732">
        <ele>1997</ele>
        <time>2019-05-11T11:34:49.322Z</time>
      </trkpt>
      <trkpt lat="44.12991" lon="6.99733">
        <ele>1997</ele>
        <time>2019-05-11T11:34:54.259Z</time>
      </trkpt>
      <trkpt lat="44.12988" lon="6.99736">
        <ele>1997</ele>
        <time>2019-05-11T11:34:59.289Z</time>
      </trkpt>
      <trkpt lat="44.12985" lon="6.99739">
        <ele>1998</ele>
        <time>2019-05-11T11:35:04.271Z</time>
      </trkpt>
      <trkpt lat="44.12981" lon="6.9974">
        <ele>1998</ele>
        <time>2019-05-11T11:35:14.258Z</time>
      </trkpt>
      <trkpt lat="44.1298" lon="6.99742">
        <ele>1998</ele>
        <time>2019-05-11T11:35:19.285Z</time>
      </trkpt>
      <trkpt lat="44.12979" lon="6.99743">
        <ele>1998</ele>
        <time>2019-05-11T11:35:24.289Z</time>
      </trkpt>
      <trkpt lat="44.12975" lon="6.99743">
        <ele>1998</ele>
        <time>2019-05-11T11:35:29.259Z</time>
      </trkpt>
      <trkpt lat="44.12973" lon="6.99744">
        <ele>1998</ele>
        <time>2019-05-11T11:35:33.274Z</time>
      </trkpt>
      <trkpt lat="44.12969" lon="6.99745">
        <ele>1998</ele>
        <time>2019-05-11T11:35:38.249Z</time>
      </trkpt>
      <trkpt lat="44.12967" lon="6.99748">
        <ele>1998</ele>
        <time>2019-05-11T11:35:42.294Z</time>
      </trkpt>
      <trkpt lat="44.12965" lon="6.99751">
        <ele>1998</ele>
        <time>2019-05-11T11:35:47.266Z</time>
      </trkpt>
      <trkpt lat="44.12962" lon="6.99753">
        <ele>1998</ele>
        <time>2019-05-11T11:35:52.246Z</time>
      </trkpt>
      <trkpt lat="44.12959" lon="6.99755">
        <ele>1998</ele>
        <time>2019-05-11T11:36:07.257Z</time>
      </trkpt>
      <trkpt lat="44.12959" lon="6.99755">
        <ele>1998</ele>
        <time>2019-05-11T11:36:12.234Z</time>
      </trkpt>
      <trkpt lat="44.12957" lon="6.99757">
        <ele>1994</ele>
        <time>2019-05-11T11:36:17.275Z</time>
      </trkpt>
      <trkpt lat="44.12955" lon="6.99759">
        <ele>1994</ele>
        <time>2019-05-11T11:36:22.271Z</time>
      </trkpt>
      <trkpt lat="44.12953" lon="6.99761">
        <ele>1994</ele>
        <time>2019-05-11T11:36:27.277Z</time>
      </trkpt>
      <trkpt lat="44.1295" lon="6.99764">
        <ele>2006</ele>
        <time>2019-05-11T11:36:32.261Z</time>
      </trkpt>
      <trkpt lat="44.12949" lon="6.99767">
        <ele>2006</ele>
        <time>2019-05-11T11:36:37.259Z</time>
      </trkpt>
      <trkpt lat="44.12947" lon="6.9977">
        <ele>2006</ele>
        <time>2019-05-11T11:36:42.258Z</time>
      </trkpt>
      <trkpt lat="44.12945" lon="6.99772">
        <ele>2006</ele>
        <time>2019-05-11T11:36:47.258Z</time>
      </trkpt>
      <trkpt lat="44.12944" lon="6.99774">
        <ele>2006</ele>
        <time>2019-05-11T11:36:52.258Z</time>
      </trkpt>
      <trkpt lat="44.12937" lon="6.99788">
        <ele>2006</ele>
        <time>2019-05-11T11:37:12.257Z</time>
      </trkpt>
      <trkpt lat="44.12937" lon="6.99788">
        <ele>2006</ele>
        <time>2019-05-11T11:37:17.257Z</time>
      </trkpt>
      <trkpt lat="44.12937" lon="6.99788">
        <ele>2006</ele>
        <time>2019-05-11T11:37:22.258Z</time>
      </trkpt>
      <trkpt lat="44.12937" lon="6.99788">
        <ele>2006</ele>
        <time>2019-05-11T11:37:27.256Z</time>
      </trkpt>
      <trkpt lat="44.12936" lon="6.99788">
        <ele>2006</ele>
        <time>2019-05-11T11:37:32.260Z</time>
      </trkpt>
      <trkpt lat="44.12937" lon="6.99791">
        <ele>2006</ele>
        <time>2019-05-11T11:42:16.252Z</time>
      </trkpt>
      <trkpt lat="44.12938" lon="6.99795">
        <ele>2013</ele>
        <time>2019-05-11T11:42:21.257Z</time>
      </trkpt>
      <trkpt lat="44.12935" lon="6.99799">
        <ele>2013</ele>
        <time>2019-05-11T11:42:26.233Z</time>
      </trkpt>
      <trkpt lat="44.12935" lon="6.998">
        <ele>2013</ele>
        <time>2019-05-11T11:42:30.255Z</time>
      </trkpt>
      <trkpt lat="44.12935" lon="6.99806">
        <ele>2013</ele>
        <time>2019-05-11T11:42:35.249Z</time>
      </trkpt>
      <trkpt lat="44.12934" lon="6.99811">
        <ele>2013</ele>
        <time>2019-05-11T11:42:39.258Z</time>
      </trkpt>
      <trkpt lat="44.12932" lon="6.99816">
        <ele>2013</ele>
        <time>2019-05-11T11:42:44.288Z</time>
      </trkpt>
      <trkpt lat="44.12931" lon="6.99821">
        <ele>2017</ele>
        <time>2019-05-11T11:42:49.254Z</time>
      </trkpt>
      <trkpt lat="44.12928" lon="6.99826">
        <ele>2006</ele>
        <time>2019-05-11T11:42:54.257Z</time>
      </trkpt>
      <trkpt lat="44.12924" lon="6.99828">
        <ele>2006</ele>
        <time>2019-05-11T11:42:59.255Z</time>
      </trkpt>
      <trkpt lat="44.12921" lon="6.99833">
        <ele>2006</ele>
        <time>2019-05-11T11:43:04.255Z</time>
      </trkpt>
      <trkpt lat="44.12919" lon="6.99837">
        <ele>2006</ele>
        <time>2019-05-11T11:43:08.279Z</time>
      </trkpt>
      <trkpt lat="44.12917" lon="6.99841">
        <ele>2006</ele>
        <time>2019-05-11T11:43:13.267Z</time>
      </trkpt>
      <trkpt lat="44.12918" lon="6.99846">
        <ele>2006</ele>
        <time>2019-05-11T11:43:18.249Z</time>
      </trkpt>
      <trkpt lat="44.12917" lon="6.99852">
        <ele>2008</ele>
        <time>2019-05-11T11:43:23.237Z</time>
      </trkpt>
      <trkpt lat="44.12916" lon="6.99858">
        <ele>2008</ele>
        <time>2019-05-11T11:43:27.281Z</time>
      </trkpt>
      <trkpt lat="44.12917" lon="6.99865">
        <ele>2008</ele>
        <time>2019-05-11T11:43:32.256Z</time>
      </trkpt>
      <trkpt lat="44.12916" lon="6.99873">
        <ele>2008</ele>
        <time>2019-05-11T11:43:37.279Z</time>
      </trkpt>
      <trkpt lat="44.12914" lon="6.99879">
        <ele>2009</ele>
        <time>2019-05-11T11:43:42.251Z</time>
      </trkpt>
      <trkpt lat="44.12911" lon="6.99884">
        <ele>2009</ele>
        <time>2019-05-11T11:43:47.253Z</time>
      </trkpt>
      <trkpt lat="44.12909" lon="6.9989">
        <ele>2009</ele>
        <time>2019-05-11T11:43:51.264Z</time>
      </trkpt>
      <trkpt lat="44.12906" lon="6.99894">
        <ele>2009</ele>
        <time>2019-05-11T11:43:56.265Z</time>
      </trkpt>
      <trkpt lat="44.12905" lon="6.999">
        <ele>2009</ele>
        <time>2019-05-11T11:44:00.284Z</time>
      </trkpt>
      <trkpt lat="44.12903" lon="6.99905">
        <ele>2010</ele>
        <time>2019-05-11T11:44:05.242Z</time>
      </trkpt>
      <trkpt lat="44.129" lon="6.9991">
        <ele>1984</ele>
        <time>2019-05-11T11:44:10.274Z</time>
      </trkpt>
      <trkpt lat="44.12901" lon="6.99916">
        <ele>1984</ele>
        <time>2019-05-11T11:44:15.275Z</time>
      </trkpt>
      <trkpt lat="44.12899" lon="6.99921">
        <ele>1984</ele>
        <time>2019-05-11T11:44:20.251Z</time>
      </trkpt>
      <trkpt lat="44.12901" lon="6.99929">
        <ele>1984</ele>
        <time>2019-05-11T11:44:25.247Z</time>
      </trkpt>
      <trkpt lat="44.12903" lon="6.99935">
        <ele>2009</ele>
        <time>2019-05-11T11:44:30.252Z</time>
      </trkpt>
      <trkpt lat="44.12904" lon="6.99939">
        <ele>2009</ele>
        <time>2019-05-11T11:44:34.271Z</time>
      </trkpt>
      <trkpt lat="44.12904" lon="6.99945">
        <ele>2009</ele>
        <time>2019-05-11T11:44:39.261Z</time>
      </trkpt>
      <trkpt lat="44.12907" lon="6.99952">
        <ele>2009</ele>
        <time>2019-05-11T11:44:44.255Z</time>
      </trkpt>
      <trkpt lat="44.12909" lon="6.99958">
        <ele>2009</ele>
        <time>2019-05-11T11:44:48.298Z</time>
      </trkpt>
      <trkpt lat="44.1291" lon="6.99961">
        <ele>2002</ele>
        <time>2019-05-11T11:44:53.249Z</time>
      </trkpt>
      <trkpt lat="44.12911" lon="6.99964">
        <ele>2002</ele>
        <time>2019-05-11T11:44:57.268Z</time>
      </trkpt>
      <trkpt lat="44.12913" lon="6.99969">
        <ele>2002</ele>
        <time>2019-05-11T11:45:02.250Z</time>
      </trkpt>
      <trkpt lat="44.12915" lon="6.99974">
        <ele>2002</ele>
        <time>2019-05-11T11:45:07.251Z</time>
      </trkpt>
      <trkpt lat="44.12916" lon="6.99979">
        <ele>2002</ele>
        <time>2019-05-11T11:45:12.271Z</time>
      </trkpt>
      <trkpt lat="44.12917" lon="6.99986">
        <ele>2002</ele>
        <time>2019-05-11T11:45:17.276Z</time>
      </trkpt>
      <trkpt lat="44.12918" lon="6.99991">
        <ele>1993</ele>
        <time>2019-05-11T11:45:22.257Z</time>
      </trkpt>
      <trkpt lat="44.12919" lon="6.99996">
        <ele>1993</ele>
        <time>2019-05-11T11:45:27.271Z</time>
      </trkpt>
      <trkpt lat="44.12919" lon="7.00003">
        <ele>1993</ele>
        <time>2019-05-11T11:45:32.269Z</time>
      </trkpt>
      <trkpt lat="44.12921" lon="7.0001">
        <ele>1993</ele>
        <time>2019-05-11T11:45:37.249Z</time>
      </trkpt>
      <trkpt lat="44.12921" lon="7.00016">
        <ele>1984</ele>
        <time>2019-05-11T11:45:42.254Z</time>
      </trkpt>
      <trkpt lat="44.12924" lon="7.00022">
        <ele>1984</ele>
        <time>2019-05-11T11:45:46.276Z</time>
      </trkpt>
      <trkpt lat="44.12926" lon="7.00027">
        <ele>1984</ele>
        <time>2019-05-11T11:45:51.251Z</time>
      </trkpt>
      <trkpt lat="44.12926" lon="7.00031">
        <ele>1984</ele>
        <time>2019-05-11T11:45:55.286Z</time>
      </trkpt>
      <trkpt lat="44.12926" lon="7.00034">
        <ele>1984</ele>
        <time>2019-05-11T11:46:00.248Z</time>
      </trkpt>
      <trkpt lat="44.12927" lon="7.0004">
        <ele>1984</ele>
        <time>2019-05-11T11:46:05.247Z</time>
      </trkpt>
      <trkpt lat="44.1293" lon="7.00048">
        <ele>1978</ele>
        <time>2019-05-11T11:46:10.271Z</time>
      </trkpt>
      <trkpt lat="44.12934" lon="7.00054">
        <ele>1993</ele>
        <time>2019-05-11T11:46:15.249Z</time>
      </trkpt>
      <trkpt lat="44.12935" lon="7.00058">
        <ele>1993</ele>
        <time>2019-05-11T11:46:20.238Z</time>
      </trkpt>
      <trkpt lat="44.12934" lon="7.00059">
        <ele>1993</ele>
        <time>2019-05-11T11:46:24.250Z</time>
      </trkpt>
      <trkpt lat="44.12937" lon="7.00065">
        <ele>1993</ele>
        <time>2019-05-11T11:46:29.296Z</time>
      </trkpt>
      <trkpt lat="44.12938" lon="7.00072">
        <ele>1987</ele>
        <time>2019-05-11T11:46:34.269Z</time>
      </trkpt>
      <trkpt lat="44.12935" lon="7.00078">
        <ele>1987</ele>
        <time>2019-05-11T11:46:39.247Z</time>
      </trkpt>
      <trkpt lat="44.12932" lon="7.00083">
        <ele>1987</ele>
        <time>2019-05-11T11:46:44.251Z</time>
      </trkpt>
      <trkpt lat="44.12929" lon="7.00089">
        <ele>1975</ele>
        <time>2019-05-11T11:46:49.248Z</time>
      </trkpt>
      <trkpt lat="44.12928" lon="7.00093">
        <ele>1975</ele>
        <time>2019-05-11T11:46:54.249Z</time>
      </trkpt>
      <trkpt lat="44.12931" lon="7.00099">
        <ele>1980</ele>
        <time>2019-05-11T11:46:59.267Z</time>
      </trkpt>
      <trkpt lat="44.12931" lon="7.00105">
        <ele>1980</ele>
        <time>2019-05-11T11:47:04.245Z</time>
      </trkpt>
      <trkpt lat="44.1293" lon="7.00114">
        <ele>1971</ele>
        <time>2019-05-11T11:47:09.249Z</time>
      </trkpt>
      <trkpt lat="44.12927" lon="7.00122">
        <ele>1971</ele>
        <time>2019-05-11T11:47:14.246Z</time>
      </trkpt>
      <trkpt lat="44.12927" lon="7.00129">
        <ele>1973</ele>
        <time>2019-05-11T11:47:19.250Z</time>
      </trkpt>
      <trkpt lat="44.12925" lon="7.00133">
        <ele>1973</ele>
        <time>2019-05-11T11:47:24.239Z</time>
      </trkpt>
      <trkpt lat="44.12924" lon="7.00137">
        <ele>1973</ele>
        <time>2019-05-11T11:47:28.276Z</time>
      </trkpt>
      <trkpt lat="44.12921" lon="7.00143">
        <ele>1973</ele>
        <time>2019-05-11T11:47:33.267Z</time>
      </trkpt>
      <trkpt lat="44.12919" lon="7.00147">
        <ele>1973</ele>
        <time>2019-05-11T11:47:38.268Z</time>
      </trkpt>
      <trkpt lat="44.12917" lon="7.00147">
        <ele>1973</ele>
        <time>2019-05-11T11:47:43.255Z</time>
      </trkpt>
      <trkpt lat="44.12916" lon="7.00146">
        <ele>1973</ele>
        <time>2019-05-11T11:47:48.252Z</time>
      </trkpt>
      <trkpt lat="44.12912" lon="7.00148">
        <ele>1973</ele>
        <time>2019-05-11T11:47:53.254Z</time>
      </trkpt>
      <trkpt lat="44.12911" lon="7.0015">
        <ele>1973</ele>
        <time>2019-05-11T11:47:58.249Z</time>
      </trkpt>
      <trkpt lat="44.12912" lon="7.00156">
        <ele>1975</ele>
        <time>2019-05-11T11:48:03.249Z</time>
      </trkpt>
      <trkpt lat="44.12912" lon="7.0016">
        <ele>1975</ele>
        <time>2019-05-11T11:48:08.248Z</time>
      </trkpt>
      <trkpt lat="44.12911" lon="7.00163">
        <ele>1975</ele>
        <time>2019-05-11T11:48:12.261Z</time>
      </trkpt>
      <trkpt lat="44.12909" lon="7.00166">
        <ele>1975</ele>
        <time>2019-05-11T11:48:17.270Z</time>
      </trkpt>
      <trkpt lat="44.12901" lon="7.00174">
        <ele>1974</ele>
        <time>2019-05-11T11:48:32.272Z</time>
      </trkpt>
      <trkpt lat="44.12899" lon="7.00175">
        <ele>1974</ele>
        <time>2019-05-11T11:48:37.254Z</time>
      </trkpt>
      <trkpt lat="44.12898" lon="7.00176">
        <ele>1974</ele>
        <time>2019-05-11T11:48:42.254Z</time>
      </trkpt>
      <trkpt lat="44.12898" lon="7.00176">
        <ele>1974</ele>
        <time>2019-05-11T11:48:47.250Z</time>
      </trkpt>
      <trkpt lat="44.12896" lon="7.00178">
        <ele>1974</ele>
        <time>2019-05-11T11:48:52.248Z</time>
      </trkpt>
      <trkpt lat="44.12894" lon="7.00187">
        <ele>1986</ele>
        <time>2019-05-11T11:49:27.248Z</time>
      </trkpt>
      <trkpt lat="44.12893" lon="7.0019">
        <ele>1986</ele>
        <time>2019-05-11T11:49:32.249Z</time>
      </trkpt>
      <trkpt lat="44.12889" lon="7.00191">
        <ele>1986</ele>
        <time>2019-05-11T11:49:37.248Z</time>
      </trkpt>
      <trkpt lat="44.12889" lon="7.00192">
        <ele>1986</ele>
        <time>2019-05-11T11:49:42.250Z</time>
      </trkpt>
      <trkpt lat="44.12886" lon="7.00194">
        <ele>1986</ele>
        <time>2019-05-11T11:49:47.254Z</time>
      </trkpt>
      <trkpt lat="44.12889" lon="7.002">
        <ele>1986</ele>
        <time>2019-05-11T11:50:10.265Z</time>
      </trkpt>
      <trkpt lat="44.12887" lon="7.00202">
        <ele>1986</ele>
        <time>2019-05-11T11:50:15.262Z</time>
      </trkpt>
      <trkpt lat="44.12887" lon="7.00203">
        <ele>1986</ele>
        <time>2019-05-11T11:50:20.246Z</time>
      </trkpt>
      <trkpt lat="44.12886" lon="7.00204">
        <ele>1986</ele>
        <time>2019-05-11T11:50:24.272Z</time>
      </trkpt>
      <trkpt lat="44.12887" lon="7.00207">
        <ele>1986</ele>
        <time>2019-05-11T11:50:29.249Z</time>
      </trkpt>
      <trkpt lat="44.12889" lon="7.00214">
        <ele>1995</ele>
        <time>2019-05-11T11:51:04.231Z</time>
      </trkpt>
      <trkpt lat="44.12889" lon="7.00218">
        <ele>1995</ele>
        <time>2019-05-11T11:51:08.250Z</time>
      </trkpt>
      <trkpt lat="44.12888" lon="7.00219">
        <ele>1995</ele>
        <time>2019-05-11T11:51:13.248Z</time>
      </trkpt>
      <trkpt lat="44.12885" lon="7.0022">
        <ele>1995</ele>
        <time>2019-05-11T11:51:18.253Z</time>
      </trkpt>
      <trkpt lat="44.12882" lon="7.0022">
        <ele>1995</ele>
        <time>2019-05-11T11:51:22.285Z</time>
      </trkpt>
      <trkpt lat="44.12876" lon="7.00214">
        <ele>1995</ele>
        <time>2019-05-11T11:52:26.247Z</time>
      </trkpt>
      <trkpt lat="44.12876" lon="7.00214">
        <ele>1995</ele>
        <time>2019-05-11T11:52:31.245Z</time>
      </trkpt>
      <trkpt lat="44.12874" lon="7.00216">
        <ele>1998</ele>
        <time>2019-05-11T11:52:35.421Z</time>
      </trkpt>
      <trkpt lat="44.12872" lon="7.0022">
        <ele>1998</ele>
        <time>2019-05-11T11:52:40.247Z</time>
      </trkpt>
      <trkpt lat="44.12871" lon="7.00224">
        <ele>1998</ele>
        <time>2019-05-11T11:52:45.258Z</time>
      </trkpt>
      <trkpt lat="44.12868" lon="7.00228">
        <ele>1998</ele>
        <time>2019-05-11T11:52:50.246Z</time>
      </trkpt>
      <trkpt lat="44.12865" lon="7.00234">
        <ele>1998</ele>
        <time>2019-05-11T11:52:55.247Z</time>
      </trkpt>
      <trkpt lat="44.12862" lon="7.00238">
        <ele>2007</ele>
        <time>2019-05-11T11:53:00.262Z</time>
      </trkpt>
      <trkpt lat="44.1286" lon="7.00241">
        <ele>2007</ele>
        <time>2019-05-11T11:53:05.272Z</time>
      </trkpt>
      <trkpt lat="44.12858" lon="7.00244">
        <ele>2007</ele>
        <time>2019-05-11T11:53:10.240Z</time>
      </trkpt>
      <trkpt lat="44.12852" lon="7.0025">
        <ele>2007</ele>
        <time>2019-05-11T11:53:15.246Z</time>
      </trkpt>
      <trkpt lat="44.12848" lon="7.00252">
        <ele>2007</ele>
        <time>2019-05-11T11:53:20.248Z</time>
      </trkpt>
      <trkpt lat="44.12842" lon="7.00253">
        <ele>1999</ele>
        <time>2019-05-11T11:53:25.257Z</time>
      </trkpt>
      <trkpt lat="44.12837" lon="7.00258">
        <ele>1999</ele>
        <time>2019-05-11T11:53:30.244Z</time>
      </trkpt>
      <trkpt lat="44.12832" lon="7.00262">
        <ele>1999</ele>
        <time>2019-05-11T11:53:35.245Z</time>
      </trkpt>
      <trkpt lat="44.12827" lon="7.00262">
        <ele>1999</ele>
        <time>2019-05-11T11:53:40.237Z</time>
      </trkpt>
      <trkpt lat="44.12823" lon="7.00264">
        <ele>1999</ele>
        <time>2019-05-11T11:53:44.245Z</time>
      </trkpt>
      <trkpt lat="44.12822" lon="7.00266">
        <ele>2006</ele>
        <time>2019-05-11T11:53:48.257Z</time>
      </trkpt>
      <trkpt lat="44.1282" lon="7.00267">
        <ele>2006</ele>
        <time>2019-05-11T11:53:53.245Z</time>
      </trkpt>
      <trkpt lat="44.12814" lon="7.00266">
        <ele>1993</ele>
        <time>2019-05-11T11:53:58.243Z</time>
      </trkpt>
      <trkpt lat="44.12809" lon="7.00268">
        <ele>1993</ele>
        <time>2019-05-11T11:54:03.241Z</time>
      </trkpt>
      <trkpt lat="44.12804" lon="7.00269">
        <ele>1993</ele>
        <time>2019-05-11T11:54:07.250Z</time>
      </trkpt>
      <trkpt lat="44.128" lon="7.00271">
        <ele>1993</ele>
        <time>2019-05-11T11:54:12.248Z</time>
      </trkpt>
      <trkpt lat="44.12795" lon="7.00277">
        <ele>1993</ele>
        <time>2019-05-11T11:54:17.248Z</time>
      </trkpt>
      <trkpt lat="44.12789" lon="7.0028">
        <ele>1970</ele>
        <time>2019-05-11T11:54:22.268Z</time>
      </trkpt>
      <trkpt lat="44.12786" lon="7.00284">
        <ele>1970</ele>
        <time>2019-05-11T11:54:27.245Z</time>
      </trkpt>
      <trkpt lat="44.12782" lon="7.00287">
        <ele>1970</ele>
        <time>2019-05-11T11:54:32.248Z</time>
      </trkpt>
      <trkpt lat="44.1278" lon="7.00289">
        <ele>1970</ele>
        <time>2019-05-11T11:54:37.250Z</time>
      </trkpt>
      <trkpt lat="44.12777" lon="7.00291">
        <ele>1970</ele>
        <time>2019-05-11T11:54:42.243Z</time>
      </trkpt>
      <trkpt lat="44.12777" lon="7.00299">
        <ele>1974</ele>
        <time>2019-05-11T11:55:31.245Z</time>
      </trkpt>
      <trkpt lat="44.12777" lon="7.00303">
        <ele>1974</ele>
        <time>2019-05-11T11:55:36.263Z</time>
      </trkpt>
      <trkpt lat="44.12777" lon="7.00308">
        <ele>1974</ele>
        <time>2019-05-11T11:55:41.244Z</time>
      </trkpt>
      <trkpt lat="44.12781" lon="7.00315">
        <ele>1974</ele>
        <time>2019-05-11T11:55:46.267Z</time>
      </trkpt>
      <trkpt lat="44.12785" lon="7.00321">
        <ele>1978</ele>
        <time>2019-05-11T11:55:51.241Z</time>
      </trkpt>
      <trkpt lat="44.12786" lon="7.00326">
        <ele>1978</ele>
        <time>2019-05-11T11:55:55.255Z</time>
      </trkpt>
      <trkpt lat="44.12788" lon="7.00333">
        <ele>1978</ele>
        <time>2019-05-11T11:56:00.297Z</time>
      </trkpt>
      <trkpt lat="44.12791" lon="7.0034">
        <ele>1978</ele>
        <time>2019-05-11T11:56:05.260Z</time>
      </trkpt>
      <trkpt lat="44.12793" lon="7.00347">
        <ele>1997</ele>
        <time>2019-05-11T11:56:10.244Z</time>
      </trkpt>
      <trkpt lat="44.12793" lon="7.00355">
        <ele>1990</ele>
        <time>2019-05-11T11:56:15.248Z</time>
      </trkpt>
      <trkpt lat="44.12794" lon="7.00363">
        <ele>1990</ele>
        <time>2019-05-11T11:56:20.242Z</time>
      </trkpt>
      <trkpt lat="44.12795" lon="7.00373">
        <ele>1990</ele>
        <time>2019-05-11T11:56:25.244Z</time>
      </trkpt>
      <trkpt lat="44.12797" lon="7.00379">
        <ele>1980</ele>
        <time>2019-05-11T11:56:29.268Z</time>
      </trkpt>
      <trkpt lat="44.12798" lon="7.00386">
        <ele>1980</ele>
        <time>2019-05-11T11:56:34.243Z</time>
      </trkpt>
      <trkpt lat="44.12799" lon="7.00391">
        <ele>1980</ele>
        <time>2019-05-11T11:56:38.281Z</time>
      </trkpt>
      <trkpt lat="44.128" lon="7.00398">
        <ele>1980</ele>
        <time>2019-05-11T11:56:43.258Z</time>
      </trkpt>
      <trkpt lat="44.12802" lon="7.00405">
        <ele>1970</ele>
        <time>2019-05-11T11:56:48.243Z</time>
      </trkpt>
      <trkpt lat="44.12803" lon="7.00413">
        <ele>1970</ele>
        <time>2019-05-11T11:56:53.239Z</time>
      </trkpt>
      <trkpt lat="44.12805" lon="7.0042">
        <ele>1970</ele>
        <time>2019-05-11T11:56:58.230Z</time>
      </trkpt>
      <trkpt lat="44.12807" lon="7.00428">
        <ele>1970</ele>
        <time>2019-05-11T11:57:03.231Z</time>
      </trkpt>
      <trkpt lat="44.12807" lon="7.00434">
        <ele>1963</ele>
        <time>2019-05-11T11:57:07.244Z</time>
      </trkpt>
      <trkpt lat="44.12808" lon="7.00439">
        <ele>1963</ele>
        <time>2019-05-11T11:57:11.264Z</time>
      </trkpt>
      <trkpt lat="44.12808" lon="7.00444">
        <ele>1963</ele>
        <time>2019-05-11T11:57:15.291Z</time>
      </trkpt>
      <trkpt lat="44.12806" lon="7.00451">
        <ele>1963</ele>
        <time>2019-05-11T11:57:20.242Z</time>
      </trkpt>
      <trkpt lat="44.12806" lon="7.00457">
        <ele>1963</ele>
        <time>2019-05-11T11:57:25.241Z</time>
      </trkpt>
      <trkpt lat="44.12805" lon="7.0046">
        <ele>1958</ele>
        <time>2019-05-11T11:57:55.241Z</time>
      </trkpt>
      <trkpt lat="44.12805" lon="7.0046">
        <ele>1958</ele>
        <time>2019-05-11T11:57:59.255Z</time>
      </trkpt>
      <trkpt lat="44.12806" lon="7.00462">
        <ele>1958</ele>
        <time>2019-05-11T11:58:04.244Z</time>
      </trkpt>
      <trkpt lat="44.12808" lon="7.0047">
        <ele>1958</ele>
        <time>2019-05-11T11:58:09.244Z</time>
      </trkpt>
      <trkpt lat="44.12808" lon="7.00477">
        <ele>1958</ele>
        <time>2019-05-11T11:58:14.259Z</time>
      </trkpt>
      <trkpt lat="44.12806" lon="7.00485">
        <ele>1958</ele>
        <time>2019-05-11T11:59:19.219Z</time>
      </trkpt>
      <trkpt lat="44.12806" lon="7.00485">
        <ele>1958</ele>
        <time>2019-05-11T11:59:24.221Z</time>
      </trkpt>
      <trkpt lat="44.12806" lon="7.00487">
        <ele>1960</ele>
        <time>2019-05-11T11:59:28.235Z</time>
      </trkpt>
      <trkpt lat="44.12804" lon="7.00492">
        <ele>1960</ele>
        <time>2019-05-11T11:59:33.219Z</time>
      </trkpt>
      <trkpt lat="44.12803" lon="7.00495">
        <ele>1960</ele>
        <time>2019-05-11T11:59:37.238Z</time>
      </trkpt>
      <trkpt lat="44.12802" lon="7.005">
        <ele>1960</ele>
        <time>2019-05-11T11:59:41.257Z</time>
      </trkpt>
      <trkpt lat="44.12799" lon="7.00504">
        <ele>1960</ele>
        <time>2019-05-11T11:59:46.240Z</time>
      </trkpt>
      <trkpt lat="44.12794" lon="7.0051">
        <ele>1960</ele>
        <time>2019-05-11T11:59:51.244Z</time>
      </trkpt>
      <trkpt lat="44.12788" lon="7.00513">
        <ele>1957</ele>
        <time>2019-05-11T11:59:56.240Z</time>
      </trkpt>
      <trkpt lat="44.12781" lon="7.00517">
        <ele>1969</ele>
        <time>2019-05-11T12:00:01.279Z</time>
      </trkpt>
      <trkpt lat="44.12775" lon="7.00521">
        <ele>1969</ele>
        <time>2019-05-11T12:00:06.236Z</time>
      </trkpt>
      <trkpt lat="44.12771" lon="7.00524">
        <ele>1969</ele>
        <time>2019-05-11T12:00:10.261Z</time>
      </trkpt>
      <trkpt lat="44.12769" lon="7.00523">
        <ele>1969</ele>
        <time>2019-05-11T12:00:15.234Z</time>
      </trkpt>
      <trkpt lat="44.12763" lon="7.00524">
        <ele>1960</ele>
        <time>2019-05-11T12:00:20.237Z</time>
      </trkpt>
      <trkpt lat="44.12759" lon="7.00522">
        <ele>1960</ele>
        <time>2019-05-11T12:00:25.269Z</time>
      </trkpt>
      <trkpt lat="44.12752" lon="7.00522">
        <ele>1960</ele>
        <time>2019-05-11T12:00:30.256Z</time>
      </trkpt>
      <trkpt lat="44.12747" lon="7.0052">
        <ele>1960</ele>
        <time>2019-05-11T12:00:35.233Z</time>
      </trkpt>
      <trkpt lat="44.12744" lon="7.00519">
        <ele>1960</ele>
        <time>2019-05-11T12:00:40.238Z</time>
      </trkpt>
      <trkpt lat="44.12738" lon="7.00517">
        <ele>1960</ele>
        <time>2019-05-11T12:00:45.239Z</time>
      </trkpt>
      <trkpt lat="44.12733" lon="7.0052">
        <ele>1957</ele>
        <time>2019-05-11T12:00:49.260Z</time>
      </trkpt>
      <trkpt lat="44.12729" lon="7.00522">
        <ele>1957</ele>
        <time>2019-05-11T12:00:54.240Z</time>
      </trkpt>
      <trkpt lat="44.12725" lon="7.00522">
        <ele>1957</ele>
        <time>2019-05-11T12:00:58.290Z</time>
      </trkpt>
      <trkpt lat="44.1272" lon="7.00522">
        <ele>1957</ele>
        <time>2019-05-11T12:01:03.242Z</time>
      </trkpt>
      <trkpt lat="44.12715" lon="7.00523">
        <ele>1957</ele>
        <time>2019-05-11T12:01:07.261Z</time>
      </trkpt>
      <trkpt lat="44.12711" lon="7.00524">
        <ele>1957</ele>
        <time>2019-05-11T12:01:11.288Z</time>
      </trkpt>
      <trkpt lat="44.12705" lon="7.00525">
        <ele>1957</ele>
        <time>2019-05-11T12:01:16.239Z</time>
      </trkpt>
      <trkpt lat="44.127" lon="7.00525">
        <ele>1957</ele>
        <time>2019-05-11T12:01:20.294Z</time>
      </trkpt>
      <trkpt lat="44.12694" lon="7.00525">
        <ele>1957</ele>
        <time>2019-05-11T12:01:25.289Z</time>
      </trkpt>
      <trkpt lat="44.12688" lon="7.00527">
        <ele>1957</ele>
        <time>2019-05-11T12:01:30.236Z</time>
      </trkpt>
      <trkpt lat="44.12681" lon="7.00526">
        <ele>1957</ele>
        <time>2019-05-11T12:01:34.258Z</time>
      </trkpt>
      <trkpt lat="44.12676" lon="7.00527">
        <ele>1954</ele>
        <time>2019-05-11T12:01:39.240Z</time>
      </trkpt>
      <trkpt lat="44.12672" lon="7.00528">
        <ele>1954</ele>
        <time>2019-05-11T12:01:44.241Z</time>
      </trkpt>
      <trkpt lat="44.12669" lon="7.00529">
        <ele>1954</ele>
        <time>2019-05-11T12:01:48.269Z</time>
      </trkpt>
      <trkpt lat="44.12667" lon="7.00529">
        <ele>1954</ele>
        <time>2019-05-11T12:01:53.238Z</time>
      </trkpt>
      <trkpt lat="44.12664" lon="7.0053">
        <ele>1954</ele>
        <time>2019-05-11T12:01:57.254Z</time>
      </trkpt>
      <trkpt lat="44.12659" lon="7.0053">
        <ele>1954</ele>
        <time>2019-05-11T12:02:02.239Z</time>
      </trkpt>
      <trkpt lat="44.1265" lon="7.00532">
        <ele>1944</ele>
        <time>2019-05-11T12:02:07.232Z</time>
      </trkpt>
      <trkpt lat="44.12648" lon="7.0053">
        <ele>1944</ele>
        <time>2019-05-11T12:02:11.239Z</time>
      </trkpt>
      <trkpt lat="44.12647" lon="7.00528">
        <ele>1944</ele>
        <time>2019-05-11T12:02:16.241Z</time>
      </trkpt>
      <trkpt lat="44.12641" lon="7.00529">
        <ele>1944</ele>
        <time>2019-05-11T12:02:21.234Z</time>
      </trkpt>
      <trkpt lat="44.12636" lon="7.00527">
        <ele>1944</ele>
        <time>2019-05-11T12:02:26.223Z</time>
      </trkpt>
      <trkpt lat="44.12632" lon="7.00527">
        <ele>1944</ele>
        <time>2019-05-11T12:02:30.238Z</time>
      </trkpt>
      <trkpt lat="44.12628" lon="7.00526">
        <ele>1944</ele>
        <time>2019-05-11T12:02:35.238Z</time>
      </trkpt>
      <trkpt lat="44.12624" lon="7.00527">
        <ele>1936</ele>
        <time>2019-05-11T12:02:39.251Z</time>
      </trkpt>
      <trkpt lat="44.12619" lon="7.00526">
        <ele>1936</ele>
        <time>2019-05-11T12:02:44.239Z</time>
      </trkpt>
      <trkpt lat="44.12615" lon="7.00526">
        <ele>1936</ele>
        <time>2019-05-11T12:02:48.273Z</time>
      </trkpt>
      <trkpt lat="44.12611" lon="7.00528">
        <ele>1936</ele>
        <time>2019-05-11T12:02:53.228Z</time>
      </trkpt>
      <trkpt lat="44.12606" lon="7.00531">
        <ele>1936</ele>
        <time>2019-05-11T12:02:57.253Z</time>
      </trkpt>
      <trkpt lat="44.12601" lon="7.00533">
        <ele>1936</ele>
        <time>2019-05-11T12:03:02.238Z</time>
      </trkpt>
      <trkpt lat="44.12597" lon="7.00537">
        <ele>1936</ele>
        <time>2019-05-11T12:03:07.227Z</time>
      </trkpt>
      <trkpt lat="44.12595" lon="7.00543">
        <ele>1938</ele>
        <time>2019-05-11T12:03:12.236Z</time>
      </trkpt>
      <trkpt lat="44.12593" lon="7.00551">
        <ele>1938</ele>
        <time>2019-05-11T12:03:17.244Z</time>
      </trkpt>
      <trkpt lat="44.12591" lon="7.00556">
        <ele>1938</ele>
        <time>2019-05-11T12:03:22.265Z</time>
      </trkpt>
      <trkpt lat="44.12588" lon="7.0056">
        <ele>1938</ele>
        <time>2019-05-11T12:03:27.274Z</time>
      </trkpt>
      <trkpt lat="44.12586" lon="7.00564">
        <ele>1938</ele>
        <time>2019-05-11T12:03:32.239Z</time>
      </trkpt>
      <trkpt lat="44.12583" lon="7.00571">
        <ele>1938</ele>
        <time>2019-05-11T12:03:37.256Z</time>
      </trkpt>
      <trkpt lat="44.12582" lon="7.00578">
        <ele>1938</ele>
        <time>2019-05-11T12:03:42.241Z</time>
      </trkpt>
      <trkpt lat="44.12581" lon="7.00585">
        <ele>1938</ele>
        <time>2019-05-11T12:03:47.236Z</time>
      </trkpt>
      <trkpt lat="44.12579" lon="7.00589">
        <ele>1938</ele>
        <time>2019-05-11T12:03:52.225Z</time>
      </trkpt>
      <trkpt lat="44.12577" lon="7.00593">
        <ele>1938</ele>
        <time>2019-05-11T12:03:56.254Z</time>
      </trkpt>
      <trkpt lat="44.12573" lon="7.00595">
        <ele>1938</ele>
        <time>2019-05-11T12:04:01.247Z</time>
      </trkpt>
      <trkpt lat="44.12569" lon="7.00593">
        <ele>1938</ele>
        <time>2019-05-11T12:04:06.262Z</time>
      </trkpt>
      <trkpt lat="44.12566" lon="7.00594">
        <ele>1938</ele>
        <time>2019-05-11T12:04:11.260Z</time>
      </trkpt>
      <trkpt lat="44.12563" lon="7.00591">
        <ele>1938</ele>
        <time>2019-05-11T12:04:16.239Z</time>
      </trkpt>
      <trkpt lat="44.12558" lon="7.00588">
        <ele>1938</ele>
        <time>2019-05-11T12:04:21.239Z</time>
      </trkpt>
      <trkpt lat="44.12555" lon="7.00586">
        <ele>1938</ele>
        <time>2019-05-11T12:04:26.238Z</time>
      </trkpt>
      <trkpt lat="44.12552" lon="7.00584">
        <ele>1938</ele>
        <time>2019-05-11T12:04:31.240Z</time>
      </trkpt>
      <trkpt lat="44.12549" lon="7.00578">
        <ele>1938</ele>
        <time>2019-05-11T12:04:36.265Z</time>
      </trkpt>
      <trkpt lat="44.12544" lon="7.00574">
        <ele>1938</ele>
        <time>2019-05-11T12:04:41.241Z</time>
      </trkpt>
      <trkpt lat="44.1254" lon="7.00569">
        <ele>1936</ele>
        <time>2019-05-11T12:04:46.238Z</time>
      </trkpt>
      <trkpt lat="44.12535" lon="7.00567">
        <ele>1936</ele>
        <time>2019-05-11T12:04:51.244Z</time>
      </trkpt>
      <trkpt lat="44.12531" lon="7.00564">
        <ele>1936</ele>
        <time>2019-05-11T12:04:56.235Z</time>
      </trkpt>
      <trkpt lat="44.12528" lon="7.00562">
        <ele>1936</ele>
        <time>2019-05-11T12:05:01.236Z</time>
      </trkpt>
      <trkpt lat="44.12525" lon="7.0056">
        <ele>1936</ele>
        <time>2019-05-11T12:05:06.224Z</time>
      </trkpt>
      <trkpt lat="44.12522" lon="7.00557">
        <ele>1936</ele>
        <time>2019-05-11T12:05:11.213Z</time>
      </trkpt>
      <trkpt lat="44.12517" lon="7.00555">
        <ele>1936</ele>
        <time>2019-05-11T12:05:16.214Z</time>
      </trkpt>
      <trkpt lat="44.12511" lon="7.00552">
        <ele>1948</ele>
        <time>2019-05-11T12:05:21.224Z</time>
      </trkpt>
      <trkpt lat="44.12506" lon="7.00549">
        <ele>1948</ele>
        <time>2019-05-11T12:05:25.242Z</time>
      </trkpt>
      <trkpt lat="44.125" lon="7.00545">
        <ele>1948</ele>
        <time>2019-05-11T12:05:30.249Z</time>
      </trkpt>
      <trkpt lat="44.12495" lon="7.00538">
        <ele>1940</ele>
        <time>2019-05-11T12:05:35.229Z</time>
      </trkpt>
      <trkpt lat="44.12493" lon="7.00533">
        <ele>1940</ele>
        <time>2019-05-11T12:05:40.239Z</time>
      </trkpt>
      <trkpt lat="44.12492" lon="7.00529">
        <ele>1940</ele>
        <time>2019-05-11T12:05:45.241Z</time>
      </trkpt>
      <trkpt lat="44.12488" lon="7.00525">
        <ele>1940</ele>
        <time>2019-05-11T12:05:50.266Z</time>
      </trkpt>
      <trkpt lat="44.12484" lon="7.00518">
        <ele>1948</ele>
        <time>2019-05-11T12:05:55.238Z</time>
      </trkpt>
      <trkpt lat="44.1248" lon="7.00513">
        <ele>1940</ele>
        <time>2019-05-11T12:06:00.236Z</time>
      </trkpt>
      <trkpt lat="44.12479" lon="7.00505">
        <ele>1940</ele>
        <time>2019-05-11T12:06:04.317Z</time>
      </trkpt>
      <trkpt lat="44.12476" lon="7.00502">
        <ele>1940</ele>
        <time>2019-05-11T12:06:09.262Z</time>
      </trkpt>
      <trkpt lat="44.12474" lon="7.005">
        <ele>1940</ele>
        <time>2019-05-11T12:06:14.237Z</time>
      </trkpt>
      <trkpt lat="44.12471" lon="7.00498">
        <ele>1940</ele>
        <time>2019-05-11T12:06:18.264Z</time>
      </trkpt>
      <trkpt lat="44.12466" lon="7.00495">
        <ele>1940</ele>
        <time>2019-05-11T12:06:23.259Z</time>
      </trkpt>
      <trkpt lat="44.12461" lon="7.00493">
        <ele>1940</ele>
        <time>2019-05-11T12:06:28.289Z</time>
      </trkpt>
      <trkpt lat="44.12456" lon="7.0049">
        <ele>1945</ele>
        <time>2019-05-11T12:06:33.249Z</time>
      </trkpt>
      <trkpt lat="44.12451" lon="7.00489">
        <ele>1945</ele>
        <time>2019-05-11T12:06:38.290Z</time>
      </trkpt>
      <trkpt lat="44.12444" lon="7.00479">
        <ele>1940</ele>
        <time>2019-05-11T12:06:58.236Z</time>
      </trkpt>
      <trkpt lat="44.12444" lon="7.00479">
        <ele>1940</ele>
        <time>2019-05-11T12:07:03.239Z</time>
      </trkpt>
      <trkpt lat="44.12444" lon="7.00479">
        <ele>1940</ele>
        <time>2019-05-11T12:07:08.235Z</time>
      </trkpt>
      <trkpt lat="44.12441" lon="7.00477">
        <ele>1940</ele>
        <time>2019-05-11T12:07:13.236Z</time>
      </trkpt>
      <trkpt lat="44.12436" lon="7.00476">
        <ele>1940</ele>
        <time>2019-05-11T12:07:18.248Z</time>
      </trkpt>
      <trkpt lat="44.12431" lon="7.00475">
        <ele>1940</ele>
        <time>2019-05-11T12:07:23.239Z</time>
      </trkpt>
      <trkpt lat="44.12427" lon="7.00474">
        <ele>1938</ele>
        <time>2019-05-11T12:07:27.265Z</time>
      </trkpt>
      <trkpt lat="44.12422" lon="7.00472">
        <ele>1938</ele>
        <time>2019-05-11T12:07:32.232Z</time>
      </trkpt>
      <trkpt lat="44.12417" lon="7.00469">
        <ele>1938</ele>
        <time>2019-05-11T12:07:37.239Z</time>
      </trkpt>
      <trkpt lat="44.12412" lon="7.00468">
        <ele>1938</ele>
        <time>2019-05-11T12:07:42.237Z</time>
      </trkpt>
      <trkpt lat="44.12406" lon="7.00465">
        <ele>1938</ele>
        <time>2019-05-11T12:07:47.285Z</time>
      </trkpt>
      <trkpt lat="44.12401" lon="7.00461">
        <ele>1947</ele>
        <time>2019-05-11T12:07:52.235Z</time>
      </trkpt>
      <trkpt lat="44.12396" lon="7.00458">
        <ele>1938</ele>
        <time>2019-05-11T12:07:57.262Z</time>
      </trkpt>
      <trkpt lat="44.12392" lon="7.00456">
        <ele>1938</ele>
        <time>2019-05-11T12:08:02.235Z</time>
      </trkpt>
      <trkpt lat="44.12386" lon="7.00455">
        <ele>1938</ele>
        <time>2019-05-11T12:08:07.238Z</time>
      </trkpt>
      <trkpt lat="44.12382" lon="7.00451">
        <ele>1938</ele>
        <time>2019-05-11T12:08:12.230Z</time>
      </trkpt>
      <trkpt lat="44.12378" lon="7.0045">
        <ele>1938</ele>
        <time>2019-05-11T12:08:16.295Z</time>
      </trkpt>
      <trkpt lat="44.12373" lon="7.00448">
        <ele>1944</ele>
        <time>2019-05-11T12:08:21.221Z</time>
      </trkpt>
      <trkpt lat="44.12369" lon="7.00445">
        <ele>1944</ele>
        <time>2019-05-11T12:08:26.236Z</time>
      </trkpt>
      <trkpt lat="44.12366" lon="7.00443">
        <ele>1944</ele>
        <time>2019-05-11T12:08:30.251Z</time>
      </trkpt>
      <trkpt lat="44.1236" lon="7.0044">
        <ele>1944</ele>
        <time>2019-05-11T12:08:35.235Z</time>
      </trkpt>
      <trkpt lat="44.12357" lon="7.00438">
        <ele>1944</ele>
        <time>2019-05-11T12:08:40.235Z</time>
      </trkpt>
      <trkpt lat="44.12352" lon="7.00436">
        <ele>1944</ele>
        <time>2019-05-11T12:08:44.241Z</time>
      </trkpt>
      <trkpt lat="44.12346" lon="7.00435">
        <ele>1951</ele>
        <time>2019-05-11T12:08:49.259Z</time>
      </trkpt>
      <trkpt lat="44.12341" lon="7.00433">
        <ele>1951</ele>
        <time>2019-05-11T12:08:54.236Z</time>
      </trkpt>
      <trkpt lat="44.12338" lon="7.00433">
        <ele>1951</ele>
        <time>2019-05-11T12:08:59.221Z</time>
      </trkpt>
      <trkpt lat="44.12334" lon="7.00432">
        <ele>1951</ele>
        <time>2019-05-11T12:09:03.238Z</time>
      </trkpt>
      <trkpt lat="44.12328" lon="7.00431">
        <ele>1951</ele>
        <time>2019-05-11T12:09:08.233Z</time>
      </trkpt>
      <trkpt lat="44.12324" lon="7.00432">
        <ele>1951</ele>
        <time>2019-05-11T12:09:13.266Z</time>
      </trkpt>
      <trkpt lat="44.12319" lon="7.00432">
        <ele>1946</ele>
        <time>2019-05-11T12:09:18.232Z</time>
      </trkpt>
      <trkpt lat="44.12317" lon="7.00432">
        <ele>1946</ele>
        <time>2019-05-11T12:09:22.262Z</time>
      </trkpt>
      <trkpt lat="44.12312" lon="7.00432">
        <ele>1946</ele>
        <time>2019-05-11T12:09:27.234Z</time>
      </trkpt>
      <trkpt lat="44.12307" lon="7.00433">
        <ele>1946</ele>
        <time>2019-05-11T12:09:32.272Z</time>
      </trkpt>
      <trkpt lat="44.12302" lon="7.00435">
        <ele>1946</ele>
        <time>2019-05-11T12:09:37.233Z</time>
      </trkpt>
      <trkpt lat="44.12296" lon="7.00436">
        <ele>1946</ele>
        <time>2019-05-11T12:09:42.230Z</time>
      </trkpt>
      <trkpt lat="44.12291" lon="7.00439">
        <ele>1942</ele>
        <time>2019-05-11T12:09:47.241Z</time>
      </trkpt>
      <trkpt lat="44.12286" lon="7.00439">
        <ele>1942</ele>
        <time>2019-05-11T12:09:52.217Z</time>
      </trkpt>
      <trkpt lat="44.12281" lon="7.00441">
        <ele>1942</ele>
        <time>2019-05-11T12:09:56.256Z</time>
      </trkpt>
      <trkpt lat="44.12276" lon="7.00442">
        <ele>1942</ele>
        <time>2019-05-11T12:10:01.261Z</time>
      </trkpt>
      <trkpt lat="44.12271" lon="7.00444">
        <ele>1942</ele>
        <time>2019-05-11T12:10:06.227Z</time>
      </trkpt>
      <trkpt lat="44.12266" lon="7.00448">
        <ele>1942</ele>
        <time>2019-05-11T12:10:11.223Z</time>
      </trkpt>
      <trkpt lat="44.12266" lon="7.00448">
        <ele>1942</ele>
        <time>2019-05-11T12:10:16.243Z</time>
      </trkpt>
      <trkpt lat="44.12267" lon="7.00449">
        <ele>1942</ele>
        <time>2019-05-11T12:10:21.231Z</time>
      </trkpt>
      <trkpt lat="44.12264" lon="7.00453">
        <ele>1935</ele>
        <time>2019-05-11T12:10:26.233Z</time>
      </trkpt>
      <trkpt lat="44.1226" lon="7.00456">
        <ele>1935</ele>
        <time>2019-05-11T12:10:31.221Z</time>
      </trkpt>
      <trkpt lat="44.12256" lon="7.0046">
        <ele>1946</ele>
        <time>2019-05-11T12:10:35.234Z</time>
      </trkpt>
      <trkpt lat="44.12249" lon="7.00464">
        <ele>1946</ele>
        <time>2019-05-11T12:10:40.229Z</time>
      </trkpt>
      <trkpt lat="44.12244" lon="7.00468">
        <ele>1946</ele>
        <time>2019-05-11T12:10:45.253Z</time>
      </trkpt>
      <trkpt lat="44.1224" lon="7.00472">
        <ele>1946</ele>
        <time>2019-05-11T12:10:50.252Z</time>
      </trkpt>
      <trkpt lat="44.12235" lon="7.00475">
        <ele>1942</ele>
        <time>2019-05-11T12:10:55.230Z</time>
      </trkpt>
      <trkpt lat="44.12232" lon="7.00478">
        <ele>1942</ele>
        <time>2019-05-11T12:10:59.257Z</time>
      </trkpt>
      <trkpt lat="44.12228" lon="7.00481">
        <ele>1942</ele>
        <time>2019-05-11T12:11:04.218Z</time>
      </trkpt>
      <trkpt lat="44.12225" lon="7.00485">
        <ele>1942</ele>
        <time>2019-05-11T12:11:08.249Z</time>
      </trkpt>
      <trkpt lat="44.12221" lon="7.00489">
        <ele>1953</ele>
        <time>2019-05-11T12:11:13.233Z</time>
      </trkpt>
      <trkpt lat="44.12215" lon="7.0049">
        <ele>1953</ele>
        <time>2019-05-11T12:11:18.231Z</time>
      </trkpt>
      <trkpt lat="44.12212" lon="7.00493">
        <ele>1953</ele>
        <time>2019-05-11T12:11:22.235Z</time>
      </trkpt>
      <trkpt lat="44.12206" lon="7.00496">
        <ele>1945</ele>
        <time>2019-05-11T12:11:27.233Z</time>
      </trkpt>
      <trkpt lat="44.12201" lon="7.00496">
        <ele>1945</ele>
        <time>2019-05-11T12:11:32.229Z</time>
      </trkpt>
      <trkpt lat="44.12197" lon="7.00498">
        <ele>1945</ele>
        <time>2019-05-11T12:11:37.233Z</time>
      </trkpt>
      <trkpt lat="44.12193" lon="7.00502">
        <ele>1945</ele>
        <time>2019-05-11T12:11:42.233Z</time>
      </trkpt>
      <trkpt lat="44.12187" lon="7.00503">
        <ele>1945</ele>
        <time>2019-05-11T12:11:47.234Z</time>
      </trkpt>
      <trkpt lat="44.12183" lon="7.00505">
        <ele>1945</ele>
        <time>2019-05-11T12:11:52.257Z</time>
      </trkpt>
      <trkpt lat="44.12176" lon="7.00509">
        <ele>1941</ele>
        <time>2019-05-11T12:11:57.230Z</time>
      </trkpt>
      <trkpt lat="44.12173" lon="7.00511">
        <ele>1941</ele>
        <time>2019-05-11T12:12:01.248Z</time>
      </trkpt>
      <trkpt lat="44.12169" lon="7.00515">
        <ele>1952</ele>
        <time>2019-05-11T12:12:06.229Z</time>
      </trkpt>
      <trkpt lat="44.12165" lon="7.00516">
        <ele>1952</ele>
        <time>2019-05-11T12:12:11.231Z</time>
      </trkpt>
      <trkpt lat="44.12158" lon="7.00518">
        <ele>1952</ele>
        <time>2019-05-11T12:12:16.230Z</time>
      </trkpt>
      <trkpt lat="44.12152" lon="7.00523">
        <ele>1952</ele>
        <time>2019-05-11T12:12:21.233Z</time>
      </trkpt>
      <trkpt lat="44.12147" lon="7.00525">
        <ele>1952</ele>
        <time>2019-05-11T12:12:26.233Z</time>
      </trkpt>
      <trkpt lat="44.12144" lon="7.00524">
        <ele>1952</ele>
        <time>2019-05-11T12:12:30.260Z</time>
      </trkpt>
      <trkpt lat="44.12139" lon="7.00525">
        <ele>1952</ele>
        <time>2019-05-11T12:12:35.236Z</time>
      </trkpt>
      <trkpt lat="44.12135" lon="7.00527">
        <ele>1952</ele>
        <time>2019-05-11T12:12:40.230Z</time>
      </trkpt>
      <trkpt lat="44.1213" lon="7.0053">
        <ele>1952</ele>
        <time>2019-05-11T12:12:45.233Z</time>
      </trkpt>
      <trkpt lat="44.12126" lon="7.00531">
        <ele>1952</ele>
        <time>2019-05-11T12:12:49.250Z</time>
      </trkpt>
      <trkpt lat="44.12122" lon="7.00533">
        <ele>1949</ele>
        <time>2019-05-11T12:12:54.244Z</time>
      </trkpt>
      <trkpt lat="44.12118" lon="7.00534">
        <ele>1949</ele>
        <time>2019-05-11T12:12:59.247Z</time>
      </trkpt>
      <trkpt lat="44.12115" lon="7.00536">
        <ele>1949</ele>
        <time>2019-05-11T12:13:03.297Z</time>
      </trkpt>
      <trkpt lat="44.12109" lon="7.00537">
        <ele>1949</ele>
        <time>2019-05-11T12:13:08.231Z</time>
      </trkpt>
      <trkpt lat="44.12107" lon="7.0054">
        <ele>1949</ele>
        <time>2019-05-11T12:13:13.261Z</time>
      </trkpt>
      <trkpt lat="44.12104" lon="7.00542">
        <ele>1959</ele>
        <time>2019-05-11T12:13:18.229Z</time>
      </trkpt>
      <trkpt lat="44.121" lon="7.00543">
        <ele>1959</ele>
        <time>2019-05-11T12:13:24.219Z</time>
      </trkpt>
      <trkpt lat="44.12097" lon="7.00544">
        <ele>1954</ele>
        <time>2019-05-11T12:13:29.233Z</time>
      </trkpt>
      <trkpt lat="44.12093" lon="7.00545">
        <ele>1954</ele>
        <time>2019-05-11T12:13:33.254Z</time>
      </trkpt>
      <trkpt lat="44.1209" lon="7.00546">
        <ele>1954</ele>
        <time>2019-05-11T12:13:38.252Z</time>
      </trkpt>
      <trkpt lat="44.12085" lon="7.00547">
        <ele>1954</ele>
        <time>2019-05-11T12:13:43.207Z</time>
      </trkpt>
      <trkpt lat="44.1208" lon="7.00549">
        <ele>1954</ele>
        <time>2019-05-11T12:13:48.228Z</time>
      </trkpt>
      <trkpt lat="44.12075" lon="7.00552">
        <ele>1954</ele>
        <time>2019-05-11T12:13:53.214Z</time>
      </trkpt>
      <trkpt lat="44.12071" lon="7.00554">
        <ele>1954</ele>
        <time>2019-05-11T12:13:58.230Z</time>
      </trkpt>
      <trkpt lat="44.12065" lon="7.00557">
        <ele>1948</ele>
        <time>2019-05-11T12:14:03.261Z</time>
      </trkpt>
      <trkpt lat="44.12059" lon="7.00558">
        <ele>1948</ele>
        <time>2019-05-11T12:14:08.230Z</time>
      </trkpt>
      <trkpt lat="44.12054" lon="7.00561">
        <ele>1948</ele>
        <time>2019-05-11T12:14:13.234Z</time>
      </trkpt>
      <trkpt lat="44.12051" lon="7.00563">
        <ele>1948</ele>
        <time>2019-05-11T12:14:18.231Z</time>
      </trkpt>
      <trkpt lat="44.12046" lon="7.00566">
        <ele>1948</ele>
        <time>2019-05-11T12:14:22.253Z</time>
      </trkpt>
      <trkpt lat="44.12041" lon="7.0057">
        <ele>1952</ele>
        <time>2019-05-11T12:14:27.230Z</time>
      </trkpt>
      <trkpt lat="44.12038" lon="7.00573">
        <ele>1952</ele>
        <time>2019-05-11T12:14:31.251Z</time>
      </trkpt>
      <trkpt lat="44.12034" lon="7.00577">
        <ele>1952</ele>
        <time>2019-05-11T12:14:36.231Z</time>
      </trkpt>
      <trkpt lat="44.12032" lon="7.00578">
        <ele>1952</ele>
        <time>2019-05-11T12:14:40.250Z</time>
      </trkpt>
      <trkpt lat="44.1203" lon="7.0058">
        <ele>1952</ele>
        <time>2019-05-11T12:14:45.220Z</time>
      </trkpt>
      <trkpt lat="44.12028" lon="7.00583">
        <ele>1952</ele>
        <time>2019-05-11T12:14:49.231Z</time>
      </trkpt>
      <trkpt lat="44.12025" lon="7.00584">
        <ele>1952</ele>
        <time>2019-05-11T12:14:54.264Z</time>
      </trkpt>
      <trkpt lat="44.12022" lon="7.00587">
        <ele>1952</ele>
        <time>2019-05-11T12:14:59.226Z</time>
      </trkpt>
      <trkpt lat="44.1202" lon="7.00591">
        <ele>1952</ele>
        <time>2019-05-11T12:15:03.239Z</time>
      </trkpt>
      <trkpt lat="44.12016" lon="7.00593">
        <ele>1952</ele>
        <time>2019-05-11T12:15:08.231Z</time>
      </trkpt>
      <trkpt lat="44.12012" lon="7.00595">
        <ele>1945</ele>
        <time>2019-05-11T12:15:13.224Z</time>
      </trkpt>
      <trkpt lat="44.12008" lon="7.00597">
        <ele>1945</ele>
        <time>2019-05-11T12:15:18.229Z</time>
      </trkpt>
      <trkpt lat="44.12006" lon="7.00601">
        <ele>1953</ele>
        <time>2019-05-11T12:15:23.202Z</time>
      </trkpt>
      <trkpt lat="44.12005" lon="7.00604">
        <ele>1953</ele>
        <time>2019-05-11T12:15:28.251Z</time>
      </trkpt>
      <trkpt lat="44.12002" lon="7.00607">
        <ele>1953</ele>
        <time>2019-05-11T12:15:33.249Z</time>
      </trkpt>
      <trkpt lat="44.11998" lon="7.00608">
        <ele>1953</ele>
        <time>2019-05-11T12:15:38.225Z</time>
      </trkpt>
      <trkpt lat="44.11994" lon="7.0061">
        <ele>1953</ele>
        <time>2019-05-11T12:15:43.223Z</time>
      </trkpt>
      <trkpt lat="44.11989" lon="7.00613">
        <ele>1953</ele>
        <time>2019-05-11T12:15:48.226Z</time>
      </trkpt>
      <trkpt lat="44.11987" lon="7.00617">
        <ele>1953</ele>
        <time>2019-05-11T12:15:52.237Z</time>
      </trkpt>
      <trkpt lat="44.11984" lon="7.00619">
        <ele>1945</ele>
        <time>2019-05-11T12:15:57.246Z</time>
      </trkpt>
      <trkpt lat="44.11981" lon="7.00621">
        <ele>1945</ele>
        <time>2019-05-11T12:16:02.229Z</time>
      </trkpt>
      <trkpt lat="44.11977" lon="7.00625">
        <ele>1951</ele>
        <time>2019-05-11T12:16:07.248Z</time>
      </trkpt>
      <trkpt lat="44.11974" lon="7.00628">
        <ele>1951</ele>
        <time>2019-05-11T12:16:12.219Z</time>
      </trkpt>
      <trkpt lat="44.11972" lon="7.00629">
        <ele>1951</ele>
        <time>2019-05-11T12:16:17.224Z</time>
      </trkpt>
      <trkpt lat="44.1197" lon="7.00631">
        <ele>1951</ele>
        <time>2019-05-11T12:16:22.268Z</time>
      </trkpt>
      <trkpt lat="44.11969" lon="7.00632">
        <ele>1951</ele>
        <time>2019-05-11T12:16:27.219Z</time>
      </trkpt>
      <trkpt lat="44.11968" lon="7.00636">
        <ele>1951</ele>
        <time>2019-05-11T12:16:36.225Z</time>
      </trkpt>
      <trkpt lat="44.11968" lon="7.00637">
        <ele>1951</ele>
        <time>2019-05-11T12:16:41.251Z</time>
      </trkpt>
      <trkpt lat="44.11965" lon="7.00641">
        <ele>1951</ele>
        <time>2019-05-11T12:16:46.223Z</time>
      </trkpt>
      <trkpt lat="44.11965" lon="7.00642">
        <ele>1951</ele>
        <time>2019-05-11T12:16:51.276Z</time>
      </trkpt>
      <trkpt lat="44.11963" lon="7.00646">
        <ele>1951</ele>
        <time>2019-05-11T12:16:56.226Z</time>
      </trkpt>
      <trkpt lat="44.11962" lon="7.00649">
        <ele>1951</ele>
        <time>2019-05-11T12:17:00.236Z</time>
      </trkpt>
      <trkpt lat="44.11956" lon="7.00651">
        <ele>1945</ele>
        <time>2019-05-11T12:17:05.240Z</time>
      </trkpt>
      <trkpt lat="44.11952" lon="7.00652">
        <ele>1945</ele>
        <time>2019-05-11T12:17:10.223Z</time>
      </trkpt>
      <trkpt lat="44.11948" lon="7.00654">
        <ele>1954</ele>
        <time>2019-05-11T12:17:15.225Z</time>
      </trkpt>
      <trkpt lat="44.11944" lon="7.00657">
        <ele>1954</ele>
        <time>2019-05-11T12:17:20.234Z</time>
      </trkpt>
      <trkpt lat="44.1194" lon="7.00657">
        <ele>1954</ele>
        <time>2019-05-11T12:17:25.260Z</time>
      </trkpt>
      <trkpt lat="44.11936" lon="7.0066">
        <ele>1954</ele>
        <time>2019-05-11T12:17:30.217Z</time>
      </trkpt>
      <trkpt lat="44.11934" lon="7.00662">
        <ele>1954</ele>
        <time>2019-05-11T12:17:34.227Z</time>
      </trkpt>
      <trkpt lat="44.11931" lon="7.00663">
        <ele>1954</ele>
        <time>2019-05-11T12:17:44.237Z</time>
      </trkpt>
      <trkpt lat="44.11927" lon="7.00665">
        <ele>1952</ele>
        <time>2019-05-11T12:17:49.221Z</time>
      </trkpt>
      <trkpt lat="44.11927" lon="7.00664">
        <ele>1952</ele>
        <time>2019-05-11T12:17:54.218Z</time>
      </trkpt>
      <trkpt lat="44.11926" lon="7.00665">
        <ele>1952</ele>
        <time>2019-05-11T12:17:59.215Z</time>
      </trkpt>
      <trkpt lat="44.11923" lon="7.00667">
        <ele>1952</ele>
        <time>2019-05-11T12:18:03.224Z</time>
      </trkpt>
      <trkpt lat="44.11919" lon="7.00671">
        <ele>1952</ele>
        <time>2019-05-11T12:18:08.207Z</time>
      </trkpt>
      <trkpt lat="44.11914" lon="7.00676">
        <ele>1952</ele>
        <time>2019-05-11T12:18:13.221Z</time>
      </trkpt>
      <trkpt lat="44.11911" lon="7.00677">
        <ele>1952</ele>
        <time>2019-05-11T12:18:18.247Z</time>
      </trkpt>
      <trkpt lat="44.11907" lon="7.00681">
        <ele>1964</ele>
        <time>2019-05-11T12:18:23.224Z</time>
      </trkpt>
      <trkpt lat="44.11905" lon="7.00687">
        <ele>1964</ele>
        <time>2019-05-11T12:18:28.214Z</time>
      </trkpt>
      <trkpt lat="44.11902" lon="7.00691">
        <ele>1960</ele>
        <time>2019-05-11T12:18:32.253Z</time>
      </trkpt>
      <trkpt lat="44.11901" lon="7.00695">
        <ele>1960</ele>
        <time>2019-05-11T12:18:37.220Z</time>
      </trkpt>
      <trkpt lat="44.119" lon="7.00696">
        <ele>1960</ele>
        <time>2019-05-11T12:18:42.245Z</time>
      </trkpt>
      <trkpt lat="44.11899" lon="7.00697">
        <ele>1960</ele>
        <time>2019-05-11T12:18:47.221Z</time>
      </trkpt>
      <trkpt lat="44.11894" lon="7.00702">
        <ele>1960</ele>
        <time>2019-05-11T12:18:57.222Z</time>
      </trkpt>
      <trkpt lat="44.11893" lon="7.00704">
        <ele>1960</ele>
        <time>2019-05-11T12:19:02.228Z</time>
      </trkpt>
      <trkpt lat="44.11891" lon="7.00706">
        <ele>1960</ele>
        <time>2019-05-11T12:19:07.219Z</time>
      </trkpt>
      <trkpt lat="44.11891" lon="7.00708">
        <ele>1960</ele>
        <time>2019-05-11T12:19:12.224Z</time>
      </trkpt>
      <trkpt lat="44.11888" lon="7.0071">
        <ele>1964</ele>
        <time>2019-05-11T12:19:17.224Z</time>
      </trkpt>
      <trkpt lat="44.11886" lon="7.00709">
        <ele>1964</ele>
        <time>2019-05-11T12:20:01.221Z</time>
      </trkpt>
      <trkpt lat="44.11886" lon="7.00709">
        <ele>1964</ele>
        <time>2019-05-11T12:20:06.226Z</time>
      </trkpt>
      <trkpt lat="44.11884" lon="7.00712">
        <ele>1964</ele>
        <time>2019-05-11T12:20:11.268Z</time>
      </trkpt>
      <trkpt lat="44.1188" lon="7.00714">
        <ele>1964</ele>
        <time>2019-05-11T12:20:16.216Z</time>
      </trkpt>
      <trkpt lat="44.11877" lon="7.00716">
        <ele>1964</ele>
        <time>2019-05-11T12:20:20.248Z</time>
      </trkpt>
      <trkpt lat="44.11873" lon="7.0072">
        <ele>1958</ele>
        <time>2019-05-11T12:20:25.222Z</time>
      </trkpt>
      <trkpt lat="44.11871" lon="7.00721">
        <ele>1958</ele>
        <time>2019-05-11T12:20:30.226Z</time>
      </trkpt>
      <trkpt lat="44.1187" lon="7.00721">
        <ele>1958</ele>
        <time>2019-05-11T12:20:35.224Z</time>
      </trkpt>
      <trkpt lat="44.11867" lon="7.00723">
        <ele>1958</ele>
        <time>2019-05-11T12:20:39.238Z</time>
      </trkpt>
      <trkpt lat="44.11863" lon="7.00726">
        <ele>1958</ele>
        <time>2019-05-11T12:20:44.244Z</time>
      </trkpt>
      <trkpt lat="44.11862" lon="7.00727">
        <ele>1958</ele>
        <time>2019-05-11T12:20:49.244Z</time>
      </trkpt>
      <trkpt lat="44.11858" lon="7.00727">
        <ele>1958</ele>
        <time>2019-05-11T12:20:54.221Z</time>
      </trkpt>
      <trkpt lat="44.11854" lon="7.00729">
        <ele>1958</ele>
        <time>2019-05-11T12:20:59.223Z</time>
      </trkpt>
      <trkpt lat="44.11851" lon="7.00732">
        <ele>1958</ele>
        <time>2019-05-11T12:21:04.219Z</time>
      </trkpt>
      <trkpt lat="44.1185" lon="7.00732">
        <ele>1958</ele>
        <time>2019-05-11T12:21:34.228Z</time>
      </trkpt>
      <trkpt lat="44.11853" lon="7.00736">
        <ele>1958</ele>
        <time>2019-05-11T12:21:39.224Z</time>
      </trkpt>
      <trkpt lat="44.11856" lon="7.00738">
        <ele>1963</ele>
        <time>2019-05-11T12:21:43.308Z</time>
      </trkpt>
      <trkpt lat="44.11856" lon="7.00743">
        <ele>1963</ele>
        <time>2019-05-11T12:21:48.243Z</time>
      </trkpt>
      <trkpt lat="44.11858" lon="7.00748">
        <ele>1963</ele>
        <time>2019-05-11T12:21:53.220Z</time>
      </trkpt>
      <trkpt lat="44.11861" lon="7.00751">
        <ele>1963</ele>
        <time>2019-05-11T12:21:58.221Z</time>
      </trkpt>
      <trkpt lat="44.11861" lon="7.00755">
        <ele>1963</ele>
        <time>2019-05-11T12:22:03.221Z</time>
      </trkpt>
      <trkpt lat="44.11862" lon="7.00759">
        <ele>1963</ele>
        <time>2019-05-11T12:22:07.244Z</time>
      </trkpt>
      <trkpt lat="44.11863" lon="7.00764">
        <ele>1966</ele>
        <time>2019-05-11T12:22:12.239Z</time>
      </trkpt>
      <trkpt lat="44.11864" lon="7.00769">
        <ele>1966</ele>
        <time>2019-05-11T12:26:04.218Z</time>
      </trkpt>
      <trkpt lat="44.11864" lon="7.00765">
        <ele>1966</ele>
        <time>2019-05-11T12:26:09.211Z</time>
      </trkpt>
      <trkpt lat="44.11865" lon="7.00757">
        <ele>1963</ele>
        <time>2019-05-11T12:26:14.225Z</time>
      </trkpt>
      <trkpt lat="44.11864" lon="7.00747">
        <ele>1963</ele>
        <time>2019-05-11T12:26:19.221Z</time>
      </trkpt>
      <trkpt lat="44.1186" lon="7.00738">
        <ele>1963</ele>
        <time>2019-05-11T12:26:24.218Z</time>
      </trkpt>
      <trkpt lat="44.11851" lon="7.00729">
        <ele>1958</ele>
        <time>2019-05-11T12:27:08.219Z</time>
      </trkpt>
      <trkpt lat="44.11851" lon="7.00729">
        <ele>1958</ele>
        <time>2019-05-11T12:27:13.215Z</time>
      </trkpt>
      <trkpt lat="44.11851" lon="7.00729">
        <ele>1958</ele>
        <time>2019-05-11T12:27:18.218Z</time>
      </trkpt>
      <trkpt lat="44.11851" lon="7.00727">
        <ele>1958</ele>
        <time>2019-05-11T12:27:22.226Z</time>
      </trkpt>
      <trkpt lat="44.11845" lon="7.00725">
        <ele>1952</ele>
        <time>2019-05-11T12:27:27.219Z</time>
      </trkpt>
      <trkpt lat="44.11838" lon="7.00723">
        <ele>1952</ele>
        <time>2019-05-11T12:27:32.243Z</time>
      </trkpt>
      <trkpt lat="44.11832" lon="7.00721">
        <ele>1952</ele>
        <time>2019-05-11T12:27:37.223Z</time>
      </trkpt>
      <trkpt lat="44.11826" lon="7.00717">
        <ele>1952</ele>
        <time>2019-05-11T12:27:42.219Z</time>
      </trkpt>
      <trkpt lat="44.11823" lon="7.00712">
        <ele>1952</ele>
        <time>2019-05-11T12:27:46.238Z</time>
      </trkpt>
      <trkpt lat="44.1182" lon="7.00712">
        <ele>1952</ele>
        <time>2019-05-11T12:28:01.218Z</time>
      </trkpt>
      <trkpt lat="44.1182" lon="7.00707">
        <ele>1945</ele>
        <time>2019-05-11T12:28:06.238Z</time>
      </trkpt>
      <trkpt lat="44.11817" lon="7.00703">
        <ele>1944</ele>
        <time>2019-05-11T12:28:11.220Z</time>
      </trkpt>
      <trkpt lat="44.11814" lon="7.00702">
        <ele>1944</ele>
        <time>2019-05-11T12:28:16.236Z</time>
      </trkpt>
      <trkpt lat="44.11811" lon="7.00699">
        <ele>1944</ele>
        <time>2019-05-11T12:28:21.239Z</time>
      </trkpt>
      <trkpt lat="44.11798" lon="7.00691">
        <ele>1944</ele>
        <time>2019-05-11T12:29:41.218Z</time>
      </trkpt>
      <trkpt lat="44.11797" lon="7.0069">
        <ele>1944</ele>
        <time>2019-05-11T12:29:46.217Z</time>
      </trkpt>
      <trkpt lat="44.11796" lon="7.0069">
        <ele>1944</ele>
        <time>2019-05-11T12:29:51.214Z</time>
      </trkpt>
      <trkpt lat="44.11795" lon="7.00691">
        <ele>1944</ele>
        <time>2019-05-11T12:29:56.217Z</time>
      </trkpt>
      <trkpt lat="44.11792" lon="7.0069">
        <ele>1944</ele>
        <time>2019-05-11T12:30:00.252Z</time>
      </trkpt>
      <trkpt lat="44.11787" lon="7.00689">
        <ele>1950</ele>
        <time>2019-05-11T12:30:05.202Z</time>
      </trkpt>
      <trkpt lat="44.11784" lon="7.00685">
        <ele>1950</ele>
        <time>2019-05-11T12:30:09.219Z</time>
      </trkpt>
      <trkpt lat="44.1178" lon="7.00682">
        <ele>1950</ele>
        <time>2019-05-11T12:30:14.228Z</time>
      </trkpt>
      <trkpt lat="44.11776" lon="7.00679">
        <ele>1940</ele>
        <time>2019-05-11T12:30:18.275Z</time>
      </trkpt>
      <trkpt lat="44.11767" lon="7.00673">
        <ele>1940</ele>
        <time>2019-05-11T12:30:33.214Z</time>
      </trkpt>
      <trkpt lat="44.11765" lon="7.00672">
        <ele>1940</ele>
        <time>2019-05-11T12:30:38.248Z</time>
      </trkpt>
      <trkpt lat="44.11758" lon="7.00668">
        <ele>1943</ele>
        <time>2019-05-11T12:30:43.234Z</time>
      </trkpt>
      <trkpt lat="44.11752" lon="7.00665">
        <ele>1943</ele>
        <time>2019-05-11T12:30:48.234Z</time>
      </trkpt>
      <trkpt lat="44.11746" lon="7.00661">
        <ele>1943</ele>
        <time>2019-05-11T12:30:53.215Z</time>
      </trkpt>
      <trkpt lat="44.11741" lon="7.00658">
        <ele>1943</ele>
        <time>2019-05-11T12:30:58.203Z</time>
      </trkpt>
      <trkpt lat="44.11738" lon="7.00655">
        <ele>1943</ele>
        <time>2019-05-11T12:31:02.240Z</time>
      </trkpt>
      <trkpt lat="44.11734" lon="7.0065">
        <ele>1934</ele>
        <time>2019-05-11T12:31:07.211Z</time>
      </trkpt>
      <trkpt lat="44.1173" lon="7.00647">
        <ele>1934</ele>
        <time>2019-05-11T12:31:11.235Z</time>
      </trkpt>
      <trkpt lat="44.11724" lon="7.00645">
        <ele>1934</ele>
        <time>2019-05-11T12:31:16.255Z</time>
      </trkpt>
      <trkpt lat="44.11719" lon="7.00641">
        <ele>1934</ele>
        <time>2019-05-11T12:31:21.216Z</time>
      </trkpt>
      <trkpt lat="44.11713" lon="7.00639">
        <ele>1934</ele>
        <time>2019-05-11T12:31:25.255Z</time>
      </trkpt>
      <trkpt lat="44.11707" lon="7.00637">
        <ele>1931</ele>
        <time>2019-05-11T12:31:30.229Z</time>
      </trkpt>
      <trkpt lat="44.11703" lon="7.00635">
        <ele>1931</ele>
        <time>2019-05-11T12:31:35.208Z</time>
      </trkpt>
      <trkpt lat="44.117" lon="7.00632">
        <ele>1931</ele>
        <time>2019-05-11T12:31:40.222Z</time>
      </trkpt>
      <trkpt lat="44.11693" lon="7.0063">
        <ele>1931</ele>
        <time>2019-05-11T12:31:45.229Z</time>
      </trkpt>
      <trkpt lat="44.1169" lon="7.00629">
        <ele>1931</ele>
        <time>2019-05-11T12:31:50.211Z</time>
      </trkpt>
      <trkpt lat="44.1169" lon="7.00628">
        <ele>1931</ele>
        <time>2019-05-11T12:32:35.218Z</time>
      </trkpt>
      <trkpt lat="44.1169" lon="7.00628">
        <ele>1931</ele>
        <time>2019-05-11T12:32:40.214Z</time>
      </trkpt>
      <trkpt lat="44.11686" lon="7.00627">
        <ele>1931</ele>
        <time>2019-05-11T12:32:45.215Z</time>
      </trkpt>
      <trkpt lat="44.11683" lon="7.00622">
        <ele>1926</ele>
        <time>2019-05-11T12:32:49.236Z</time>
      </trkpt>
      <trkpt lat="44.11678" lon="7.00618">
        <ele>1919</ele>
        <time>2019-05-11T12:32:54.228Z</time>
      </trkpt>
      <trkpt lat="44.11672" lon="7.00616">
        <ele>1919</ele>
        <time>2019-05-11T12:34:08.219Z</time>
      </trkpt>
      <trkpt lat="44.11672" lon="7.00614">
        <ele>1919</ele>
        <time>2019-05-11T12:34:13.214Z</time>
      </trkpt>
      <trkpt lat="44.11671" lon="7.00614">
        <ele>1919</ele>
        <time>2019-05-11T12:34:18.222Z</time>
      </trkpt>
      <trkpt lat="44.11668" lon="7.0061">
        <ele>1919</ele>
        <time>2019-05-11T12:34:23.216Z</time>
      </trkpt>
      <trkpt lat="44.11664" lon="7.00608">
        <ele>1919</ele>
        <time>2019-05-11T12:34:27.243Z</time>
      </trkpt>
      <trkpt lat="44.11659" lon="7.00605">
        <ele>1919</ele>
        <time>2019-05-11T12:34:32.213Z</time>
      </trkpt>
      <trkpt lat="44.11655" lon="7.00605">
        <ele>1919</ele>
        <time>2019-05-11T12:34:36.238Z</time>
      </trkpt>
      <trkpt lat="44.1165" lon="7.00602">
        <ele>1915</ele>
        <time>2019-05-11T12:34:41.210Z</time>
      </trkpt>
      <trkpt lat="44.11644" lon="7.00597">
        <ele>1918</ele>
        <time>2019-05-11T12:34:46.213Z</time>
      </trkpt>
      <trkpt lat="44.11638" lon="7.00594">
        <ele>1918</ele>
        <time>2019-05-11T12:34:51.214Z</time>
      </trkpt>
      <trkpt lat="44.11631" lon="7.00593">
        <ele>1918</ele>
        <time>2019-05-11T12:34:56.209Z</time>
      </trkpt>
      <trkpt lat="44.11626" lon="7.0059">
        <ele>1918</ele>
        <time>2019-05-11T12:35:00.272Z</time>
      </trkpt>
      <trkpt lat="44.1162" lon="7.00588">
        <ele>1921</ele>
        <time>2019-05-11T12:35:05.211Z</time>
      </trkpt>
      <trkpt lat="44.11614" lon="7.00587">
        <ele>1921</ele>
        <time>2019-05-11T12:35:10.190Z</time>
      </trkpt>
      <trkpt lat="44.11609" lon="7.00585">
        <ele>1921</ele>
        <time>2019-05-11T12:35:15.204Z</time>
      </trkpt>
      <trkpt lat="44.11604" lon="7.00584">
        <ele>1921</ele>
        <time>2019-05-11T12:35:20.188Z</time>
      </trkpt>
      <trkpt lat="44.11599" lon="7.00583">
        <ele>1921</ele>
        <time>2019-05-11T12:35:25.188Z</time>
      </trkpt>
      <trkpt lat="44.11594" lon="7.00583">
        <ele>1918</ele>
        <time>2019-05-11T12:35:29.242Z</time>
      </trkpt>
      <trkpt lat="44.11588" lon="7.00584">
        <ele>1918</ele>
        <time>2019-05-11T12:35:34.215Z</time>
      </trkpt>
      <trkpt lat="44.11582" lon="7.00584">
        <ele>1918</ele>
        <time>2019-05-11T12:35:39.215Z</time>
      </trkpt>
      <trkpt lat="44.1158" lon="7.00583">
        <ele>1918</ele>
        <time>2019-05-11T12:35:44.213Z</time>
      </trkpt>
      <trkpt lat="44.1158" lon="7.00581">
        <ele>1918</ele>
        <time>2019-05-11T12:36:04.216Z</time>
      </trkpt>
      <trkpt lat="44.11575" lon="7.00582">
        <ele>1918</ele>
        <time>2019-05-11T12:36:08.234Z</time>
      </trkpt>
      <trkpt lat="44.11569" lon="7.00579">
        <ele>1908</ele>
        <time>2019-05-11T12:36:13.220Z</time>
      </trkpt>
      <trkpt lat="44.11566" lon="7.00579">
        <ele>1908</ele>
        <time>2019-05-11T12:36:17.225Z</time>
      </trkpt>
      <trkpt lat="44.11561" lon="7.00577">
        <ele>1908</ele>
        <time>2019-05-11T12:36:22.211Z</time>
      </trkpt>
      <trkpt lat="44.11556" lon="7.00574">
        <ele>1908</ele>
        <time>2019-05-11T12:36:27.213Z</time>
      </trkpt>
      <trkpt lat="44.11551" lon="7.00572">
        <ele>1908</ele>
        <time>2019-05-11T12:36:32.204Z</time>
      </trkpt>
      <trkpt lat="44.11545" lon="7.00571">
        <ele>1908</ele>
        <time>2019-05-11T12:36:37.212Z</time>
      </trkpt>
      <trkpt lat="44.1154" lon="7.0057">
        <ele>1900</ele>
        <time>2019-05-11T12:36:42.231Z</time>
      </trkpt>
      <trkpt lat="44.11535" lon="7.00568">
        <ele>1908</ele>
        <time>2019-05-11T12:36:46.328Z</time>
      </trkpt>
      <trkpt lat="44.11529" lon="7.00563">
        <ele>1908</ele>
        <time>2019-05-11T12:36:51.207Z</time>
      </trkpt>
      <trkpt lat="44.11525" lon="7.0056">
        <ele>1908</ele>
        <time>2019-05-11T12:36:56.216Z</time>
      </trkpt>
      <trkpt lat="44.11519" lon="7.00558">
        <ele>1908</ele>
        <time>2019-05-11T12:37:01.218Z</time>
      </trkpt>
      <trkpt lat="44.11515" lon="7.00555">
        <ele>1908</ele>
        <time>2019-05-11T12:37:06.235Z</time>
      </trkpt>
      <trkpt lat="44.11511" lon="7.00552">
        <ele>1899</ele>
        <time>2019-05-11T12:37:11.210Z</time>
      </trkpt>
      <trkpt lat="44.11506" lon="7.00549">
        <ele>1899</ele>
        <time>2019-05-11T12:37:15.255Z</time>
      </trkpt>
      <trkpt lat="44.115" lon="7.00546">
        <ele>1899</ele>
        <time>2019-05-11T12:37:20.226Z</time>
      </trkpt>
      <trkpt lat="44.11495" lon="7.00542">
        <ele>1899</ele>
        <time>2019-05-11T12:37:25.201Z</time>
      </trkpt>
      <trkpt lat="44.11491" lon="7.00537">
        <ele>1907</ele>
        <time>2019-05-11T12:37:30.212Z</time>
      </trkpt>
      <trkpt lat="44.11487" lon="7.00534">
        <ele>1907</ele>
        <time>2019-05-11T12:37:35.235Z</time>
      </trkpt>
      <trkpt lat="44.11483" lon="7.00533">
        <ele>1901</ele>
        <time>2019-05-11T12:37:40.206Z</time>
      </trkpt>
      <trkpt lat="44.11478" lon="7.0053">
        <ele>1901</ele>
        <time>2019-05-11T12:37:44.236Z</time>
      </trkpt>
      <trkpt lat="44.11473" lon="7.00525">
        <ele>1901</ele>
        <time>2019-05-11T12:37:49.211Z</time>
      </trkpt>
      <trkpt lat="44.1147" lon="7.00522">
        <ele>1901</ele>
        <time>2019-05-11T12:37:53.221Z</time>
      </trkpt>
      <trkpt lat="44.11466" lon="7.00517">
        <ele>1901</ele>
        <time>2019-05-11T12:37:58.209Z</time>
      </trkpt>
      <trkpt lat="44.11463" lon="7.00512">
        <ele>1906</ele>
        <time>2019-05-11T12:38:03.209Z</time>
      </trkpt>
      <trkpt lat="44.11459" lon="7.00507">
        <ele>1906</ele>
        <time>2019-05-11T12:38:08.201Z</time>
      </trkpt>
      <trkpt lat="44.11456" lon="7.00502">
        <ele>1897</ele>
        <time>2019-05-11T12:38:12.230Z</time>
      </trkpt>
      <trkpt lat="44.11451" lon="7.00497">
        <ele>1897</ele>
        <time>2019-05-11T12:38:17.215Z</time>
      </trkpt>
      <trkpt lat="44.11445" lon="7.00493">
        <ele>1897</ele>
        <time>2019-05-11T12:38:22.214Z</time>
      </trkpt>
      <trkpt lat="44.11441" lon="7.00487">
        <ele>1897</ele>
        <time>2019-05-11T12:38:27.213Z</time>
      </trkpt>
      <trkpt lat="44.11436" lon="7.00482">
        <ele>1900</ele>
        <time>2019-05-11T12:38:32.213Z</time>
      </trkpt>
      <trkpt lat="44.11433" lon="7.00477">
        <ele>1900</ele>
        <time>2019-05-11T12:38:37.213Z</time>
      </trkpt>
      <trkpt lat="44.11424" lon="7.0047">
        <ele>1892</ele>
        <time>2019-05-11T12:38:42.248Z</time>
      </trkpt>
      <trkpt lat="44.11419" lon="7.00466">
        <ele>1892</ele>
        <time>2019-05-11T12:38:47.207Z</time>
      </trkpt>
      <trkpt lat="44.11416" lon="7.00462">
        <ele>1892</ele>
        <time>2019-05-11T12:38:52.214Z</time>
      </trkpt>
      <trkpt lat="44.11408" lon="7.00458">
        <ele>1895</ele>
        <time>2019-05-11T12:38:57.210Z</time>
      </trkpt>
      <trkpt lat="44.11401" lon="7.00454">
        <ele>1887</ele>
        <time>2019-05-11T12:39:02.211Z</time>
      </trkpt>
      <trkpt lat="44.11387" lon="7.00449">
        <ele>1887</ele>
        <time>2019-05-11T12:39:07.209Z</time>
      </trkpt>
      <trkpt lat="44.11378" lon="7.0044">
        <ele>1887</ele>
        <time>2019-05-11T12:39:12.207Z</time>
      </trkpt>
      <trkpt lat="44.11373" lon="7.00429">
        <ele>1878</ele>
        <time>2019-05-11T12:39:17.211Z</time>
      </trkpt>
      <trkpt lat="44.11363" lon="7.00426">
        <ele>1878</ele>
        <time>2019-05-11T12:39:22.214Z</time>
      </trkpt>
      <trkpt lat="44.11351" lon="7.00424">
        <ele>1878</ele>
        <time>2019-05-11T12:39:27.208Z</time>
      </trkpt>
      <trkpt lat="44.11343" lon="7.00421">
        <ele>1867</ele>
        <time>2019-05-11T12:39:32.219Z</time>
      </trkpt>
      <trkpt lat="44.11334" lon="7.00415">
        <ele>1867</ele>
        <time>2019-05-11T12:39:37.210Z</time>
      </trkpt>
      <trkpt lat="44.11335" lon="7.00411">
        <ele>1867</ele>
        <time>2019-05-11T12:39:42.221Z</time>
      </trkpt>
      <trkpt lat="44.11332" lon="7.00408">
        <ele>1867</ele>
        <time>2019-05-11T12:39:47.210Z</time>
      </trkpt>
      <trkpt lat="44.11335" lon="7.00401">
        <ele>1870</ele>
        <time>2019-05-11T12:39:52.195Z</time>
      </trkpt>
      <trkpt lat="44.11329" lon="7.00397">
        <ele>1870</ele>
        <time>2019-05-11T12:39:56.243Z</time>
      </trkpt>
      <trkpt lat="44.11321" lon="7.00394">
        <ele>1870</ele>
        <time>2019-05-11T12:40:01.208Z</time>
      </trkpt>
      <trkpt lat="44.1132" lon="7.00394">
        <ele>1870</ele>
        <time>2019-05-11T12:40:05.215Z</time>
      </trkpt>
      <trkpt lat="44.11324" lon="7.00392">
        <ele>1870</ele>
        <time>2019-05-11T12:40:10.211Z</time>
      </trkpt>
      <trkpt lat="44.11328" lon="7.00393">
        <ele>1870</ele>
        <time>2019-05-11T12:40:15.208Z</time>
      </trkpt>
      <trkpt lat="44.11334" lon="7.00394">
        <ele>1870</ele>
        <time>2019-05-11T12:40:20.210Z</time>
      </trkpt>
      <trkpt lat="44.11335" lon="7.00389">
        <ele>1870</ele>
        <time>2019-05-11T12:40:25.206Z</time>
      </trkpt>
      <trkpt lat="44.11332" lon="7.00385">
        <ele>1870</ele>
        <time>2019-05-11T12:40:30.209Z</time>
      </trkpt>
      <trkpt lat="44.11328" lon="7.00381">
        <ele>1870</ele>
        <time>2019-05-11T12:40:35.197Z</time>
      </trkpt>
      <trkpt lat="44.11325" lon="7.00378">
        <ele>1870</ele>
        <time>2019-05-11T12:40:39.220Z</time>
      </trkpt>
      <trkpt lat="44.1132" lon="7.00374">
        <ele>1872</ele>
        <time>2019-05-11T12:40:43.256Z</time>
      </trkpt>
      <trkpt lat="44.11316" lon="7.00371">
        <ele>1864</ele>
        <time>2019-05-11T12:40:48.229Z</time>
      </trkpt>
      <trkpt lat="44.11312" lon="7.00367">
        <ele>1864</ele>
        <time>2019-05-11T12:40:53.206Z</time>
      </trkpt>
      <trkpt lat="44.11306" lon="7.00366">
        <ele>1864</ele>
        <time>2019-05-11T12:40:58.206Z</time>
      </trkpt>
      <trkpt lat="44.11302" lon="7.00364">
        <ele>1864</ele>
        <time>2019-05-11T12:41:02.238Z</time>
      </trkpt>
      <trkpt lat="44.11298" lon="7.00364">
        <ele>1864</ele>
        <time>2019-05-11T12:41:07.205Z</time>
      </trkpt>
      <trkpt lat="44.11295" lon="7.00363">
        <ele>1864</ele>
        <time>2019-05-11T12:41:11.226Z</time>
      </trkpt>
      <trkpt lat="44.1129" lon="7.00362">
        <ele>1858</ele>
        <time>2019-05-11T12:41:16.211Z</time>
      </trkpt>
      <trkpt lat="44.11286" lon="7.0036">
        <ele>1858</ele>
        <time>2019-05-11T12:41:21.210Z</time>
      </trkpt>
      <trkpt lat="44.11283" lon="7.0036">
        <ele>1858</ele>
        <time>2019-05-11T12:41:25.220Z</time>
      </trkpt>
      <trkpt lat="44.11279" lon="7.00357">
        <ele>1858</ele>
        <time>2019-05-11T12:41:30.208Z</time>
      </trkpt>
      <trkpt lat="44.11274" lon="7.00356">
        <ele>1858</ele>
        <time>2019-05-11T12:41:35.208Z</time>
      </trkpt>
      <trkpt lat="44.1127" lon="7.00353">
        <ele>1858</ele>
        <time>2019-05-11T12:41:40.229Z</time>
      </trkpt>
      <trkpt lat="44.11265" lon="7.00351">
        <ele>1858</ele>
        <time>2019-05-11T12:41:45.223Z</time>
      </trkpt>
      <trkpt lat="44.11265" lon="7.0035">
        <ele>1858</ele>
        <time>2019-05-11T12:41:50.208Z</time>
      </trkpt>
      <trkpt lat="44.11263" lon="7.00349">
        <ele>1849</ele>
        <time>2019-05-11T12:41:55.205Z</time>
      </trkpt>
      <trkpt lat="44.11261" lon="7.00346">
        <ele>1853</ele>
        <time>2019-05-11T12:42:00.235Z</time>
      </trkpt>
      <trkpt lat="44.1126" lon="7.00346">
        <ele>1853</ele>
        <time>2019-05-11T12:42:05.256Z</time>
      </trkpt>
      <trkpt lat="44.11256" lon="7.00343">
        <ele>1853</ele>
        <time>2019-05-11T12:42:10.216Z</time>
      </trkpt>
      <trkpt lat="44.11253" lon="7.00339">
        <ele>1853</ele>
        <time>2019-05-11T12:42:15.208Z</time>
      </trkpt>
      <trkpt lat="44.11249" lon="7.00338">
        <ele>1853</ele>
        <time>2019-05-11T12:42:20.220Z</time>
      </trkpt>
      <trkpt lat="44.11245" lon="7.00335">
        <ele>1853</ele>
        <time>2019-05-11T12:42:25.228Z</time>
      </trkpt>
      <trkpt lat="44.11242" lon="7.00329">
        <ele>1853</ele>
        <time>2019-05-11T12:42:30.207Z</time>
      </trkpt>
      <trkpt lat="44.1124" lon="7.00327">
        <ele>1853</ele>
        <time>2019-05-11T12:42:34.225Z</time>
      </trkpt>
      <trkpt lat="44.11237" lon="7.00324">
        <ele>1853</ele>
        <time>2019-05-11T12:42:39.197Z</time>
      </trkpt>
      <trkpt lat="44.11237" lon="7.00319">
        <ele>1853</ele>
        <time>2019-05-11T12:42:44.208Z</time>
      </trkpt>
      <trkpt lat="44.11235" lon="7.00316">
        <ele>1845</ele>
        <time>2019-05-11T12:42:49.226Z</time>
      </trkpt>
      <trkpt lat="44.11232" lon="7.00312">
        <ele>1845</ele>
        <time>2019-05-11T12:42:54.208Z</time>
      </trkpt>
      <trkpt lat="44.11229" lon="7.00305">
        <ele>1845</ele>
        <time>2019-05-11T12:42:59.210Z</time>
      </trkpt>
      <trkpt lat="44.11227" lon="7.00293">
        <ele>1845</ele>
        <time>2019-05-11T12:43:18.211Z</time>
      </trkpt>
      <trkpt lat="44.11227" lon="7.00293">
        <ele>1845</ele>
        <time>2019-05-11T12:43:23.210Z</time>
      </trkpt>
      <trkpt lat="44.11226" lon="7.00292">
        <ele>1845</ele>
        <time>2019-05-11T12:43:28.208Z</time>
      </trkpt>
      <trkpt lat="44.11225" lon="7.00288">
        <ele>1843</ele>
        <time>2019-05-11T12:43:32.225Z</time>
      </trkpt>
      <trkpt lat="44.11225" lon="7.00282">
        <ele>1843</ele>
        <time>2019-05-11T12:43:37.202Z</time>
      </trkpt>
      <trkpt lat="44.11225" lon="7.00278">
        <ele>1843</ele>
        <time>2019-05-11T12:43:41.235Z</time>
      </trkpt>
      <trkpt lat="44.11223" lon="7.00272">
        <ele>1843</ele>
        <time>2019-05-11T12:43:46.222Z</time>
      </trkpt>
      <trkpt lat="44.11224" lon="7.00265">
        <ele>1843</ele>
        <time>2019-05-11T12:43:51.205Z</time>
      </trkpt>
      <trkpt lat="44.11224" lon="7.0026">
        <ele>1836</ele>
        <time>2019-05-11T12:43:56.342Z</time>
      </trkpt>
      <trkpt lat="44.11224" lon="7.00242">
        <ele>1836</ele>
        <time>2019-05-11T12:44:30.202Z</time>
      </trkpt>
      <trkpt lat="44.11224" lon="7.00242">
        <ele>1836</ele>
        <time>2019-05-11T12:44:35.210Z</time>
      </trkpt>
      <trkpt lat="44.11224" lon="7.00241">
        <ele>1836</ele>
        <time>2019-05-11T12:44:40.206Z</time>
      </trkpt>
      <trkpt lat="44.11224" lon="7.00241">
        <ele>1836</ele>
        <time>2019-05-11T12:44:45.205Z</time>
      </trkpt>
      <trkpt lat="44.11224" lon="7.0024">
        <ele>1836</ele>
        <time>2019-05-11T12:44:50.204Z</time>
      </trkpt>
      <trkpt lat="44.11223" lon="7.00241">
        <ele>1836</ele>
        <time>2019-05-11T12:46:25.200Z</time>
      </trkpt>
      <trkpt lat="44.11222" lon="7.00238">
        <ele>1836</ele>
        <time>2019-05-11T12:46:30.201Z</time>
      </trkpt>
      <trkpt lat="44.1122" lon="7.00231">
        <ele>1830</ele>
        <time>2019-05-11T12:46:35.237Z</time>
      </trkpt>
      <trkpt lat="44.11219" lon="7.00226">
        <ele>1830</ele>
        <time>2019-05-11T12:46:39.244Z</time>
      </trkpt>
      <trkpt lat="44.11217" lon="7.0022">
        <ele>1830</ele>
        <time>2019-05-11T12:46:44.201Z</time>
      </trkpt>
      <trkpt lat="44.1122" lon="7.00214">
        <ele>1830</ele>
        <time>2019-05-11T12:47:49.198Z</time>
      </trkpt>
      <trkpt lat="44.11217" lon="7.00208">
        <ele>1827</ele>
        <time>2019-05-11T12:47:54.208Z</time>
      </trkpt>
      <trkpt lat="44.11218" lon="7.00204">
        <ele>1827</ele>
        <time>2019-05-11T12:47:59.210Z</time>
      </trkpt>
      <trkpt lat="44.11217" lon="7.00198">
        <ele>1827</ele>
        <time>2019-05-11T12:48:04.211Z</time>
      </trkpt>
      <trkpt lat="44.11215" lon="7.00192">
        <ele>1827</ele>
        <time>2019-05-11T12:48:09.215Z</time>
      </trkpt>
      <trkpt lat="44.11213" lon="7.00188">
        <ele>1827</ele>
        <time>2019-05-11T12:48:14.232Z</time>
      </trkpt>
      <trkpt lat="44.11212" lon="7.00183">
        <ele>1827</ele>
        <time>2019-05-11T12:48:19.212Z</time>
      </trkpt>
      <trkpt lat="44.1121" lon="7.00176">
        <ele>1824</ele>
        <time>2019-05-11T12:48:24.195Z</time>
      </trkpt>
      <trkpt lat="44.11208" lon="7.00171">
        <ele>1812</ele>
        <time>2019-05-11T12:48:29.194Z</time>
      </trkpt>
      <trkpt lat="44.11207" lon="7.00166">
        <ele>1812</ele>
        <time>2019-05-11T12:49:13.201Z</time>
      </trkpt>
      <trkpt lat="44.11205" lon="7.0016">
        <ele>1812</ele>
        <time>2019-05-11T12:49:18.185Z</time>
      </trkpt>
      <trkpt lat="44.11202" lon="7.00158">
        <ele>1812</ele>
        <time>2019-05-11T12:49:23.185Z</time>
      </trkpt>
      <trkpt lat="44.112" lon="7.0016">
        <ele>1812</ele>
        <time>2019-05-11T12:49:27.216Z</time>
      </trkpt>
      <trkpt lat="44.11197" lon="7.00159">
        <ele>1812</ele>
        <time>2019-05-11T12:49:32.190Z</time>
      </trkpt>
      <trkpt lat="44.11198" lon="7.0016">
        <ele>1812</ele>
        <time>2019-05-11T12:53:10.186Z</time>
      </trkpt>
      <trkpt lat="44.11199" lon="7.00156">
        <ele>1812</ele>
        <time>2019-05-11T12:53:15.175Z</time>
      </trkpt>
      <trkpt lat="44.11197" lon="7.00153">
        <ele>1812</ele>
        <time>2019-05-11T12:53:19.185Z</time>
      </trkpt>
      <trkpt lat="44.11196" lon="7.00148">
        <ele>1806</ele>
        <time>2019-05-11T12:53:24.191Z</time>
      </trkpt>
      <trkpt lat="44.11193" lon="7.00141">
        <ele>1806</ele>
        <time>2019-05-11T12:53:29.188Z</time>
      </trkpt>
      <trkpt lat="44.11191" lon="7.00136">
        <ele>1806</ele>
        <time>2019-05-11T12:53:33.215Z</time>
      </trkpt>
      <trkpt lat="44.11191" lon="7.0013">
        <ele>1806</ele>
        <time>2019-05-11T12:53:38.202Z</time>
      </trkpt>
      <trkpt lat="44.11192" lon="7.00125">
        <ele>1805</ele>
        <time>2019-05-11T12:53:43.185Z</time>
      </trkpt>
      <trkpt lat="44.11191" lon="7.00118">
        <ele>1805</ele>
        <time>2019-05-11T12:53:48.206Z</time>
      </trkpt>
      <trkpt lat="44.1119" lon="7.00115">
        <ele>1805</ele>
        <time>2019-05-11T12:53:53.208Z</time>
      </trkpt>
      <trkpt lat="44.11188" lon="7.00107">
        <ele>1805</ele>
        <time>2019-05-11T12:53:58.210Z</time>
      </trkpt>
      <trkpt lat="44.11189" lon="7.00101">
        <ele>1805</ele>
        <time>2019-05-11T12:54:03.184Z</time>
      </trkpt>
      <trkpt lat="44.11189" lon="7.00097">
        <ele>1799</ele>
        <time>2019-05-11T12:54:07.199Z</time>
      </trkpt>
      <trkpt lat="44.11186" lon="7.00095">
        <ele>1799</ele>
        <time>2019-05-11T12:54:12.185Z</time>
      </trkpt>
      <trkpt lat="44.11181" lon="7.00094">
        <ele>1799</ele>
        <time>2019-05-11T12:54:17.183Z</time>
      </trkpt>
      <trkpt lat="44.11178" lon="7.00091">
        <ele>1789</ele>
        <time>2019-05-11T12:54:22.186Z</time>
      </trkpt>
      <trkpt lat="44.11178" lon="7.00087">
        <ele>1789</ele>
        <time>2019-05-11T12:54:27.185Z</time>
      </trkpt>
      <trkpt lat="44.11174" lon="7.00082">
        <ele>1789</ele>
        <time>2019-05-11T12:54:47.171Z</time>
      </trkpt>
      <trkpt lat="44.11174" lon="7.00082">
        <ele>1789</ele>
        <time>2019-05-11T12:54:51.196Z</time>
      </trkpt>
      <trkpt lat="44.11171" lon="7.00078">
        <ele>1789</ele>
        <time>2019-05-11T12:54:56.178Z</time>
      </trkpt>
      <trkpt lat="44.11168" lon="7.00076">
        <ele>1789</ele>
        <time>2019-05-11T12:55:00.252Z</time>
      </trkpt>
      <trkpt lat="44.11166" lon="7.00072">
        <ele>1789</ele>
        <time>2019-05-11T12:55:05.185Z</time>
      </trkpt>
      <trkpt lat="44.11166" lon="7.00067">
        <ele>1786</ele>
        <time>2019-05-11T12:55:10.183Z</time>
      </trkpt>
      <trkpt lat="44.11166" lon="7.00064">
        <ele>1786</ele>
        <time>2019-05-11T12:55:15.184Z</time>
      </trkpt>
      <trkpt lat="44.11164" lon="7.00059">
        <ele>1786</ele>
        <time>2019-05-11T12:55:19.213Z</time>
      </trkpt>
      <trkpt lat="44.11161" lon="7.00056">
        <ele>1786</ele>
        <time>2019-05-11T12:55:24.179Z</time>
      </trkpt>
      <trkpt lat="44.11162" lon="7.00052">
        <ele>1786</ele>
        <time>2019-05-11T12:55:29.182Z</time>
      </trkpt>
      <trkpt lat="44.1116" lon="7.00049">
        <ele>1786</ele>
        <time>2019-05-11T12:55:34.184Z</time>
      </trkpt>
      <trkpt lat="44.11159" lon="7.00043">
        <ele>1786</ele>
        <time>2019-05-11T12:55:39.183Z</time>
      </trkpt>
      <trkpt lat="44.11159" lon="7.00038">
        <ele>1784</ele>
        <time>2019-05-11T12:55:44.185Z</time>
      </trkpt>
      <trkpt lat="44.11157" lon="7.00035">
        <ele>1784</ele>
        <time>2019-05-11T12:55:49.188Z</time>
      </trkpt>
      <trkpt lat="44.11154" lon="7.00029">
        <ele>1784</ele>
        <time>2019-05-11T12:55:54.183Z</time>
      </trkpt>
      <trkpt lat="44.1115" lon="7.00025">
        <ele>1776</ele>
        <time>2019-05-11T12:55:59.181Z</time>
      </trkpt>
      <trkpt lat="44.11147" lon="7.0002">
        <ele>1776</ele>
        <time>2019-05-11T12:56:04.190Z</time>
      </trkpt>
      <trkpt lat="44.11143" lon="7.00016">
        <ele>1776</ele>
        <time>2019-05-11T12:56:09.207Z</time>
      </trkpt>
      <trkpt lat="44.1114" lon="7.00012">
        <ele>1771</ele>
        <time>2019-05-11T12:56:14.189Z</time>
      </trkpt>
      <trkpt lat="44.11138" lon="7.00008">
        <ele>1771</ele>
        <time>2019-05-11T12:56:19.185Z</time>
      </trkpt>
      <trkpt lat="44.11137" lon="7.00003">
        <ele>1771</ele>
        <time>2019-05-11T12:56:24.203Z</time>
      </trkpt>
      <trkpt lat="44.11134" lon="6.99997">
        <ele>1771</ele>
        <time>2019-05-11T12:56:29.179Z</time>
      </trkpt>
      <trkpt lat="44.11132" lon="6.99991">
        <ele>1771</ele>
        <time>2019-05-11T12:56:34.185Z</time>
      </trkpt>
      <trkpt lat="44.11131" lon="6.99982">
        <ele>1768</ele>
        <time>2019-05-11T12:56:39.181Z</time>
      </trkpt>
      <trkpt lat="44.11131" lon="6.99974">
        <ele>1768</ele>
        <time>2019-05-11T12:56:44.185Z</time>
      </trkpt>
      <trkpt lat="44.1113" lon="6.99968">
        <ele>1768</ele>
        <time>2019-05-11T12:56:49.184Z</time>
      </trkpt>
      <trkpt lat="44.1113" lon="6.99959">
        <ele>1768</ele>
        <time>2019-05-11T12:56:54.185Z</time>
      </trkpt>
      <trkpt lat="44.11131" lon="6.99952">
        <ele>1761</ele>
        <time>2019-05-11T12:56:58.225Z</time>
      </trkpt>
      <trkpt lat="44.11131" lon="6.99948">
        <ele>1761</ele>
        <time>2019-05-11T12:57:03.179Z</time>
      </trkpt>
      <trkpt lat="44.11129" lon="6.99942">
        <ele>1761</ele>
        <time>2019-05-11T12:57:08.196Z</time>
      </trkpt>
      <trkpt lat="44.11128" lon="6.99934">
        <ele>1761</ele>
        <time>2019-05-11T12:57:13.187Z</time>
      </trkpt>
      <trkpt lat="44.11127" lon="6.99927">
        <ele>1756</ele>
        <time>2019-05-11T12:57:18.186Z</time>
      </trkpt>
      <trkpt lat="44.11126" lon="6.99919">
        <ele>1756</ele>
        <time>2019-05-11T12:57:23.189Z</time>
      </trkpt>
      <trkpt lat="44.11126" lon="6.99913">
        <ele>1756</ele>
        <time>2019-05-11T12:57:28.183Z</time>
      </trkpt>
      <trkpt lat="44.11124" lon="6.99905">
        <ele>1755</ele>
        <time>2019-05-11T12:57:33.184Z</time>
      </trkpt>
      <trkpt lat="44.11123" lon="6.99898">
        <ele>1751</ele>
        <time>2019-05-11T12:57:38.186Z</time>
      </trkpt>
      <trkpt lat="44.11122" lon="6.99891">
        <ele>1751</ele>
        <time>2019-05-11T12:57:43.189Z</time>
      </trkpt>
      <trkpt lat="44.1112" lon="6.99885">
        <ele>1751</ele>
        <time>2019-05-11T12:57:48.177Z</time>
      </trkpt>
      <trkpt lat="44.1112" lon="6.99879">
        <ele>1751</ele>
        <time>2019-05-11T12:57:53.212Z</time>
      </trkpt>
      <trkpt lat="44.1112" lon="6.99874">
        <ele>1748</ele>
        <time>2019-05-11T12:57:58.201Z</time>
      </trkpt>
      <trkpt lat="44.11119" lon="6.99867">
        <ele>1748</ele>
        <time>2019-05-11T12:58:03.200Z</time>
      </trkpt>
      <trkpt lat="44.11118" lon="6.99862">
        <ele>1748</ele>
        <time>2019-05-11T12:58:08.202Z</time>
      </trkpt>
      <trkpt lat="44.11119" lon="6.99854">
        <ele>1748</ele>
        <time>2019-05-11T12:58:13.182Z</time>
      </trkpt>
      <trkpt lat="44.11119" lon="6.99845">
        <ele>1746</ele>
        <time>2019-05-11T12:58:18.181Z</time>
      </trkpt>
      <trkpt lat="44.11119" lon="6.99838">
        <ele>1746</ele>
        <time>2019-05-11T12:58:23.181Z</time>
      </trkpt>
      <trkpt lat="44.11119" lon="6.99833">
        <ele>1746</ele>
        <time>2019-05-11T12:58:28.201Z</time>
      </trkpt>
      <trkpt lat="44.11116" lon="6.99826">
        <ele>1746</ele>
        <time>2019-05-11T12:58:33.180Z</time>
      </trkpt>
      <trkpt lat="44.11113" lon="6.9982">
        <ele>1746</ele>
        <time>2019-05-11T12:58:38.184Z</time>
      </trkpt>
      <trkpt lat="44.11114" lon="6.99819">
        <ele>1745</ele>
        <time>2019-05-11T12:58:43.188Z</time>
      </trkpt>
      <trkpt lat="44.11113" lon="6.99818">
        <ele>1745</ele>
        <time>2019-05-11T12:58:48.188Z</time>
      </trkpt>
      <trkpt lat="44.11113" lon="6.99812">
        <ele>1745</ele>
        <time>2019-05-11T12:58:53.190Z</time>
      </trkpt>
      <trkpt lat="44.11113" lon="6.99806">
        <ele>1745</ele>
        <time>2019-05-11T12:58:58.183Z</time>
      </trkpt>
      <trkpt lat="44.11112" lon="6.99801">
        <ele>1745</ele>
        <time>2019-05-11T12:59:03.181Z</time>
      </trkpt>
      <trkpt lat="44.11111" lon="6.99793">
        <ele>1745</ele>
        <time>2019-05-11T12:59:08.200Z</time>
      </trkpt>
      <trkpt lat="44.1111" lon="6.99788">
        <ele>1745</ele>
        <time>2019-05-11T12:59:13.179Z</time>
      </trkpt>
      <trkpt lat="44.11109" lon="6.99783">
        <ele>1745</ele>
        <time>2019-05-11T12:59:18.173Z</time>
      </trkpt>
      <trkpt lat="44.11108" lon="6.99775">
        <ele>1745</ele>
        <time>2019-05-11T12:59:23.195Z</time>
      </trkpt>
      <trkpt lat="44.11107" lon="6.99772">
        <ele>1745</ele>
        <time>2019-05-11T12:59:28.180Z</time>
      </trkpt>
      <trkpt lat="44.11106" lon="6.99765">
        <ele>1745</ele>
        <time>2019-05-11T12:59:33.174Z</time>
      </trkpt>
      <trkpt lat="44.11105" lon="6.9976">
        <ele>1746</ele>
        <time>2019-05-11T12:59:37.218Z</time>
      </trkpt>
      <trkpt lat="44.111" lon="6.99748">
        <ele>1746</ele>
        <time>2019-05-11T12:59:42.180Z</time>
      </trkpt>
      <trkpt lat="44.11097" lon="6.99743">
        <ele>1743</ele>
        <time>2019-05-11T12:59:47.178Z</time>
      </trkpt>
      <trkpt lat="44.11093" lon="6.99736">
        <ele>1744</ele>
        <time>2019-05-11T12:59:52.181Z</time>
      </trkpt>
      <trkpt lat="44.11089" lon="6.9973">
        <ele>1744</ele>
        <time>2019-05-11T12:59:57.179Z</time>
      </trkpt>
      <trkpt lat="44.11087" lon="6.99723">
        <ele>1744</ele>
        <time>2019-05-11T13:00:02.179Z</time>
      </trkpt>
      <trkpt lat="44.11085" lon="6.99719">
        <ele>1744</ele>
        <time>2019-05-11T13:00:07.170Z</time>
      </trkpt>
      <trkpt lat="44.11082" lon="6.99715">
        <ele>1744</ele>
        <time>2019-05-11T13:00:12.188Z</time>
      </trkpt>
      <trkpt lat="44.11079" lon="6.99712">
        <ele>1744</ele>
        <time>2019-05-11T13:00:17.190Z</time>
      </trkpt>
      <trkpt lat="44.11076" lon="6.9971">
        <ele>1744</ele>
        <time>2019-05-11T13:00:22.184Z</time>
      </trkpt>
      <trkpt lat="44.11073" lon="6.99708">
        <ele>1745</ele>
        <time>2019-05-11T13:00:27.175Z</time>
      </trkpt>
      <trkpt lat="44.1107" lon="6.99705">
        <ele>1745</ele>
        <time>2019-05-11T13:00:31.205Z</time>
      </trkpt>
      <trkpt lat="44.11066" lon="6.99696">
        <ele>1740</ele>
        <time>2019-05-11T13:00:36.190Z</time>
      </trkpt>
      <trkpt lat="44.11065" lon="6.99688">
        <ele>1740</ele>
        <time>2019-05-11T13:00:41.196Z</time>
      </trkpt>
      <trkpt lat="44.11063" lon="6.99683">
        <ele>1740</ele>
        <time>2019-05-11T13:00:46.190Z</time>
      </trkpt>
      <trkpt lat="44.11061" lon="6.99681">
        <ele>1740</ele>
        <time>2019-05-11T13:00:51.208Z</time>
      </trkpt>
      <trkpt lat="44.11058" lon="6.99677">
        <ele>1741</ele>
        <time>2019-05-11T13:00:56.173Z</time>
      </trkpt>
      <trkpt lat="44.11057" lon="6.9967">
        <ele>1741</ele>
        <time>2019-05-11T13:01:01.202Z</time>
      </trkpt>
      <trkpt lat="44.11054" lon="6.99664">
        <ele>1741</ele>
        <time>2019-05-11T13:01:06.187Z</time>
      </trkpt>
      <trkpt lat="44.11053" lon="6.99658">
        <ele>1741</ele>
        <time>2019-05-11T13:01:11.185Z</time>
      </trkpt>
      <trkpt lat="44.1105" lon="6.99649">
        <ele>1741</ele>
        <time>2019-05-11T13:01:16.196Z</time>
      </trkpt>
      <trkpt lat="44.11047" lon="6.99642">
        <ele>1741</ele>
        <time>2019-05-11T13:01:21.181Z</time>
      </trkpt>
      <trkpt lat="44.11045" lon="6.99635">
        <ele>1741</ele>
        <time>2019-05-11T13:01:25.209Z</time>
      </trkpt>
      <trkpt lat="44.11043" lon="6.99628">
        <ele>1741</ele>
        <time>2019-05-11T13:01:30.183Z</time>
      </trkpt>
      <trkpt lat="44.1104" lon="6.99617">
        <ele>1734</ele>
        <time>2019-05-11T13:01:35.182Z</time>
      </trkpt>
      <trkpt lat="44.11039" lon="6.99606">
        <ele>1734</ele>
        <time>2019-05-11T13:01:40.195Z</time>
      </trkpt>
      <trkpt lat="44.11041" lon="6.996">
        <ele>1734</ele>
        <time>2019-05-11T13:01:45.185Z</time>
      </trkpt>
      <trkpt lat="44.11041" lon="6.99593">
        <ele>1732</ele>
        <time>2019-05-11T13:01:50.177Z</time>
      </trkpt>
      <trkpt lat="44.11041" lon="6.99586">
        <ele>1732</ele>
        <time>2019-05-11T13:01:55.185Z</time>
      </trkpt>
      <trkpt lat="44.11041" lon="6.9958">
        <ele>1732</ele>
        <time>2019-05-11T13:02:00.185Z</time>
      </trkpt>
      <trkpt lat="44.11041" lon="6.99574">
        <ele>1732</ele>
        <time>2019-05-11T13:02:05.175Z</time>
      </trkpt>
      <trkpt lat="44.11041" lon="6.99569">
        <ele>1728</ele>
        <time>2019-05-11T13:02:10.187Z</time>
      </trkpt>
      <trkpt lat="44.11039" lon="6.99561">
        <ele>1728</ele>
        <time>2019-05-11T13:02:15.189Z</time>
      </trkpt>
      <trkpt lat="44.11039" lon="6.99553">
        <ele>1728</ele>
        <time>2019-05-11T13:02:20.174Z</time>
      </trkpt>
      <trkpt lat="44.11038" lon="6.99545">
        <ele>1728</ele>
        <time>2019-05-11T13:02:25.186Z</time>
      </trkpt>
      <trkpt lat="44.11037" lon="6.99538">
        <ele>1724</ele>
        <time>2019-05-11T13:02:30.188Z</time>
      </trkpt>
      <trkpt lat="44.11036" lon="6.9953">
        <ele>1724</ele>
        <time>2019-05-11T13:02:35.209Z</time>
      </trkpt>
      <trkpt lat="44.11035" lon="6.99522">
        <ele>1724</ele>
        <time>2019-05-11T13:02:40.182Z</time>
      </trkpt>
      <trkpt lat="44.11034" lon="6.99518">
        <ele>1724</ele>
        <time>2019-05-11T13:02:44.240Z</time>
      </trkpt>
      <trkpt lat="44.11033" lon="6.99513">
        <ele>1725</ele>
        <time>2019-05-11T13:02:49.186Z</time>
      </trkpt>
      <trkpt lat="44.11032" lon="6.99505">
        <ele>1725</ele>
        <time>2019-05-11T13:02:54.183Z</time>
      </trkpt>
      <trkpt lat="44.11031" lon="6.99497">
        <ele>1725</ele>
        <time>2019-05-11T13:02:59.209Z</time>
      </trkpt>
      <trkpt lat="44.1103" lon="6.99489">
        <ele>1725</ele>
        <time>2019-05-11T13:03:04.185Z</time>
      </trkpt>
      <trkpt lat="44.1103" lon="6.99482">
        <ele>1727</ele>
        <time>2019-05-11T13:03:09.182Z</time>
      </trkpt>
      <trkpt lat="44.11028" lon="6.99474">
        <ele>1727</ele>
        <time>2019-05-11T13:03:14.181Z</time>
      </trkpt>
      <trkpt lat="44.11027" lon="6.99467">
        <ele>1727</ele>
        <time>2019-05-11T13:03:19.186Z</time>
      </trkpt>
      <trkpt lat="44.11024" lon="6.99456">
        <ele>1726</ele>
        <time>2019-05-11T13:03:43.183Z</time>
      </trkpt>
      <trkpt lat="44.11023" lon="6.99455">
        <ele>1726</ele>
        <time>2019-05-11T13:03:48.183Z</time>
      </trkpt>
      <trkpt lat="44.11018" lon="6.9945">
        <ele>1726</ele>
        <time>2019-05-11T13:03:53.183Z</time>
      </trkpt>
      <trkpt lat="44.11014" lon="6.9945">
        <ele>1726</ele>
        <time>2019-05-11T13:03:58.177Z</time>
      </trkpt>
      <trkpt lat="44.11013" lon="6.99448">
        <ele>1720</ele>
        <time>2019-05-11T13:04:03.177Z</time>
      </trkpt>
      <trkpt lat="44.11009" lon="6.99446">
        <ele>1720</ele>
        <time>2019-05-11T13:04:07.192Z</time>
      </trkpt>
      <trkpt lat="44.11004" lon="6.99447">
        <ele>1720</ele>
        <time>2019-05-11T13:04:12.178Z</time>
      </trkpt>
      <trkpt lat="44.11002" lon="6.99449">
        <ele>1720</ele>
        <time>2019-05-11T13:04:17.196Z</time>
      </trkpt>
      <trkpt lat="44.11001" lon="6.99441">
        <ele>1720</ele>
        <time>2019-05-11T13:04:22.178Z</time>
      </trkpt>
      <trkpt lat="44.10999" lon="6.99437">
        <ele>1720</ele>
        <time>2019-05-11T13:04:27.175Z</time>
      </trkpt>
      <trkpt lat="44.10995" lon="6.99431">
        <ele>1720</ele>
        <time>2019-05-11T13:04:32.184Z</time>
      </trkpt>
      <trkpt lat="44.10992" lon="6.99428">
        <ele>1724</ele>
        <time>2019-05-11T13:04:36.246Z</time>
      </trkpt>
      <trkpt lat="44.10988" lon="6.99423">
        <ele>1724</ele>
        <time>2019-05-11T13:04:41.183Z</time>
      </trkpt>
      <trkpt lat="44.10982" lon="6.99418">
        <ele>1718</ele>
        <time>2019-05-11T13:04:46.182Z</time>
      </trkpt>
      <trkpt lat="44.10979" lon="6.99415">
        <ele>1718</ele>
        <time>2019-05-11T13:04:51.183Z</time>
      </trkpt>
      <trkpt lat="44.10974" lon="6.99411">
        <ele>1718</ele>
        <time>2019-05-11T13:04:56.182Z</time>
      </trkpt>
      <trkpt lat="44.10971" lon="6.99409">
        <ele>1718</ele>
        <time>2019-05-11T13:05:00.222Z</time>
      </trkpt>
      <trkpt lat="44.10968" lon="6.99404">
        <ele>1718</ele>
        <time>2019-05-11T13:05:05.193Z</time>
      </trkpt>
      <trkpt lat="44.10964" lon="6.99399">
        <ele>1721</ele>
        <time>2019-05-11T13:05:10.167Z</time>
      </trkpt>
      <trkpt lat="44.10961" lon="6.99398">
        <ele>1721</ele>
        <time>2019-05-11T13:05:14.180Z</time>
      </trkpt>
      <trkpt lat="44.10956" lon="6.99398">
        <ele>1713</ele>
        <time>2019-05-11T13:05:19.196Z</time>
      </trkpt>
      <trkpt lat="44.1095" lon="6.99398">
        <ele>1713</ele>
        <time>2019-05-11T13:05:24.206Z</time>
      </trkpt>
      <trkpt lat="44.10945" lon="6.99395">
        <ele>1713</ele>
        <time>2019-05-11T13:05:29.176Z</time>
      </trkpt>
      <trkpt lat="44.10941" lon="6.99393">
        <ele>1713</ele>
        <time>2019-05-11T13:05:33.159Z</time>
      </trkpt>
      <trkpt lat="44.10935" lon="6.9939">
        <ele>1713</ele>
        <time>2019-05-11T13:05:38.198Z</time>
      </trkpt>
      <trkpt lat="44.10929" lon="6.99389">
        <ele>1707</ele>
        <time>2019-05-11T13:05:43.171Z</time>
      </trkpt>
      <trkpt lat="44.10924" lon="6.99385">
        <ele>1707</ele>
        <time>2019-05-11T13:05:48.170Z</time>
      </trkpt>
      <trkpt lat="44.10921" lon="6.99383">
        <ele>1707</ele>
        <time>2019-05-11T13:05:52.161Z</time>
      </trkpt>
      <trkpt lat="44.10914" lon="6.9938">
        <ele>1707</ele>
        <time>2019-05-11T13:05:57.194Z</time>
      </trkpt>
      <trkpt lat="44.10909" lon="6.99379">
        <ele>1707</ele>
        <time>2019-05-11T13:06:02.222Z</time>
      </trkpt>
      <trkpt lat="44.10906" lon="6.99376">
        <ele>1707</ele>
        <time>2019-05-11T13:06:07.170Z</time>
      </trkpt>
      <trkpt lat="44.10901" lon="6.99375">
        <ele>1702</ele>
        <time>2019-05-11T13:06:12.175Z</time>
      </trkpt>
      <trkpt lat="44.10894" lon="6.99372">
        <ele>1702</ele>
        <time>2019-05-11T13:06:17.178Z</time>
      </trkpt>
      <trkpt lat="44.1089" lon="6.9937">
        <ele>1702</ele>
        <time>2019-05-11T13:06:22.172Z</time>
      </trkpt>
      <trkpt lat="44.10886" lon="6.99369">
        <ele>1702</ele>
        <time>2019-05-11T13:06:27.171Z</time>
      </trkpt>
      <trkpt lat="44.1088" lon="6.99369">
        <ele>1702</ele>
        <time>2019-05-11T13:06:32.191Z</time>
      </trkpt>
      <trkpt lat="44.10876" lon="6.99367">
        <ele>1702</ele>
        <time>2019-05-11T13:06:37.173Z</time>
      </trkpt>
      <trkpt lat="44.10872" lon="6.99363">
        <ele>1702</ele>
        <time>2019-05-11T13:06:42.171Z</time>
      </trkpt>
      <trkpt lat="44.10863" lon="6.99354">
        <ele>1702</ele>
        <time>2019-05-11T13:06:57.163Z</time>
      </trkpt>
      <trkpt lat="44.10863" lon="6.99354">
        <ele>1702</ele>
        <time>2019-05-11T13:07:01.182Z</time>
      </trkpt>
      <trkpt lat="44.10863" lon="6.99351">
        <ele>1702</ele>
        <time>2019-05-11T13:07:06.168Z</time>
      </trkpt>
      <trkpt lat="44.10862" lon="6.99352">
        <ele>1702</ele>
        <time>2019-05-11T13:07:11.182Z</time>
      </trkpt>
      <trkpt lat="44.10862" lon="6.99349">
        <ele>1702</ele>
        <time>2019-05-11T13:07:16.167Z</time>
      </trkpt>
      <trkpt lat="44.1086" lon="6.99348">
        <ele>1702</ele>
        <time>2019-05-11T13:07:36.177Z</time>
      </trkpt>
      <trkpt lat="44.1086" lon="6.99351">
        <ele>1702</ele>
        <time>2019-05-11T13:07:41.192Z</time>
      </trkpt>
      <trkpt lat="44.10857" lon="6.99353">
        <ele>1702</ele>
        <time>2019-05-11T13:07:46.179Z</time>
      </trkpt>
      <trkpt lat="44.10851" lon="6.99352">
        <ele>1702</ele>
        <time>2019-05-11T13:07:51.166Z</time>
      </trkpt>
      <trkpt lat="44.10848" lon="6.99352">
        <ele>1702</ele>
        <time>2019-05-11T13:07:55.223Z</time>
      </trkpt>
      <trkpt lat="44.10843" lon="6.99351">
        <ele>1698</ele>
        <time>2019-05-11T13:08:00.219Z</time>
      </trkpt>
      <trkpt lat="44.1084" lon="6.99349">
        <ele>1698</ele>
        <time>2019-05-11T13:08:05.212Z</time>
      </trkpt>
      <trkpt lat="44.10833" lon="6.9935">
        <ele>1698</ele>
        <time>2019-05-11T13:08:10.177Z</time>
      </trkpt>
      <trkpt lat="44.10829" lon="6.99349">
        <ele>1698</ele>
        <time>2019-05-11T13:08:14.195Z</time>
      </trkpt>
      <trkpt lat="44.10823" lon="6.99351">
        <ele>1698</ele>
        <time>2019-05-11T13:08:19.178Z</time>
      </trkpt>
      <trkpt lat="44.1082" lon="6.9935">
        <ele>1698</ele>
        <time>2019-05-11T13:08:23.194Z</time>
      </trkpt>
      <trkpt lat="44.10815" lon="6.99349">
        <ele>1689</ele>
        <time>2019-05-11T13:08:28.167Z</time>
      </trkpt>
      <trkpt lat="44.10812" lon="6.9935">
        <ele>1689</ele>
        <time>2019-05-11T13:08:33.170Z</time>
      </trkpt>
      <trkpt lat="44.10802" lon="6.99348">
        <ele>1689</ele>
        <time>2019-05-11T13:12:19.178Z</time>
      </trkpt>
      <trkpt lat="44.10801" lon="6.99348">
        <ele>1689</ele>
        <time>2019-05-11T13:12:24.177Z</time>
      </trkpt>
      <trkpt lat="44.10801" lon="6.99348">
        <ele>1689</ele>
        <time>2019-05-11T13:12:29.182Z</time>
      </trkpt>
      <trkpt lat="44.10801" lon="6.99348">
        <ele>1689</ele>
        <time>2019-05-11T13:12:34.178Z</time>
      </trkpt>
      <trkpt lat="44.10799" lon="6.99353">
        <ele>1689</ele>
        <time>2019-05-11T13:12:39.170Z</time>
      </trkpt>
      <trkpt lat="44.10799" lon="6.99353">
        <ele>1689</ele>
        <time>2019-05-11T13:12:44.168Z</time>
      </trkpt>
      <trkpt lat="44.10801" lon="6.99353">
        <ele>1689</ele>
        <time>2019-05-11T13:12:49.182Z</time>
      </trkpt>
      <trkpt lat="44.10801" lon="6.99353">
        <ele>1689</ele>
        <time>2019-05-11T13:12:54.179Z</time>
      </trkpt>
      <trkpt lat="44.10801" lon="6.99352">
        <ele>1689</ele>
        <time>2019-05-11T13:12:59.177Z</time>
      </trkpt>
      <trkpt lat="44.10804" lon="6.99341">
        <ele>1691</ele>
        <time>2019-05-11T13:13:04.174Z</time>
      </trkpt>
      <trkpt lat="44.10797" lon="6.99342">
        <ele>1691</ele>
        <time>2019-05-11T13:13:23.179Z</time>
      </trkpt>
      <trkpt lat="44.10797" lon="6.99339">
        <ele>1691</ele>
        <time>2019-05-11T13:13:28.175Z</time>
      </trkpt>
      <trkpt lat="44.10796" lon="6.99336">
        <ele>1691</ele>
        <time>2019-05-11T13:13:33.186Z</time>
      </trkpt>
      <trkpt lat="44.10795" lon="6.99334">
        <ele>1691</ele>
        <time>2019-05-11T13:13:38.173Z</time>
      </trkpt>
      <trkpt lat="44.1079" lon="6.99332">
        <ele>1682</ele>
        <time>2019-05-11T13:13:43.175Z</time>
      </trkpt>
      <trkpt lat="44.10788" lon="6.99332">
        <ele>1682</ele>
        <time>2019-05-11T13:13:48.177Z</time>
      </trkpt>
      <trkpt lat="44.10781" lon="6.99334">
        <ele>1682</ele>
        <time>2019-05-11T13:13:53.175Z</time>
      </trkpt>
      <trkpt lat="44.10777" lon="6.99335">
        <ele>1682</ele>
        <time>2019-05-11T13:13:58.199Z</time>
      </trkpt>
      <trkpt lat="44.10775" lon="6.99334">
        <ele>1682</ele>
        <time>2019-05-11T13:14:03.176Z</time>
      </trkpt>
      <trkpt lat="44.1077" lon="6.99334">
        <ele>1682</ele>
        <time>2019-05-11T13:14:08.168Z</time>
      </trkpt>
      <trkpt lat="44.10766" lon="6.99333">
        <ele>1682</ele>
        <time>2019-05-11T13:14:13.181Z</time>
      </trkpt>
      <trkpt lat="44.10763" lon="6.99331">
        <ele>1675</ele>
        <time>2019-05-11T13:14:18.173Z</time>
      </trkpt>
      <trkpt lat="44.10757" lon="6.99331">
        <ele>1675</ele>
        <time>2019-05-11T13:14:23.177Z</time>
      </trkpt>
      <trkpt lat="44.1075" lon="6.99332">
        <ele>1675</ele>
        <time>2019-05-11T13:14:28.177Z</time>
      </trkpt>
      <trkpt lat="44.10746" lon="6.99333">
        <ele>1675</ele>
        <time>2019-05-11T13:14:33.174Z</time>
      </trkpt>
      <trkpt lat="44.10742" lon="6.99332">
        <ele>1675</ele>
        <time>2019-05-11T13:14:38.180Z</time>
      </trkpt>
      <trkpt lat="44.1074" lon="6.99341">
        <ele>1675</ele>
        <time>2019-05-11T13:14:43.166Z</time>
      </trkpt>
      <trkpt lat="44.10736" lon="6.99345">
        <ele>1670</ele>
        <time>2019-05-11T13:14:48.171Z</time>
      </trkpt>
      <trkpt lat="44.10731" lon="6.99344">
        <ele>1670</ele>
        <time>2019-05-11T13:14:53.178Z</time>
      </trkpt>
      <trkpt lat="44.10725" lon="6.99345">
        <ele>1670</ele>
        <time>2019-05-11T13:14:58.176Z</time>
      </trkpt>
      <trkpt lat="44.1072" lon="6.99346">
        <ele>1670</ele>
        <time>2019-05-11T13:15:03.200Z</time>
      </trkpt>
      <trkpt lat="44.10715" lon="6.99345">
        <ele>1670</ele>
        <time>2019-05-11T13:15:08.192Z</time>
      </trkpt>
      <trkpt lat="44.10709" lon="6.99347">
        <ele>1670</ele>
        <time>2019-05-11T13:15:13.186Z</time>
      </trkpt>
      <trkpt lat="44.10704" lon="6.99347">
        <ele>1665</ele>
        <time>2019-05-11T13:15:18.163Z</time>
      </trkpt>
      <trkpt lat="44.107" lon="6.99342">
        <ele>1665</ele>
        <time>2019-05-11T13:15:23.169Z</time>
      </trkpt>
      <trkpt lat="44.10696" lon="6.99342">
        <ele>1665</ele>
        <time>2019-05-11T13:15:28.165Z</time>
      </trkpt>
      <trkpt lat="44.10692" lon="6.99342">
        <ele>1665</ele>
        <time>2019-05-11T13:15:33.218Z</time>
      </trkpt>
      <trkpt lat="44.10685" lon="6.99342">
        <ele>1665</ele>
        <time>2019-05-11T13:15:38.167Z</time>
      </trkpt>
      <trkpt lat="44.10679" lon="6.99343">
        <ele>1659</ele>
        <time>2019-05-11T13:15:43.168Z</time>
      </trkpt>
      <trkpt lat="44.10674" lon="6.99343">
        <ele>1659</ele>
        <time>2019-05-11T13:15:48.167Z</time>
      </trkpt>
      <trkpt lat="44.10671" lon="6.99341">
        <ele>1659</ele>
        <time>2019-05-11T13:15:53.192Z</time>
      </trkpt>
      <trkpt lat="44.10663" lon="6.99341">
        <ele>1659</ele>
        <time>2019-05-11T13:15:58.185Z</time>
      </trkpt>
      <trkpt lat="44.10657" lon="6.9934">
        <ele>1659</ele>
        <time>2019-05-11T13:16:03.161Z</time>
      </trkpt>
      <trkpt lat="44.10652" lon="6.99339">
        <ele>1655</ele>
        <time>2019-05-11T13:16:07.185Z</time>
      </trkpt>
      <trkpt lat="44.10647" lon="6.99338">
        <ele>1655</ele>
        <time>2019-05-11T13:16:12.174Z</time>
      </trkpt>
      <trkpt lat="44.10644" lon="6.99336">
        <ele>1655</ele>
        <time>2019-05-11T13:16:17.170Z</time>
      </trkpt>
      <trkpt lat="44.10638" lon="6.99333">
        <ele>1655</ele>
        <time>2019-05-11T13:16:22.167Z</time>
      </trkpt>
      <trkpt lat="44.10633" lon="6.99329">
        <ele>1655</ele>
        <time>2019-05-11T13:16:27.166Z</time>
      </trkpt>
      <trkpt lat="44.10627" lon="6.99328">
        <ele>1655</ele>
        <time>2019-05-11T13:16:32.198Z</time>
      </trkpt>
      <trkpt lat="44.10624" lon="6.99324">
        <ele>1648</ele>
        <time>2019-05-11T13:16:37.172Z</time>
      </trkpt>
      <trkpt lat="44.1062" lon="6.9932">
        <ele>1648</ele>
        <time>2019-05-11T13:16:42.223Z</time>
      </trkpt>
      <trkpt lat="44.10616" lon="6.99319">
        <ele>1649</ele>
        <time>2019-05-11T13:16:47.169Z</time>
      </trkpt>
      <trkpt lat="44.10613" lon="6.99315">
        <ele>1649</ele>
        <time>2019-05-11T13:16:52.178Z</time>
      </trkpt>
      <trkpt lat="44.10612" lon="6.9931">
        <ele>1649</ele>
        <time>2019-05-11T13:16:57.184Z</time>
      </trkpt>
      <trkpt lat="44.1061" lon="6.99302">
        <ele>1649</ele>
        <time>2019-05-11T13:17:02.174Z</time>
      </trkpt>
      <trkpt lat="44.10608" lon="6.99297">
        <ele>1649</ele>
        <time>2019-05-11T13:17:07.174Z</time>
      </trkpt>
      <trkpt lat="44.10604" lon="6.99291">
        <ele>1650</ele>
        <time>2019-05-11T13:17:12.171Z</time>
      </trkpt>
      <trkpt lat="44.10603" lon="6.99285">
        <ele>1650</ele>
        <time>2019-05-11T13:17:17.208Z</time>
      </trkpt>
      <trkpt lat="44.106" lon="6.99282">
        <ele>1650</ele>
        <time>2019-05-11T13:17:22.183Z</time>
      </trkpt>
      <trkpt lat="44.10597" lon="6.99278">
        <ele>1636</ele>
        <time>2019-05-11T13:17:27.177Z</time>
      </trkpt>
      <trkpt lat="44.10595" lon="6.99276">
        <ele>1636</ele>
        <time>2019-05-11T13:17:32.169Z</time>
      </trkpt>
      <trkpt lat="44.10595" lon="6.99274">
        <ele>1636</ele>
        <time>2019-05-11T13:17:37.155Z</time>
      </trkpt>
      <trkpt lat="44.10592" lon="6.99271">
        <ele>1636</ele>
        <time>2019-05-11T13:17:42.167Z</time>
      </trkpt>
      <trkpt lat="44.10587" lon="6.99264">
        <ele>1636</ele>
        <time>2019-05-11T13:17:47.176Z</time>
      </trkpt>
      <trkpt lat="44.10585" lon="6.99258">
        <ele>1636</ele>
        <time>2019-05-11T13:17:52.157Z</time>
      </trkpt>
      <trkpt lat="44.10581" lon="6.99257">
        <ele>1636</ele>
        <time>2019-05-11T13:17:56.189Z</time>
      </trkpt>
      <trkpt lat="44.10579" lon="6.99253">
        <ele>1636</ele>
        <time>2019-05-11T13:18:01.178Z</time>
      </trkpt>
      <trkpt lat="44.10577" lon="6.99247">
        <ele>1636</ele>
        <time>2019-05-11T13:18:05.195Z</time>
      </trkpt>
      <trkpt lat="44.10576" lon="6.99241">
        <ele>1636</ele>
        <time>2019-05-11T13:18:10.170Z</time>
      </trkpt>
      <trkpt lat="44.10574" lon="6.99235">
        <ele>1632</ele>
        <time>2019-05-11T13:18:15.168Z</time>
      </trkpt>
      <trkpt lat="44.10572" lon="6.99229">
        <ele>1632</ele>
        <time>2019-05-11T13:18:20.183Z</time>
      </trkpt>
      <trkpt lat="44.10573" lon="6.99222">
        <ele>1632</ele>
        <time>2019-05-11T13:18:25.177Z</time>
      </trkpt>
      <trkpt lat="44.1057" lon="6.99219">
        <ele>1632</ele>
        <time>2019-05-11T13:18:30.164Z</time>
      </trkpt>
      <trkpt lat="44.10567" lon="6.99218">
        <ele>1616</ele>
        <time>2019-05-11T13:18:34.209Z</time>
      </trkpt>
      <trkpt lat="44.10565" lon="6.99217">
        <ele>1616</ele>
        <time>2019-05-11T13:18:39.167Z</time>
      </trkpt>
      <trkpt lat="44.10561" lon="6.9922">
        <ele>1616</ele>
        <time>2019-05-11T13:18:44.164Z</time>
      </trkpt>
      <trkpt lat="44.10558" lon="6.99217">
        <ele>1616</ele>
        <time>2019-05-11T13:18:58.188Z</time>
      </trkpt>
      <trkpt lat="44.10554" lon="6.99217">
        <ele>1616</ele>
        <time>2019-05-11T13:19:03.196Z</time>
      </trkpt>
      <trkpt lat="44.10552" lon="6.99216">
        <ele>1616</ele>
        <time>2019-05-11T13:19:07.225Z</time>
      </trkpt>
      <trkpt lat="44.10551" lon="6.99215">
        <ele>1616</ele>
        <time>2019-05-11T13:19:12.169Z</time>
      </trkpt>
      <trkpt lat="44.10549" lon="6.99215">
        <ele>1616</ele>
        <time>2019-05-11T13:19:16.260Z</time>
      </trkpt>
      <trkpt lat="44.10548" lon="6.99213">
        <ele>1616</ele>
        <time>2019-05-11T13:19:21.169Z</time>
      </trkpt>
      <trkpt lat="44.10547" lon="6.99211">
        <ele>1616</ele>
        <time>2019-05-11T13:19:26.168Z</time>
      </trkpt>
      <trkpt lat="44.10546" lon="6.9921">
        <ele>1616</ele>
        <time>2019-05-11T13:19:31.163Z</time>
      </trkpt>
      <trkpt lat="44.10545" lon="6.99208">
        <ele>1612</ele>
        <time>2019-05-11T13:19:35.185Z</time>
      </trkpt>
      <trkpt lat="44.1054" lon="6.99204">
        <ele>1598</ele>
        <time>2019-05-11T13:19:40.184Z</time>
      </trkpt>
      <trkpt lat="44.10536" lon="6.99205">
        <ele>1598</ele>
        <time>2019-05-11T13:20:00.174Z</time>
      </trkpt>
      <trkpt lat="44.10535" lon="6.99206">
        <ele>1598</ele>
        <time>2019-05-11T13:20:05.174Z</time>
      </trkpt>
      <trkpt lat="44.10534" lon="6.99205">
        <ele>1598</ele>
        <time>2019-05-11T13:20:10.163Z</time>
      </trkpt>
      <trkpt lat="44.10532" lon="6.99204">
        <ele>1598</ele>
        <time>2019-05-11T13:20:15.181Z</time>
      </trkpt>
      <trkpt lat="44.10531" lon="6.99202">
        <ele>1598</ele>
        <time>2019-05-11T13:20:20.171Z</time>
      </trkpt>
      <trkpt lat="44.10523" lon="6.99199">
        <ele>1598</ele>
        <time>2019-05-11T13:20:40.189Z</time>
      </trkpt>
      <trkpt lat="44.10523" lon="6.99199">
        <ele>1598</ele>
        <time>2019-05-11T13:20:45.168Z</time>
      </trkpt>
      <trkpt lat="44.10523" lon="6.99194">
        <ele>1598</ele>
        <time>2019-05-11T13:20:50.180Z</time>
      </trkpt>
      <trkpt lat="44.10523" lon="6.99193">
        <ele>1598</ele>
        <time>2019-05-11T13:20:55.160Z</time>
      </trkpt>
      <trkpt lat="44.10521" lon="6.99192">
        <ele>1598</ele>
        <time>2019-05-11T13:21:00.166Z</time>
      </trkpt>
      <trkpt lat="44.1052" lon="6.99193">
        <ele>1598</ele>
        <time>2019-05-11T13:21:14.168Z</time>
      </trkpt>
      <trkpt lat="44.10519" lon="6.99191">
        <ele>1598</ele>
        <time>2019-05-11T13:21:19.176Z</time>
      </trkpt>
      <trkpt lat="44.10517" lon="6.99188">
        <ele>1598</ele>
        <time>2019-05-11T13:21:24.183Z</time>
      </trkpt>
      <trkpt lat="44.10515" lon="6.99185">
        <ele>1598</ele>
        <time>2019-05-11T13:21:29.185Z</time>
      </trkpt>
      <trkpt lat="44.10512" lon="6.99182">
        <ele>1593</ele>
        <time>2019-05-11T13:21:34.174Z</time>
      </trkpt>
      <trkpt lat="44.10509" lon="6.99174">
        <ele>1585</ele>
        <time>2019-05-11T13:21:44.162Z</time>
      </trkpt>
      <trkpt lat="44.10509" lon="6.99172">
        <ele>1585</ele>
        <time>2019-05-11T13:21:49.163Z</time>
      </trkpt>
      <trkpt lat="44.10508" lon="6.99168">
        <ele>1585</ele>
        <time>2019-05-11T13:21:54.161Z</time>
      </trkpt>
      <trkpt lat="44.10507" lon="6.99166">
        <ele>1585</ele>
        <time>2019-05-11T13:21:58.186Z</time>
      </trkpt>
      <trkpt lat="44.10505" lon="6.99162">
        <ele>1585</ele>
        <time>2019-05-11T13:22:03.186Z</time>
      </trkpt>
      <trkpt lat="44.10502" lon="6.99162">
        <ele>1585</ele>
        <time>2019-05-11T13:22:08.183Z</time>
      </trkpt>
      <trkpt lat="44.10499" lon="6.99161">
        <ele>1585</ele>
        <time>2019-05-11T13:22:13.160Z</time>
      </trkpt>
      <trkpt lat="44.105" lon="6.99158">
        <ele>1585</ele>
        <time>2019-05-11T13:22:18.165Z</time>
      </trkpt>
      <trkpt lat="44.10499" lon="6.99153">
        <ele>1585</ele>
        <time>2019-05-11T13:22:23.167Z</time>
      </trkpt>
      <trkpt lat="44.105" lon="6.99145">
        <ele>1578</ele>
        <time>2019-05-11T13:22:28.161Z</time>
      </trkpt>
      <trkpt lat="44.10503" lon="6.99141">
        <ele>1578</ele>
        <time>2019-05-11T13:22:33.161Z</time>
      </trkpt>
      <trkpt lat="44.10502" lon="6.99137">
        <ele>1578</ele>
        <time>2019-05-11T13:22:38.159Z</time>
      </trkpt>
      <trkpt lat="44.10501" lon="6.99133">
        <ele>1578</ele>
        <time>2019-05-11T13:22:43.159Z</time>
      </trkpt>
      <trkpt lat="44.105" lon="6.99131">
        <ele>1578</ele>
        <time>2019-05-11T13:22:48.180Z</time>
      </trkpt>
      <trkpt lat="44.105" lon="6.99129">
        <ele>1578</ele>
        <time>2019-05-11T13:22:53.161Z</time>
      </trkpt>
      <trkpt lat="44.10497" lon="6.99124">
        <ele>1572</ele>
        <time>2019-05-11T13:23:03.159Z</time>
      </trkpt>
      <trkpt lat="44.10495" lon="6.99123">
        <ele>1572</ele>
        <time>2019-05-11T13:23:08.169Z</time>
      </trkpt>
      <trkpt lat="44.10496" lon="6.99119">
        <ele>1572</ele>
        <time>2019-05-11T13:23:13.206Z</time>
      </trkpt>
      <trkpt lat="44.10497" lon="6.99114">
        <ele>1572</ele>
        <time>2019-05-11T13:23:18.171Z</time>
      </trkpt>
      <trkpt lat="44.10497" lon="6.99114">
        <ele>1572</ele>
        <time>2019-05-11T13:23:23.168Z</time>
      </trkpt>
      <trkpt lat="44.10497" lon="6.99114">
        <ele>1572</ele>
        <time>2019-05-11T13:23:28.164Z</time>
      </trkpt>
      <trkpt lat="44.10496" lon="6.99113">
        <ele>1572</ele>
        <time>2019-05-11T13:23:33.160Z</time>
      </trkpt>
      <trkpt lat="44.10494" lon="6.99112">
        <ele>1572</ele>
        <time>2019-05-11T13:23:38.159Z</time>
      </trkpt>
      <trkpt lat="44.1049" lon="6.99112">
        <ele>1572</ele>
        <time>2019-05-11T13:23:43.163Z</time>
      </trkpt>
      <trkpt lat="44.10487" lon="6.99111">
        <ele>1572</ele>
        <time>2019-05-11T13:23:48.179Z</time>
      </trkpt>
      <trkpt lat="44.10483" lon="6.99107">
        <ele>1558</ele>
        <time>2019-05-11T13:24:02.179Z</time>
      </trkpt>
      <trkpt lat="44.10481" lon="6.99106">
        <ele>1558</ele>
        <time>2019-05-11T13:24:07.159Z</time>
      </trkpt>
      <trkpt lat="44.1048" lon="6.99105">
        <ele>1558</ele>
        <time>2019-05-11T13:24:12.159Z</time>
      </trkpt>
      <trkpt lat="44.10478" lon="6.99107">
        <ele>1558</ele>
        <time>2019-05-11T13:24:17.178Z</time>
      </trkpt>
      <trkpt lat="44.10475" lon="6.99104">
        <ele>1558</ele>
        <time>2019-05-11T13:24:22.159Z</time>
      </trkpt>
      <trkpt lat="44.10469" lon="6.99101">
        <ele>1558</ele>
        <time>2019-05-11T13:24:42.158Z</time>
      </trkpt>
      <trkpt lat="44.10471" lon="6.99096">
        <ele>1550</ele>
        <time>2019-05-11T13:24:47.160Z</time>
      </trkpt>
      <trkpt lat="44.10471" lon="6.99088">
        <ele>1550</ele>
        <time>2019-05-11T13:24:52.163Z</time>
      </trkpt>
      <trkpt lat="44.1047" lon="6.99086">
        <ele>1550</ele>
        <time>2019-05-11T13:24:57.159Z</time>
      </trkpt>
      <trkpt lat="44.10465" lon="6.99084">
        <ele>1550</ele>
        <time>2019-05-11T13:25:02.157Z</time>
      </trkpt>
      <trkpt lat="44.10464" lon="6.99081">
        <ele>1550</ele>
        <time>2019-05-11T13:25:07.177Z</time>
      </trkpt>
      <trkpt lat="44.10463" lon="6.99076">
        <ele>1550</ele>
        <time>2019-05-11T13:25:12.178Z</time>
      </trkpt>
      <trkpt lat="44.10464" lon="6.99069">
        <ele>1550</ele>
        <time>2019-05-11T13:25:17.157Z</time>
      </trkpt>
      <trkpt lat="44.10465" lon="6.99069">
        <ele>1544</ele>
        <time>2019-05-11T13:25:22.167Z</time>
      </trkpt>
      <trkpt lat="44.1046" lon="6.99056">
        <ele>1544</ele>
        <time>2019-05-11T13:25:37.179Z</time>
      </trkpt>
      <trkpt lat="44.10458" lon="6.9905">
        <ele>1544</ele>
        <time>2019-05-11T13:25:42.156Z</time>
      </trkpt>
      <trkpt lat="44.10459" lon="6.9905">
        <ele>1544</ele>
        <time>2019-05-11T13:25:47.163Z</time>
      </trkpt>
      <trkpt lat="44.10457" lon="6.99048">
        <ele>1529</ele>
        <time>2019-05-11T13:25:52.178Z</time>
      </trkpt>
      <trkpt lat="44.10457" lon="6.99045">
        <ele>1529</ele>
        <time>2019-05-11T13:25:57.164Z</time>
      </trkpt>
      <trkpt lat="44.10457" lon="6.99042">
        <ele>1529</ele>
        <time>2019-05-11T13:26:02.168Z</time>
      </trkpt>
      <trkpt lat="44.10456" lon="6.9904">
        <ele>1521</ele>
        <time>2019-05-11T13:26:07.182Z</time>
      </trkpt>
      <trkpt lat="44.10453" lon="6.99038">
        <ele>1521</ele>
        <time>2019-05-11T13:26:12.160Z</time>
      </trkpt>
      <trkpt lat="44.10451" lon="6.99036">
        <ele>1521</ele>
        <time>2019-05-11T13:26:17.160Z</time>
      </trkpt>
      <trkpt lat="44.10449" lon="6.99033">
        <ele>1521</ele>
        <time>2019-05-11T13:26:22.170Z</time>
      </trkpt>
      <trkpt lat="44.10446" lon="6.99031">
        <ele>1521</ele>
        <time>2019-05-11T13:26:32.167Z</time>
      </trkpt>
      <trkpt lat="44.10446" lon="6.99031">
        <ele>1521</ele>
        <time>2019-05-11T13:26:37.167Z</time>
      </trkpt>
      <trkpt lat="44.10444" lon="6.9903">
        <ele>1521</ele>
        <time>2019-05-11T13:26:42.162Z</time>
      </trkpt>
      <trkpt lat="44.10442" lon="6.99026">
        <ele>1521</ele>
        <time>2019-05-11T13:26:47.180Z</time>
      </trkpt>
      <trkpt lat="44.10439" lon="6.99025">
        <ele>1521</ele>
        <time>2019-05-11T13:26:52.184Z</time>
      </trkpt>
      <trkpt lat="44.10435" lon="6.99024">
        <ele>1521</ele>
        <time>2019-05-11T13:27:02.183Z</time>
      </trkpt>
      <trkpt lat="44.10433" lon="6.99023">
        <ele>1521</ele>
        <time>2019-05-11T13:27:07.163Z</time>
      </trkpt>
      <trkpt lat="44.10431" lon="6.99022">
        <ele>1521</ele>
        <time>2019-05-11T13:27:12.197Z</time>
      </trkpt>
      <trkpt lat="44.10429" lon="6.99024">
        <ele>1511</ele>
        <time>2019-05-11T13:27:17.194Z</time>
      </trkpt>
      <trkpt lat="44.10425" lon="6.99024">
        <ele>1511</ele>
        <time>2019-05-11T13:27:22.168Z</time>
      </trkpt>
      <trkpt lat="44.10422" lon="6.99024">
        <ele>1511</ele>
        <time>2019-05-11T13:27:32.162Z</time>
      </trkpt>
      <trkpt lat="44.10419" lon="6.99022">
        <ele>1511</ele>
        <time>2019-05-11T13:27:37.165Z</time>
      </trkpt>
      <trkpt lat="44.10419" lon="6.99022">
        <ele>1511</ele>
        <time>2019-05-11T13:27:42.169Z</time>
      </trkpt>
      <trkpt lat="44.10415" lon="6.99023">
        <ele>1511</ele>
        <time>2019-05-11T13:27:47.170Z</time>
      </trkpt>
      <trkpt lat="44.10413" lon="6.99023">
        <ele>1511</ele>
        <time>2019-05-11T13:27:52.168Z</time>
      </trkpt>
      <trkpt lat="44.1041" lon="6.99025">
        <ele>1511</ele>
        <time>2019-05-11T13:28:17.157Z</time>
      </trkpt>
      <trkpt lat="44.10409" lon="6.99022">
        <ele>1511</ele>
        <time>2019-05-11T13:28:22.157Z</time>
      </trkpt>
      <trkpt lat="44.10409" lon="6.99019">
        <ele>1511</ele>
        <time>2019-05-11T13:28:27.170Z</time>
      </trkpt>
      <trkpt lat="44.10407" lon="6.99016">
        <ele>1511</ele>
        <time>2019-05-11T13:28:32.183Z</time>
      </trkpt>
      <trkpt lat="44.10406" lon="6.99012">
        <ele>1504</ele>
        <time>2019-05-11T13:28:37.155Z</time>
      </trkpt>
      <trkpt lat="44.10401" lon="6.99003">
        <ele>1498</ele>
        <time>2019-05-11T13:29:22.166Z</time>
      </trkpt>
      <trkpt lat="44.104" lon="6.99004">
        <ele>1498</ele>
        <time>2019-05-11T13:29:27.154Z</time>
      </trkpt>
      <trkpt lat="44.10398" lon="6.99001">
        <ele>1498</ele>
        <time>2019-05-11T13:29:32.157Z</time>
      </trkpt>
      <trkpt lat="44.10398" lon="6.98999">
        <ele>1498</ele>
        <time>2019-05-11T13:29:37.152Z</time>
      </trkpt>
      <trkpt lat="44.10397" lon="6.98998">
        <ele>1498</ele>
        <time>2019-05-11T13:29:42.162Z</time>
      </trkpt>
      <trkpt lat="44.10391" lon="6.98987">
        <ele>1498</ele>
        <time>2019-05-11T13:30:32.163Z</time>
      </trkpt>
      <trkpt lat="44.1039" lon="6.98986">
        <ele>1491</ele>
        <time>2019-05-11T13:30:37.161Z</time>
      </trkpt>
      <trkpt lat="44.10387" lon="6.98985">
        <ele>1491</ele>
        <time>2019-05-11T13:30:42.167Z</time>
      </trkpt>
      <trkpt lat="44.10386" lon="6.98982">
        <ele>1491</ele>
        <time>2019-05-11T13:30:47.207Z</time>
      </trkpt>
      <trkpt lat="44.10384" lon="6.98977">
        <ele>1491</ele>
        <time>2019-05-11T13:30:52.154Z</time>
      </trkpt>
      <trkpt lat="44.10383" lon="6.98974">
        <ele>1491</ele>
        <time>2019-05-11T13:30:57.156Z</time>
      </trkpt>
      <trkpt lat="44.10383" lon="6.98972">
        <ele>1491</ele>
        <time>2019-05-11T13:31:02.171Z</time>
      </trkpt>
      <trkpt lat="44.10383" lon="6.9897">
        <ele>1491</ele>
        <time>2019-05-11T13:31:07.153Z</time>
      </trkpt>
      <trkpt lat="44.10381" lon="6.98965">
        <ele>1491</ele>
        <time>2019-05-11T13:31:12.158Z</time>
      </trkpt>
      <trkpt lat="44.10383" lon="6.98961">
        <ele>1491</ele>
        <time>2019-05-11T13:31:16.181Z</time>
      </trkpt>
      <trkpt lat="44.10385" lon="6.98956">
        <ele>1484</ele>
        <time>2019-05-11T13:31:21.144Z</time>
      </trkpt>
      <trkpt lat="44.10389" lon="6.98953">
        <ele>1484</ele>
        <time>2019-05-11T13:31:25.169Z</time>
      </trkpt>
      <trkpt lat="44.10393" lon="6.98948">
        <ele>1484</ele>
        <time>2019-05-11T13:31:30.183Z</time>
      </trkpt>
      <trkpt lat="44.10396" lon="6.98944">
        <ele>1484</ele>
        <time>2019-05-11T13:31:35.181Z</time>
      </trkpt>
      <trkpt lat="44.10399" lon="6.98938">
        <ele>1484</ele>
        <time>2019-05-11T13:31:40.167Z</time>
      </trkpt>
      <trkpt lat="44.10401" lon="6.98933">
        <ele>1484</ele>
        <time>2019-05-11T13:31:45.155Z</time>
      </trkpt>
      <trkpt lat="44.10403" lon="6.98925">
        <ele>1477</ele>
        <time>2019-05-11T13:31:50.159Z</time>
      </trkpt>
      <trkpt lat="44.10402" lon="6.9892">
        <ele>1477</ele>
        <time>2019-05-11T13:31:55.153Z</time>
      </trkpt>
      <trkpt lat="44.10402" lon="6.98917">
        <ele>1477</ele>
        <time>2019-05-11T13:32:00.159Z</time>
      </trkpt>
      <trkpt lat="44.10402" lon="6.98912">
        <ele>1477</ele>
        <time>2019-05-11T13:32:05.159Z</time>
      </trkpt>
      <trkpt lat="44.10402" lon="6.98906">
        <ele>1477</ele>
        <time>2019-05-11T13:32:09.175Z</time>
      </trkpt>
      <trkpt lat="44.10402" lon="6.989">
        <ele>1471</ele>
        <time>2019-05-11T13:32:14.158Z</time>
      </trkpt>
      <trkpt lat="44.10401" lon="6.98895">
        <ele>1471</ele>
        <time>2019-05-11T13:32:19.170Z</time>
      </trkpt>
      <trkpt lat="44.10401" lon="6.98891">
        <ele>1471</ele>
        <time>2019-05-11T13:32:24.155Z</time>
      </trkpt>
      <trkpt lat="44.10402" lon="6.98887">
        <ele>1471</ele>
        <time>2019-05-11T13:32:28.187Z</time>
      </trkpt>
      <trkpt lat="44.10404" lon="6.98879">
        <ele>1481</ele>
        <time>2019-05-11T13:32:33.160Z</time>
      </trkpt>
      <trkpt lat="44.10405" lon="6.98871">
        <ele>1472</ele>
        <time>2019-05-11T13:32:38.155Z</time>
      </trkpt>
      <trkpt lat="44.10406" lon="6.98865">
        <ele>1472</ele>
        <time>2019-05-11T13:32:43.165Z</time>
      </trkpt>
      <trkpt lat="44.10408" lon="6.98862">
        <ele>1472</ele>
        <time>2019-05-11T13:32:48.157Z</time>
      </trkpt>
      <trkpt lat="44.10408" lon="6.98857">
        <ele>1472</ele>
        <time>2019-05-11T13:32:52.184Z</time>
      </trkpt>
      <trkpt lat="44.1041" lon="6.98852">
        <ele>1472</ele>
        <time>2019-05-11T13:32:57.156Z</time>
      </trkpt>
      <trkpt lat="44.10413" lon="6.98847">
        <ele>1472</ele>
        <time>2019-05-11T13:33:02.155Z</time>
      </trkpt>
      <trkpt lat="44.10419" lon="6.98843">
        <ele>1465</ele>
        <time>2019-05-11T13:33:07.156Z</time>
      </trkpt>
      <trkpt lat="44.10424" lon="6.98841">
        <ele>1465</ele>
        <time>2019-05-11T13:33:12.158Z</time>
      </trkpt>
      <trkpt lat="44.10434" lon="6.98835">
        <ele>1466</ele>
        <time>2019-05-11T13:33:37.161Z</time>
      </trkpt>
      <trkpt lat="44.10433" lon="6.98832">
        <ele>1466</ele>
        <time>2019-05-11T13:33:42.164Z</time>
      </trkpt>
      <trkpt lat="44.10434" lon="6.98832">
        <ele>1466</ele>
        <time>2019-05-11T13:33:46.165Z</time>
      </trkpt>
      <trkpt lat="44.10434" lon="6.98831">
        <ele>1466</ele>
        <time>2019-05-11T13:33:51.154Z</time>
      </trkpt>
      <trkpt lat="44.10434" lon="6.98828">
        <ele>1466</ele>
        <time>2019-05-11T13:33:56.167Z</time>
      </trkpt>
      <trkpt lat="44.10438" lon="6.98824">
        <ele>1466</ele>
        <time>2019-05-11T13:35:00.155Z</time>
      </trkpt>
      <trkpt lat="44.10439" lon="6.98824">
        <ele>1466</ele>
        <time>2019-05-11T13:35:05.153Z</time>
      </trkpt>
      <trkpt lat="44.10439" lon="6.98823">
        <ele>1466</ele>
        <time>2019-05-11T13:35:10.152Z</time>
      </trkpt>
      <trkpt lat="44.10438" lon="6.98821">
        <ele>1466</ele>
        <time>2019-05-11T13:35:15.152Z</time>
      </trkpt>
      <trkpt lat="44.1044" lon="6.98822">
        <ele>1466</ele>
        <time>2019-05-11T13:35:20.155Z</time>
      </trkpt>
      <trkpt lat="44.10439" lon="6.98822">
        <ele>1466</ele>
        <time>2019-05-11T13:35:25.157Z</time>
      </trkpt>
      <trkpt lat="44.10437" lon="6.98818">
        <ele>1454</ele>
        <time>2019-05-11T13:35:30.159Z</time>
      </trkpt>
      <trkpt lat="44.10437" lon="6.98815">
        <ele>1454</ele>
        <time>2019-05-11T13:35:35.154Z</time>
      </trkpt>
      <trkpt lat="44.10439" lon="6.98811">
        <ele>1454</ele>
        <time>2019-05-11T13:35:40.146Z</time>
      </trkpt>
      <trkpt lat="44.1044" lon="6.98809">
        <ele>1454</ele>
        <time>2019-05-11T13:35:45.144Z</time>
      </trkpt>
      <trkpt lat="44.10443" lon="6.98812">
        <ele>1454</ele>
        <time>2019-05-11T13:35:50.161Z</time>
      </trkpt>
      <trkpt lat="44.10448" lon="6.98814">
        <ele>1454</ele>
        <time>2019-05-11T13:35:55.146Z</time>
      </trkpt>
      <trkpt lat="44.10453" lon="6.98813">
        <ele>1454</ele>
        <time>2019-05-11T13:36:00.147Z</time>
      </trkpt>
      <trkpt lat="44.10457" lon="6.98809">
        <ele>1454</ele>
        <time>2019-05-11T13:36:05.138Z</time>
      </trkpt>
      <trkpt lat="44.10459" lon="6.98805">
        <ele>1458</ele>
        <time>2019-05-11T13:36:14.152Z</time>
      </trkpt>
      <trkpt lat="44.10459" lon="6.98805">
        <ele>1458</ele>
        <time>2019-05-11T13:36:19.143Z</time>
      </trkpt>
      <trkpt lat="44.10459" lon="6.98799">
        <ele>1458</ele>
        <time>2019-05-11T13:36:24.144Z</time>
      </trkpt>
      <trkpt lat="44.10458" lon="6.98797">
        <ele>1454</ele>
        <time>2019-05-11T13:36:29.167Z</time>
      </trkpt>
      <trkpt lat="44.10464" lon="6.98794">
        <ele>1458</ele>
        <time>2019-05-11T13:36:34.152Z</time>
      </trkpt>
      <trkpt lat="44.10472" lon="6.98795">
        <ele>1458</ele>
        <time>2019-05-11T13:36:39.145Z</time>
      </trkpt>
      <trkpt lat="44.10477" lon="6.98794">
        <ele>1458</ele>
        <time>2019-05-11T13:36:43.165Z</time>
      </trkpt>
      <trkpt lat="44.10482" lon="6.98792">
        <ele>1458</ele>
        <time>2019-05-11T13:36:48.143Z</time>
      </trkpt>
      <trkpt lat="44.10487" lon="6.98791">
        <ele>1447</ele>
        <time>2019-05-11T13:36:53.142Z</time>
      </trkpt>
      <trkpt lat="44.10486" lon="6.98792">
        <ele>1459</ele>
        <time>2019-05-11T13:37:13.153Z</time>
      </trkpt>
      <trkpt lat="44.1049" lon="6.98787">
        <ele>1447</ele>
        <time>2019-05-11T13:37:18.146Z</time>
      </trkpt>
      <trkpt lat="44.10491" lon="6.98787">
        <ele>1447</ele>
        <time>2019-05-11T13:37:23.154Z</time>
      </trkpt>
      <trkpt lat="44.10493" lon="6.98785">
        <ele>1447</ele>
        <time>2019-05-11T13:37:28.151Z</time>
      </trkpt>
      <trkpt lat="44.10495" lon="6.9878">
        <ele>1447</ele>
        <time>2019-05-11T13:37:33.159Z</time>
      </trkpt>
      <trkpt lat="44.10498" lon="6.98773">
        <ele>1447</ele>
        <time>2019-05-11T13:38:15.192Z</time>
      </trkpt>
      <trkpt lat="44.10499" lon="6.98766">
        <ele>1447</ele>
        <time>2019-05-11T13:38:20.134Z</time>
      </trkpt>
      <trkpt lat="44.105" lon="6.9876">
        <ele>1440</ele>
        <time>2019-05-11T13:38:25.145Z</time>
      </trkpt>
      <trkpt lat="44.10499" lon="6.9875">
        <ele>1440</ele>
        <time>2019-05-11T13:38:30.138Z</time>
      </trkpt>
      <trkpt lat="44.105" lon="6.98742">
        <ele>1440</ele>
        <time>2019-05-11T13:38:35.141Z</time>
      </trkpt>
      <trkpt lat="44.10501" lon="6.98735">
        <ele>1440</ele>
        <time>2019-05-11T13:38:40.156Z</time>
      </trkpt>
      <trkpt lat="44.105" lon="6.98726">
        <ele>1440</ele>
        <time>2019-05-11T13:38:45.141Z</time>
      </trkpt>
      <trkpt lat="44.105" lon="6.98718">
        <ele>1440</ele>
        <time>2019-05-11T13:38:50.141Z</time>
      </trkpt>
      <trkpt lat="44.10497" lon="6.9871">
        <ele>1440</ele>
        <time>2019-05-11T13:38:54.149Z</time>
      </trkpt>
      <trkpt lat="44.10497" lon="6.98706">
        <ele>1443</ele>
        <time>2019-05-11T13:38:58.183Z</time>
      </trkpt>
      <trkpt lat="44.10497" lon="6.98698">
        <ele>1443</ele>
        <time>2019-05-11T13:39:03.142Z</time>
      </trkpt>
      <trkpt lat="44.10499" lon="6.98694">
        <ele>1443</ele>
        <time>2019-05-11T13:39:08.166Z</time>
      </trkpt>
      <trkpt lat="44.10502" lon="6.98693">
        <ele>1443</ele>
        <time>2019-05-11T13:39:13.141Z</time>
      </trkpt>
      <trkpt lat="44.10508" lon="6.9869">
        <ele>1443</ele>
        <time>2019-05-11T13:39:18.159Z</time>
      </trkpt>
      <trkpt lat="44.10514" lon="6.98687">
        <ele>1443</ele>
        <time>2019-05-11T13:39:23.153Z</time>
      </trkpt>
      <trkpt lat="44.10518" lon="6.98685">
        <ele>1448</ele>
        <time>2019-05-11T13:39:28.180Z</time>
      </trkpt>
      <trkpt lat="44.10519" lon="6.98684">
        <ele>1448</ele>
        <time>2019-05-11T13:39:33.141Z</time>
      </trkpt>
    </trkseg>
  </trk>
</gpx>